<?xml version="1.0" encoding="UTF-8" standalone="no" ?>
<gpx xmlns="http://www.topografix.com/GPX/1/1" xmlns:xsi="http://www.w3.org/2001/XMLSchema-instance" xsi:schemaLocation="http://www.topografix.com/GPX/1/1 http://www.topografix.com/GPX/1/1/gpx.xsd" version="1.1" creator="VisuGPX - https://www.visugpx.com">
  <metadata>
    <name>Burnhaupt-le-Haut 30.10.22</name>
    <desc><![CDATA[Burnhaupt le Haut - le Bas - Gildwiller - Falkwiller - Traubach le Haut - Bréchaumont - Vauthiermont - Angeot - La Chapelle sous Rougemont - Petite Fontaine - Laval - Rougemont le Chateau - Masevaux - Lauw - Sentheim - Guewenheim - Burnhaupt le Haut
]]></desc>
  </metadata>
  <trk>
    <name><![CDATA[Burnhaupt-le-Haut]]></name>
    <trkseg>
      <trkpt lat="47.73981" lon="7.1452">
        <ele>255.280365</ele>
        <time>2022-10-30T12:54:50Z</time>
      </trkpt>
      <trkpt lat="47.73982" lon="7.14515">
        <ele>259.060333</ele>
        <time>2022-10-30T12:54:52Z</time>
      </trkpt>
      <trkpt lat="47.74006" lon="7.14393">
        <ele>262.848999</ele>
        <time>2022-10-30T12:54:54Z</time>
      </trkpt>
      <trkpt lat="47.74004" lon="7.14394">
        <ele>266.609314</ele>
        <time>2022-10-30T12:54:56Z</time>
      </trkpt>
      <trkpt lat="47.74003" lon="7.14395">
        <ele>270.378113</ele>
        <time>2022-10-30T12:54:58Z</time>
      </trkpt>
      <trkpt lat="47.74008" lon="7.14402">
        <ele>306.805359</ele>
        <time>2022-10-30T12:56:21Z</time>
      </trkpt>
      <trkpt lat="47.74017" lon="7.14407">
        <ele>306.792542</ele>
        <time>2022-10-30T12:56:23Z</time>
      </trkpt>
      <trkpt lat="47.74019" lon="7.14408">
        <ele>306.807434</ele>
        <time>2022-10-30T12:56:25Z</time>
      </trkpt>
      <trkpt lat="47.74018" lon="7.14407">
        <ele>306.903259</ele>
        <time>2022-10-30T12:56:49Z</time>
      </trkpt>
      <trkpt lat="47.7401" lon="7.14407">
        <ele>306.854126</ele>
        <time>2022-10-30T12:56:51Z</time>
      </trkpt>
      <trkpt lat="47.74007" lon="7.14417">
        <ele>306.900574</ele>
        <time>2022-10-30T12:56:53Z</time>
      </trkpt>
      <trkpt lat="47.74004" lon="7.14428">
        <ele>306.907532</ele>
        <time>2022-10-30T12:56:55Z</time>
      </trkpt>
      <trkpt lat="47.73998" lon="7.14439">
        <ele>306.950134</ele>
        <time>2022-10-30T12:56:57Z</time>
      </trkpt>
      <trkpt lat="47.73991" lon="7.14449">
        <ele>306.911774</ele>
        <time>2022-10-30T12:56:59Z</time>
      </trkpt>
      <trkpt lat="47.73985" lon="7.1446">
        <ele>306.907532</ele>
        <time>2022-10-30T12:57:01Z</time>
      </trkpt>
      <trkpt lat="47.73982" lon="7.14473">
        <ele>306.924225</ele>
        <time>2022-10-30T12:57:03Z</time>
      </trkpt>
      <trkpt lat="47.7398" lon="7.14489">
        <ele>306.909332</ele>
        <time>2022-10-30T12:57:05Z</time>
      </trkpt>
      <trkpt lat="47.73977" lon="7.14505">
        <ele>306.847504</ele>
        <time>2022-10-30T12:57:07Z</time>
      </trkpt>
      <trkpt lat="47.73975" lon="7.1452">
        <ele>306.820251</ele>
        <time>2022-10-30T12:57:09Z</time>
      </trkpt>
      <trkpt lat="47.73972" lon="7.14535">
        <ele>306.764252</ele>
        <time>2022-10-30T12:57:11Z</time>
      </trkpt>
      <trkpt lat="47.7397" lon="7.1455">
        <ele>306.77066</ele>
        <time>2022-10-30T12:57:13Z</time>
      </trkpt>
      <trkpt lat="47.73967" lon="7.14564">
        <ele>306.722412</ele>
        <time>2022-10-30T12:57:15Z</time>
      </trkpt>
      <trkpt lat="47.73966" lon="7.14578">
        <ele>306.681946</ele>
        <time>2022-10-30T12:57:17Z</time>
      </trkpt>
      <trkpt lat="47.73964" lon="7.14592">
        <ele>306.614807</ele>
        <time>2022-10-30T12:57:19Z</time>
      </trkpt>
      <trkpt lat="47.73963" lon="7.14606">
        <ele>306.542389</ele>
        <time>2022-10-30T12:57:21Z</time>
      </trkpt>
      <trkpt lat="47.73965" lon="7.14618">
        <ele>306.467834</ele>
        <time>2022-10-30T12:57:23Z</time>
      </trkpt>
      <trkpt lat="47.73966" lon="7.14628">
        <ele>306.406677</ele>
        <time>2022-10-30T12:57:25Z</time>
      </trkpt>
      <trkpt lat="47.73966" lon="7.14639">
        <ele>306.33429</ele>
        <time>2022-10-30T12:57:27Z</time>
      </trkpt>
      <trkpt lat="47.73967" lon="7.14647">
        <ele>306.28009</ele>
        <time>2022-10-30T12:57:29Z</time>
      </trkpt>
      <trkpt lat="47.73968" lon="7.14653">
        <ele>306.201385</ele>
        <time>2022-10-30T12:57:31Z</time>
      </trkpt>
      <trkpt lat="47.73969" lon="7.14658">
        <ele>306.08493</ele>
        <time>2022-10-30T12:57:33Z</time>
      </trkpt>
      <trkpt lat="47.73966" lon="7.14656">
        <ele>304.900238</ele>
        <time>2022-10-30T12:58:56Z</time>
      </trkpt>
      <trkpt lat="47.73964" lon="7.14652">
        <ele>304.891724</ele>
        <time>2022-10-30T12:58:58Z</time>
      </trkpt>
      <trkpt lat="47.73963" lon="7.14649">
        <ele>304.884491</ele>
        <time>2022-10-30T12:59:00Z</time>
      </trkpt>
      <trkpt lat="47.73961" lon="7.14648">
        <ele>304.900757</ele>
        <time>2022-10-30T12:59:02Z</time>
      </trkpt>
      <trkpt lat="47.73958" lon="7.14649">
        <ele>304.898651</ele>
        <time>2022-10-30T12:59:04Z</time>
      </trkpt>
      <trkpt lat="47.73959" lon="7.14651">
        <ele>304.872009</ele>
        <time>2022-10-30T12:59:06Z</time>
      </trkpt>
      <trkpt lat="47.73961" lon="7.14654">
        <ele>304.522644</ele>
        <time>2022-10-30T13:02:52Z</time>
      </trkpt>
      <trkpt lat="47.73964" lon="7.14666">
        <ele>304.538513</ele>
        <time>2022-10-30T13:02:54Z</time>
      </trkpt>
      <trkpt lat="47.73963" lon="7.14674">
        <ele>304.591766</ele>
        <time>2022-10-30T13:02:56Z</time>
      </trkpt>
      <trkpt lat="47.73962" lon="7.14683">
        <ele>304.634369</ele>
        <time>2022-10-30T13:02:58Z</time>
      </trkpt>
      <trkpt lat="47.73961" lon="7.14689">
        <ele>304.613098</ele>
        <time>2022-10-30T13:03:00Z</time>
      </trkpt>
      <trkpt lat="47.73959" lon="7.14694">
        <ele>304.627991</ele>
        <time>2022-10-30T13:03:02Z</time>
      </trkpt>
      <trkpt lat="47.73955" lon="7.14698">
        <ele>304.602417</ele>
        <time>2022-10-30T13:03:04Z</time>
      </trkpt>
      <trkpt lat="47.7395" lon="7.14701">
        <ele>304.596008</ele>
        <time>2022-10-30T13:03:06Z</time>
      </trkpt>
      <trkpt lat="47.73943" lon="7.14705">
        <ele>304.60144</ele>
        <time>2022-10-30T13:03:08Z</time>
      </trkpt>
      <trkpt lat="47.73937" lon="7.14707">
        <ele>304.590912</ele>
        <time>2022-10-30T13:03:10Z</time>
      </trkpt>
      <trkpt lat="47.7393" lon="7.14709">
        <ele>304.593048</ele>
        <time>2022-10-30T13:03:12Z</time>
      </trkpt>
      <trkpt lat="47.73923" lon="7.1471">
        <ele>304.593048</ele>
        <time>2022-10-30T13:03:14Z</time>
      </trkpt>
      <trkpt lat="47.73916" lon="7.14712">
        <ele>304.565369</ele>
        <time>2022-10-30T13:03:16Z</time>
      </trkpt>
      <trkpt lat="47.73908" lon="7.14713">
        <ele>304.570404</ele>
        <time>2022-10-30T13:03:18Z</time>
      </trkpt>
      <trkpt lat="47.73901" lon="7.14715">
        <ele>304.583191</ele>
        <time>2022-10-30T13:03:20Z</time>
      </trkpt>
      <trkpt lat="47.73893" lon="7.14717">
        <ele>304.544861</ele>
        <time>2022-10-30T13:03:22Z</time>
      </trkpt>
      <trkpt lat="47.73885" lon="7.14719">
        <ele>304.510803</ele>
        <time>2022-10-30T13:03:24Z</time>
      </trkpt>
      <trkpt lat="47.73877" lon="7.1472">
        <ele>304.494324</ele>
        <time>2022-10-30T13:03:26Z</time>
      </trkpt>
      <trkpt lat="47.73869" lon="7.14721">
        <ele>304.462006</ele>
        <time>2022-10-30T13:03:28Z</time>
      </trkpt>
      <trkpt lat="47.73859" lon="7.14723">
        <ele>304.439972</ele>
        <time>2022-10-30T13:03:30Z</time>
      </trkpt>
      <trkpt lat="47.73851" lon="7.14724">
        <ele>304.416534</ele>
        <time>2022-10-30T13:03:32Z</time>
      </trkpt>
      <trkpt lat="47.73842" lon="7.14726">
        <ele>304.382446</ele>
        <time>2022-10-30T13:03:34Z</time>
      </trkpt>
      <trkpt lat="47.73834" lon="7.14728">
        <ele>304.333466</ele>
        <time>2022-10-30T13:03:36Z</time>
      </trkpt>
      <trkpt lat="47.73826" lon="7.14729">
        <ele>304.316467</ele>
        <time>2022-10-30T13:03:38Z</time>
      </trkpt>
      <trkpt lat="47.73817" lon="7.14731">
        <ele>304.337738</ele>
        <time>2022-10-30T13:03:40Z</time>
      </trkpt>
      <trkpt lat="47.73808" lon="7.14734">
        <ele>304.316467</ele>
        <time>2022-10-30T13:03:42Z</time>
      </trkpt>
      <trkpt lat="47.73798" lon="7.14736">
        <ele>304.32074</ele>
        <time>2022-10-30T13:03:44Z</time>
      </trkpt>
      <trkpt lat="47.73787" lon="7.14739">
        <ele>304.284515</ele>
        <time>2022-10-30T13:03:46Z</time>
      </trkpt>
      <trkpt lat="47.73776" lon="7.14741">
        <ele>304.299866</ele>
        <time>2022-10-30T13:03:48Z</time>
      </trkpt>
      <trkpt lat="47.73766" lon="7.14743">
        <ele>304.261719</ele>
        <time>2022-10-30T13:03:50Z</time>
      </trkpt>
      <trkpt lat="47.73756" lon="7.14746">
        <ele>304.267181</ele>
        <time>2022-10-30T13:03:52Z</time>
      </trkpt>
      <trkpt lat="47.73745" lon="7.14748">
        <ele>304.269714</ele>
        <time>2022-10-30T13:03:54Z</time>
      </trkpt>
      <trkpt lat="47.73736" lon="7.1475">
        <ele>304.278229</ele>
        <time>2022-10-30T13:03:56Z</time>
      </trkpt>
      <trkpt lat="47.73727" lon="7.14752">
        <ele>304.327209</ele>
        <time>2022-10-30T13:03:58Z</time>
      </trkpt>
      <trkpt lat="47.73717" lon="7.14754">
        <ele>304.30304</ele>
        <time>2022-10-30T13:04:00Z</time>
      </trkpt>
      <trkpt lat="47.73708" lon="7.14756">
        <ele>304.292389</ele>
        <time>2022-10-30T13:04:02Z</time>
      </trkpt>
      <trkpt lat="47.73699" lon="7.14758">
        <ele>304.286896</ele>
        <time>2022-10-30T13:04:04Z</time>
      </trkpt>
      <trkpt lat="47.7369" lon="7.1476">
        <ele>304.276245</ele>
        <time>2022-10-30T13:04:06Z</time>
      </trkpt>
      <trkpt lat="47.73681" lon="7.14762">
        <ele>304.298309</ele>
        <time>2022-10-30T13:04:08Z</time>
      </trkpt>
      <trkpt lat="47.73671" lon="7.14764">
        <ele>304.305237</ele>
        <time>2022-10-30T13:04:10Z</time>
      </trkpt>
      <trkpt lat="47.73661" lon="7.14766">
        <ele>304.267639</ele>
        <time>2022-10-30T13:04:12Z</time>
      </trkpt>
      <trkpt lat="47.73652" lon="7.14768">
        <ele>304.289093</ele>
        <time>2022-10-30T13:04:14Z</time>
      </trkpt>
      <trkpt lat="47.73642" lon="7.1477">
        <ele>304.285217</ele>
        <time>2022-10-30T13:04:16Z</time>
      </trkpt>
      <trkpt lat="47.73633" lon="7.14772">
        <ele>304.334198</ele>
        <time>2022-10-30T13:04:18Z</time>
      </trkpt>
      <trkpt lat="47.73624" lon="7.14773">
        <ele>304.339417</ele>
        <time>2022-10-30T13:04:20Z</time>
      </trkpt>
      <trkpt lat="47.73614" lon="7.14775">
        <ele>304.347961</ele>
        <time>2022-10-30T13:04:22Z</time>
      </trkpt>
      <trkpt lat="47.73605" lon="7.14776">
        <ele>304.336823</ele>
        <time>2022-10-30T13:04:24Z</time>
      </trkpt>
      <trkpt lat="47.73596" lon="7.14778">
        <ele>304.3703</ele>
        <time>2022-10-30T13:04:26Z</time>
      </trkpt>
      <trkpt lat="47.73587" lon="7.1478">
        <ele>304.415039</ele>
        <time>2022-10-30T13:04:28Z</time>
      </trkpt>
      <trkpt lat="47.73579" lon="7.14781">
        <ele>304.442322</ele>
        <time>2022-10-30T13:04:30Z</time>
      </trkpt>
      <trkpt lat="47.7357" lon="7.14782">
        <ele>304.510437</ele>
        <time>2022-10-30T13:04:32Z</time>
      </trkpt>
      <trkpt lat="47.73561" lon="7.14782">
        <ele>304.502838</ele>
        <time>2022-10-30T13:04:34Z</time>
      </trkpt>
      <trkpt lat="47.73552" lon="7.14781">
        <ele>304.517395</ele>
        <time>2022-10-30T13:04:36Z</time>
      </trkpt>
      <trkpt lat="47.73544" lon="7.1478">
        <ele>304.506744</ele>
        <time>2022-10-30T13:04:38Z</time>
      </trkpt>
      <trkpt lat="47.73534" lon="7.14778">
        <ele>304.476898</ele>
        <time>2022-10-30T13:04:40Z</time>
      </trkpt>
      <trkpt lat="47.73525" lon="7.14776">
        <ele>304.487549</ele>
        <time>2022-10-30T13:04:42Z</time>
      </trkpt>
      <trkpt lat="47.73515" lon="7.14773">
        <ele>304.531677</ele>
        <time>2022-10-30T13:04:44Z</time>
      </trkpt>
      <trkpt lat="47.73505" lon="7.14769">
        <ele>304.549255</ele>
        <time>2022-10-30T13:04:46Z</time>
      </trkpt>
      <trkpt lat="47.73495" lon="7.14766">
        <ele>304.614075</ele>
        <time>2022-10-30T13:04:48Z</time>
      </trkpt>
      <trkpt lat="47.73485" lon="7.14762">
        <ele>304.604675</ele>
        <time>2022-10-30T13:04:50Z</time>
      </trkpt>
      <trkpt lat="47.73475" lon="7.14759">
        <ele>304.655701</ele>
        <time>2022-10-30T13:04:52Z</time>
      </trkpt>
      <trkpt lat="47.73465" lon="7.14756">
        <ele>304.72113</ele>
        <time>2022-10-30T13:04:54Z</time>
      </trkpt>
      <trkpt lat="47.73455" lon="7.14752">
        <ele>304.757233</ele>
        <time>2022-10-30T13:04:56Z</time>
      </trkpt>
      <trkpt lat="47.73446" lon="7.14749">
        <ele>304.799469</ele>
        <time>2022-10-30T13:04:58Z</time>
      </trkpt>
      <trkpt lat="47.73436" lon="7.14745">
        <ele>304.795227</ele>
        <time>2022-10-30T13:05:00Z</time>
      </trkpt>
      <trkpt lat="47.73426" lon="7.14742">
        <ele>304.815582</ele>
        <time>2022-10-30T13:05:02Z</time>
      </trkpt>
      <trkpt lat="47.73415" lon="7.14737">
        <ele>304.867126</ele>
        <time>2022-10-30T13:05:04Z</time>
      </trkpt>
      <trkpt lat="47.73406" lon="7.14732">
        <ele>304.86499</ele>
        <time>2022-10-30T13:05:06Z</time>
      </trkpt>
      <trkpt lat="47.73396" lon="7.14728">
        <ele>304.875641</ele>
        <time>2022-10-30T13:05:08Z</time>
      </trkpt>
      <trkpt lat="47.73386" lon="7.14725">
        <ele>304.879883</ele>
        <time>2022-10-30T13:05:10Z</time>
      </trkpt>
      <trkpt lat="47.73377" lon="7.14724">
        <ele>304.863373</ele>
        <time>2022-10-30T13:05:12Z</time>
      </trkpt>
      <trkpt lat="47.73369" lon="7.14722">
        <ele>304.850586</ele>
        <time>2022-10-30T13:05:14Z</time>
      </trkpt>
      <trkpt lat="47.73362" lon="7.14721">
        <ele>304.871887</ele>
        <time>2022-10-30T13:05:16Z</time>
      </trkpt>
      <trkpt lat="47.73354" lon="7.1472">
        <ele>304.893158</ele>
        <time>2022-10-30T13:05:18Z</time>
      </trkpt>
      <trkpt lat="47.73346" lon="7.14718">
        <ele>304.95282</ele>
        <time>2022-10-30T13:05:20Z</time>
      </trkpt>
      <trkpt lat="47.73338" lon="7.14717">
        <ele>305.033752</ele>
        <time>2022-10-30T13:05:22Z</time>
      </trkpt>
      <trkpt lat="47.73329" lon="7.14716">
        <ele>305.091858</ele>
        <time>2022-10-30T13:05:24Z</time>
      </trkpt>
      <trkpt lat="47.7332" lon="7.14715">
        <ele>305.142395</ele>
        <time>2022-10-30T13:05:26Z</time>
      </trkpt>
      <trkpt lat="47.73311" lon="7.14714">
        <ele>305.205444</ele>
        <time>2022-10-30T13:05:28Z</time>
      </trkpt>
      <trkpt lat="47.73303" lon="7.14714">
        <ele>305.277924</ele>
        <time>2022-10-30T13:05:30Z</time>
      </trkpt>
      <trkpt lat="47.73295" lon="7.14714">
        <ele>305.339691</ele>
        <time>2022-10-30T13:05:32Z</time>
      </trkpt>
      <trkpt lat="47.73288" lon="7.14713">
        <ele>305.422607</ele>
        <time>2022-10-30T13:05:34Z</time>
      </trkpt>
      <trkpt lat="47.73281" lon="7.14713">
        <ele>305.534607</ele>
        <time>2022-10-30T13:05:36Z</time>
      </trkpt>
      <trkpt lat="47.73274" lon="7.14713">
        <ele>305.677338</ele>
        <time>2022-10-30T13:05:38Z</time>
      </trkpt>
      <trkpt lat="47.73267" lon="7.14713">
        <ele>305.860535</ele>
        <time>2022-10-30T13:05:40Z</time>
      </trkpt>
      <trkpt lat="47.73261" lon="7.14715">
        <ele>306.007874</ele>
        <time>2022-10-30T13:05:42Z</time>
      </trkpt>
      <trkpt lat="47.73254" lon="7.14717">
        <ele>306.218781</ele>
        <time>2022-10-30T13:05:44Z</time>
      </trkpt>
      <trkpt lat="47.73248" lon="7.14719">
        <ele>306.414154</ele>
        <time>2022-10-30T13:05:46Z</time>
      </trkpt>
      <trkpt lat="47.73241" lon="7.14722">
        <ele>306.653839</ele>
        <time>2022-10-30T13:05:48Z</time>
      </trkpt>
      <trkpt lat="47.73235" lon="7.14724">
        <ele>306.914368</ele>
        <time>2022-10-30T13:05:50Z</time>
      </trkpt>
      <trkpt lat="47.73228" lon="7.14728">
        <ele>307.18866</ele>
        <time>2022-10-30T13:05:52Z</time>
      </trkpt>
      <trkpt lat="47.73222" lon="7.14731">
        <ele>307.450684</ele>
        <time>2022-10-30T13:05:54Z</time>
      </trkpt>
      <trkpt lat="47.73215" lon="7.14735">
        <ele>307.723389</ele>
        <time>2022-10-30T13:05:56Z</time>
      </trkpt>
      <trkpt lat="47.73209" lon="7.14739">
        <ele>307.893829</ele>
        <time>2022-10-30T13:05:58Z</time>
      </trkpt>
      <trkpt lat="47.73201" lon="7.14742">
        <ele>308.171509</ele>
        <time>2022-10-30T13:06:00Z</time>
      </trkpt>
      <trkpt lat="47.73193" lon="7.14746">
        <ele>308.425049</ele>
        <time>2022-10-30T13:06:02Z</time>
      </trkpt>
      <trkpt lat="47.73186" lon="7.14751">
        <ele>308.69989</ele>
        <time>2022-10-30T13:06:04Z</time>
      </trkpt>
      <trkpt lat="47.73179" lon="7.14756">
        <ele>308.974792</ele>
        <time>2022-10-30T13:06:06Z</time>
      </trkpt>
      <trkpt lat="47.73172" lon="7.14762">
        <ele>309.263123</ele>
        <time>2022-10-30T13:06:08Z</time>
      </trkpt>
      <trkpt lat="47.73165" lon="7.14768">
        <ele>309.541687</ele>
        <time>2022-10-30T13:06:10Z</time>
      </trkpt>
      <trkpt lat="47.73158" lon="7.14775">
        <ele>309.782501</ele>
        <time>2022-10-30T13:06:12Z</time>
      </trkpt>
      <trkpt lat="47.73151" lon="7.14781">
        <ele>310.044739</ele>
        <time>2022-10-30T13:06:14Z</time>
      </trkpt>
      <trkpt lat="47.73145" lon="7.14788">
        <ele>310.31897</ele>
        <time>2022-10-30T13:06:16Z</time>
      </trkpt>
      <trkpt lat="47.73138" lon="7.14795">
        <ele>310.436157</ele>
        <time>2022-10-30T13:06:18Z</time>
      </trkpt>
      <trkpt lat="47.73131" lon="7.14802">
        <ele>310.65036</ele>
        <time>2022-10-30T13:06:20Z</time>
      </trkpt>
      <trkpt lat="47.73124" lon="7.1481">
        <ele>310.831482</ele>
        <time>2022-10-30T13:06:22Z</time>
      </trkpt>
      <trkpt lat="47.73117" lon="7.14816">
        <ele>311.029297</ele>
        <time>2022-10-30T13:06:24Z</time>
      </trkpt>
      <trkpt lat="47.73111" lon="7.14823">
        <ele>311.214722</ele>
        <time>2022-10-30T13:06:26Z</time>
      </trkpt>
      <trkpt lat="47.73103" lon="7.1483">
        <ele>311.373047</ele>
        <time>2022-10-30T13:06:28Z</time>
      </trkpt>
      <trkpt lat="47.73097" lon="7.14837">
        <ele>311.504089</ele>
        <time>2022-10-30T13:06:30Z</time>
      </trkpt>
      <trkpt lat="47.73089" lon="7.14845">
        <ele>311.634094</ele>
        <time>2022-10-30T13:06:32Z</time>
      </trkpt>
      <trkpt lat="47.73082" lon="7.14852">
        <ele>311.716949</ele>
        <time>2022-10-30T13:06:34Z</time>
      </trkpt>
      <trkpt lat="47.73074" lon="7.1486">
        <ele>311.797943</ele>
        <time>2022-10-30T13:06:36Z</time>
      </trkpt>
      <trkpt lat="47.73066" lon="7.14868">
        <ele>311.908752</ele>
        <time>2022-10-30T13:06:38Z</time>
      </trkpt>
      <trkpt lat="47.73058" lon="7.14875">
        <ele>311.959167</ele>
        <time>2022-10-30T13:06:40Z</time>
      </trkpt>
      <trkpt lat="47.7305" lon="7.14882">
        <ele>312.040161</ele>
        <time>2022-10-30T13:06:42Z</time>
      </trkpt>
      <trkpt lat="47.73042" lon="7.14889">
        <ele>312.071625</ele>
        <time>2022-10-30T13:06:44Z</time>
      </trkpt>
      <trkpt lat="47.73034" lon="7.14896">
        <ele>312.082306</ele>
        <time>2022-10-30T13:06:46Z</time>
      </trkpt>
      <trkpt lat="47.73026" lon="7.14903">
        <ele>312.099884</ele>
        <time>2022-10-30T13:06:48Z</time>
      </trkpt>
      <trkpt lat="47.73017" lon="7.1491">
        <ele>312.103424</ele>
        <time>2022-10-30T13:06:50Z</time>
      </trkpt>
      <trkpt lat="47.73008" lon="7.14917">
        <ele>312.08905</ele>
        <time>2022-10-30T13:06:52Z</time>
      </trkpt>
      <trkpt lat="47.72998" lon="7.14924">
        <ele>312.086914</ele>
        <time>2022-10-30T13:06:54Z</time>
      </trkpt>
      <trkpt lat="47.72989" lon="7.1493">
        <ele>312.048553</ele>
        <time>2022-10-30T13:06:56Z</time>
      </trkpt>
      <trkpt lat="47.7298" lon="7.14936">
        <ele>311.984619</ele>
        <time>2022-10-30T13:06:58Z</time>
      </trkpt>
      <trkpt lat="47.7297" lon="7.14941">
        <ele>311.953674</ele>
        <time>2022-10-30T13:07:00Z</time>
      </trkpt>
      <trkpt lat="47.7296" lon="7.14947">
        <ele>311.881226</ele>
        <time>2022-10-30T13:07:02Z</time>
      </trkpt>
      <trkpt lat="47.72951" lon="7.14952">
        <ele>311.785339</ele>
        <time>2022-10-30T13:07:04Z</time>
      </trkpt>
      <trkpt lat="47.72941" lon="7.14958">
        <ele>311.714996</ele>
        <time>2022-10-30T13:07:06Z</time>
      </trkpt>
      <trkpt lat="47.72931" lon="7.14963">
        <ele>311.631866</ele>
        <time>2022-10-30T13:07:08Z</time>
      </trkpt>
      <trkpt lat="47.7292" lon="7.14969">
        <ele>311.515564</ele>
        <time>2022-10-30T13:07:10Z</time>
      </trkpt>
      <trkpt lat="47.72909" lon="7.14975">
        <ele>311.355743</ele>
        <time>2022-10-30T13:07:12Z</time>
      </trkpt>
      <trkpt lat="47.72898" lon="7.14982">
        <ele>311.199799</ele>
        <time>2022-10-30T13:07:14Z</time>
      </trkpt>
      <trkpt lat="47.72886" lon="7.14988">
        <ele>311.131897</ele>
        <time>2022-10-30T13:07:16Z</time>
      </trkpt>
      <trkpt lat="47.72875" lon="7.14994">
        <ele>310.918823</ele>
        <time>2022-10-30T13:07:18Z</time>
      </trkpt>
      <trkpt lat="47.72866" lon="7.14999">
        <ele>310.641785</ele>
        <time>2022-10-30T13:07:20Z</time>
      </trkpt>
      <trkpt lat="47.7286" lon="7.15002">
        <ele>310.345642</ele>
        <time>2022-10-30T13:07:22Z</time>
      </trkpt>
      <trkpt lat="47.72855" lon="7.15005">
        <ele>310.076233</ele>
        <time>2022-10-30T13:07:24Z</time>
      </trkpt>
      <trkpt lat="47.72852" lon="7.15008">
        <ele>309.750702</ele>
        <time>2022-10-30T13:07:26Z</time>
      </trkpt>
      <trkpt lat="47.72845" lon="7.15013">
        <ele>309.441772</ele>
        <time>2022-10-30T13:07:28Z</time>
      </trkpt>
      <trkpt lat="47.72836" lon="7.1502">
        <ele>309.125916</ele>
        <time>2022-10-30T13:07:30Z</time>
      </trkpt>
      <trkpt lat="47.72828" lon="7.1503">
        <ele>308.957581</ele>
        <time>2022-10-30T13:07:32Z</time>
      </trkpt>
      <trkpt lat="47.72818" lon="7.1504">
        <ele>308.678802</ele>
        <time>2022-10-30T13:07:34Z</time>
      </trkpt>
      <trkpt lat="47.72808" lon="7.15049">
        <ele>308.325134</ele>
        <time>2022-10-30T13:07:36Z</time>
      </trkpt>
      <trkpt lat="47.72798" lon="7.15059">
        <ele>307.965088</ele>
        <time>2022-10-30T13:07:38Z</time>
      </trkpt>
      <trkpt lat="47.72787" lon="7.15067">
        <ele>307.619965</ele>
        <time>2022-10-30T13:07:40Z</time>
      </trkpt>
      <trkpt lat="47.72776" lon="7.15073">
        <ele>307.235992</ele>
        <time>2022-10-30T13:07:42Z</time>
      </trkpt>
      <trkpt lat="47.72767" lon="7.15079">
        <ele>306.916412</ele>
        <time>2022-10-30T13:07:44Z</time>
      </trkpt>
      <trkpt lat="47.72756" lon="7.15085">
        <ele>306.614777</ele>
        <time>2022-10-30T13:07:46Z</time>
      </trkpt>
      <trkpt lat="47.72746" lon="7.15091">
        <ele>306.295227</ele>
        <time>2022-10-30T13:07:48Z</time>
      </trkpt>
      <trkpt lat="47.72736" lon="7.15097">
        <ele>305.960754</ele>
        <time>2022-10-30T13:07:50Z</time>
      </trkpt>
      <trkpt lat="47.72726" lon="7.15104">
        <ele>305.659485</ele>
        <time>2022-10-30T13:07:52Z</time>
      </trkpt>
      <trkpt lat="47.72717" lon="7.15111">
        <ele>305.410248</ele>
        <time>2022-10-30T13:07:54Z</time>
      </trkpt>
      <trkpt lat="47.72707" lon="7.15119">
        <ele>305.093201</ele>
        <time>2022-10-30T13:07:56Z</time>
      </trkpt>
      <trkpt lat="47.72699" lon="7.15128">
        <ele>304.937683</ele>
        <time>2022-10-30T13:07:58Z</time>
      </trkpt>
      <trkpt lat="47.7269" lon="7.15137">
        <ele>304.769989</ele>
        <time>2022-10-30T13:08:00Z</time>
      </trkpt>
      <trkpt lat="47.72683" lon="7.15146">
        <ele>304.631531</ele>
        <time>2022-10-30T13:08:02Z</time>
      </trkpt>
      <trkpt lat="47.72676" lon="7.15155">
        <ele>304.535278</ele>
        <time>2022-10-30T13:08:04Z</time>
      </trkpt>
      <trkpt lat="47.72669" lon="7.15164">
        <ele>304.431824</ele>
        <time>2022-10-30T13:08:06Z</time>
      </trkpt>
      <trkpt lat="47.72663" lon="7.15173">
        <ele>304.364197</ele>
        <time>2022-10-30T13:08:08Z</time>
      </trkpt>
      <trkpt lat="47.72657" lon="7.15181">
        <ele>304.353516</ele>
        <time>2022-10-30T13:08:10Z</time>
      </trkpt>
      <trkpt lat="47.72651" lon="7.1519">
        <ele>304.38974</ele>
        <time>2022-10-30T13:08:12Z</time>
      </trkpt>
      <trkpt lat="47.72644" lon="7.15198">
        <ele>304.438416</ele>
        <time>2022-10-30T13:08:14Z</time>
      </trkpt>
      <trkpt lat="47.72638" lon="7.15206">
        <ele>304.557678</ele>
        <time>2022-10-30T13:08:16Z</time>
      </trkpt>
      <trkpt lat="47.72632" lon="7.15213">
        <ele>304.674835</ele>
        <time>2022-10-30T13:08:18Z</time>
      </trkpt>
      <trkpt lat="47.72627" lon="7.1522">
        <ele>304.757904</ele>
        <time>2022-10-30T13:08:20Z</time>
      </trkpt>
      <trkpt lat="47.72621" lon="7.15227">
        <ele>304.939941</ele>
        <time>2022-10-30T13:08:22Z</time>
      </trkpt>
      <trkpt lat="47.72615" lon="7.15235">
        <ele>305.123138</ele>
        <time>2022-10-30T13:08:24Z</time>
      </trkpt>
      <trkpt lat="47.7261" lon="7.15242">
        <ele>305.331879</ele>
        <time>2022-10-30T13:08:26Z</time>
      </trkpt>
      <trkpt lat="47.72603" lon="7.1525">
        <ele>305.507813</ele>
        <time>2022-10-30T13:08:28Z</time>
      </trkpt>
      <trkpt lat="47.72597" lon="7.15257">
        <ele>305.71521</ele>
        <time>2022-10-30T13:08:30Z</time>
      </trkpt>
      <trkpt lat="47.7259" lon="7.15264">
        <ele>305.944885</ele>
        <time>2022-10-30T13:08:32Z</time>
      </trkpt>
      <trkpt lat="47.72584" lon="7.15271">
        <ele>306.172791</ele>
        <time>2022-10-30T13:08:34Z</time>
      </trkpt>
      <trkpt lat="47.72577" lon="7.15278">
        <ele>306.42627</ele>
        <time>2022-10-30T13:08:36Z</time>
      </trkpt>
      <trkpt lat="47.72569" lon="7.15285">
        <ele>306.72879</ele>
        <time>2022-10-30T13:08:38Z</time>
      </trkpt>
      <trkpt lat="47.72561" lon="7.15293">
        <ele>307.024261</ele>
        <time>2022-10-30T13:08:40Z</time>
      </trkpt>
      <trkpt lat="47.72553" lon="7.15299">
        <ele>307.373657</ele>
        <time>2022-10-30T13:08:42Z</time>
      </trkpt>
      <trkpt lat="47.72546" lon="7.15306">
        <ele>307.683838</ele>
        <time>2022-10-30T13:08:44Z</time>
      </trkpt>
      <trkpt lat="47.72539" lon="7.15314">
        <ele>307.844055</ele>
        <time>2022-10-30T13:08:46Z</time>
      </trkpt>
      <trkpt lat="47.72532" lon="7.1532">
        <ele>308.187073</ele>
        <time>2022-10-30T13:08:48Z</time>
      </trkpt>
      <trkpt lat="47.72524" lon="7.15326">
        <ele>308.499725</ele>
        <time>2022-10-30T13:08:50Z</time>
      </trkpt>
      <trkpt lat="47.72517" lon="7.15331">
        <ele>308.77594</ele>
        <time>2022-10-30T13:08:52Z</time>
      </trkpt>
      <trkpt lat="47.72511" lon="7.15336">
        <ele>309.044403</ele>
        <time>2022-10-30T13:08:54Z</time>
      </trkpt>
      <trkpt lat="47.72504" lon="7.15341">
        <ele>309.2724</ele>
        <time>2022-10-30T13:08:56Z</time>
      </trkpt>
      <trkpt lat="47.72497" lon="7.15346">
        <ele>309.500793</ele>
        <time>2022-10-30T13:08:58Z</time>
      </trkpt>
      <trkpt lat="47.72489" lon="7.15351">
        <ele>309.709595</ele>
        <time>2022-10-30T13:09:00Z</time>
      </trkpt>
      <trkpt lat="47.72481" lon="7.15356">
        <ele>309.951508</ele>
        <time>2022-10-30T13:09:02Z</time>
      </trkpt>
      <trkpt lat="47.72473" lon="7.15362">
        <ele>310.036774</ele>
        <time>2022-10-30T13:09:04Z</time>
      </trkpt>
      <trkpt lat="47.72466" lon="7.15367">
        <ele>310.224854</ele>
        <time>2022-10-30T13:09:06Z</time>
      </trkpt>
      <trkpt lat="47.72458" lon="7.15372">
        <ele>310.433685</ele>
        <time>2022-10-30T13:09:08Z</time>
      </trkpt>
      <trkpt lat="47.72449" lon="7.15377">
        <ele>310.642639</ele>
        <time>2022-10-30T13:09:10Z</time>
      </trkpt>
      <trkpt lat="47.7244" lon="7.15383">
        <ele>310.815369</ele>
        <time>2022-10-30T13:09:12Z</time>
      </trkpt>
      <trkpt lat="47.72431" lon="7.15389">
        <ele>310.962799</ele>
        <time>2022-10-30T13:09:14Z</time>
      </trkpt>
      <trkpt lat="47.72422" lon="7.15395">
        <ele>311.052307</ele>
        <time>2022-10-30T13:09:16Z</time>
      </trkpt>
      <trkpt lat="47.72412" lon="7.15402">
        <ele>311.167358</ele>
        <time>2022-10-30T13:09:18Z</time>
      </trkpt>
      <trkpt lat="47.72402" lon="7.15408">
        <ele>311.297333</ele>
        <time>2022-10-30T13:09:20Z</time>
      </trkpt>
      <trkpt lat="47.72393" lon="7.15415">
        <ele>311.333557</ele>
        <time>2022-10-30T13:09:22Z</time>
      </trkpt>
      <trkpt lat="47.72383" lon="7.15421">
        <ele>311.359894</ele>
        <time>2022-10-30T13:09:24Z</time>
      </trkpt>
      <trkpt lat="47.72373" lon="7.15428">
        <ele>311.36087</ele>
        <time>2022-10-30T13:09:26Z</time>
      </trkpt>
      <trkpt lat="47.72363" lon="7.15435">
        <ele>311.385162</ele>
        <time>2022-10-30T13:09:28Z</time>
      </trkpt>
      <trkpt lat="47.72353" lon="7.15442">
        <ele>311.291382</ele>
        <time>2022-10-30T13:09:30Z</time>
      </trkpt>
      <trkpt lat="47.72342" lon="7.15449">
        <ele>311.240265</ele>
        <time>2022-10-30T13:09:32Z</time>
      </trkpt>
      <trkpt lat="47.72332" lon="7.15456">
        <ele>311.21759</ele>
        <time>2022-10-30T13:09:34Z</time>
      </trkpt>
      <trkpt lat="47.72322" lon="7.15462">
        <ele>311.111023</ele>
        <time>2022-10-30T13:09:36Z</time>
      </trkpt>
      <trkpt lat="47.72312" lon="7.15468">
        <ele>311.069275</ele>
        <time>2022-10-30T13:09:38Z</time>
      </trkpt>
      <trkpt lat="47.72302" lon="7.15473">
        <ele>311.015564</ele>
        <time>2022-10-30T13:09:40Z</time>
      </trkpt>
      <trkpt lat="47.72291" lon="7.15478">
        <ele>310.977234</ele>
        <time>2022-10-30T13:09:42Z</time>
      </trkpt>
      <trkpt lat="47.72281" lon="7.15482">
        <ele>310.889709</ele>
        <time>2022-10-30T13:09:44Z</time>
      </trkpt>
      <trkpt lat="47.72271" lon="7.15485">
        <ele>310.817139</ele>
        <time>2022-10-30T13:09:46Z</time>
      </trkpt>
      <trkpt lat="47.72261" lon="7.15489">
        <ele>310.802216</ele>
        <time>2022-10-30T13:09:48Z</time>
      </trkpt>
      <trkpt lat="47.7225" lon="7.15492">
        <ele>310.690948</ele>
        <time>2022-10-30T13:09:50Z</time>
      </trkpt>
      <trkpt lat="47.7224" lon="7.15495">
        <ele>310.609985</ele>
        <time>2022-10-30T13:09:52Z</time>
      </trkpt>
      <trkpt lat="47.72229" lon="7.15498">
        <ele>310.52951</ele>
        <time>2022-10-30T13:09:54Z</time>
      </trkpt>
      <trkpt lat="47.72218" lon="7.15501">
        <ele>310.480133</ele>
        <time>2022-10-30T13:09:56Z</time>
      </trkpt>
      <trkpt lat="47.72207" lon="7.15505">
        <ele>310.426849</ele>
        <time>2022-10-30T13:09:58Z</time>
      </trkpt>
      <trkpt lat="47.72197" lon="7.15508">
        <ele>310.352264</ele>
        <time>2022-10-30T13:10:00Z</time>
      </trkpt>
      <trkpt lat="47.72187" lon="7.15511">
        <ele>310.211609</ele>
        <time>2022-10-30T13:10:02Z</time>
      </trkpt>
      <trkpt lat="47.72176" lon="7.15514">
        <ele>310.036163</ele>
        <time>2022-10-30T13:10:04Z</time>
      </trkpt>
      <trkpt lat="47.72167" lon="7.15516">
        <ele>309.915833</ele>
        <time>2022-10-30T13:10:06Z</time>
      </trkpt>
      <trkpt lat="47.72157" lon="7.15519">
        <ele>309.764557</ele>
        <time>2022-10-30T13:10:08Z</time>
      </trkpt>
      <trkpt lat="47.72148" lon="7.15522">
        <ele>309.636719</ele>
        <time>2022-10-30T13:10:10Z</time>
      </trkpt>
      <trkpt lat="47.72138" lon="7.15525">
        <ele>309.587708</ele>
        <time>2022-10-30T13:10:12Z</time>
      </trkpt>
      <trkpt lat="47.72129" lon="7.15529">
        <ele>309.464142</ele>
        <time>2022-10-30T13:10:14Z</time>
      </trkpt>
      <trkpt lat="47.7212" lon="7.15532">
        <ele>309.315063</ele>
        <time>2022-10-30T13:10:16Z</time>
      </trkpt>
      <trkpt lat="47.72112" lon="7.15535">
        <ele>309.191467</ele>
        <time>2022-10-30T13:10:18Z</time>
      </trkpt>
      <trkpt lat="47.72104" lon="7.15537">
        <ele>309.013794</ele>
        <time>2022-10-30T13:10:20Z</time>
      </trkpt>
      <trkpt lat="47.72096" lon="7.15542">
        <ele>308.869385</ele>
        <time>2022-10-30T13:10:22Z</time>
      </trkpt>
      <trkpt lat="47.72088" lon="7.15546">
        <ele>308.707458</ele>
        <time>2022-10-30T13:10:24Z</time>
      </trkpt>
      <trkpt lat="47.7208" lon="7.15552">
        <ele>308.624481</ele>
        <time>2022-10-30T13:10:26Z</time>
      </trkpt>
      <trkpt lat="47.72073" lon="7.15558">
        <ele>308.48175</ele>
        <time>2022-10-30T13:10:28Z</time>
      </trkpt>
      <trkpt lat="47.72067" lon="7.15565">
        <ele>308.343689</ele>
        <time>2022-10-30T13:10:30Z</time>
      </trkpt>
      <trkpt lat="47.72062" lon="7.15572">
        <ele>308.207184</ele>
        <time>2022-10-30T13:10:32Z</time>
      </trkpt>
      <trkpt lat="47.72055" lon="7.15579">
        <ele>308.08786</ele>
        <time>2022-10-30T13:10:34Z</time>
      </trkpt>
      <trkpt lat="47.72049" lon="7.15586">
        <ele>308.050232</ele>
        <time>2022-10-30T13:10:36Z</time>
      </trkpt>
      <trkpt lat="47.72043" lon="7.15593">
        <ele>307.963593</ele>
        <time>2022-10-30T13:10:38Z</time>
      </trkpt>
      <trkpt lat="47.72037" lon="7.15602">
        <ele>307.913666</ele>
        <time>2022-10-30T13:10:40Z</time>
      </trkpt>
      <trkpt lat="47.7203" lon="7.1561">
        <ele>307.881714</ele>
        <time>2022-10-30T13:10:42Z</time>
      </trkpt>
      <trkpt lat="47.72022" lon="7.15619">
        <ele>307.854034</ele>
        <time>2022-10-30T13:10:44Z</time>
      </trkpt>
      <trkpt lat="47.72015" lon="7.15627">
        <ele>307.890076</ele>
        <time>2022-10-30T13:10:46Z</time>
      </trkpt>
      <trkpt lat="47.72008" lon="7.15635">
        <ele>307.907471</ele>
        <time>2022-10-30T13:10:48Z</time>
      </trkpt>
      <trkpt lat="47.72002" lon="7.15642">
        <ele>307.965118</ele>
        <time>2022-10-30T13:10:50Z</time>
      </trkpt>
      <trkpt lat="47.71996" lon="7.1565">
        <ele>308.007721</ele>
        <time>2022-10-30T13:10:52Z</time>
      </trkpt>
      <trkpt lat="47.7199" lon="7.15656">
        <ele>308.078033</ele>
        <time>2022-10-30T13:10:54Z</time>
      </trkpt>
      <trkpt lat="47.71983" lon="7.15663">
        <ele>308.133362</ele>
        <time>2022-10-30T13:10:56Z</time>
      </trkpt>
      <trkpt lat="47.71977" lon="7.1567">
        <ele>308.186584</ele>
        <time>2022-10-30T13:10:58Z</time>
      </trkpt>
      <trkpt lat="47.7197" lon="7.15678">
        <ele>308.280945</ele>
        <time>2022-10-30T13:11:00Z</time>
      </trkpt>
      <trkpt lat="47.71964" lon="7.15685">
        <ele>308.391724</ele>
        <time>2022-10-30T13:11:02Z</time>
      </trkpt>
      <trkpt lat="47.71957" lon="7.15692">
        <ele>308.495667</ele>
        <time>2022-10-30T13:11:04Z</time>
      </trkpt>
      <trkpt lat="47.71951" lon="7.157">
        <ele>308.553162</ele>
        <time>2022-10-30T13:11:06Z</time>
      </trkpt>
      <trkpt lat="47.71944" lon="7.15707">
        <ele>308.55957</ele>
        <time>2022-10-30T13:11:08Z</time>
      </trkpt>
      <trkpt lat="47.71937" lon="7.15714">
        <ele>308.644775</ele>
        <time>2022-10-30T13:11:10Z</time>
      </trkpt>
      <trkpt lat="47.7193" lon="7.15721">
        <ele>308.701355</ele>
        <time>2022-10-30T13:11:12Z</time>
      </trkpt>
      <trkpt lat="47.71923" lon="7.15728">
        <ele>308.746063</ele>
        <time>2022-10-30T13:11:14Z</time>
      </trkpt>
      <trkpt lat="47.71915" lon="7.15734">
        <ele>308.75885</ele>
        <time>2022-10-30T13:11:16Z</time>
      </trkpt>
      <trkpt lat="47.71907" lon="7.15741">
        <ele>308.739868</ele>
        <time>2022-10-30T13:11:18Z</time>
      </trkpt>
      <trkpt lat="47.71898" lon="7.15747">
        <ele>308.704559</ele>
        <time>2022-10-30T13:11:20Z</time>
      </trkpt>
      <trkpt lat="47.7189" lon="7.15754">
        <ele>308.655579</ele>
        <time>2022-10-30T13:11:22Z</time>
      </trkpt>
      <trkpt lat="47.7188" lon="7.1576">
        <ele>308.606567</ele>
        <time>2022-10-30T13:11:24Z</time>
      </trkpt>
      <trkpt lat="47.71871" lon="7.15766">
        <ele>308.563965</ele>
        <time>2022-10-30T13:11:26Z</time>
      </trkpt>
      <trkpt lat="47.71862" lon="7.15772">
        <ele>308.536438</ele>
        <time>2022-10-30T13:11:28Z</time>
      </trkpt>
      <trkpt lat="47.71853" lon="7.15778">
        <ele>308.446625</ele>
        <time>2022-10-30T13:11:30Z</time>
      </trkpt>
      <trkpt lat="47.71843" lon="7.15784">
        <ele>308.405792</ele>
        <time>2022-10-30T13:11:32Z</time>
      </trkpt>
      <trkpt lat="47.71833" lon="7.15789">
        <ele>308.371674</ele>
        <time>2022-10-30T13:11:34Z</time>
      </trkpt>
      <trkpt lat="47.71824" lon="7.15795">
        <ele>308.305969</ele>
        <time>2022-10-30T13:11:36Z</time>
      </trkpt>
      <trkpt lat="47.71815" lon="7.158">
        <ele>308.2229</ele>
        <time>2022-10-30T13:11:38Z</time>
      </trkpt>
      <trkpt lat="47.71806" lon="7.15807">
        <ele>308.092346</ele>
        <time>2022-10-30T13:11:40Z</time>
      </trkpt>
      <trkpt lat="47.71796" lon="7.15815">
        <ele>307.981537</ele>
        <time>2022-10-30T13:11:42Z</time>
      </trkpt>
      <trkpt lat="47.71788" lon="7.15823">
        <ele>307.866516</ele>
        <time>2022-10-30T13:11:44Z</time>
      </trkpt>
      <trkpt lat="47.7178" lon="7.15832">
        <ele>307.802612</ele>
        <time>2022-10-30T13:11:46Z</time>
      </trkpt>
      <trkpt lat="47.71771" lon="7.15843">
        <ele>307.734436</ele>
        <time>2022-10-30T13:11:48Z</time>
      </trkpt>
      <trkpt lat="47.71763" lon="7.15854">
        <ele>307.713135</ele>
        <time>2022-10-30T13:11:50Z</time>
      </trkpt>
      <trkpt lat="47.71756" lon="7.15866">
        <ele>307.600891</ele>
        <time>2022-10-30T13:11:52Z</time>
      </trkpt>
      <trkpt lat="47.7175" lon="7.1588">
        <ele>307.520874</ele>
        <time>2022-10-30T13:11:54Z</time>
      </trkpt>
      <trkpt lat="47.71747" lon="7.15897">
        <ele>307.399475</ele>
        <time>2022-10-30T13:11:56Z</time>
      </trkpt>
      <trkpt lat="47.71745" lon="7.15915">
        <ele>307.295074</ele>
        <time>2022-10-30T13:11:58Z</time>
      </trkpt>
      <trkpt lat="47.71744" lon="7.15933">
        <ele>307.217834</ele>
        <time>2022-10-30T13:12:00Z</time>
      </trkpt>
      <trkpt lat="47.71742" lon="7.1595">
        <ele>307.116333</ele>
        <time>2022-10-30T13:12:02Z</time>
      </trkpt>
      <trkpt lat="47.71741" lon="7.15967">
        <ele>307.060883</ele>
        <time>2022-10-30T13:12:04Z</time>
      </trkpt>
      <trkpt lat="47.71739" lon="7.15983">
        <ele>306.99054</ele>
        <time>2022-10-30T13:12:06Z</time>
      </trkpt>
      <trkpt lat="47.71738" lon="7.15999">
        <ele>306.89679</ele>
        <time>2022-10-30T13:12:08Z</time>
      </trkpt>
      <trkpt lat="47.71737" lon="7.16014">
        <ele>306.781769</ele>
        <time>2022-10-30T13:12:10Z</time>
      </trkpt>
      <trkpt lat="47.71734" lon="7.16029">
        <ele>306.707214</ele>
        <time>2022-10-30T13:12:12Z</time>
      </trkpt>
      <trkpt lat="47.71728" lon="7.16039">
        <ele>306.600952</ele>
        <time>2022-10-30T13:12:14Z</time>
      </trkpt>
      <trkpt lat="47.71718" lon="7.16042">
        <ele>306.559204</ele>
        <time>2022-10-30T13:12:16Z</time>
      </trkpt>
      <trkpt lat="47.71708" lon="7.16043">
        <ele>306.493622</ele>
        <time>2022-10-30T13:12:18Z</time>
      </trkpt>
      <trkpt lat="47.71697" lon="7.16045">
        <ele>306.438232</ele>
        <time>2022-10-30T13:12:20Z</time>
      </trkpt>
      <trkpt lat="47.71687" lon="7.16045">
        <ele>306.410553</ele>
        <time>2022-10-30T13:12:22Z</time>
      </trkpt>
      <trkpt lat="47.71676" lon="7.16045">
        <ele>306.342377</ele>
        <time>2022-10-30T13:12:24Z</time>
      </trkpt>
      <trkpt lat="47.71666" lon="7.16045">
        <ele>306.242279</ele>
        <time>2022-10-30T13:12:26Z</time>
      </trkpt>
      <trkpt lat="47.71656" lon="7.16046">
        <ele>306.18689</ele>
        <time>2022-10-30T13:12:28Z</time>
      </trkpt>
      <trkpt lat="47.71645" lon="7.16048">
        <ele>306.1315</ele>
        <time>2022-10-30T13:12:30Z</time>
      </trkpt>
      <trkpt lat="47.71635" lon="7.16051">
        <ele>306.034973</ele>
        <time>2022-10-30T13:12:32Z</time>
      </trkpt>
      <trkpt lat="47.71625" lon="7.16054">
        <ele>305.973206</ele>
        <time>2022-10-30T13:12:34Z</time>
      </trkpt>
      <trkpt lat="47.71615" lon="7.16054">
        <ele>305.917358</ele>
        <time>2022-10-30T13:12:36Z</time>
      </trkpt>
      <trkpt lat="47.71606" lon="7.16048">
        <ele>305.878998</ele>
        <time>2022-10-30T13:12:38Z</time>
      </trkpt>
      <trkpt lat="47.71597" lon="7.16044">
        <ele>305.819366</ele>
        <time>2022-10-30T13:12:40Z</time>
      </trkpt>
      <trkpt lat="47.71589" lon="7.16039">
        <ele>305.825745</ele>
        <time>2022-10-30T13:12:42Z</time>
      </trkpt>
      <trkpt lat="47.71582" lon="7.16035">
        <ele>305.839417</ele>
        <time>2022-10-30T13:12:44Z</time>
      </trkpt>
      <trkpt lat="47.71574" lon="7.16031">
        <ele>305.813263</ele>
        <time>2022-10-30T13:12:46Z</time>
      </trkpt>
      <trkpt lat="47.71567" lon="7.16027">
        <ele>305.832458</ele>
        <time>2022-10-30T13:12:48Z</time>
      </trkpt>
      <trkpt lat="47.71559" lon="7.16022">
        <ele>305.88327</ele>
        <time>2022-10-30T13:12:50Z</time>
      </trkpt>
      <trkpt lat="47.71551" lon="7.16018">
        <ele>305.942932</ele>
        <time>2022-10-30T13:12:52Z</time>
      </trkpt>
      <trkpt lat="47.71542" lon="7.16013">
        <ele>305.99707</ele>
        <time>2022-10-30T13:12:54Z</time>
      </trkpt>
      <trkpt lat="47.71533" lon="7.16008">
        <ele>305.95871</ele>
        <time>2022-10-30T13:12:56Z</time>
      </trkpt>
      <trkpt lat="47.71524" lon="7.16004">
        <ele>305.942169</ele>
        <time>2022-10-30T13:12:58Z</time>
      </trkpt>
      <trkpt lat="47.71516" lon="7.15999">
        <ele>305.903809</ele>
        <time>2022-10-30T13:13:00Z</time>
      </trkpt>
      <trkpt lat="47.71507" lon="7.15995">
        <ele>305.884644</ele>
        <time>2022-10-30T13:13:02Z</time>
      </trkpt>
      <trkpt lat="47.71499" lon="7.1599">
        <ele>305.786682</ele>
        <time>2022-10-30T13:13:04Z</time>
      </trkpt>
      <trkpt lat="47.71492" lon="7.15987">
        <ele>305.735535</ele>
        <time>2022-10-30T13:13:06Z</time>
      </trkpt>
      <trkpt lat="47.71487" lon="7.15984">
        <ele>305.633331</ele>
        <time>2022-10-30T13:13:08Z</time>
      </trkpt>
      <trkpt lat="47.71482" lon="7.15981">
        <ele>305.590729</ele>
        <time>2022-10-30T13:13:10Z</time>
      </trkpt>
      <trkpt lat="47.71478" lon="7.15979">
        <ele>305.532928</ele>
        <time>2022-10-30T13:13:12Z</time>
      </trkpt>
      <trkpt lat="47.71474" lon="7.15977">
        <ele>305.504456</ele>
        <time>2022-10-30T13:13:14Z</time>
      </trkpt>
      <trkpt lat="47.71472" lon="7.15976">
        <ele>305.451233</ele>
        <time>2022-10-30T13:13:16Z</time>
      </trkpt>
      <trkpt lat="47.7147" lon="7.15975">
        <ele>305.398071</ele>
        <time>2022-10-30T13:13:18Z</time>
      </trkpt>
      <trkpt lat="47.71467" lon="7.15974">
        <ele>305.383148</ele>
        <time>2022-10-30T13:13:20Z</time>
      </trkpt>
      <trkpt lat="47.71465" lon="7.15971">
        <ele>305.323975</ele>
        <time>2022-10-30T13:13:24Z</time>
      </trkpt>
      <trkpt lat="47.71466" lon="7.15969">
        <ele>305.269257</ele>
        <time>2022-10-30T13:13:26Z</time>
      </trkpt>
      <trkpt lat="47.71469" lon="7.1597">
        <ele>305.15213</ele>
        <time>2022-10-30T13:13:28Z</time>
      </trkpt>
      <trkpt lat="47.71469" lon="7.15972">
        <ele>305.062683</ele>
        <time>2022-10-30T13:13:30Z</time>
      </trkpt>
      <trkpt lat="47.71466" lon="7.15968">
        <ele>305.04364</ele>
        <time>2022-10-30T13:15:14Z</time>
      </trkpt>
      <trkpt lat="47.71461" lon="7.15966">
        <ele>305.045807</ele>
        <time>2022-10-30T13:15:16Z</time>
      </trkpt>
      <trkpt lat="47.71456" lon="7.15962">
        <ele>305.063354</ele>
        <time>2022-10-30T13:15:18Z</time>
      </trkpt>
      <trkpt lat="47.71449" lon="7.15958">
        <ele>305.086761</ele>
        <time>2022-10-30T13:15:20Z</time>
      </trkpt>
      <trkpt lat="47.71443" lon="7.15953">
        <ele>305.105957</ele>
        <time>2022-10-30T13:15:22Z</time>
      </trkpt>
      <trkpt lat="47.71436" lon="7.15949">
        <ele>305.137817</ele>
        <time>2022-10-30T13:15:24Z</time>
      </trkpt>
      <trkpt lat="47.71429" lon="7.15945">
        <ele>305.127167</ele>
        <time>2022-10-30T13:15:26Z</time>
      </trkpt>
      <trkpt lat="47.71422" lon="7.1594">
        <ele>305.178314</ele>
        <time>2022-10-30T13:15:28Z</time>
      </trkpt>
      <trkpt lat="47.71415" lon="7.15935">
        <ele>305.233276</ele>
        <time>2022-10-30T13:15:30Z</time>
      </trkpt>
      <trkpt lat="47.71408" lon="7.1593">
        <ele>305.290771</ele>
        <time>2022-10-30T13:15:32Z</time>
      </trkpt>
      <trkpt lat="47.71401" lon="7.15926">
        <ele>305.389923</ele>
        <time>2022-10-30T13:15:34Z</time>
      </trkpt>
      <trkpt lat="47.71394" lon="7.15922">
        <ele>305.477417</ele>
        <time>2022-10-30T13:15:36Z</time>
      </trkpt>
      <trkpt lat="47.71387" lon="7.15917">
        <ele>305.594574</ele>
        <time>2022-10-30T13:15:38Z</time>
      </trkpt>
      <trkpt lat="47.7138" lon="7.15912">
        <ele>305.711761</ele>
        <time>2022-10-30T13:15:40Z</time>
      </trkpt>
      <trkpt lat="47.71372" lon="7.15908">
        <ele>305.849915</ele>
        <time>2022-10-30T13:15:42Z</time>
      </trkpt>
      <trkpt lat="47.71364" lon="7.15903">
        <ele>306.022461</ele>
        <time>2022-10-30T13:15:44Z</time>
      </trkpt>
      <trkpt lat="47.71356" lon="7.15898">
        <ele>306.216309</ele>
        <time>2022-10-30T13:15:46Z</time>
      </trkpt>
      <trkpt lat="47.71348" lon="7.15892">
        <ele>306.361816</ele>
        <time>2022-10-30T13:15:48Z</time>
      </trkpt>
      <trkpt lat="47.7134" lon="7.15887">
        <ele>306.540771</ele>
        <time>2022-10-30T13:15:50Z</time>
      </trkpt>
      <trkpt lat="47.71331" lon="7.15882">
        <ele>306.696716</ele>
        <time>2022-10-30T13:15:52Z</time>
      </trkpt>
      <trkpt lat="47.71323" lon="7.15876">
        <ele>306.835144</ele>
        <time>2022-10-30T13:15:54Z</time>
      </trkpt>
      <trkpt lat="47.71314" lon="7.15869">
        <ele>306.945953</ele>
        <time>2022-10-30T13:15:56Z</time>
      </trkpt>
      <trkpt lat="47.71306" lon="7.15863">
        <ele>307.132141</ele>
        <time>2022-10-30T13:15:58Z</time>
      </trkpt>
      <trkpt lat="47.71296" lon="7.15857">
        <ele>307.280762</ele>
        <time>2022-10-30T13:16:00Z</time>
      </trkpt>
      <trkpt lat="47.71287" lon="7.15851">
        <ele>307.444763</ele>
        <time>2022-10-30T13:16:02Z</time>
      </trkpt>
      <trkpt lat="47.71278" lon="7.15845">
        <ele>307.590912</ele>
        <time>2022-10-30T13:16:04Z</time>
      </trkpt>
      <trkpt lat="47.71269" lon="7.15839">
        <ele>307.706055</ele>
        <time>2022-10-30T13:16:06Z</time>
      </trkpt>
      <trkpt lat="47.71259" lon="7.15832">
        <ele>307.829742</ele>
        <time>2022-10-30T13:16:08Z</time>
      </trkpt>
      <trkpt lat="47.71249" lon="7.15826">
        <ele>307.922455</ele>
        <time>2022-10-30T13:16:10Z</time>
      </trkpt>
      <trkpt lat="47.7124" lon="7.1582">
        <ele>308.044342</ele>
        <time>2022-10-30T13:16:12Z</time>
      </trkpt>
      <trkpt lat="47.7123" lon="7.15813">
        <ele>308.142334</ele>
        <time>2022-10-30T13:16:14Z</time>
      </trkpt>
      <trkpt lat="47.7122" lon="7.15807">
        <ele>308.184906</ele>
        <time>2022-10-30T13:16:16Z</time>
      </trkpt>
      <trkpt lat="47.71211" lon="7.158">
        <ele>308.210999</ele>
        <time>2022-10-30T13:16:18Z</time>
      </trkpt>
      <trkpt lat="47.71201" lon="7.15794">
        <ele>308.259949</ele>
        <time>2022-10-30T13:16:20Z</time>
      </trkpt>
      <trkpt lat="47.71191" lon="7.15787">
        <ele>308.301941</ele>
        <time>2022-10-30T13:16:22Z</time>
      </trkpt>
      <trkpt lat="47.71181" lon="7.15781">
        <ele>308.344543</ele>
        <time>2022-10-30T13:16:24Z</time>
      </trkpt>
      <trkpt lat="47.71171" lon="7.15774">
        <ele>308.297668</ele>
        <time>2022-10-30T13:16:26Z</time>
      </trkpt>
      <trkpt lat="47.71161" lon="7.15768">
        <ele>308.282776</ele>
        <time>2022-10-30T13:16:28Z</time>
      </trkpt>
      <trkpt lat="47.71153" lon="7.15763">
        <ele>308.294861</ele>
        <time>2022-10-30T13:16:30Z</time>
      </trkpt>
      <trkpt lat="47.71146" lon="7.1576">
        <ele>308.273895</ele>
        <time>2022-10-30T13:16:32Z</time>
      </trkpt>
      <trkpt lat="47.71141" lon="7.15759">
        <ele>308.264954</ele>
        <time>2022-10-30T13:16:34Z</time>
      </trkpt>
      <trkpt lat="47.71137" lon="7.15754">
        <ele>308.27774</ele>
        <time>2022-10-30T13:16:36Z</time>
      </trkpt>
      <trkpt lat="47.7113" lon="7.15749">
        <ele>308.227936</ele>
        <time>2022-10-30T13:16:38Z</time>
      </trkpt>
      <trkpt lat="47.71122" lon="7.15745">
        <ele>308.155487</ele>
        <time>2022-10-30T13:16:40Z</time>
      </trkpt>
      <trkpt lat="47.71114" lon="7.1574">
        <ele>308.129944</ele>
        <time>2022-10-30T13:16:42Z</time>
      </trkpt>
      <trkpt lat="47.71106" lon="7.15734">
        <ele>308.089447</ele>
        <time>2022-10-30T13:16:44Z</time>
      </trkpt>
      <trkpt lat="47.71097" lon="7.15728">
        <ele>308.077515</ele>
        <time>2022-10-30T13:16:46Z</time>
      </trkpt>
      <trkpt lat="47.71088" lon="7.15723">
        <ele>308.075378</ele>
        <time>2022-10-30T13:16:48Z</time>
      </trkpt>
      <trkpt lat="47.71078" lon="7.15717">
        <ele>308.05603</ele>
        <time>2022-10-30T13:16:50Z</time>
      </trkpt>
      <trkpt lat="47.71068" lon="7.15711">
        <ele>308.003754</ele>
        <time>2022-10-30T13:16:52Z</time>
      </trkpt>
      <trkpt lat="47.71058" lon="7.15705">
        <ele>307.964569</ele>
        <time>2022-10-30T13:16:54Z</time>
      </trkpt>
      <trkpt lat="47.71048" lon="7.15699">
        <ele>307.900665</ele>
        <time>2022-10-30T13:16:56Z</time>
      </trkpt>
      <trkpt lat="47.71038" lon="7.15692">
        <ele>307.879364</ele>
        <time>2022-10-30T13:16:58Z</time>
      </trkpt>
      <trkpt lat="47.71027" lon="7.15686">
        <ele>307.830383</ele>
        <time>2022-10-30T13:17:00Z</time>
      </trkpt>
      <trkpt lat="47.71017" lon="7.15679">
        <ele>307.766418</ele>
        <time>2022-10-30T13:17:02Z</time>
      </trkpt>
      <trkpt lat="47.71006" lon="7.15673">
        <ele>307.710876</ele>
        <time>2022-10-30T13:17:04Z</time>
      </trkpt>
      <trkpt lat="47.70995" lon="7.15667">
        <ele>307.632629</ele>
        <time>2022-10-30T13:17:06Z</time>
      </trkpt>
      <trkpt lat="47.70985" lon="7.1566">
        <ele>307.543121</ele>
        <time>2022-10-30T13:17:08Z</time>
      </trkpt>
      <trkpt lat="47.70974" lon="7.15653">
        <ele>307.468567</ele>
        <time>2022-10-30T13:17:10Z</time>
      </trkpt>
      <trkpt lat="47.70963" lon="7.15646">
        <ele>307.413177</ele>
        <time>2022-10-30T13:17:12Z</time>
      </trkpt>
      <trkpt lat="47.70953" lon="7.1564">
        <ele>307.308441</ele>
        <time>2022-10-30T13:17:14Z</time>
      </trkpt>
      <trkpt lat="47.70943" lon="7.15633">
        <ele>307.276947</ele>
        <time>2022-10-30T13:17:16Z</time>
      </trkpt>
      <trkpt lat="47.70932" lon="7.15626">
        <ele>307.236481</ele>
        <time>2022-10-30T13:17:18Z</time>
      </trkpt>
      <trkpt lat="47.70923" lon="7.15618">
        <ele>307.122223</ele>
        <time>2022-10-30T13:17:20Z</time>
      </trkpt>
      <trkpt lat="47.70913" lon="7.15611">
        <ele>307.090271</ele>
        <time>2022-10-30T13:17:22Z</time>
      </trkpt>
      <trkpt lat="47.70905" lon="7.15604">
        <ele>307.048523</ele>
        <time>2022-10-30T13:17:24Z</time>
      </trkpt>
      <trkpt lat="47.70895" lon="7.15596">
        <ele>306.974945</ele>
        <time>2022-10-30T13:17:26Z</time>
      </trkpt>
      <trkpt lat="47.70886" lon="7.15589">
        <ele>306.891846</ele>
        <time>2022-10-30T13:17:28Z</time>
      </trkpt>
      <trkpt lat="47.70877" lon="7.15581">
        <ele>306.876953</ele>
        <time>2022-10-30T13:17:30Z</time>
      </trkpt>
      <trkpt lat="47.70867" lon="7.15573">
        <ele>306.859528</ele>
        <time>2022-10-30T13:17:32Z</time>
      </trkpt>
      <trkpt lat="47.70858" lon="7.15565">
        <ele>306.834778</ele>
        <time>2022-10-30T13:17:34Z</time>
      </trkpt>
      <trkpt lat="47.70848" lon="7.15557">
        <ele>306.822021</ele>
        <time>2022-10-30T13:17:36Z</time>
      </trkpt>
      <trkpt lat="47.70839" lon="7.1555">
        <ele>306.799316</ele>
        <time>2022-10-30T13:17:38Z</time>
      </trkpt>
      <trkpt lat="47.70829" lon="7.15543">
        <ele>306.809967</ele>
        <time>2022-10-30T13:17:40Z</time>
      </trkpt>
      <trkpt lat="47.7082" lon="7.15535">
        <ele>306.844086</ele>
        <time>2022-10-30T13:17:42Z</time>
      </trkpt>
      <trkpt lat="47.70811" lon="7.15529">
        <ele>306.888855</ele>
        <time>2022-10-30T13:17:44Z</time>
      </trkpt>
      <trkpt lat="47.70802" lon="7.15522">
        <ele>306.868347</ele>
        <time>2022-10-30T13:17:46Z</time>
      </trkpt>
      <trkpt lat="47.70794" lon="7.15515">
        <ele>306.865387</ele>
        <time>2022-10-30T13:17:48Z</time>
      </trkpt>
      <trkpt lat="47.70785" lon="7.15509">
        <ele>306.910095</ele>
        <time>2022-10-30T13:17:50Z</time>
      </trkpt>
      <trkpt lat="47.70777" lon="7.15502">
        <ele>306.954834</ele>
        <time>2022-10-30T13:17:52Z</time>
      </trkpt>
      <trkpt lat="47.70768" lon="7.15495">
        <ele>307.014496</ele>
        <time>2022-10-30T13:17:54Z</time>
      </trkpt>
      <trkpt lat="47.7076" lon="7.15489">
        <ele>307.108215</ele>
        <time>2022-10-30T13:17:56Z</time>
      </trkpt>
      <trkpt lat="47.70753" lon="7.15483">
        <ele>307.193451</ele>
        <time>2022-10-30T13:17:58Z</time>
      </trkpt>
      <trkpt lat="47.70745" lon="7.15478">
        <ele>307.265869</ele>
        <time>2022-10-30T13:18:00Z</time>
      </trkpt>
      <trkpt lat="47.70738" lon="7.15472">
        <ele>307.402588</ele>
        <time>2022-10-30T13:18:02Z</time>
      </trkpt>
      <trkpt lat="47.70731" lon="7.15467">
        <ele>307.509094</ele>
        <time>2022-10-30T13:18:04Z</time>
      </trkpt>
      <trkpt lat="47.70725" lon="7.15461">
        <ele>307.646667</ele>
        <time>2022-10-30T13:18:06Z</time>
      </trkpt>
      <trkpt lat="47.70718" lon="7.15456">
        <ele>307.796967</ele>
        <time>2022-10-30T13:18:08Z</time>
      </trkpt>
      <trkpt lat="47.70711" lon="7.15451">
        <ele>307.969574</ele>
        <time>2022-10-30T13:18:10Z</time>
      </trkpt>
      <trkpt lat="47.70704" lon="7.15445">
        <ele>308.12085</ele>
        <time>2022-10-30T13:18:12Z</time>
      </trkpt>
      <trkpt lat="47.70696" lon="7.1544">
        <ele>308.319397</ele>
        <time>2022-10-30T13:18:14Z</time>
      </trkpt>
      <trkpt lat="47.70688" lon="7.15434">
        <ele>308.526062</ele>
        <time>2022-10-30T13:18:16Z</time>
      </trkpt>
      <trkpt lat="47.7068" lon="7.15428">
        <ele>308.719391</ele>
        <time>2022-10-30T13:18:18Z</time>
      </trkpt>
      <trkpt lat="47.70671" lon="7.15422">
        <ele>308.877045</ele>
        <time>2022-10-30T13:18:20Z</time>
      </trkpt>
      <trkpt lat="47.70661" lon="7.15415">
        <ele>309.058685</ele>
        <time>2022-10-30T13:18:22Z</time>
      </trkpt>
      <trkpt lat="47.70651" lon="7.15408">
        <ele>309.175873</ele>
        <time>2022-10-30T13:18:24Z</time>
      </trkpt>
      <trkpt lat="47.7064" lon="7.154">
        <ele>309.235535</ele>
        <time>2022-10-30T13:18:26Z</time>
      </trkpt>
      <trkpt lat="47.70629" lon="7.15392">
        <ele>309.38324</ele>
        <time>2022-10-30T13:18:28Z</time>
      </trkpt>
      <trkpt lat="47.70617" lon="7.15384">
        <ele>309.441071</ele>
        <time>2022-10-30T13:18:30Z</time>
      </trkpt>
      <trkpt lat="47.70604" lon="7.15376">
        <ele>309.475159</ele>
        <time>2022-10-30T13:18:32Z</time>
      </trkpt>
      <trkpt lat="47.70592" lon="7.15368">
        <ele>309.487946</ele>
        <time>2022-10-30T13:18:34Z</time>
      </trkpt>
      <trkpt lat="47.7058" lon="7.15359">
        <ele>309.447449</ele>
        <time>2022-10-30T13:18:36Z</time>
      </trkpt>
      <trkpt lat="47.70568" lon="7.15352">
        <ele>309.460236</ele>
        <time>2022-10-30T13:18:38Z</time>
      </trkpt>
      <trkpt lat="47.70556" lon="7.15345">
        <ele>309.425446</ele>
        <time>2022-10-30T13:18:40Z</time>
      </trkpt>
      <trkpt lat="47.70544" lon="7.15339">
        <ele>309.387634</ele>
        <time>2022-10-30T13:18:42Z</time>
      </trkpt>
      <trkpt lat="47.70532" lon="7.15334">
        <ele>309.27652</ele>
        <time>2022-10-30T13:18:44Z</time>
      </trkpt>
      <trkpt lat="47.70521" lon="7.1533">
        <ele>309.135895</ele>
        <time>2022-10-30T13:18:46Z</time>
      </trkpt>
      <trkpt lat="47.70511" lon="7.15325">
        <ele>309.035767</ele>
        <time>2022-10-30T13:18:48Z</time>
      </trkpt>
      <trkpt lat="47.705" lon="7.15321">
        <ele>308.910065</ele>
        <time>2022-10-30T13:18:50Z</time>
      </trkpt>
      <trkpt lat="47.7049" lon="7.15316">
        <ele>308.777985</ele>
        <time>2022-10-30T13:18:52Z</time>
      </trkpt>
      <trkpt lat="47.7048" lon="7.15312">
        <ele>308.639465</ele>
        <time>2022-10-30T13:18:54Z</time>
      </trkpt>
      <trkpt lat="47.7047" lon="7.15307">
        <ele>308.492615</ele>
        <time>2022-10-30T13:18:56Z</time>
      </trkpt>
      <trkpt lat="47.70461" lon="7.15303">
        <ele>308.39032</ele>
        <time>2022-10-30T13:18:58Z</time>
      </trkpt>
      <trkpt lat="47.70452" lon="7.153">
        <ele>308.309174</ele>
        <time>2022-10-30T13:19:00Z</time>
      </trkpt>
      <trkpt lat="47.70443" lon="7.15296">
        <ele>308.236725</ele>
        <time>2022-10-30T13:19:02Z</time>
      </trkpt>
      <trkpt lat="47.70435" lon="7.15293">
        <ele>308.176514</ele>
        <time>2022-10-30T13:19:04Z</time>
      </trkpt>
      <trkpt lat="47.70427" lon="7.15289">
        <ele>308.278809</ele>
        <time>2022-10-30T13:19:06Z</time>
      </trkpt>
      <trkpt lat="47.70419" lon="7.15286">
        <ele>308.396027</ele>
        <time>2022-10-30T13:19:08Z</time>
      </trkpt>
      <trkpt lat="47.70411" lon="7.15282">
        <ele>308.46991</ele>
        <time>2022-10-30T13:19:10Z</time>
      </trkpt>
      <trkpt lat="47.70403" lon="7.15279">
        <ele>308.538422</ele>
        <time>2022-10-30T13:19:12Z</time>
      </trkpt>
      <trkpt lat="47.70396" lon="7.15275">
        <ele>308.682922</ele>
        <time>2022-10-30T13:19:14Z</time>
      </trkpt>
      <trkpt lat="47.70388" lon="7.15271">
        <ele>308.908783</ele>
        <time>2022-10-30T13:19:16Z</time>
      </trkpt>
      <trkpt lat="47.7038" lon="7.15268">
        <ele>309.173035</ele>
        <time>2022-10-30T13:19:18Z</time>
      </trkpt>
      <trkpt lat="47.70372" lon="7.15265">
        <ele>309.410278</ele>
        <time>2022-10-30T13:19:20Z</time>
      </trkpt>
      <trkpt lat="47.70365" lon="7.15262">
        <ele>309.740601</ele>
        <time>2022-10-30T13:19:22Z</time>
      </trkpt>
      <trkpt lat="47.70358" lon="7.15258">
        <ele>310.098083</ele>
        <time>2022-10-30T13:19:24Z</time>
      </trkpt>
      <trkpt lat="47.7035" lon="7.15255">
        <ele>310.436401</ele>
        <time>2022-10-30T13:19:26Z</time>
      </trkpt>
      <trkpt lat="47.70343" lon="7.15252">
        <ele>310.8349</ele>
        <time>2022-10-30T13:19:28Z</time>
      </trkpt>
      <trkpt lat="47.70336" lon="7.15249">
        <ele>311.13324</ele>
        <time>2022-10-30T13:19:30Z</time>
      </trkpt>
      <trkpt lat="47.70328" lon="7.15245">
        <ele>311.504089</ele>
        <time>2022-10-30T13:19:32Z</time>
      </trkpt>
      <trkpt lat="47.7032" lon="7.1524">
        <ele>311.849335</ele>
        <time>2022-10-30T13:19:34Z</time>
      </trkpt>
      <trkpt lat="47.70311" lon="7.15235">
        <ele>312.179657</ele>
        <time>2022-10-30T13:19:36Z</time>
      </trkpt>
      <trkpt lat="47.70302" lon="7.15231">
        <ele>312.50766</ele>
        <time>2022-10-30T13:19:38Z</time>
      </trkpt>
      <trkpt lat="47.70292" lon="7.15225">
        <ele>312.791107</ele>
        <time>2022-10-30T13:19:40Z</time>
      </trkpt>
      <trkpt lat="47.70282" lon="7.1522">
        <ele>312.993561</ele>
        <time>2022-10-30T13:19:42Z</time>
      </trkpt>
      <trkpt lat="47.70271" lon="7.15214">
        <ele>313.161926</ele>
        <time>2022-10-30T13:19:44Z</time>
      </trkpt>
      <trkpt lat="47.70259" lon="7.15207">
        <ele>313.240753</ele>
        <time>2022-10-30T13:19:46Z</time>
      </trkpt>
      <trkpt lat="47.70247" lon="7.152">
        <ele>313.369324</ele>
        <time>2022-10-30T13:19:48Z</time>
      </trkpt>
      <trkpt lat="47.70235" lon="7.15193">
        <ele>313.429016</ele>
        <time>2022-10-30T13:19:50Z</time>
      </trkpt>
      <trkpt lat="47.70222" lon="7.15185">
        <ele>313.460999</ele>
        <time>2022-10-30T13:19:52Z</time>
      </trkpt>
      <trkpt lat="47.70209" lon="7.15177">
        <ele>313.514313</ele>
        <time>2022-10-30T13:19:54Z</time>
      </trkpt>
      <trkpt lat="47.70196" lon="7.15168">
        <ele>313.486603</ele>
        <time>2022-10-30T13:19:56Z</time>
      </trkpt>
      <trkpt lat="47.70184" lon="7.15158">
        <ele>313.412018</ele>
        <time>2022-10-30T13:19:58Z</time>
      </trkpt>
      <trkpt lat="47.70173" lon="7.15148">
        <ele>313.330994</ele>
        <time>2022-10-30T13:20:00Z</time>
      </trkpt>
      <trkpt lat="47.70161" lon="7.15137">
        <ele>313.248962</ele>
        <time>2022-10-30T13:20:02Z</time>
      </trkpt>
      <trkpt lat="47.70151" lon="7.15126">
        <ele>313.110626</ele>
        <time>2022-10-30T13:20:04Z</time>
      </trkpt>
      <trkpt lat="47.70141" lon="7.15115">
        <ele>313.000275</ele>
        <time>2022-10-30T13:20:06Z</time>
      </trkpt>
      <trkpt lat="47.70131" lon="7.15105">
        <ele>312.845276</ele>
        <time>2022-10-30T13:20:08Z</time>
      </trkpt>
      <trkpt lat="47.70122" lon="7.15095">
        <ele>312.738708</ele>
        <time>2022-10-30T13:20:10Z</time>
      </trkpt>
      <trkpt lat="47.70113" lon="7.15086">
        <ele>312.597443</ele>
        <time>2022-10-30T13:20:12Z</time>
      </trkpt>
      <trkpt lat="47.70103" lon="7.15078">
        <ele>312.469543</ele>
        <time>2022-10-30T13:20:14Z</time>
      </trkpt>
      <trkpt lat="47.70094" lon="7.15071">
        <ele>312.345886</ele>
        <time>2022-10-30T13:20:16Z</time>
      </trkpt>
      <trkpt lat="47.70084" lon="7.15065">
        <ele>312.22113</ele>
        <time>2022-10-30T13:20:18Z</time>
      </trkpt>
      <trkpt lat="47.70074" lon="7.15059">
        <ele>312.097504</ele>
        <time>2022-10-30T13:20:20Z</time>
      </trkpt>
      <trkpt lat="47.70064" lon="7.15054">
        <ele>312.041565</ele>
        <time>2022-10-30T13:20:22Z</time>
      </trkpt>
      <trkpt lat="47.70054" lon="7.15049">
        <ele>312.054352</ele>
        <time>2022-10-30T13:20:24Z</time>
      </trkpt>
      <trkpt lat="47.70043" lon="7.15044">
        <ele>312.077332</ele>
        <time>2022-10-30T13:20:26Z</time>
      </trkpt>
      <trkpt lat="47.70033" lon="7.15038">
        <ele>312.040405</ele>
        <time>2022-10-30T13:20:28Z</time>
      </trkpt>
      <trkpt lat="47.70023" lon="7.15033">
        <ele>312.097443</ele>
        <time>2022-10-30T13:20:30Z</time>
      </trkpt>
      <trkpt lat="47.70012" lon="7.15028">
        <ele>312.137085</ele>
        <time>2022-10-30T13:20:32Z</time>
      </trkpt>
      <trkpt lat="47.70002" lon="7.15023">
        <ele>312.198914</ele>
        <time>2022-10-30T13:20:34Z</time>
      </trkpt>
      <trkpt lat="47.69993" lon="7.15019">
        <ele>312.296936</ele>
        <time>2022-10-30T13:20:36Z</time>
      </trkpt>
      <trkpt lat="47.69984" lon="7.15014">
        <ele>312.401337</ele>
        <time>2022-10-30T13:20:38Z</time>
      </trkpt>
      <trkpt lat="47.69974" lon="7.15009">
        <ele>312.533508</ele>
        <time>2022-10-30T13:20:40Z</time>
      </trkpt>
      <trkpt lat="47.69964" lon="7.15005">
        <ele>312.598511</ele>
        <time>2022-10-30T13:20:42Z</time>
      </trkpt>
      <trkpt lat="47.69954" lon="7.15001">
        <ele>312.745636</ele>
        <time>2022-10-30T13:20:44Z</time>
      </trkpt>
      <trkpt lat="47.69945" lon="7.14996">
        <ele>312.854065</ele>
        <time>2022-10-30T13:20:46Z</time>
      </trkpt>
      <trkpt lat="47.69936" lon="7.14991">
        <ele>312.951538</ele>
        <time>2022-10-30T13:20:48Z</time>
      </trkpt>
      <trkpt lat="47.69927" lon="7.14987">
        <ele>313.062683</ele>
        <time>2022-10-30T13:20:50Z</time>
      </trkpt>
      <trkpt lat="47.69918" lon="7.14983">
        <ele>313.1138</ele>
        <time>2022-10-30T13:20:52Z</time>
      </trkpt>
      <trkpt lat="47.69909" lon="7.1498">
        <ele>313.251099</ele>
        <time>2022-10-30T13:20:54Z</time>
      </trkpt>
      <trkpt lat="47.699" lon="7.14976">
        <ele>313.334259</ele>
        <time>2022-10-30T13:20:56Z</time>
      </trkpt>
      <trkpt lat="47.6989" lon="7.14972">
        <ele>313.43869</ele>
        <time>2022-10-30T13:20:58Z</time>
      </trkpt>
      <trkpt lat="47.69881" lon="7.14968">
        <ele>313.499481</ele>
        <time>2022-10-30T13:21:00Z</time>
      </trkpt>
      <trkpt lat="47.69872" lon="7.14965">
        <ele>313.612488</ele>
        <time>2022-10-30T13:21:02Z</time>
      </trkpt>
      <trkpt lat="47.69863" lon="7.14961">
        <ele>313.719177</ele>
        <time>2022-10-30T13:21:04Z</time>
      </trkpt>
      <trkpt lat="47.69854" lon="7.14958">
        <ele>313.757538</ele>
        <time>2022-10-30T13:21:06Z</time>
      </trkpt>
      <trkpt lat="47.69844" lon="7.14954">
        <ele>313.817688</ele>
        <time>2022-10-30T13:21:08Z</time>
      </trkpt>
      <trkpt lat="47.69833" lon="7.14951">
        <ele>313.888062</ele>
        <time>2022-10-30T13:21:10Z</time>
      </trkpt>
      <trkpt lat="47.69822" lon="7.14946">
        <ele>313.966187</ele>
        <time>2022-10-30T13:21:12Z</time>
      </trkpt>
      <trkpt lat="47.69812" lon="7.14942">
        <ele>314.04718</ele>
        <time>2022-10-30T13:21:14Z</time>
      </trkpt>
      <trkpt lat="47.698" lon="7.14938">
        <ele>314.149841</ele>
        <time>2022-10-30T13:21:16Z</time>
      </trkpt>
      <trkpt lat="47.69789" lon="7.14934">
        <ele>314.177582</ele>
        <time>2022-10-30T13:21:18Z</time>
      </trkpt>
      <trkpt lat="47.69778" lon="7.1493">
        <ele>314.215942</ele>
        <time>2022-10-30T13:21:20Z</time>
      </trkpt>
      <trkpt lat="47.69766" lon="7.14925">
        <ele>314.254822</ele>
        <time>2022-10-30T13:21:22Z</time>
      </trkpt>
      <trkpt lat="47.69754" lon="7.1492">
        <ele>314.361389</ele>
        <time>2022-10-30T13:21:24Z</time>
      </trkpt>
      <trkpt lat="47.69743" lon="7.14915">
        <ele>314.355011</ele>
        <time>2022-10-30T13:21:26Z</time>
      </trkpt>
      <trkpt lat="47.69733" lon="7.1491">
        <ele>314.389099</ele>
        <time>2022-10-30T13:21:28Z</time>
      </trkpt>
      <trkpt lat="47.69723" lon="7.14906">
        <ele>314.397644</ele>
        <time>2022-10-30T13:21:30Z</time>
      </trkpt>
      <trkpt lat="47.69713" lon="7.14901">
        <ele>314.430145</ele>
        <time>2022-10-30T13:21:32Z</time>
      </trkpt>
      <trkpt lat="47.69703" lon="7.14897">
        <ele>314.459686</ele>
        <time>2022-10-30T13:21:34Z</time>
      </trkpt>
      <trkpt lat="47.69693" lon="7.14892">
        <ele>314.510834</ele>
        <time>2022-10-30T13:21:36Z</time>
      </trkpt>
      <trkpt lat="47.69684" lon="7.14887">
        <ele>314.550049</ele>
        <time>2022-10-30T13:21:38Z</time>
      </trkpt>
      <trkpt lat="47.69675" lon="7.14883">
        <ele>314.608337</ele>
        <time>2022-10-30T13:21:40Z</time>
      </trkpt>
      <trkpt lat="47.69665" lon="7.14878">
        <ele>314.71283</ele>
        <time>2022-10-30T13:21:42Z</time>
      </trkpt>
      <trkpt lat="47.69656" lon="7.14874">
        <ele>314.763977</ele>
        <time>2022-10-30T13:21:44Z</time>
      </trkpt>
      <trkpt lat="47.69647" lon="7.14869">
        <ele>314.796387</ele>
        <time>2022-10-30T13:21:46Z</time>
      </trkpt>
      <trkpt lat="47.69638" lon="7.14865">
        <ele>314.898743</ele>
        <time>2022-10-30T13:21:48Z</time>
      </trkpt>
      <trkpt lat="47.69629" lon="7.14861">
        <ele>315.037292</ele>
        <time>2022-10-30T13:21:50Z</time>
      </trkpt>
      <trkpt lat="47.6962" lon="7.14856">
        <ele>315.148376</ele>
        <time>2022-10-30T13:21:52Z</time>
      </trkpt>
      <trkpt lat="47.69611" lon="7.14853">
        <ele>315.274139</ele>
        <time>2022-10-30T13:21:54Z</time>
      </trkpt>
      <trkpt lat="47.69603" lon="7.14848">
        <ele>315.394592</ele>
        <time>2022-10-30T13:21:56Z</time>
      </trkpt>
      <trkpt lat="47.69595" lon="7.14844">
        <ele>315.569122</ele>
        <time>2022-10-30T13:21:58Z</time>
      </trkpt>
      <trkpt lat="47.69587" lon="7.14841">
        <ele>315.737793</ele>
        <time>2022-10-30T13:22:00Z</time>
      </trkpt>
      <trkpt lat="47.69579" lon="7.14837">
        <ele>315.916443</ele>
        <time>2022-10-30T13:22:02Z</time>
      </trkpt>
      <trkpt lat="47.69571" lon="7.14834">
        <ele>316.155243</ele>
        <time>2022-10-30T13:22:04Z</time>
      </trkpt>
      <trkpt lat="47.69563" lon="7.1483">
        <ele>316.394073</ele>
        <time>2022-10-30T13:22:06Z</time>
      </trkpt>
      <trkpt lat="47.69556" lon="7.14826">
        <ele>316.669159</ele>
        <time>2022-10-30T13:22:08Z</time>
      </trkpt>
      <trkpt lat="47.69548" lon="7.14823">
        <ele>316.989014</ele>
        <time>2022-10-30T13:22:10Z</time>
      </trkpt>
      <trkpt lat="47.69539" lon="7.14819">
        <ele>317.305939</ele>
        <time>2022-10-30T13:22:12Z</time>
      </trkpt>
      <trkpt lat="47.69531" lon="7.14815">
        <ele>317.606628</ele>
        <time>2022-10-30T13:22:14Z</time>
      </trkpt>
      <trkpt lat="47.69522" lon="7.14811">
        <ele>317.721832</ele>
        <time>2022-10-30T13:22:16Z</time>
      </trkpt>
      <trkpt lat="47.69513" lon="7.14807">
        <ele>317.979858</ele>
        <time>2022-10-30T13:22:18Z</time>
      </trkpt>
      <trkpt lat="47.69505" lon="7.14803">
        <ele>318.239624</ele>
        <time>2022-10-30T13:22:20Z</time>
      </trkpt>
      <trkpt lat="47.69496" lon="7.14799">
        <ele>318.496887</ele>
        <time>2022-10-30T13:22:22Z</time>
      </trkpt>
      <trkpt lat="47.69487" lon="7.14794">
        <ele>318.740021</ele>
        <time>2022-10-30T13:22:24Z</time>
      </trkpt>
      <trkpt lat="47.69478" lon="7.1479">
        <ele>319.004456</ele>
        <time>2022-10-30T13:22:26Z</time>
      </trkpt>
      <trkpt lat="47.69469" lon="7.14785">
        <ele>319.221985</ele>
        <time>2022-10-30T13:22:28Z</time>
      </trkpt>
      <trkpt lat="47.69461" lon="7.14778">
        <ele>319.409668</ele>
        <time>2022-10-30T13:22:30Z</time>
      </trkpt>
      <trkpt lat="47.69453" lon="7.14771">
        <ele>319.60141</ele>
        <time>2022-10-30T13:22:32Z</time>
      </trkpt>
      <trkpt lat="47.69445" lon="7.14764">
        <ele>319.780579</ele>
        <time>2022-10-30T13:22:34Z</time>
      </trkpt>
      <trkpt lat="47.69437" lon="7.14755">
        <ele>319.99173</ele>
        <time>2022-10-30T13:22:36Z</time>
      </trkpt>
      <trkpt lat="47.69429" lon="7.14746">
        <ele>320.148499</ele>
        <time>2022-10-30T13:22:38Z</time>
      </trkpt>
      <trkpt lat="47.69423" lon="7.14735">
        <ele>320.366058</ele>
        <time>2022-10-30T13:22:40Z</time>
      </trkpt>
      <trkpt lat="47.69418" lon="7.14723">
        <ele>320.570587</ele>
        <time>2022-10-30T13:22:42Z</time>
      </trkpt>
      <trkpt lat="47.69413" lon="7.1471">
        <ele>320.719055</ele>
        <time>2022-10-30T13:22:44Z</time>
      </trkpt>
      <trkpt lat="47.69409" lon="7.14697">
        <ele>320.870483</ele>
        <time>2022-10-30T13:22:46Z</time>
      </trkpt>
      <trkpt lat="47.69407" lon="7.14685">
        <ele>320.923828</ele>
        <time>2022-10-30T13:22:48Z</time>
      </trkpt>
      <trkpt lat="47.69404" lon="7.14672">
        <ele>321.046814</ele>
        <time>2022-10-30T13:22:50Z</time>
      </trkpt>
      <trkpt lat="47.69402" lon="7.14659">
        <ele>321.144928</ele>
        <time>2022-10-30T13:22:52Z</time>
      </trkpt>
      <trkpt lat="47.694" lon="7.14646">
        <ele>321.326263</ele>
        <time>2022-10-30T13:22:54Z</time>
      </trkpt>
      <trkpt lat="47.69398" lon="7.14633">
        <ele>321.44043</ele>
        <time>2022-10-30T13:22:56Z</time>
      </trkpt>
      <trkpt lat="47.69396" lon="7.14621">
        <ele>321.634521</ele>
        <time>2022-10-30T13:22:58Z</time>
      </trkpt>
      <trkpt lat="47.69394" lon="7.14609">
        <ele>321.821869</ele>
        <time>2022-10-30T13:23:00Z</time>
      </trkpt>
      <trkpt lat="47.69391" lon="7.14597">
        <ele>322.064636</ele>
        <time>2022-10-30T13:23:02Z</time>
      </trkpt>
      <trkpt lat="47.69388" lon="7.14586">
        <ele>322.25882</ele>
        <time>2022-10-30T13:23:04Z</time>
      </trkpt>
      <trkpt lat="47.69385" lon="7.14575">
        <ele>322.516968</ele>
        <time>2022-10-30T13:23:06Z</time>
      </trkpt>
      <trkpt lat="47.69381" lon="7.14564">
        <ele>322.822083</ele>
        <time>2022-10-30T13:23:08Z</time>
      </trkpt>
      <trkpt lat="47.69377" lon="7.14553">
        <ele>323.091156</ele>
        <time>2022-10-30T13:23:10Z</time>
      </trkpt>
      <trkpt lat="47.69373" lon="7.14543">
        <ele>323.285339</ele>
        <time>2022-10-30T13:23:12Z</time>
      </trkpt>
      <trkpt lat="47.6937" lon="7.14532">
        <ele>323.604645</ele>
        <time>2022-10-30T13:23:14Z</time>
      </trkpt>
      <trkpt lat="47.69365" lon="7.14522">
        <ele>323.969543</ele>
        <time>2022-10-30T13:23:16Z</time>
      </trkpt>
      <trkpt lat="47.6936" lon="7.14512">
        <ele>324.334473</ele>
        <time>2022-10-30T13:23:18Z</time>
      </trkpt>
      <trkpt lat="47.69355" lon="7.14504">
        <ele>324.712158</ele>
        <time>2022-10-30T13:23:20Z</time>
      </trkpt>
      <trkpt lat="47.6935" lon="7.14498">
        <ele>325.069641</ele>
        <time>2022-10-30T13:23:22Z</time>
      </trkpt>
      <trkpt lat="47.69344" lon="7.14495">
        <ele>325.428162</ele>
        <time>2022-10-30T13:23:24Z</time>
      </trkpt>
      <trkpt lat="47.69337" lon="7.14494">
        <ele>325.823883</ele>
        <time>2022-10-30T13:23:26Z</time>
      </trkpt>
      <trkpt lat="47.6933" lon="7.14493">
        <ele>326.222992</ele>
        <time>2022-10-30T13:23:28Z</time>
      </trkpt>
      <trkpt lat="47.69323" lon="7.14495">
        <ele>326.617767</ele>
        <time>2022-10-30T13:23:30Z</time>
      </trkpt>
      <trkpt lat="47.69316" lon="7.14498">
        <ele>327.032623</ele>
        <time>2022-10-30T13:23:32Z</time>
      </trkpt>
      <trkpt lat="47.69309" lon="7.14502">
        <ele>327.380554</ele>
        <time>2022-10-30T13:23:34Z</time>
      </trkpt>
      <trkpt lat="47.69303" lon="7.14505">
        <ele>327.529968</ele>
        <time>2022-10-30T13:23:36Z</time>
      </trkpt>
      <trkpt lat="47.69296" lon="7.14509">
        <ele>327.870026</ele>
        <time>2022-10-30T13:23:38Z</time>
      </trkpt>
      <trkpt lat="47.6929" lon="7.14513">
        <ele>328.132507</ele>
        <time>2022-10-30T13:23:40Z</time>
      </trkpt>
      <trkpt lat="47.69284" lon="7.14516">
        <ele>328.4104</ele>
        <time>2022-10-30T13:23:42Z</time>
      </trkpt>
      <trkpt lat="47.69279" lon="7.14519">
        <ele>328.5961</ele>
        <time>2022-10-30T13:23:44Z</time>
      </trkpt>
      <trkpt lat="47.69275" lon="7.14521">
        <ele>328.775391</ele>
        <time>2022-10-30T13:23:46Z</time>
      </trkpt>
      <trkpt lat="47.6927" lon="7.14524">
        <ele>328.912018</ele>
        <time>2022-10-30T13:23:48Z</time>
      </trkpt>
      <trkpt lat="47.69265" lon="7.14527">
        <ele>329.038635</ele>
        <time>2022-10-30T13:23:50Z</time>
      </trkpt>
      <trkpt lat="47.6926" lon="7.1453">
        <ele>329.128021</ele>
        <time>2022-10-30T13:23:52Z</time>
      </trkpt>
      <trkpt lat="47.69254" lon="7.14532">
        <ele>329.173584</ele>
        <time>2022-10-30T13:23:54Z</time>
      </trkpt>
      <trkpt lat="47.69249" lon="7.14534">
        <ele>329.133057</ele>
        <time>2022-10-30T13:23:56Z</time>
      </trkpt>
      <trkpt lat="47.69244" lon="7.14534">
        <ele>329.151062</ele>
        <time>2022-10-30T13:23:58Z</time>
      </trkpt>
      <trkpt lat="47.69239" lon="7.14533">
        <ele>329.105713</ele>
        <time>2022-10-30T13:24:00Z</time>
      </trkpt>
      <trkpt lat="47.69236" lon="7.14532">
        <ele>329.013916</ele>
        <time>2022-10-30T13:24:02Z</time>
      </trkpt>
      <trkpt lat="47.69233" lon="7.14531">
        <ele>328.886902</ele>
        <time>2022-10-30T13:24:04Z</time>
      </trkpt>
      <trkpt lat="47.69233" lon="7.1453">
        <ele>328.748138</ele>
        <time>2022-10-30T13:24:06Z</time>
      </trkpt>
      <trkpt lat="47.69231" lon="7.14529">
        <ele>327.300964</ele>
        <time>2022-10-30T13:24:27Z</time>
      </trkpt>
      <trkpt lat="47.69227" lon="7.14525">
        <ele>327.194092</ele>
        <time>2022-10-30T13:24:29Z</time>
      </trkpt>
      <trkpt lat="47.69222" lon="7.14516">
        <ele>327.086823</ele>
        <time>2022-10-30T13:24:31Z</time>
      </trkpt>
      <trkpt lat="47.69217" lon="7.14504">
        <ele>326.988831</ele>
        <time>2022-10-30T13:24:33Z</time>
      </trkpt>
      <trkpt lat="47.69212" lon="7.14489">
        <ele>326.835114</ele>
        <time>2022-10-30T13:24:35Z</time>
      </trkpt>
      <trkpt lat="47.69207" lon="7.14473">
        <ele>326.722015</ele>
        <time>2022-10-30T13:24:37Z</time>
      </trkpt>
      <trkpt lat="47.69201" lon="7.14456">
        <ele>326.581116</ele>
        <time>2022-10-30T13:24:39Z</time>
      </trkpt>
      <trkpt lat="47.69195" lon="7.14438">
        <ele>326.415192</ele>
        <time>2022-10-30T13:24:41Z</time>
      </trkpt>
      <trkpt lat="47.69189" lon="7.1442">
        <ele>326.258972</ele>
        <time>2022-10-30T13:24:43Z</time>
      </trkpt>
      <trkpt lat="47.69182" lon="7.144">
        <ele>326.073334</ele>
        <time>2022-10-30T13:24:45Z</time>
      </trkpt>
      <trkpt lat="47.69175" lon="7.14379">
        <ele>325.897308</ele>
        <time>2022-10-30T13:24:47Z</time>
      </trkpt>
      <trkpt lat="47.69169" lon="7.14358">
        <ele>325.663513</ele>
        <time>2022-10-30T13:24:49Z</time>
      </trkpt>
      <trkpt lat="47.69161" lon="7.14336">
        <ele>325.319977</ele>
        <time>2022-10-30T13:24:51Z</time>
      </trkpt>
      <trkpt lat="47.69153" lon="7.14313">
        <ele>325.218689</ele>
        <time>2022-10-30T13:24:53Z</time>
      </trkpt>
      <trkpt lat="47.69146" lon="7.1429">
        <ele>324.841217</ele>
        <time>2022-10-30T13:24:55Z</time>
      </trkpt>
      <trkpt lat="47.69138" lon="7.14266">
        <ele>324.49472</ele>
        <time>2022-10-30T13:24:57Z</time>
      </trkpt>
      <trkpt lat="47.6913" lon="7.14243">
        <ele>323.967773</ele>
        <time>2022-10-30T13:24:59Z</time>
      </trkpt>
      <trkpt lat="47.69122" lon="7.14221">
        <ele>323.449371</ele>
        <time>2022-10-30T13:25:01Z</time>
      </trkpt>
      <trkpt lat="47.69114" lon="7.14197">
        <ele>322.928864</ele>
        <time>2022-10-30T13:25:03Z</time>
      </trkpt>
      <trkpt lat="47.69106" lon="7.14173">
        <ele>322.420258</ele>
        <time>2022-10-30T13:25:05Z</time>
      </trkpt>
      <trkpt lat="47.69098" lon="7.14149">
        <ele>321.722809</ele>
        <time>2022-10-30T13:25:07Z</time>
      </trkpt>
      <trkpt lat="47.69094" lon="7.14122">
        <ele>320.959381</ele>
        <time>2022-10-30T13:25:09Z</time>
      </trkpt>
      <trkpt lat="47.69095" lon="7.14094">
        <ele>320.271301</ele>
        <time>2022-10-30T13:25:11Z</time>
      </trkpt>
      <trkpt lat="47.69099" lon="7.14066">
        <ele>319.490417</ele>
        <time>2022-10-30T13:25:13Z</time>
      </trkpt>
      <trkpt lat="47.69103" lon="7.14038">
        <ele>318.688568</ele>
        <time>2022-10-30T13:25:15Z</time>
      </trkpt>
      <trkpt lat="47.69107" lon="7.1401">
        <ele>318.296234</ele>
        <time>2022-10-30T13:25:17Z</time>
      </trkpt>
      <trkpt lat="47.69111" lon="7.13982">
        <ele>317.577026</ele>
        <time>2022-10-30T13:25:19Z</time>
      </trkpt>
      <trkpt lat="47.69112" lon="7.13954">
        <ele>316.761902</ele>
        <time>2022-10-30T13:25:21Z</time>
      </trkpt>
      <trkpt lat="47.69105" lon="7.13928">
        <ele>315.91333</ele>
        <time>2022-10-30T13:25:23Z</time>
      </trkpt>
      <trkpt lat="47.69095" lon="7.13906">
        <ele>315.048126</ele>
        <time>2022-10-30T13:25:25Z</time>
      </trkpt>
      <trkpt lat="47.69083" lon="7.13884">
        <ele>314.240143</ele>
        <time>2022-10-30T13:25:27Z</time>
      </trkpt>
      <trkpt lat="47.69073" lon="7.13864">
        <ele>313.394836</ele>
        <time>2022-10-30T13:25:29Z</time>
      </trkpt>
      <trkpt lat="47.69062" lon="7.13844">
        <ele>312.545471</ele>
        <time>2022-10-30T13:25:31Z</time>
      </trkpt>
      <trkpt lat="47.69053" lon="7.13824">
        <ele>312.16394</ele>
        <time>2022-10-30T13:25:33Z</time>
      </trkpt>
      <trkpt lat="47.69045" lon="7.13804">
        <ele>311.401733</ele>
        <time>2022-10-30T13:25:35Z</time>
      </trkpt>
      <trkpt lat="47.69036" lon="7.13785">
        <ele>310.63446</ele>
        <time>2022-10-30T13:25:37Z</time>
      </trkpt>
      <trkpt lat="47.69027" lon="7.13765">
        <ele>309.911621</ele>
        <time>2022-10-30T13:25:39Z</time>
      </trkpt>
      <trkpt lat="47.69019" lon="7.13746">
        <ele>309.240356</ele>
        <time>2022-10-30T13:25:41Z</time>
      </trkpt>
      <trkpt lat="47.69013" lon="7.13727">
        <ele>308.634338</ele>
        <time>2022-10-30T13:25:43Z</time>
      </trkpt>
      <trkpt lat="47.69005" lon="7.13708">
        <ele>308.002838</ele>
        <time>2022-10-30T13:25:45Z</time>
      </trkpt>
      <trkpt lat="47.68997" lon="7.1369">
        <ele>307.369751</ele>
        <time>2022-10-30T13:25:47Z</time>
      </trkpt>
      <trkpt lat="47.68991" lon="7.13672">
        <ele>306.860596</ele>
        <time>2022-10-30T13:25:49Z</time>
      </trkpt>
      <trkpt lat="47.68985" lon="7.13653">
        <ele>306.362122</ele>
        <time>2022-10-30T13:25:51Z</time>
      </trkpt>
      <trkpt lat="47.68981" lon="7.13633">
        <ele>305.877655</ele>
        <time>2022-10-30T13:25:53Z</time>
      </trkpt>
      <trkpt lat="47.68976" lon="7.13614">
        <ele>305.639099</ele>
        <time>2022-10-30T13:25:55Z</time>
      </trkpt>
      <trkpt lat="47.68972" lon="7.13595">
        <ele>305.191772</ele>
        <time>2022-10-30T13:25:57Z</time>
      </trkpt>
      <trkpt lat="47.68967" lon="7.13577">
        <ele>304.774292</ele>
        <time>2022-10-30T13:25:59Z</time>
      </trkpt>
      <trkpt lat="47.68963" lon="7.13558">
        <ele>304.28064</ele>
        <time>2022-10-30T13:26:01Z</time>
      </trkpt>
      <trkpt lat="47.68958" lon="7.1354">
        <ele>303.845795</ele>
        <time>2022-10-30T13:26:03Z</time>
      </trkpt>
      <trkpt lat="47.68953" lon="7.1352">
        <ele>303.54364</ele>
        <time>2022-10-30T13:26:05Z</time>
      </trkpt>
      <trkpt lat="47.68948" lon="7.13501">
        <ele>303.202942</ele>
        <time>2022-10-30T13:26:07Z</time>
      </trkpt>
      <trkpt lat="47.68943" lon="7.13482">
        <ele>302.864746</ele>
        <time>2022-10-30T13:26:09Z</time>
      </trkpt>
      <trkpt lat="47.68939" lon="7.13463">
        <ele>302.509155</ele>
        <time>2022-10-30T13:26:11Z</time>
      </trkpt>
      <trkpt lat="47.68935" lon="7.13443">
        <ele>302.174866</ele>
        <time>2022-10-30T13:26:13Z</time>
      </trkpt>
      <trkpt lat="47.6893" lon="7.13425">
        <ele>301.825714</ele>
        <time>2022-10-30T13:26:15Z</time>
      </trkpt>
      <trkpt lat="47.68924" lon="7.13407">
        <ele>301.538757</ele>
        <time>2022-10-30T13:26:17Z</time>
      </trkpt>
      <trkpt lat="47.6892" lon="7.13388">
        <ele>301.233307</ele>
        <time>2022-10-30T13:26:19Z</time>
      </trkpt>
      <trkpt lat="47.68921" lon="7.13369">
        <ele>301.113678</ele>
        <time>2022-10-30T13:26:21Z</time>
      </trkpt>
      <trkpt lat="47.68927" lon="7.13354">
        <ele>300.854919</ele>
        <time>2022-10-30T13:26:23Z</time>
      </trkpt>
      <trkpt lat="47.68935" lon="7.13339">
        <ele>300.542786</ele>
        <time>2022-10-30T13:26:25Z</time>
      </trkpt>
      <trkpt lat="47.68943" lon="7.13326">
        <ele>300.275299</ele>
        <time>2022-10-30T13:26:27Z</time>
      </trkpt>
      <trkpt lat="47.68951" lon="7.13314">
        <ele>299.991089</ele>
        <time>2022-10-30T13:26:29Z</time>
      </trkpt>
      <trkpt lat="47.68959" lon="7.13303">
        <ele>299.754028</ele>
        <time>2022-10-30T13:26:31Z</time>
      </trkpt>
      <trkpt lat="47.68969" lon="7.13293">
        <ele>299.494324</ele>
        <time>2022-10-30T13:26:33Z</time>
      </trkpt>
      <trkpt lat="47.68979" lon="7.13283">
        <ele>299.221832</ele>
        <time>2022-10-30T13:26:35Z</time>
      </trkpt>
      <trkpt lat="47.68988" lon="7.13273">
        <ele>298.991882</ele>
        <time>2022-10-30T13:26:37Z</time>
      </trkpt>
      <trkpt lat="47.68998" lon="7.13262">
        <ele>298.789673</ele>
        <time>2022-10-30T13:26:39Z</time>
      </trkpt>
      <trkpt lat="47.69008" lon="7.13252">
        <ele>298.668335</ele>
        <time>2022-10-30T13:26:41Z</time>
      </trkpt>
      <trkpt lat="47.69018" lon="7.13242">
        <ele>298.455627</ele>
        <time>2022-10-30T13:26:43Z</time>
      </trkpt>
      <trkpt lat="47.69027" lon="7.13232">
        <ele>298.238525</ele>
        <time>2022-10-30T13:26:45Z</time>
      </trkpt>
      <trkpt lat="47.69036" lon="7.13223">
        <ele>298.023376</ele>
        <time>2022-10-30T13:26:47Z</time>
      </trkpt>
      <trkpt lat="47.69045" lon="7.13214">
        <ele>297.892151</ele>
        <time>2022-10-30T13:26:49Z</time>
      </trkpt>
      <trkpt lat="47.69051" lon="7.13203">
        <ele>297.700195</ele>
        <time>2022-10-30T13:26:51Z</time>
      </trkpt>
      <trkpt lat="47.69051" lon="7.1319">
        <ele>297.567566</ele>
        <time>2022-10-30T13:26:53Z</time>
      </trkpt>
      <trkpt lat="47.69048" lon="7.13178">
        <ele>297.452637</ele>
        <time>2022-10-30T13:26:55Z</time>
      </trkpt>
      <trkpt lat="47.69043" lon="7.13165">
        <ele>297.34198</ele>
        <time>2022-10-30T13:26:57Z</time>
      </trkpt>
      <trkpt lat="47.69038" lon="7.13152">
        <ele>297.188263</ele>
        <time>2022-10-30T13:26:59Z</time>
      </trkpt>
      <trkpt lat="47.69033" lon="7.13139">
        <ele>297.071198</ele>
        <time>2022-10-30T13:27:01Z</time>
      </trkpt>
      <trkpt lat="47.69027" lon="7.13126">
        <ele>296.98645</ele>
        <time>2022-10-30T13:27:03Z</time>
      </trkpt>
      <trkpt lat="47.69023" lon="7.13113">
        <ele>296.883301</ele>
        <time>2022-10-30T13:27:05Z</time>
      </trkpt>
      <trkpt lat="47.69018" lon="7.13101">
        <ele>296.781097</ele>
        <time>2022-10-30T13:27:07Z</time>
      </trkpt>
      <trkpt lat="47.69012" lon="7.13088">
        <ele>296.740662</ele>
        <time>2022-10-30T13:27:09Z</time>
      </trkpt>
      <trkpt lat="47.69006" lon="7.13076">
        <ele>296.672577</ele>
        <time>2022-10-30T13:27:11Z</time>
      </trkpt>
      <trkpt lat="47.68999" lon="7.13065">
        <ele>296.615875</ele>
        <time>2022-10-30T13:27:13Z</time>
      </trkpt>
      <trkpt lat="47.68991" lon="7.13054">
        <ele>296.556274</ele>
        <time>2022-10-30T13:27:15Z</time>
      </trkpt>
      <trkpt lat="47.68981" lon="7.13044">
        <ele>296.515839</ele>
        <time>2022-10-30T13:27:17Z</time>
      </trkpt>
      <trkpt lat="47.68972" lon="7.13035">
        <ele>296.454132</ele>
        <time>2022-10-30T13:27:19Z</time>
      </trkpt>
      <trkpt lat="47.68963" lon="7.13025">
        <ele>296.432861</ele>
        <time>2022-10-30T13:27:21Z</time>
      </trkpt>
      <trkpt lat="47.68954" lon="7.13014">
        <ele>296.396088</ele>
        <time>2022-10-30T13:27:23Z</time>
      </trkpt>
      <trkpt lat="47.68945" lon="7.13002">
        <ele>296.413116</ele>
        <time>2022-10-30T13:27:25Z</time>
      </trkpt>
      <trkpt lat="47.68939" lon="7.1299">
        <ele>296.404602</ele>
        <time>2022-10-30T13:27:27Z</time>
      </trkpt>
      <trkpt lat="47.68933" lon="7.12977">
        <ele>296.427124</ele>
        <time>2022-10-30T13:27:29Z</time>
      </trkpt>
      <trkpt lat="47.68928" lon="7.12964">
        <ele>296.405823</ele>
        <time>2022-10-30T13:27:31Z</time>
      </trkpt>
      <trkpt lat="47.68923" lon="7.12952">
        <ele>296.484558</ele>
        <time>2022-10-30T13:27:33Z</time>
      </trkpt>
      <trkpt lat="47.68918" lon="7.12939">
        <ele>296.506531</ele>
        <time>2022-10-30T13:27:35Z</time>
      </trkpt>
      <trkpt lat="47.68913" lon="7.12926">
        <ele>296.53418</ele>
        <time>2022-10-30T13:27:37Z</time>
      </trkpt>
      <trkpt lat="47.68909" lon="7.12913">
        <ele>296.586395</ele>
        <time>2022-10-30T13:27:39Z</time>
      </trkpt>
      <trkpt lat="47.68904" lon="7.129">
        <ele>296.675262</ele>
        <time>2022-10-30T13:27:41Z</time>
      </trkpt>
      <trkpt lat="47.689" lon="7.12888">
        <ele>296.79657</ele>
        <time>2022-10-30T13:27:43Z</time>
      </trkpt>
      <trkpt lat="47.68895" lon="7.12875">
        <ele>296.898743</ele>
        <time>2022-10-30T13:27:45Z</time>
      </trkpt>
      <trkpt lat="47.68891" lon="7.12861">
        <ele>297.02005</ele>
        <time>2022-10-30T13:27:47Z</time>
      </trkpt>
      <trkpt lat="47.68887" lon="7.12847">
        <ele>297.181458</ele>
        <time>2022-10-30T13:27:49Z</time>
      </trkpt>
      <trkpt lat="47.68882" lon="7.12834">
        <ele>297.377289</ele>
        <time>2022-10-30T13:27:51Z</time>
      </trkpt>
      <trkpt lat="47.68878" lon="7.12822">
        <ele>297.545441</ele>
        <time>2022-10-30T13:27:53Z</time>
      </trkpt>
      <trkpt lat="47.68875" lon="7.12812">
        <ele>297.748596</ele>
        <time>2022-10-30T13:27:55Z</time>
      </trkpt>
      <trkpt lat="47.68871" lon="7.12803">
        <ele>297.869904</ele>
        <time>2022-10-30T13:27:57Z</time>
      </trkpt>
      <trkpt lat="47.68868" lon="7.12795">
        <ele>298.097687</ele>
        <time>2022-10-30T13:27:59Z</time>
      </trkpt>
      <trkpt lat="47.68864" lon="7.12786">
        <ele>298.344604</ele>
        <time>2022-10-30T13:28:01Z</time>
      </trkpt>
      <trkpt lat="47.6886" lon="7.12778">
        <ele>298.602142</ele>
        <time>2022-10-30T13:28:03Z</time>
      </trkpt>
      <trkpt lat="47.68855" lon="7.12774">
        <ele>298.889984</ele>
        <time>2022-10-30T13:28:05Z</time>
      </trkpt>
      <trkpt lat="47.68848" lon="7.12775">
        <ele>299.178619</ele>
        <time>2022-10-30T13:28:07Z</time>
      </trkpt>
      <trkpt lat="47.68842" lon="7.12783">
        <ele>299.455322</ele>
        <time>2022-10-30T13:28:09Z</time>
      </trkpt>
      <trkpt lat="47.68837" lon="7.12791">
        <ele>299.673157</ele>
        <time>2022-10-30T13:28:11Z</time>
      </trkpt>
      <trkpt lat="47.68832" lon="7.12799">
        <ele>299.97757</ele>
        <time>2022-10-30T13:28:13Z</time>
      </trkpt>
      <trkpt lat="47.68827" lon="7.12806">
        <ele>300.212341</ele>
        <time>2022-10-30T13:28:15Z</time>
      </trkpt>
      <trkpt lat="47.68822" lon="7.12813">
        <ele>300.49762</ele>
        <time>2022-10-30T13:28:17Z</time>
      </trkpt>
      <trkpt lat="47.68817" lon="7.1282">
        <ele>300.731506</ele>
        <time>2022-10-30T13:28:19Z</time>
      </trkpt>
      <trkpt lat="47.68812" lon="7.12827">
        <ele>300.938019</ele>
        <time>2022-10-30T13:28:21Z</time>
      </trkpt>
      <trkpt lat="47.68808" lon="7.12835">
        <ele>301.060974</ele>
        <time>2022-10-30T13:28:23Z</time>
      </trkpt>
      <trkpt lat="47.68803" lon="7.12843">
        <ele>301.23877</ele>
        <time>2022-10-30T13:28:25Z</time>
      </trkpt>
      <trkpt lat="47.68797" lon="7.12852">
        <ele>301.447449</ele>
        <time>2022-10-30T13:28:27Z</time>
      </trkpt>
      <trkpt lat="47.6879" lon="7.12862">
        <ele>301.581543</ele>
        <time>2022-10-30T13:28:29Z</time>
      </trkpt>
      <trkpt lat="47.68784" lon="7.12872">
        <ele>301.72995</ele>
        <time>2022-10-30T13:28:31Z</time>
      </trkpt>
      <trkpt lat="47.68776" lon="7.12882">
        <ele>301.818024</ele>
        <time>2022-10-30T13:28:33Z</time>
      </trkpt>
      <trkpt lat="47.68768" lon="7.12892">
        <ele>301.922974</ele>
        <time>2022-10-30T13:28:35Z</time>
      </trkpt>
      <trkpt lat="47.6876" lon="7.12902">
        <ele>302.009338</ele>
        <time>2022-10-30T13:28:37Z</time>
      </trkpt>
      <trkpt lat="47.68752" lon="7.12912">
        <ele>302.071075</ele>
        <time>2022-10-30T13:28:39Z</time>
      </trkpt>
      <trkpt lat="47.68744" lon="7.12921">
        <ele>302.092346</ele>
        <time>2022-10-30T13:28:41Z</time>
      </trkpt>
      <trkpt lat="47.68736" lon="7.12931">
        <ele>302.126434</ele>
        <time>2022-10-30T13:28:43Z</time>
      </trkpt>
      <trkpt lat="47.68728" lon="7.12941">
        <ele>302.092377</ele>
        <time>2022-10-30T13:28:45Z</time>
      </trkpt>
      <trkpt lat="47.68721" lon="7.1295">
        <ele>302.098785</ele>
        <time>2022-10-30T13:28:47Z</time>
      </trkpt>
      <trkpt lat="47.68713" lon="7.12959">
        <ele>302.090698</ele>
        <time>2022-10-30T13:28:49Z</time>
      </trkpt>
      <trkpt lat="47.68705" lon="7.12969">
        <ele>302.062439</ele>
        <time>2022-10-30T13:28:51Z</time>
      </trkpt>
      <trkpt lat="47.68697" lon="7.12979">
        <ele>302.053223</ele>
        <time>2022-10-30T13:28:53Z</time>
      </trkpt>
      <trkpt lat="47.68689" lon="7.12988">
        <ele>301.991486</ele>
        <time>2022-10-30T13:28:55Z</time>
      </trkpt>
      <trkpt lat="47.68681" lon="7.12997">
        <ele>301.939392</ele>
        <time>2022-10-30T13:28:57Z</time>
      </trkpt>
      <trkpt lat="47.68672" lon="7.13005">
        <ele>301.871246</ele>
        <time>2022-10-30T13:28:59Z</time>
      </trkpt>
      <trkpt lat="47.68663" lon="7.13012">
        <ele>301.795837</ele>
        <time>2022-10-30T13:29:01Z</time>
      </trkpt>
      <trkpt lat="47.68654" lon="7.13019">
        <ele>301.753693</ele>
        <time>2022-10-30T13:29:03Z</time>
      </trkpt>
      <trkpt lat="47.68644" lon="7.13026">
        <ele>301.670593</ele>
        <time>2022-10-30T13:29:05Z</time>
      </trkpt>
      <trkpt lat="47.68634" lon="7.13033">
        <ele>301.53009</ele>
        <time>2022-10-30T13:29:07Z</time>
      </trkpt>
      <trkpt lat="47.68624" lon="7.1304">
        <ele>301.410828</ele>
        <time>2022-10-30T13:29:09Z</time>
      </trkpt>
      <trkpt lat="47.68613" lon="7.13047">
        <ele>301.318115</ele>
        <time>2022-10-30T13:29:11Z</time>
      </trkpt>
      <trkpt lat="47.68603" lon="7.13055">
        <ele>301.223663</ele>
        <time>2022-10-30T13:29:13Z</time>
      </trkpt>
      <trkpt lat="47.68593" lon="7.13061">
        <ele>301.161926</ele>
        <time>2022-10-30T13:29:15Z</time>
      </trkpt>
      <trkpt lat="47.68582" lon="7.13069">
        <ele>301.095764</ele>
        <time>2022-10-30T13:29:17Z</time>
      </trkpt>
      <trkpt lat="47.68572" lon="7.13076">
        <ele>301.057434</ele>
        <time>2022-10-30T13:29:19Z</time>
      </trkpt>
      <trkpt lat="47.68561" lon="7.13084">
        <ele>300.921173</ele>
        <time>2022-10-30T13:29:21Z</time>
      </trkpt>
      <trkpt lat="47.68551" lon="7.13092">
        <ele>300.874329</ele>
        <time>2022-10-30T13:29:23Z</time>
      </trkpt>
      <trkpt lat="47.6854" lon="7.13099">
        <ele>300.795532</ele>
        <time>2022-10-30T13:29:25Z</time>
      </trkpt>
      <trkpt lat="47.6853" lon="7.13107">
        <ele>300.759247</ele>
        <time>2022-10-30T13:29:27Z</time>
      </trkpt>
      <trkpt lat="47.68519" lon="7.13113">
        <ele>300.695984</ele>
        <time>2022-10-30T13:29:29Z</time>
      </trkpt>
      <trkpt lat="47.6851" lon="7.1312">
        <ele>300.635864</ele>
        <time>2022-10-30T13:29:31Z</time>
      </trkpt>
      <trkpt lat="47.68501" lon="7.13127">
        <ele>300.570465</ele>
        <time>2022-10-30T13:29:33Z</time>
      </trkpt>
      <trkpt lat="47.68492" lon="7.13133">
        <ele>300.498077</ele>
        <time>2022-10-30T13:29:35Z</time>
      </trkpt>
      <trkpt lat="47.68483" lon="7.13139">
        <ele>300.472534</ele>
        <time>2022-10-30T13:29:37Z</time>
      </trkpt>
      <trkpt lat="47.68474" lon="7.13145">
        <ele>300.394135</ele>
        <time>2022-10-30T13:29:39Z</time>
      </trkpt>
      <trkpt lat="47.68465" lon="7.13147">
        <ele>300.385651</ele>
        <time>2022-10-30T13:29:41Z</time>
      </trkpt>
      <trkpt lat="47.68458" lon="7.13144">
        <ele>300.357971</ele>
        <time>2022-10-30T13:29:43Z</time>
      </trkpt>
      <trkpt lat="47.68453" lon="7.13136">
        <ele>300.340637</ele>
        <time>2022-10-30T13:29:45Z</time>
      </trkpt>
      <trkpt lat="47.68449" lon="7.13128">
        <ele>300.340637</ele>
        <time>2022-10-30T13:29:47Z</time>
      </trkpt>
      <trkpt lat="47.68447" lon="7.1312">
        <ele>300.387451</ele>
        <time>2022-10-30T13:29:49Z</time>
      </trkpt>
      <trkpt lat="47.68444" lon="7.13111">
        <ele>300.435272</ele>
        <time>2022-10-30T13:29:51Z</time>
      </trkpt>
      <trkpt lat="47.68441" lon="7.13102">
        <ele>300.528961</ele>
        <time>2022-10-30T13:29:53Z</time>
      </trkpt>
      <trkpt lat="47.68437" lon="7.13093">
        <ele>300.591827</ele>
        <time>2022-10-30T13:29:55Z</time>
      </trkpt>
      <trkpt lat="47.68434" lon="7.13083">
        <ele>300.691406</ele>
        <time>2022-10-30T13:29:57Z</time>
      </trkpt>
      <trkpt lat="47.6843" lon="7.13073">
        <ele>300.763397</ele>
        <time>2022-10-30T13:29:59Z</time>
      </trkpt>
      <trkpt lat="47.68427" lon="7.13063">
        <ele>300.859772</ele>
        <time>2022-10-30T13:30:01Z</time>
      </trkpt>
      <trkpt lat="47.68423" lon="7.13052">
        <ele>301.015198</ele>
        <time>2022-10-30T13:30:03Z</time>
      </trkpt>
      <trkpt lat="47.68419" lon="7.13042">
        <ele>301.170624</ele>
        <time>2022-10-30T13:30:05Z</time>
      </trkpt>
      <trkpt lat="47.68416" lon="7.13032">
        <ele>301.285614</ele>
        <time>2022-10-30T13:30:07Z</time>
      </trkpt>
      <trkpt lat="47.68412" lon="7.13022">
        <ele>301.475189</ele>
        <time>2022-10-30T13:30:09Z</time>
      </trkpt>
      <trkpt lat="47.68409" lon="7.13011">
        <ele>301.673035</ele>
        <time>2022-10-30T13:30:11Z</time>
      </trkpt>
      <trkpt lat="47.68405" lon="7.13001">
        <ele>301.856628</ele>
        <time>2022-10-30T13:30:13Z</time>
      </trkpt>
      <trkpt lat="47.68401" lon="7.1299">
        <ele>301.931183</ele>
        <time>2022-10-30T13:30:15Z</time>
      </trkpt>
      <trkpt lat="47.68398" lon="7.1298">
        <ele>302.163574</ele>
        <time>2022-10-30T13:30:17Z</time>
      </trkpt>
      <trkpt lat="47.68393" lon="7.12969">
        <ele>302.348175</ele>
        <time>2022-10-30T13:30:19Z</time>
      </trkpt>
      <trkpt lat="47.6839" lon="7.12958">
        <ele>302.610077</ele>
        <time>2022-10-30T13:30:21Z</time>
      </trkpt>
      <trkpt lat="47.68386" lon="7.12947">
        <ele>302.831421</ele>
        <time>2022-10-30T13:30:23Z</time>
      </trkpt>
      <trkpt lat="47.68382" lon="7.12937">
        <ele>303.048279</ele>
        <time>2022-10-30T13:30:25Z</time>
      </trkpt>
      <trkpt lat="47.68378" lon="7.12926">
        <ele>303.295166</ele>
        <time>2022-10-30T13:30:27Z</time>
      </trkpt>
      <trkpt lat="47.68375" lon="7.12916">
        <ele>303.569031</ele>
        <time>2022-10-30T13:30:29Z</time>
      </trkpt>
      <trkpt lat="47.68371" lon="7.12906">
        <ele>303.875732</ele>
        <time>2022-10-30T13:30:31Z</time>
      </trkpt>
      <trkpt lat="47.68368" lon="7.12896">
        <ele>304.189941</ele>
        <time>2022-10-30T13:30:33Z</time>
      </trkpt>
      <trkpt lat="47.68364" lon="7.12886">
        <ele>304.483887</ele>
        <time>2022-10-30T13:30:35Z</time>
      </trkpt>
      <trkpt lat="47.68361" lon="7.12876">
        <ele>304.723419</ele>
        <time>2022-10-30T13:30:37Z</time>
      </trkpt>
      <trkpt lat="47.68357" lon="7.12866">
        <ele>305.010834</ele>
        <time>2022-10-30T13:30:39Z</time>
      </trkpt>
      <trkpt lat="47.68354" lon="7.12856">
        <ele>305.285583</ele>
        <time>2022-10-30T13:30:41Z</time>
      </trkpt>
      <trkpt lat="47.6835" lon="7.12847">
        <ele>305.444763</ele>
        <time>2022-10-30T13:30:43Z</time>
      </trkpt>
      <trkpt lat="47.68347" lon="7.12837">
        <ele>305.705383</ele>
        <time>2022-10-30T13:30:45Z</time>
      </trkpt>
      <trkpt lat="47.68343" lon="7.12827">
        <ele>306.007843</ele>
        <time>2022-10-30T13:30:47Z</time>
      </trkpt>
      <trkpt lat="47.6834" lon="7.12816">
        <ele>306.310303</ele>
        <time>2022-10-30T13:30:49Z</time>
      </trkpt>
      <trkpt lat="47.68337" lon="7.12806">
        <ele>306.612823</ele>
        <time>2022-10-30T13:30:51Z</time>
      </trkpt>
      <trkpt lat="47.68333" lon="7.12796">
        <ele>306.911072</ele>
        <time>2022-10-30T13:30:53Z</time>
      </trkpt>
      <trkpt lat="47.6833" lon="7.12785">
        <ele>307.198669</ele>
        <time>2022-10-30T13:30:55Z</time>
      </trkpt>
      <trkpt lat="47.68327" lon="7.12774">
        <ele>307.500854</ele>
        <time>2022-10-30T13:30:57Z</time>
      </trkpt>
      <trkpt lat="47.68324" lon="7.12762">
        <ele>307.763123</ele>
        <time>2022-10-30T13:30:59Z</time>
      </trkpt>
      <trkpt lat="47.68321" lon="7.12751">
        <ele>307.97403</ele>
        <time>2022-10-30T13:31:01Z</time>
      </trkpt>
      <trkpt lat="47.68317" lon="7.1274">
        <ele>308.244568</ele>
        <time>2022-10-30T13:31:03Z</time>
      </trkpt>
      <trkpt lat="47.68314" lon="7.12728">
        <ele>308.487579</ele>
        <time>2022-10-30T13:31:05Z</time>
      </trkpt>
      <trkpt lat="47.68311" lon="7.12715">
        <ele>308.624268</ele>
        <time>2022-10-30T13:31:07Z</time>
      </trkpt>
      <trkpt lat="47.68306" lon="7.12702">
        <ele>308.838593</ele>
        <time>2022-10-30T13:31:09Z</time>
      </trkpt>
      <trkpt lat="47.68302" lon="7.12686">
        <ele>308.954529</ele>
        <time>2022-10-30T13:31:11Z</time>
      </trkpt>
      <trkpt lat="47.68297" lon="7.12669">
        <ele>309.018433</ele>
        <time>2022-10-30T13:31:13Z</time>
      </trkpt>
      <trkpt lat="47.68292" lon="7.1265">
        <ele>309.031189</ele>
        <time>2022-10-30T13:31:15Z</time>
      </trkpt>
      <trkpt lat="47.68285" lon="7.1263">
        <ele>308.943878</ele>
        <time>2022-10-30T13:31:17Z</time>
      </trkpt>
      <trkpt lat="47.68279" lon="7.12607">
        <ele>308.937469</ele>
        <time>2022-10-30T13:31:19Z</time>
      </trkpt>
      <trkpt lat="47.68271" lon="7.12584">
        <ele>308.864807</ele>
        <time>2022-10-30T13:31:21Z</time>
      </trkpt>
      <trkpt lat="47.68263" lon="7.1256">
        <ele>308.632629</ele>
        <time>2022-10-30T13:31:23Z</time>
      </trkpt>
      <trkpt lat="47.68253" lon="7.12537">
        <ele>308.327332</ele>
        <time>2022-10-30T13:31:25Z</time>
      </trkpt>
      <trkpt lat="47.68242" lon="7.12513">
        <ele>308.04303</ele>
        <time>2022-10-30T13:31:27Z</time>
      </trkpt>
      <trkpt lat="47.68229" lon="7.12491">
        <ele>307.815155</ele>
        <time>2022-10-30T13:31:29Z</time>
      </trkpt>
      <trkpt lat="47.68215" lon="7.12469">
        <ele>307.416138</ele>
        <time>2022-10-30T13:31:31Z</time>
      </trkpt>
      <trkpt lat="47.68201" lon="7.12449">
        <ele>306.851746</ele>
        <time>2022-10-30T13:31:33Z</time>
      </trkpt>
      <trkpt lat="47.68186" lon="7.1243">
        <ele>306.27243</ele>
        <time>2022-10-30T13:31:35Z</time>
      </trkpt>
      <trkpt lat="47.68171" lon="7.12411">
        <ele>305.695313</ele>
        <time>2022-10-30T13:31:37Z</time>
      </trkpt>
      <trkpt lat="47.68158" lon="7.12393">
        <ele>305.124573</ele>
        <time>2022-10-30T13:31:39Z</time>
      </trkpt>
      <trkpt lat="47.68145" lon="7.12377">
        <ele>304.558136</ele>
        <time>2022-10-30T13:31:41Z</time>
      </trkpt>
      <trkpt lat="47.68133" lon="7.1236">
        <ele>304.024353</ele>
        <time>2022-10-30T13:31:43Z</time>
      </trkpt>
      <trkpt lat="47.68122" lon="7.12345">
        <ele>303.396057</ele>
        <time>2022-10-30T13:31:45Z</time>
      </trkpt>
      <trkpt lat="47.68112" lon="7.12332">
        <ele>302.816803</ele>
        <time>2022-10-30T13:31:47Z</time>
      </trkpt>
      <trkpt lat="47.68103" lon="7.12319">
        <ele>302.197937</ele>
        <time>2022-10-30T13:31:49Z</time>
      </trkpt>
      <trkpt lat="47.68094" lon="7.12307">
        <ele>301.916809</ele>
        <time>2022-10-30T13:31:51Z</time>
      </trkpt>
      <trkpt lat="47.68085" lon="7.12296">
        <ele>301.425049</ele>
        <time>2022-10-30T13:31:53Z</time>
      </trkpt>
      <trkpt lat="47.68076" lon="7.12285">
        <ele>300.956543</ele>
        <time>2022-10-30T13:31:55Z</time>
      </trkpt>
      <trkpt lat="47.68068" lon="7.12274">
        <ele>300.583832</ele>
        <time>2022-10-30T13:31:57Z</time>
      </trkpt>
      <trkpt lat="47.6806" lon="7.12264">
        <ele>300.289978</ele>
        <time>2022-10-30T13:31:59Z</time>
      </trkpt>
      <trkpt lat="47.68052" lon="7.12254">
        <ele>299.991821</ele>
        <time>2022-10-30T13:32:01Z</time>
      </trkpt>
      <trkpt lat="47.68046" lon="7.12246">
        <ele>299.653625</ele>
        <time>2022-10-30T13:32:03Z</time>
      </trkpt>
      <trkpt lat="47.6804" lon="7.12239">
        <ele>299.523743</ele>
        <time>2022-10-30T13:32:05Z</time>
      </trkpt>
      <trkpt lat="47.68034" lon="7.12231">
        <ele>299.423584</ele>
        <time>2022-10-30T13:32:07Z</time>
      </trkpt>
      <trkpt lat="47.68028" lon="7.12223">
        <ele>299.318115</ele>
        <time>2022-10-30T13:32:09Z</time>
      </trkpt>
      <trkpt lat="47.68022" lon="7.12216">
        <ele>299.274139</ele>
        <time>2022-10-30T13:32:11Z</time>
      </trkpt>
      <trkpt lat="47.68016" lon="7.12208">
        <ele>299.36145</ele>
        <time>2022-10-30T13:32:13Z</time>
      </trkpt>
      <trkpt lat="47.6801" lon="7.122">
        <ele>299.544525</ele>
        <time>2022-10-30T13:32:15Z</time>
      </trkpt>
      <trkpt lat="47.68004" lon="7.12193">
        <ele>299.757416</ele>
        <time>2022-10-30T13:32:17Z</time>
      </trkpt>
      <trkpt lat="47.67997" lon="7.12185">
        <ele>299.974548</ele>
        <time>2022-10-30T13:32:19Z</time>
      </trkpt>
      <trkpt lat="47.67991" lon="7.12177">
        <ele>300.198456</ele>
        <time>2022-10-30T13:32:21Z</time>
      </trkpt>
      <trkpt lat="47.67985" lon="7.12169">
        <ele>300.453186</ele>
        <time>2022-10-30T13:32:23Z</time>
      </trkpt>
      <trkpt lat="47.67979" lon="7.12162">
        <ele>300.580933</ele>
        <time>2022-10-30T13:32:25Z</time>
      </trkpt>
      <trkpt lat="47.67973" lon="7.12154">
        <ele>300.837952</ele>
        <time>2022-10-30T13:32:27Z</time>
      </trkpt>
      <trkpt lat="47.67967" lon="7.12146">
        <ele>301.101959</ele>
        <time>2022-10-30T13:32:29Z</time>
      </trkpt>
      <trkpt lat="47.6796" lon="7.12138">
        <ele>301.375031</ele>
        <time>2022-10-30T13:32:31Z</time>
      </trkpt>
      <trkpt lat="47.67953" lon="7.12129">
        <ele>301.605621</ele>
        <time>2022-10-30T13:32:33Z</time>
      </trkpt>
      <trkpt lat="47.67946" lon="7.1212">
        <ele>301.865417</ele>
        <time>2022-10-30T13:32:35Z</time>
      </trkpt>
      <trkpt lat="47.67939" lon="7.12112">
        <ele>302.082458</ele>
        <time>2022-10-30T13:32:37Z</time>
      </trkpt>
      <trkpt lat="47.67932" lon="7.12103">
        <ele>302.163361</ele>
        <time>2022-10-30T13:32:39Z</time>
      </trkpt>
      <trkpt lat="47.67924" lon="7.12096">
        <ele>302.35788</ele>
        <time>2022-10-30T13:32:41Z</time>
      </trkpt>
      <trkpt lat="47.67915" lon="7.12089">
        <ele>302.549469</ele>
        <time>2022-10-30T13:32:43Z</time>
      </trkpt>
      <trkpt lat="47.67905" lon="7.12083">
        <ele>302.79715</ele>
        <time>2022-10-30T13:32:45Z</time>
      </trkpt>
      <trkpt lat="47.67895" lon="7.12077">
        <ele>302.935577</ele>
        <time>2022-10-30T13:32:47Z</time>
      </trkpt>
      <trkpt lat="47.67884" lon="7.12071">
        <ele>303.078278</ele>
        <time>2022-10-30T13:32:49Z</time>
      </trkpt>
      <trkpt lat="47.67872" lon="7.12064">
        <ele>303.127228</ele>
        <time>2022-10-30T13:32:51Z</time>
      </trkpt>
      <trkpt lat="47.67859" lon="7.12058">
        <ele>303.161285</ele>
        <time>2022-10-30T13:32:53Z</time>
      </trkpt>
      <trkpt lat="47.67845" lon="7.12051">
        <ele>303.163391</ele>
        <time>2022-10-30T13:32:55Z</time>
      </trkpt>
      <trkpt lat="47.67831" lon="7.12044">
        <ele>303.188721</ele>
        <time>2022-10-30T13:32:57Z</time>
      </trkpt>
      <trkpt lat="47.67817" lon="7.12036">
        <ele>303.095032</ele>
        <time>2022-10-30T13:32:59Z</time>
      </trkpt>
      <trkpt lat="47.67801" lon="7.12028">
        <ele>302.931061</ele>
        <time>2022-10-30T13:33:01Z</time>
      </trkpt>
      <trkpt lat="47.67785" lon="7.1202">
        <ele>302.760681</ele>
        <time>2022-10-30T13:33:03Z</time>
      </trkpt>
      <trkpt lat="47.6777" lon="7.12011">
        <ele>302.520111</ele>
        <time>2022-10-30T13:33:05Z</time>
      </trkpt>
      <trkpt lat="47.67754" lon="7.12">
        <ele>302.335052</ele>
        <time>2022-10-30T13:33:07Z</time>
      </trkpt>
      <trkpt lat="47.6774" lon="7.11988">
        <ele>302.065277</ele>
        <time>2022-10-30T13:33:09Z</time>
      </trkpt>
      <trkpt lat="47.67727" lon="7.11976">
        <ele>301.80127</ele>
        <time>2022-10-30T13:33:11Z</time>
      </trkpt>
      <trkpt lat="47.67714" lon="7.11964">
        <ele>301.538879</ele>
        <time>2022-10-30T13:33:13Z</time>
      </trkpt>
      <trkpt lat="47.67703" lon="7.11953">
        <ele>301.263519</ele>
        <time>2022-10-30T13:33:15Z</time>
      </trkpt>
      <trkpt lat="47.67691" lon="7.11942">
        <ele>300.958832</ele>
        <time>2022-10-30T13:33:17Z</time>
      </trkpt>
      <trkpt lat="47.67681" lon="7.11932">
        <ele>300.809814</ele>
        <time>2022-10-30T13:33:19Z</time>
      </trkpt>
      <trkpt lat="47.6767" lon="7.11922">
        <ele>300.533142</ele>
        <time>2022-10-30T13:33:21Z</time>
      </trkpt>
      <trkpt lat="47.67661" lon="7.11912">
        <ele>300.204529</ele>
        <time>2022-10-30T13:33:23Z</time>
      </trkpt>
      <trkpt lat="47.67651" lon="7.11903">
        <ele>299.938477</ele>
        <time>2022-10-30T13:33:25Z</time>
      </trkpt>
      <trkpt lat="47.67642" lon="7.11894">
        <ele>299.684509</ele>
        <time>2022-10-30T13:33:27Z</time>
      </trkpt>
      <trkpt lat="47.67633" lon="7.11886">
        <ele>299.548248</ele>
        <time>2022-10-30T13:33:29Z</time>
      </trkpt>
      <trkpt lat="47.67625" lon="7.11878">
        <ele>299.386414</ele>
        <time>2022-10-30T13:33:31Z</time>
      </trkpt>
      <trkpt lat="47.67617" lon="7.1187">
        <ele>299.245941</ele>
        <time>2022-10-30T13:33:33Z</time>
      </trkpt>
      <trkpt lat="47.67609" lon="7.11863">
        <ele>299.171448</ele>
        <time>2022-10-30T13:33:35Z</time>
      </trkpt>
      <trkpt lat="47.67601" lon="7.11856">
        <ele>299.077972</ele>
        <time>2022-10-30T13:33:37Z</time>
      </trkpt>
      <trkpt lat="47.67593" lon="7.11849">
        <ele>299.033875</ele>
        <time>2022-10-30T13:33:39Z</time>
      </trkpt>
      <trkpt lat="47.67587" lon="7.11842">
        <ele>299.052002</ele>
        <time>2022-10-30T13:33:41Z</time>
      </trkpt>
      <trkpt lat="47.67579" lon="7.11835">
        <ele>299.115173</ele>
        <time>2022-10-30T13:33:43Z</time>
      </trkpt>
      <trkpt lat="47.67572" lon="7.11827">
        <ele>299.220367</ele>
        <time>2022-10-30T13:33:45Z</time>
      </trkpt>
      <trkpt lat="47.67565" lon="7.1182">
        <ele>299.414093</ele>
        <time>2022-10-30T13:33:47Z</time>
      </trkpt>
      <trkpt lat="47.67558" lon="7.11814">
        <ele>299.577881</ele>
        <time>2022-10-30T13:33:49Z</time>
      </trkpt>
      <trkpt lat="47.67551" lon="7.11807">
        <ele>299.867401</ele>
        <time>2022-10-30T13:33:51Z</time>
      </trkpt>
      <trkpt lat="47.67545" lon="7.11799">
        <ele>300.10968</ele>
        <time>2022-10-30T13:33:53Z</time>
      </trkpt>
      <trkpt lat="47.67538" lon="7.11791">
        <ele>300.411987</ele>
        <time>2022-10-30T13:33:55Z</time>
      </trkpt>
      <trkpt lat="47.67532" lon="7.11782">
        <ele>300.693024</ele>
        <time>2022-10-30T13:33:57Z</time>
      </trkpt>
      <trkpt lat="47.67525" lon="7.11773">
        <ele>301.093323</ele>
        <time>2022-10-30T13:33:59Z</time>
      </trkpt>
      <trkpt lat="47.67519" lon="7.11765">
        <ele>301.440399</ele>
        <time>2022-10-30T13:34:01Z</time>
      </trkpt>
      <trkpt lat="47.67513" lon="7.11756">
        <ele>301.862</ele>
        <time>2022-10-30T13:34:03Z</time>
      </trkpt>
      <trkpt lat="47.67506" lon="7.11748">
        <ele>302.249542</ele>
        <time>2022-10-30T13:34:05Z</time>
      </trkpt>
      <trkpt lat="47.67501" lon="7.11739">
        <ele>302.407715</ele>
        <time>2022-10-30T13:34:07Z</time>
      </trkpt>
      <trkpt lat="47.67495" lon="7.11729">
        <ele>302.778473</ele>
        <time>2022-10-30T13:34:09Z</time>
      </trkpt>
      <trkpt lat="47.67489" lon="7.1172">
        <ele>303.078735</ele>
        <time>2022-10-30T13:34:11Z</time>
      </trkpt>
      <trkpt lat="47.67482" lon="7.1171">
        <ele>303.511047</ele>
        <time>2022-10-30T13:34:13Z</time>
      </trkpt>
      <trkpt lat="47.67477" lon="7.11701">
        <ele>303.896759</ele>
        <time>2022-10-30T13:34:15Z</time>
      </trkpt>
      <trkpt lat="47.67471" lon="7.11692">
        <ele>304.290039</ele>
        <time>2022-10-30T13:34:17Z</time>
      </trkpt>
      <trkpt lat="47.67465" lon="7.11682">
        <ele>304.752228</ele>
        <time>2022-10-30T13:34:19Z</time>
      </trkpt>
      <trkpt lat="47.67459" lon="7.11673">
        <ele>305.219086</ele>
        <time>2022-10-30T13:34:21Z</time>
      </trkpt>
      <trkpt lat="47.67453" lon="7.11663">
        <ele>305.709686</ele>
        <time>2022-10-30T13:34:23Z</time>
      </trkpt>
      <trkpt lat="47.67446" lon="7.11653">
        <ele>306.173218</ele>
        <time>2022-10-30T13:34:25Z</time>
      </trkpt>
      <trkpt lat="47.67439" lon="7.11643">
        <ele>306.605652</ele>
        <time>2022-10-30T13:34:27Z</time>
      </trkpt>
      <trkpt lat="47.67432" lon="7.11633">
        <ele>306.781677</ele>
        <time>2022-10-30T13:34:29Z</time>
      </trkpt>
      <trkpt lat="47.67426" lon="7.11622">
        <ele>307.180023</ele>
        <time>2022-10-30T13:34:31Z</time>
      </trkpt>
      <trkpt lat="47.67419" lon="7.11612">
        <ele>307.595459</ele>
        <time>2022-10-30T13:34:33Z</time>
      </trkpt>
      <trkpt lat="47.67412" lon="7.11602">
        <ele>308.053955</ele>
        <time>2022-10-30T13:34:35Z</time>
      </trkpt>
      <trkpt lat="47.67405" lon="7.11592">
        <ele>308.477936</ele>
        <time>2022-10-30T13:34:37Z</time>
      </trkpt>
      <trkpt lat="47.67398" lon="7.11582">
        <ele>308.929596</ele>
        <time>2022-10-30T13:34:39Z</time>
      </trkpt>
      <trkpt lat="47.67391" lon="7.11572">
        <ele>309.284393</ele>
        <time>2022-10-30T13:34:41Z</time>
      </trkpt>
      <trkpt lat="47.67385" lon="7.11562">
        <ele>309.744659</ele>
        <time>2022-10-30T13:34:43Z</time>
      </trkpt>
      <trkpt lat="47.67378" lon="7.11553">
        <ele>310.080658</ele>
        <time>2022-10-30T13:34:45Z</time>
      </trkpt>
      <trkpt lat="47.67371" lon="7.11543">
        <ele>310.50473</ele>
        <time>2022-10-30T13:34:47Z</time>
      </trkpt>
      <trkpt lat="47.67364" lon="7.11534">
        <ele>310.926086</ele>
        <time>2022-10-30T13:34:49Z</time>
      </trkpt>
      <trkpt lat="47.67356" lon="7.11525">
        <ele>311.294739</ele>
        <time>2022-10-30T13:34:51Z</time>
      </trkpt>
      <trkpt lat="47.67349" lon="7.11516">
        <ele>311.703918</ele>
        <time>2022-10-30T13:34:53Z</time>
      </trkpt>
      <trkpt lat="47.67341" lon="7.11507">
        <ele>312.112854</ele>
        <time>2022-10-30T13:34:55Z</time>
      </trkpt>
      <trkpt lat="47.67334" lon="7.11499">
        <ele>312.515564</ele>
        <time>2022-10-30T13:34:57Z</time>
      </trkpt>
      <trkpt lat="47.67326" lon="7.11491">
        <ele>312.869659</ele>
        <time>2022-10-30T13:34:59Z</time>
      </trkpt>
      <trkpt lat="47.67319" lon="7.11483">
        <ele>313.06366</ele>
        <time>2022-10-30T13:35:01Z</time>
      </trkpt>
      <trkpt lat="47.67312" lon="7.11474">
        <ele>313.389465</ele>
        <time>2022-10-30T13:35:03Z</time>
      </trkpt>
      <trkpt lat="47.67304" lon="7.11465">
        <ele>313.707123</ele>
        <time>2022-10-30T13:35:05Z</time>
      </trkpt>
      <trkpt lat="47.67296" lon="7.11456">
        <ele>314.054626</ele>
        <time>2022-10-30T13:35:07Z</time>
      </trkpt>
      <trkpt lat="47.67288" lon="7.11446">
        <ele>314.359375</ele>
        <time>2022-10-30T13:35:09Z</time>
      </trkpt>
      <trkpt lat="47.6728" lon="7.11437">
        <ele>314.675415</ele>
        <time>2022-10-30T13:35:11Z</time>
      </trkpt>
      <trkpt lat="47.67272" lon="7.11427">
        <ele>315.029297</ele>
        <time>2022-10-30T13:35:13Z</time>
      </trkpt>
      <trkpt lat="47.67265" lon="7.11418">
        <ele>315.314972</ele>
        <time>2022-10-30T13:35:15Z</time>
      </trkpt>
      <trkpt lat="47.67259" lon="7.1141">
        <ele>315.604919</ele>
        <time>2022-10-30T13:35:17Z</time>
      </trkpt>
      <trkpt lat="47.67253" lon="7.11403">
        <ele>315.86731</ele>
        <time>2022-10-30T13:35:19Z</time>
      </trkpt>
      <trkpt lat="47.67247" lon="7.11395">
        <ele>316.153015</ele>
        <time>2022-10-30T13:35:21Z</time>
      </trkpt>
      <trkpt lat="47.67241" lon="7.11386">
        <ele>316.456848</ele>
        <time>2022-10-30T13:35:23Z</time>
      </trkpt>
      <trkpt lat="47.67236" lon="7.11378">
        <ele>316.552795</ele>
        <time>2022-10-30T13:35:25Z</time>
      </trkpt>
      <trkpt lat="47.6723" lon="7.1137">
        <ele>316.809631</ele>
        <time>2022-10-30T13:35:27Z</time>
      </trkpt>
      <trkpt lat="47.67223" lon="7.11361">
        <ele>316.984467</ele>
        <time>2022-10-30T13:35:29Z</time>
      </trkpt>
      <trkpt lat="47.67216" lon="7.11351">
        <ele>317.142273</ele>
        <time>2022-10-30T13:35:31Z</time>
      </trkpt>
      <trkpt lat="47.67209" lon="7.1134">
        <ele>317.344818</ele>
        <time>2022-10-30T13:35:33Z</time>
      </trkpt>
      <trkpt lat="47.67201" lon="7.1133">
        <ele>317.445068</ele>
        <time>2022-10-30T13:35:35Z</time>
      </trkpt>
      <trkpt lat="47.67193" lon="7.11319">
        <ele>317.564209</ele>
        <time>2022-10-30T13:35:37Z</time>
      </trkpt>
      <trkpt lat="47.67186" lon="7.11309">
        <ele>317.667389</ele>
        <time>2022-10-30T13:35:39Z</time>
      </trkpt>
      <trkpt lat="47.67179" lon="7.11297">
        <ele>317.743164</ele>
        <time>2022-10-30T13:35:41Z</time>
      </trkpt>
      <trkpt lat="47.67172" lon="7.11284">
        <ele>317.745056</ele>
        <time>2022-10-30T13:35:43Z</time>
      </trkpt>
      <trkpt lat="47.67164" lon="7.11272">
        <ele>317.710938</ele>
        <time>2022-10-30T13:35:45Z</time>
      </trkpt>
      <trkpt lat="47.67156" lon="7.1126">
        <ele>317.640564</ele>
        <time>2022-10-30T13:35:47Z</time>
      </trkpt>
      <trkpt lat="47.67148" lon="7.11249">
        <ele>317.580872</ele>
        <time>2022-10-30T13:35:49Z</time>
      </trkpt>
      <trkpt lat="47.6714" lon="7.11237">
        <ele>317.540619</ele>
        <time>2022-10-30T13:35:51Z</time>
      </trkpt>
      <trkpt lat="47.67133" lon="7.11224">
        <ele>317.462402</ele>
        <time>2022-10-30T13:35:53Z</time>
      </trkpt>
      <trkpt lat="47.67126" lon="7.11211">
        <ele>317.306763</ele>
        <time>2022-10-30T13:35:55Z</time>
      </trkpt>
      <trkpt lat="47.67119" lon="7.11197">
        <ele>317.263306</ele>
        <time>2022-10-30T13:35:57Z</time>
      </trkpt>
      <trkpt lat="47.67112" lon="7.11183">
        <ele>317.094879</ele>
        <time>2022-10-30T13:35:59Z</time>
      </trkpt>
      <trkpt lat="47.67105" lon="7.1117">
        <ele>316.90921</ele>
        <time>2022-10-30T13:36:01Z</time>
      </trkpt>
      <trkpt lat="47.67099" lon="7.11158">
        <ele>316.706635</ele>
        <time>2022-10-30T13:36:03Z</time>
      </trkpt>
      <trkpt lat="47.67093" lon="7.11146">
        <ele>316.476349</ele>
        <time>2022-10-30T13:36:05Z</time>
      </trkpt>
      <trkpt lat="47.67087" lon="7.11135">
        <ele>316.279846</ele>
        <time>2022-10-30T13:36:07Z</time>
      </trkpt>
      <trkpt lat="47.67081" lon="7.11123">
        <ele>316.115662</ele>
        <time>2022-10-30T13:36:09Z</time>
      </trkpt>
      <trkpt lat="47.67075" lon="7.11111">
        <ele>315.947205</ele>
        <time>2022-10-30T13:36:11Z</time>
      </trkpt>
      <trkpt lat="47.67069" lon="7.11099">
        <ele>315.736115</ele>
        <time>2022-10-30T13:36:13Z</time>
      </trkpt>
      <trkpt lat="47.67063" lon="7.11088">
        <ele>315.560486</ele>
        <time>2022-10-30T13:36:15Z</time>
      </trkpt>
      <trkpt lat="47.67058" lon="7.11077">
        <ele>315.396545</ele>
        <time>2022-10-30T13:36:17Z</time>
      </trkpt>
      <trkpt lat="47.67053" lon="7.11067">
        <ele>315.228088</ele>
        <time>2022-10-30T13:36:19Z</time>
      </trkpt>
      <trkpt lat="47.67049" lon="7.11056">
        <ele>315.072449</ele>
        <time>2022-10-30T13:36:21Z</time>
      </trkpt>
      <trkpt lat="47.67044" lon="7.11045">
        <ele>314.941406</ele>
        <time>2022-10-30T13:36:23Z</time>
      </trkpt>
      <trkpt lat="47.67039" lon="7.11032">
        <ele>314.928619</ele>
        <time>2022-10-30T13:36:25Z</time>
      </trkpt>
      <trkpt lat="47.67034" lon="7.11019">
        <ele>314.875305</ele>
        <time>2022-10-30T13:36:27Z</time>
      </trkpt>
      <trkpt lat="47.6703" lon="7.11008">
        <ele>314.819855</ele>
        <time>2022-10-30T13:36:29Z</time>
      </trkpt>
      <trkpt lat="47.67025" lon="7.10997">
        <ele>314.777222</ele>
        <time>2022-10-30T13:36:31Z</time>
      </trkpt>
      <trkpt lat="47.67022" lon="7.10986">
        <ele>314.723907</ele>
        <time>2022-10-30T13:36:33Z</time>
      </trkpt>
      <trkpt lat="47.67017" lon="7.10973">
        <ele>314.680603</ele>
        <time>2022-10-30T13:36:35Z</time>
      </trkpt>
      <trkpt lat="47.67012" lon="7.10962">
        <ele>314.69342</ele>
        <time>2022-10-30T13:36:37Z</time>
      </trkpt>
      <trkpt lat="47.67008" lon="7.1095">
        <ele>314.689911</ele>
        <time>2022-10-30T13:36:39Z</time>
      </trkpt>
      <trkpt lat="47.67004" lon="7.10939">
        <ele>314.758148</ele>
        <time>2022-10-30T13:36:41Z</time>
      </trkpt>
      <trkpt lat="47.66999" lon="7.10928">
        <ele>314.851959</ele>
        <time>2022-10-30T13:36:43Z</time>
      </trkpt>
      <trkpt lat="47.66995" lon="7.10917">
        <ele>314.858337</ele>
        <time>2022-10-30T13:36:45Z</time>
      </trkpt>
      <trkpt lat="47.6699" lon="7.10905">
        <ele>314.979858</ele>
        <time>2022-10-30T13:36:47Z</time>
      </trkpt>
      <trkpt lat="47.66986" lon="7.10894">
        <ele>315.067291</ele>
        <time>2022-10-30T13:36:49Z</time>
      </trkpt>
      <trkpt lat="47.66982" lon="7.10882">
        <ele>315.144043</ele>
        <time>2022-10-30T13:36:51Z</time>
      </trkpt>
      <trkpt lat="47.66977" lon="7.10871">
        <ele>315.263855</ele>
        <time>2022-10-30T13:36:53Z</time>
      </trkpt>
      <trkpt lat="47.66973" lon="7.1086">
        <ele>315.421661</ele>
        <time>2022-10-30T13:36:55Z</time>
      </trkpt>
      <trkpt lat="47.66969" lon="7.10849">
        <ele>315.531189</ele>
        <time>2022-10-30T13:36:57Z</time>
      </trkpt>
      <trkpt lat="47.66965" lon="7.10838">
        <ele>315.686859</ele>
        <time>2022-10-30T13:36:59Z</time>
      </trkpt>
      <trkpt lat="47.66961" lon="7.10827">
        <ele>315.848938</ele>
        <time>2022-10-30T13:37:01Z</time>
      </trkpt>
      <trkpt lat="47.66958" lon="7.10817">
        <ele>316.05365</ele>
        <time>2022-10-30T13:37:03Z</time>
      </trkpt>
      <trkpt lat="47.66955" lon="7.10808">
        <ele>316.165497</ele>
        <time>2022-10-30T13:37:05Z</time>
      </trkpt>
      <trkpt lat="47.66953" lon="7.108">
        <ele>316.233734</ele>
        <time>2022-10-30T13:37:07Z</time>
      </trkpt>
      <trkpt lat="47.6695" lon="7.10791">
        <ele>316.376038</ele>
        <time>2022-10-30T13:37:09Z</time>
      </trkpt>
      <trkpt lat="47.66948" lon="7.10784">
        <ele>316.534088</ele>
        <time>2022-10-30T13:37:11Z</time>
      </trkpt>
      <trkpt lat="47.66946" lon="7.10775">
        <ele>316.719574</ele>
        <time>2022-10-30T13:37:13Z</time>
      </trkpt>
      <trkpt lat="47.66944" lon="7.10766">
        <ele>316.888031</ele>
        <time>2022-10-30T13:37:15Z</time>
      </trkpt>
      <trkpt lat="47.66942" lon="7.10757">
        <ele>317.062897</ele>
        <time>2022-10-30T13:37:17Z</time>
      </trkpt>
      <trkpt lat="47.66939" lon="7.10748">
        <ele>317.224945</ele>
        <time>2022-10-30T13:37:19Z</time>
      </trkpt>
      <trkpt lat="47.66937" lon="7.10739">
        <ele>317.429626</ele>
        <time>2022-10-30T13:37:21Z</time>
      </trkpt>
      <trkpt lat="47.66935" lon="7.1073">
        <ele>317.60675</ele>
        <time>2022-10-30T13:37:23Z</time>
      </trkpt>
      <trkpt lat="47.66932" lon="7.1072">
        <ele>317.837067</ele>
        <time>2022-10-30T13:37:25Z</time>
      </trkpt>
      <trkpt lat="47.6693" lon="7.10711">
        <ele>318.039642</ele>
        <time>2022-10-30T13:37:27Z</time>
      </trkpt>
      <trkpt lat="47.66927" lon="7.10701">
        <ele>318.138977</ele>
        <time>2022-10-30T13:37:29Z</time>
      </trkpt>
      <trkpt lat="47.66925" lon="7.10692">
        <ele>318.292084</ele>
        <time>2022-10-30T13:37:31Z</time>
      </trkpt>
      <trkpt lat="47.66923" lon="7.10682">
        <ele>318.51178</ele>
        <time>2022-10-30T13:37:33Z</time>
      </trkpt>
      <trkpt lat="47.66921" lon="7.10673">
        <ele>318.741669</ele>
        <time>2022-10-30T13:37:35Z</time>
      </trkpt>
      <trkpt lat="47.66918" lon="7.10663">
        <ele>318.933594</ele>
        <time>2022-10-30T13:37:37Z</time>
      </trkpt>
      <trkpt lat="47.66916" lon="7.10654">
        <ele>319.148163</ele>
        <time>2022-10-30T13:37:39Z</time>
      </trkpt>
      <trkpt lat="47.66914" lon="7.10644">
        <ele>319.33371</ele>
        <time>2022-10-30T13:37:41Z</time>
      </trkpt>
      <trkpt lat="47.66911" lon="7.10635">
        <ele>319.540588</ele>
        <time>2022-10-30T13:37:43Z</time>
      </trkpt>
      <trkpt lat="47.66909" lon="7.10625">
        <ele>319.670715</ele>
        <time>2022-10-30T13:37:45Z</time>
      </trkpt>
      <trkpt lat="47.66907" lon="7.10616">
        <ele>319.859558</ele>
        <time>2022-10-30T13:37:47Z</time>
      </trkpt>
      <trkpt lat="47.66905" lon="7.10606">
        <ele>320.086243</ele>
        <time>2022-10-30T13:37:49Z</time>
      </trkpt>
      <trkpt lat="47.66903" lon="7.10596">
        <ele>320.303558</ele>
        <time>2022-10-30T13:37:51Z</time>
      </trkpt>
      <trkpt lat="47.66901" lon="7.10587">
        <ele>320.482727</ele>
        <time>2022-10-30T13:37:53Z</time>
      </trkpt>
      <trkpt lat="47.669" lon="7.10578">
        <ele>320.70459</ele>
        <time>2022-10-30T13:37:55Z</time>
      </trkpt>
      <trkpt lat="47.66899" lon="7.10571">
        <ele>320.943481</ele>
        <time>2022-10-30T13:37:57Z</time>
      </trkpt>
      <trkpt lat="47.66898" lon="7.10564">
        <ele>321.05014</ele>
        <time>2022-10-30T13:37:59Z</time>
      </trkpt>
      <trkpt lat="47.66898" lon="7.10556">
        <ele>321.269836</ele>
        <time>2022-10-30T13:38:01Z</time>
      </trkpt>
      <trkpt lat="47.66897" lon="7.10548">
        <ele>321.421326</ele>
        <time>2022-10-30T13:38:03Z</time>
      </trkpt>
      <trkpt lat="47.66897" lon="7.1054">
        <ele>321.604675</ele>
        <time>2022-10-30T13:38:05Z</time>
      </trkpt>
      <trkpt lat="47.66898" lon="7.10531">
        <ele>321.771057</ele>
        <time>2022-10-30T13:38:07Z</time>
      </trkpt>
      <trkpt lat="47.66898" lon="7.10523">
        <ele>321.933197</ele>
        <time>2022-10-30T13:38:09Z</time>
      </trkpt>
      <trkpt lat="47.66899" lon="7.10514">
        <ele>322.130798</ele>
        <time>2022-10-30T13:38:11Z</time>
      </trkpt>
      <trkpt lat="47.669" lon="7.10506">
        <ele>322.276306</ele>
        <time>2022-10-30T13:38:13Z</time>
      </trkpt>
      <trkpt lat="47.669" lon="7.10498">
        <ele>322.392975</ele>
        <time>2022-10-30T13:38:15Z</time>
      </trkpt>
      <trkpt lat="47.66901" lon="7.10491">
        <ele>322.486816</ele>
        <time>2022-10-30T13:38:17Z</time>
      </trkpt>
      <trkpt lat="47.66902" lon="7.10484">
        <ele>322.615662</ele>
        <time>2022-10-30T13:38:19Z</time>
      </trkpt>
      <trkpt lat="47.66903" lon="7.10478">
        <ele>322.698822</ele>
        <time>2022-10-30T13:38:21Z</time>
      </trkpt>
      <trkpt lat="47.66903" lon="7.10473">
        <ele>322.794861</ele>
        <time>2022-10-30T13:38:23Z</time>
      </trkpt>
      <trkpt lat="47.66904" lon="7.10468">
        <ele>322.931396</ele>
        <time>2022-10-30T13:38:25Z</time>
      </trkpt>
      <trkpt lat="47.66905" lon="7.10461">
        <ele>323.03714</ele>
        <time>2022-10-30T13:38:27Z</time>
      </trkpt>
      <trkpt lat="47.66906" lon="7.10453">
        <ele>323.141663</ele>
        <time>2022-10-30T13:38:29Z</time>
      </trkpt>
      <trkpt lat="47.66906" lon="7.10444">
        <ele>323.175812</ele>
        <time>2022-10-30T13:38:31Z</time>
      </trkpt>
      <trkpt lat="47.66908" lon="7.10436">
        <ele>323.237671</ele>
        <time>2022-10-30T13:38:33Z</time>
      </trkpt>
      <trkpt lat="47.66908" lon="7.10429">
        <ele>323.318756</ele>
        <time>2022-10-30T13:38:35Z</time>
      </trkpt>
      <trkpt lat="47.66909" lon="7.10421">
        <ele>323.346497</ele>
        <time>2022-10-30T13:38:37Z</time>
      </trkpt>
      <trkpt lat="47.66909" lon="7.10412">
        <ele>323.363556</ele>
        <time>2022-10-30T13:38:39Z</time>
      </trkpt>
      <trkpt lat="47.66909" lon="7.10402">
        <ele>323.408356</ele>
        <time>2022-10-30T13:38:41Z</time>
      </trkpt>
      <trkpt lat="47.66908" lon="7.10392">
        <ele>323.47876</ele>
        <time>2022-10-30T13:38:43Z</time>
      </trkpt>
      <trkpt lat="47.66906" lon="7.10381">
        <ele>323.54425</ele>
        <time>2022-10-30T13:38:45Z</time>
      </trkpt>
      <trkpt lat="47.66904" lon="7.1037">
        <ele>323.614655</ele>
        <time>2022-10-30T13:38:47Z</time>
      </trkpt>
      <trkpt lat="47.66901" lon="7.10359">
        <ele>323.608246</ele>
        <time>2022-10-30T13:38:49Z</time>
      </trkpt>
      <trkpt lat="47.66898" lon="7.10347">
        <ele>323.674408</ele>
        <time>2022-10-30T13:38:51Z</time>
      </trkpt>
      <trkpt lat="47.66893" lon="7.10337">
        <ele>323.767883</ele>
        <time>2022-10-30T13:38:53Z</time>
      </trkpt>
      <trkpt lat="47.66888" lon="7.10326">
        <ele>323.828308</ele>
        <time>2022-10-30T13:38:55Z</time>
      </trkpt>
      <trkpt lat="47.66883" lon="7.10315">
        <ele>323.902985</ele>
        <time>2022-10-30T13:38:57Z</time>
      </trkpt>
      <trkpt lat="47.66877" lon="7.10304">
        <ele>323.934998</ele>
        <time>2022-10-30T13:38:59Z</time>
      </trkpt>
      <trkpt lat="47.66871" lon="7.10293">
        <ele>323.986176</ele>
        <time>2022-10-30T13:39:01Z</time>
      </trkpt>
      <trkpt lat="47.66866" lon="7.10281">
        <ele>324.051514</ele>
        <time>2022-10-30T13:39:03Z</time>
      </trkpt>
      <trkpt lat="47.6686" lon="7.1027">
        <ele>324.092072</ele>
        <time>2022-10-30T13:39:05Z</time>
      </trkpt>
      <trkpt lat="47.66855" lon="7.1026">
        <ele>324.134735</ele>
        <time>2022-10-30T13:39:07Z</time>
      </trkpt>
      <trkpt lat="47.6685" lon="7.1025">
        <ele>324.200287</ele>
        <time>2022-10-30T13:39:09Z</time>
      </trkpt>
      <trkpt lat="47.66844" lon="7.1024">
        <ele>324.26004</ele>
        <time>2022-10-30T13:39:11Z</time>
      </trkpt>
      <trkpt lat="47.66839" lon="7.1023">
        <ele>324.383789</ele>
        <time>2022-10-30T13:39:13Z</time>
      </trkpt>
      <trkpt lat="47.66834" lon="7.1022">
        <ele>324.43927</ele>
        <time>2022-10-30T13:39:15Z</time>
      </trkpt>
      <trkpt lat="47.66828" lon="7.1021">
        <ele>324.541687</ele>
        <time>2022-10-30T13:39:17Z</time>
      </trkpt>
      <trkpt lat="47.66823" lon="7.102">
        <ele>324.637726</ele>
        <time>2022-10-30T13:39:19Z</time>
      </trkpt>
      <trkpt lat="47.66818" lon="7.10191">
        <ele>324.778564</ele>
        <time>2022-10-30T13:39:21Z</time>
      </trkpt>
      <trkpt lat="47.66813" lon="7.10181">
        <ele>324.877991</ele>
        <time>2022-10-30T13:39:23Z</time>
      </trkpt>
      <trkpt lat="47.66808" lon="7.10172">
        <ele>324.959106</ele>
        <time>2022-10-30T13:39:25Z</time>
      </trkpt>
      <trkpt lat="47.66803" lon="7.10162">
        <ele>325.02594</ele>
        <time>2022-10-30T13:39:27Z</time>
      </trkpt>
      <trkpt lat="47.66798" lon="7.10153">
        <ele>325.106415</ele>
        <time>2022-10-30T13:39:29Z</time>
      </trkpt>
      <trkpt lat="47.66794" lon="7.10144">
        <ele>325.217377</ele>
        <time>2022-10-30T13:39:31Z</time>
      </trkpt>
      <trkpt lat="47.66789" lon="7.10135">
        <ele>325.296967</ele>
        <time>2022-10-30T13:39:33Z</time>
      </trkpt>
      <trkpt lat="47.66785" lon="7.10126">
        <ele>325.365631</ele>
        <time>2022-10-30T13:39:35Z</time>
      </trkpt>
      <trkpt lat="47.66781" lon="7.10119">
        <ele>325.482971</ele>
        <time>2022-10-30T13:39:37Z</time>
      </trkpt>
      <trkpt lat="47.66777" lon="7.10112">
        <ele>325.598083</ele>
        <time>2022-10-30T13:39:39Z</time>
      </trkpt>
      <trkpt lat="47.66773" lon="7.10104">
        <ele>325.726166</ele>
        <time>2022-10-30T13:39:41Z</time>
      </trkpt>
      <trkpt lat="47.66769" lon="7.10096">
        <ele>325.847839</ele>
        <time>2022-10-30T13:39:43Z</time>
      </trkpt>
      <trkpt lat="47.66765" lon="7.10088">
        <ele>325.977264</ele>
        <time>2022-10-30T13:39:45Z</time>
      </trkpt>
      <trkpt lat="47.6676" lon="7.1008">
        <ele>326.115997</ele>
        <time>2022-10-30T13:39:47Z</time>
      </trkpt>
      <trkpt lat="47.66755" lon="7.10071">
        <ele>326.226349</ele>
        <time>2022-10-30T13:39:49Z</time>
      </trkpt>
      <trkpt lat="47.6675" lon="7.10062">
        <ele>326.3284</ele>
        <time>2022-10-30T13:39:51Z</time>
      </trkpt>
      <trkpt lat="47.66744" lon="7.10053">
        <ele>326.38855</ele>
        <time>2022-10-30T13:39:53Z</time>
      </trkpt>
      <trkpt lat="47.66738" lon="7.10043">
        <ele>326.482483</ele>
        <time>2022-10-30T13:39:55Z</time>
      </trkpt>
      <trkpt lat="47.6673" lon="7.10033">
        <ele>326.593445</ele>
        <time>2022-10-30T13:39:57Z</time>
      </trkpt>
      <trkpt lat="47.66721" lon="7.10023">
        <ele>326.695892</ele>
        <time>2022-10-30T13:39:59Z</time>
      </trkpt>
      <trkpt lat="47.66711" lon="7.10013">
        <ele>326.770599</ele>
        <time>2022-10-30T13:40:01Z</time>
      </trkpt>
      <trkpt lat="47.667" lon="7.10001">
        <ele>326.791931</ele>
        <time>2022-10-30T13:40:03Z</time>
      </trkpt>
      <trkpt lat="47.66689" lon="7.09986">
        <ele>326.77359</ele>
        <time>2022-10-30T13:40:05Z</time>
      </trkpt>
      <trkpt lat="47.6668" lon="7.09967">
        <ele>326.649811</ele>
        <time>2022-10-30T13:40:07Z</time>
      </trkpt>
      <trkpt lat="47.66673" lon="7.09945">
        <ele>326.542145</ele>
        <time>2022-10-30T13:40:09Z</time>
      </trkpt>
      <trkpt lat="47.66665" lon="7.0992">
        <ele>326.403961</ele>
        <time>2022-10-30T13:40:11Z</time>
      </trkpt>
      <trkpt lat="47.66657" lon="7.09896">
        <ele>326.14151</ele>
        <time>2022-10-30T13:40:13Z</time>
      </trkpt>
      <trkpt lat="47.66647" lon="7.09871">
        <ele>325.784576</ele>
        <time>2022-10-30T13:40:15Z</time>
      </trkpt>
      <trkpt lat="47.66637" lon="7.09846">
        <ele>325.450378</ele>
        <time>2022-10-30T13:40:17Z</time>
      </trkpt>
      <trkpt lat="47.66625" lon="7.09822">
        <ele>325.008942</ele>
        <time>2022-10-30T13:40:19Z</time>
      </trkpt>
      <trkpt lat="47.66614" lon="7.09798">
        <ele>324.836517</ele>
        <time>2022-10-30T13:40:21Z</time>
      </trkpt>
      <trkpt lat="47.66602" lon="7.09773">
        <ele>324.269104</ele>
        <time>2022-10-30T13:40:23Z</time>
      </trkpt>
      <trkpt lat="47.66592" lon="7.09753">
        <ele>323.663269</ele>
        <time>2022-10-30T13:40:25Z</time>
      </trkpt>
      <trkpt lat="47.66584" lon="7.09737">
        <ele>323.075104</ele>
        <time>2022-10-30T13:40:27Z</time>
      </trkpt>
      <trkpt lat="47.66578" lon="7.09724">
        <ele>322.358398</ele>
        <time>2022-10-30T13:40:29Z</time>
      </trkpt>
      <trkpt lat="47.66578" lon="7.09709">
        <ele>321.663025</ele>
        <time>2022-10-30T13:40:31Z</time>
      </trkpt>
      <trkpt lat="47.66582" lon="7.09697">
        <ele>320.968292</ele>
        <time>2022-10-30T13:40:33Z</time>
      </trkpt>
      <trkpt lat="47.66587" lon="7.09686">
        <ele>320.180847</ele>
        <time>2022-10-30T13:40:35Z</time>
      </trkpt>
      <trkpt lat="47.66592" lon="7.09676">
        <ele>319.419403</ele>
        <time>2022-10-30T13:40:37Z</time>
      </trkpt>
      <trkpt lat="47.66596" lon="7.09669">
        <ele>318.655823</ele>
        <time>2022-10-30T13:40:39Z</time>
      </trkpt>
      <trkpt lat="47.66602" lon="7.09662">
        <ele>317.879456</ele>
        <time>2022-10-30T13:40:41Z</time>
      </trkpt>
      <trkpt lat="47.66609" lon="7.09654">
        <ele>317.105286</ele>
        <time>2022-10-30T13:40:43Z</time>
      </trkpt>
      <trkpt lat="47.66616" lon="7.09646">
        <ele>316.381897</ele>
        <time>2022-10-30T13:40:45Z</time>
      </trkpt>
      <trkpt lat="47.66625" lon="7.09638">
        <ele>316.013</ele>
        <time>2022-10-30T13:40:47Z</time>
      </trkpt>
      <trkpt lat="47.66634" lon="7.09629">
        <ele>315.408875</ele>
        <time>2022-10-30T13:40:49Z</time>
      </trkpt>
      <trkpt lat="47.66644" lon="7.0962">
        <ele>314.674805</ele>
        <time>2022-10-30T13:40:51Z</time>
      </trkpt>
      <trkpt lat="47.66655" lon="7.09611">
        <ele>314.007233</ele>
        <time>2022-10-30T13:40:53Z</time>
      </trkpt>
      <trkpt lat="47.66666" lon="7.09602">
        <ele>313.39325</ele>
        <time>2022-10-30T13:40:55Z</time>
      </trkpt>
      <trkpt lat="47.66676" lon="7.09592">
        <ele>312.868469</ele>
        <time>2022-10-30T13:40:57Z</time>
      </trkpt>
      <trkpt lat="47.66687" lon="7.09583">
        <ele>312.606262</ele>
        <time>2022-10-30T13:40:59Z</time>
      </trkpt>
      <trkpt lat="47.66698" lon="7.09574">
        <ele>312.03891</ele>
        <time>2022-10-30T13:41:01Z</time>
      </trkpt>
      <trkpt lat="47.66708" lon="7.09564">
        <ele>311.465118</ele>
        <time>2022-10-30T13:41:03Z</time>
      </trkpt>
      <trkpt lat="47.66717" lon="7.09554">
        <ele>311.036713</ele>
        <time>2022-10-30T13:41:05Z</time>
      </trkpt>
      <trkpt lat="47.66725" lon="7.09542">
        <ele>310.653107</ele>
        <time>2022-10-30T13:41:07Z</time>
      </trkpt>
      <trkpt lat="47.66732" lon="7.09531">
        <ele>310.259094</ele>
        <time>2022-10-30T13:41:09Z</time>
      </trkpt>
      <trkpt lat="47.66738" lon="7.0952">
        <ele>309.996216</ele>
        <time>2022-10-30T13:41:11Z</time>
      </trkpt>
      <trkpt lat="47.66744" lon="7.0951">
        <ele>309.704285</ele>
        <time>2022-10-30T13:41:13Z</time>
      </trkpt>
      <trkpt lat="47.66749" lon="7.095">
        <ele>309.433441</ele>
        <time>2022-10-30T13:41:15Z</time>
      </trkpt>
      <trkpt lat="47.66754" lon="7.09491">
        <ele>309.201202</ele>
        <time>2022-10-30T13:41:17Z</time>
      </trkpt>
      <trkpt lat="47.66758" lon="7.09482">
        <ele>308.973572</ele>
        <time>2022-10-30T13:41:19Z</time>
      </trkpt>
      <trkpt lat="47.66763" lon="7.09473">
        <ele>308.761292</ele>
        <time>2022-10-30T13:41:21Z</time>
      </trkpt>
      <trkpt lat="47.66768" lon="7.09464">
        <ele>308.667542</ele>
        <time>2022-10-30T13:41:23Z</time>
      </trkpt>
      <trkpt lat="47.66772" lon="7.09455">
        <ele>308.508331</ele>
        <time>2022-10-30T13:41:25Z</time>
      </trkpt>
      <trkpt lat="47.66777" lon="7.09445">
        <ele>308.314514</ele>
        <time>2022-10-30T13:41:27Z</time>
      </trkpt>
      <trkpt lat="47.66782" lon="7.09436">
        <ele>308.154724</ele>
        <time>2022-10-30T13:41:29Z</time>
      </trkpt>
      <trkpt lat="47.66787" lon="7.09426">
        <ele>307.984528</ele>
        <time>2022-10-30T13:41:31Z</time>
      </trkpt>
      <trkpt lat="47.66792" lon="7.09416">
        <ele>307.907806</ele>
        <time>2022-10-30T13:41:33Z</time>
      </trkpt>
      <trkpt lat="47.66797" lon="7.09407">
        <ele>307.798828</ele>
        <time>2022-10-30T13:41:35Z</time>
      </trkpt>
      <trkpt lat="47.66802" lon="7.09398">
        <ele>307.781799</ele>
        <time>2022-10-30T13:41:37Z</time>
      </trkpt>
      <trkpt lat="47.66807" lon="7.09389">
        <ele>307.794586</ele>
        <time>2022-10-30T13:41:39Z</time>
      </trkpt>
      <trkpt lat="47.66811" lon="7.09381">
        <ele>307.780762</ele>
        <time>2022-10-30T13:41:41Z</time>
      </trkpt>
      <trkpt lat="47.66816" lon="7.09373">
        <ele>307.786285</ele>
        <time>2022-10-30T13:41:43Z</time>
      </trkpt>
      <trkpt lat="47.6682" lon="7.09365">
        <ele>307.886414</ele>
        <time>2022-10-30T13:41:45Z</time>
      </trkpt>
      <trkpt lat="47.66824" lon="7.09358">
        <ele>307.978058</ele>
        <time>2022-10-30T13:41:47Z</time>
      </trkpt>
      <trkpt lat="47.66829" lon="7.09351">
        <ele>308.080139</ele>
        <time>2022-10-30T13:41:49Z</time>
      </trkpt>
      <trkpt lat="47.66832" lon="7.09344">
        <ele>308.195923</ele>
        <time>2022-10-30T13:41:51Z</time>
      </trkpt>
      <trkpt lat="47.66837" lon="7.09337">
        <ele>308.287262</ele>
        <time>2022-10-30T13:41:53Z</time>
      </trkpt>
      <trkpt lat="47.66842" lon="7.0933">
        <ele>308.423035</ele>
        <time>2022-10-30T13:41:55Z</time>
      </trkpt>
      <trkpt lat="47.66846" lon="7.09323">
        <ele>308.533813</ele>
        <time>2022-10-30T13:41:57Z</time>
      </trkpt>
      <trkpt lat="47.66851" lon="7.09316">
        <ele>308.72345</ele>
        <time>2022-10-30T13:41:59Z</time>
      </trkpt>
      <trkpt lat="47.66856" lon="7.09308">
        <ele>308.88501</ele>
        <time>2022-10-30T13:42:01Z</time>
      </trkpt>
      <trkpt lat="47.66861" lon="7.09301">
        <ele>309.034363</ele>
        <time>2022-10-30T13:42:03Z</time>
      </trkpt>
      <trkpt lat="47.66866" lon="7.09294">
        <ele>309.08548</ele>
        <time>2022-10-30T13:42:05Z</time>
      </trkpt>
      <trkpt lat="47.66871" lon="7.09287">
        <ele>309.227661</ele>
        <time>2022-10-30T13:42:07Z</time>
      </trkpt>
      <trkpt lat="47.66876" lon="7.0928">
        <ele>309.4133</ele>
        <time>2022-10-30T13:42:09Z</time>
      </trkpt>
      <trkpt lat="47.66881" lon="7.09272">
        <ele>309.615753</ele>
        <time>2022-10-30T13:42:11Z</time>
      </trkpt>
      <trkpt lat="47.66887" lon="7.09265">
        <ele>309.763092</ele>
        <time>2022-10-30T13:42:13Z</time>
      </trkpt>
      <trkpt lat="47.66892" lon="7.09257">
        <ele>309.933563</ele>
        <time>2022-10-30T13:42:15Z</time>
      </trkpt>
      <trkpt lat="47.66897" lon="7.0925">
        <ele>310.125793</ele>
        <time>2022-10-30T13:42:17Z</time>
      </trkpt>
      <trkpt lat="47.66902" lon="7.09242">
        <ele>310.289856</ele>
        <time>2022-10-30T13:42:19Z</time>
      </trkpt>
      <trkpt lat="47.66906" lon="7.09233">
        <ele>310.472351</ele>
        <time>2022-10-30T13:42:21Z</time>
      </trkpt>
      <trkpt lat="47.6691" lon="7.09224">
        <ele>310.636444</ele>
        <time>2022-10-30T13:42:23Z</time>
      </trkpt>
      <trkpt lat="47.66913" lon="7.09214">
        <ele>310.800568</ele>
        <time>2022-10-30T13:42:25Z</time>
      </trkpt>
      <trkpt lat="47.66914" lon="7.09204">
        <ele>310.949738</ele>
        <time>2022-10-30T13:42:27Z</time>
      </trkpt>
      <trkpt lat="47.66914" lon="7.09194">
        <ele>311.160706</ele>
        <time>2022-10-30T13:42:29Z</time>
      </trkpt>
      <trkpt lat="47.66913" lon="7.09184">
        <ele>311.305786</ele>
        <time>2022-10-30T13:42:31Z</time>
      </trkpt>
      <trkpt lat="47.66911" lon="7.09175">
        <ele>311.3974</ele>
        <time>2022-10-30T13:42:33Z</time>
      </trkpt>
      <trkpt lat="47.66909" lon="7.09166">
        <ele>311.57962</ele>
        <time>2022-10-30T13:42:35Z</time>
      </trkpt>
      <trkpt lat="47.66906" lon="7.09157">
        <ele>311.764984</ele>
        <time>2022-10-30T13:42:37Z</time>
      </trkpt>
      <trkpt lat="47.66904" lon="7.09149">
        <ele>311.971741</ele>
        <time>2022-10-30T13:42:39Z</time>
      </trkpt>
      <trkpt lat="47.66902" lon="7.0914">
        <ele>312.100861</ele>
        <time>2022-10-30T13:42:41Z</time>
      </trkpt>
      <trkpt lat="47.669" lon="7.09132">
        <ele>312.292664</ele>
        <time>2022-10-30T13:42:43Z</time>
      </trkpt>
      <trkpt lat="47.669" lon="7.09123">
        <ele>312.534668</ele>
        <time>2022-10-30T13:42:45Z</time>
      </trkpt>
      <trkpt lat="47.66898" lon="7.09114">
        <ele>312.707306</ele>
        <time>2022-10-30T13:42:47Z</time>
      </trkpt>
      <trkpt lat="47.66896" lon="7.09104">
        <ele>312.924744</ele>
        <time>2022-10-30T13:42:49Z</time>
      </trkpt>
      <trkpt lat="47.66894" lon="7.09093">
        <ele>313.13327</ele>
        <time>2022-10-30T13:42:51Z</time>
      </trkpt>
      <trkpt lat="47.66892" lon="7.09083">
        <ele>313.308075</ele>
        <time>2022-10-30T13:42:53Z</time>
      </trkpt>
      <trkpt lat="47.66891" lon="7.09072">
        <ele>313.529755</ele>
        <time>2022-10-30T13:42:55Z</time>
      </trkpt>
      <trkpt lat="47.6689" lon="7.09061">
        <ele>313.748993</ele>
        <time>2022-10-30T13:42:57Z</time>
      </trkpt>
      <trkpt lat="47.66889" lon="7.09049">
        <ele>313.842804</ele>
        <time>2022-10-30T13:42:59Z</time>
      </trkpt>
      <trkpt lat="47.66889" lon="7.09036">
        <ele>313.989868</ele>
        <time>2022-10-30T13:43:01Z</time>
      </trkpt>
      <trkpt lat="47.66891" lon="7.09022">
        <ele>314.146637</ele>
        <time>2022-10-30T13:43:03Z</time>
      </trkpt>
      <trkpt lat="47.66895" lon="7.09006">
        <ele>314.300018</ele>
        <time>2022-10-30T13:43:05Z</time>
      </trkpt>
      <trkpt lat="47.66899" lon="7.08989">
        <ele>314.368225</ele>
        <time>2022-10-30T13:43:07Z</time>
      </trkpt>
      <trkpt lat="47.66902" lon="7.0897">
        <ele>314.408722</ele>
        <time>2022-10-30T13:43:09Z</time>
      </trkpt>
      <trkpt lat="47.66899" lon="7.0895">
        <ele>314.381012</ele>
        <time>2022-10-30T13:43:11Z</time>
      </trkpt>
      <trkpt lat="47.66892" lon="7.08932">
        <ele>314.393799</ele>
        <time>2022-10-30T13:43:13Z</time>
      </trkpt>
      <trkpt lat="47.66882" lon="7.08915">
        <ele>314.342651</ele>
        <time>2022-10-30T13:43:15Z</time>
      </trkpt>
      <trkpt lat="47.66871" lon="7.089">
        <ele>314.287231</ele>
        <time>2022-10-30T13:43:17Z</time>
      </trkpt>
      <trkpt lat="47.66859" lon="7.08886">
        <ele>314.151428</ele>
        <time>2022-10-30T13:43:19Z</time>
      </trkpt>
      <trkpt lat="47.66846" lon="7.08876">
        <ele>313.980957</ele>
        <time>2022-10-30T13:43:21Z</time>
      </trkpt>
      <trkpt lat="47.66833" lon="7.08867">
        <ele>313.856049</ele>
        <time>2022-10-30T13:43:23Z</time>
      </trkpt>
      <trkpt lat="47.66821" lon="7.0886">
        <ele>313.658142</ele>
        <time>2022-10-30T13:43:25Z</time>
      </trkpt>
      <trkpt lat="47.6681" lon="7.08852">
        <ele>313.434753</ele>
        <time>2022-10-30T13:43:27Z</time>
      </trkpt>
      <trkpt lat="47.66799" lon="7.08846">
        <ele>313.228058</ele>
        <time>2022-10-30T13:43:29Z</time>
      </trkpt>
      <trkpt lat="47.6679" lon="7.0884">
        <ele>312.963745</ele>
        <time>2022-10-30T13:43:31Z</time>
      </trkpt>
      <trkpt lat="47.66781" lon="7.08833">
        <ele>312.66568</ele>
        <time>2022-10-30T13:43:33Z</time>
      </trkpt>
      <trkpt lat="47.66772" lon="7.08826">
        <ele>312.416321</ele>
        <time>2022-10-30T13:43:35Z</time>
      </trkpt>
      <trkpt lat="47.66765" lon="7.08817">
        <ele>312.122162</ele>
        <time>2022-10-30T13:43:37Z</time>
      </trkpt>
      <trkpt lat="47.66758" lon="7.08805">
        <ele>311.830017</ele>
        <time>2022-10-30T13:43:39Z</time>
      </trkpt>
      <trkpt lat="47.66751" lon="7.08792">
        <ele>311.698547</ele>
        <time>2022-10-30T13:43:41Z</time>
      </trkpt>
      <trkpt lat="47.66745" lon="7.08779">
        <ele>311.47345</ele>
        <time>2022-10-30T13:43:43Z</time>
      </trkpt>
      <trkpt lat="47.6674" lon="7.08766">
        <ele>311.2677</ele>
        <time>2022-10-30T13:43:45Z</time>
      </trkpt>
      <trkpt lat="47.66734" lon="7.08753">
        <ele>311.043976</ele>
        <time>2022-10-30T13:43:47Z</time>
      </trkpt>
      <trkpt lat="47.66732" lon="7.08739">
        <ele>310.907593</ele>
        <time>2022-10-30T13:43:49Z</time>
      </trkpt>
      <trkpt lat="47.66731" lon="7.08725">
        <ele>310.769867</ele>
        <time>2022-10-30T13:43:51Z</time>
      </trkpt>
      <trkpt lat="47.66733" lon="7.08712">
        <ele>310.642029</ele>
        <time>2022-10-30T13:43:53Z</time>
      </trkpt>
      <trkpt lat="47.66736" lon="7.08701">
        <ele>310.505615</ele>
        <time>2022-10-30T13:43:55Z</time>
      </trkpt>
      <trkpt lat="47.66741" lon="7.08691">
        <ele>310.403351</ele>
        <time>2022-10-30T13:43:57Z</time>
      </trkpt>
      <trkpt lat="47.66745" lon="7.08681">
        <ele>310.375671</ele>
        <time>2022-10-30T13:43:59Z</time>
      </trkpt>
      <trkpt lat="47.6675" lon="7.08672">
        <ele>310.372498</ele>
        <time>2022-10-30T13:44:01Z</time>
      </trkpt>
      <trkpt lat="47.66756" lon="7.08662">
        <ele>310.363953</ele>
        <time>2022-10-30T13:44:03Z</time>
      </trkpt>
      <trkpt lat="47.66761" lon="7.08652">
        <ele>310.336243</ele>
        <time>2022-10-30T13:44:05Z</time>
      </trkpt>
      <trkpt lat="47.66766" lon="7.08642">
        <ele>310.342346</ele>
        <time>2022-10-30T13:44:07Z</time>
      </trkpt>
      <trkpt lat="47.66772" lon="7.08632">
        <ele>310.354706</ele>
        <time>2022-10-30T13:44:09Z</time>
      </trkpt>
      <trkpt lat="47.66777" lon="7.08621">
        <ele>310.467651</ele>
        <time>2022-10-30T13:44:11Z</time>
      </trkpt>
      <trkpt lat="47.66782" lon="7.0861">
        <ele>310.522217</ele>
        <time>2022-10-30T13:44:13Z</time>
      </trkpt>
      <trkpt lat="47.66786" lon="7.08599">
        <ele>310.618561</ele>
        <time>2022-10-30T13:44:15Z</time>
      </trkpt>
      <trkpt lat="47.66791" lon="7.08587">
        <ele>310.682465</ele>
        <time>2022-10-30T13:44:17Z</time>
      </trkpt>
      <trkpt lat="47.66795" lon="7.08573">
        <ele>310.778381</ele>
        <time>2022-10-30T13:44:19Z</time>
      </trkpt>
      <trkpt lat="47.66799" lon="7.08561">
        <ele>310.914764</ele>
        <time>2022-10-30T13:44:21Z</time>
      </trkpt>
      <trkpt lat="47.66803" lon="7.08549">
        <ele>310.984467</ele>
        <time>2022-10-30T13:44:23Z</time>
      </trkpt>
      <trkpt lat="47.66806" lon="7.08537">
        <ele>311.092346</ele>
        <time>2022-10-30T13:44:25Z</time>
      </trkpt>
      <trkpt lat="47.6681" lon="7.08525">
        <ele>311.111511</ele>
        <time>2022-10-30T13:44:27Z</time>
      </trkpt>
      <trkpt lat="47.66813" lon="7.08512">
        <ele>311.19809</ele>
        <time>2022-10-30T13:44:29Z</time>
      </trkpt>
      <trkpt lat="47.66815" lon="7.08501">
        <ele>311.268433</ele>
        <time>2022-10-30T13:44:31Z</time>
      </trkpt>
      <trkpt lat="47.66819" lon="7.08488">
        <ele>311.372009</ele>
        <time>2022-10-30T13:44:33Z</time>
      </trkpt>
      <trkpt lat="47.66822" lon="7.08476">
        <ele>311.491364</ele>
        <time>2022-10-30T13:44:35Z</time>
      </trkpt>
      <trkpt lat="47.66825" lon="7.08464">
        <ele>311.632019</ele>
        <time>2022-10-30T13:44:37Z</time>
      </trkpt>
      <trkpt lat="47.66828" lon="7.08451">
        <ele>311.735901</ele>
        <time>2022-10-30T13:44:39Z</time>
      </trkpt>
      <trkpt lat="47.66831" lon="7.08439">
        <ele>311.878662</ele>
        <time>2022-10-30T13:44:41Z</time>
      </trkpt>
      <trkpt lat="47.66835" lon="7.08426">
        <ele>311.975647</ele>
        <time>2022-10-30T13:44:43Z</time>
      </trkpt>
      <trkpt lat="47.66838" lon="7.08414">
        <ele>312.102783</ele>
        <time>2022-10-30T13:44:45Z</time>
      </trkpt>
      <trkpt lat="47.66841" lon="7.08401">
        <ele>312.249847</ele>
        <time>2022-10-30T13:44:47Z</time>
      </trkpt>
      <trkpt lat="47.66845" lon="7.08388">
        <ele>312.369202</ele>
        <time>2022-10-30T13:44:49Z</time>
      </trkpt>
      <trkpt lat="47.66848" lon="7.08376">
        <ele>312.441681</ele>
        <time>2022-10-30T13:44:51Z</time>
      </trkpt>
      <trkpt lat="47.66851" lon="7.08363">
        <ele>312.555481</ele>
        <time>2022-10-30T13:44:53Z</time>
      </trkpt>
      <trkpt lat="47.66854" lon="7.08351">
        <ele>312.589569</ele>
        <time>2022-10-30T13:44:55Z</time>
      </trkpt>
      <trkpt lat="47.66857" lon="7.08338">
        <ele>312.69635</ele>
        <time>2022-10-30T13:44:57Z</time>
      </trkpt>
      <trkpt lat="47.66861" lon="7.08325">
        <ele>312.79657</ele>
        <time>2022-10-30T13:44:59Z</time>
      </trkpt>
      <trkpt lat="47.66864" lon="7.08313">
        <ele>312.858337</ele>
        <time>2022-10-30T13:45:01Z</time>
      </trkpt>
      <trkpt lat="47.66867" lon="7.08301">
        <ele>312.939362</ele>
        <time>2022-10-30T13:45:03Z</time>
      </trkpt>
      <trkpt lat="47.66871" lon="7.08289">
        <ele>313.06076</ele>
        <time>2022-10-30T13:45:05Z</time>
      </trkpt>
      <trkpt lat="47.66875" lon="7.08279">
        <ele>313.10553</ele>
        <time>2022-10-30T13:45:07Z</time>
      </trkpt>
      <trkpt lat="47.6688" lon="7.08269">
        <ele>313.171631</ele>
        <time>2022-10-30T13:45:09Z</time>
      </trkpt>
      <trkpt lat="47.66884" lon="7.08259">
        <ele>313.268341</ele>
        <time>2022-10-30T13:45:11Z</time>
      </trkpt>
      <trkpt lat="47.66887" lon="7.08249">
        <ele>313.330139</ele>
        <time>2022-10-30T13:45:13Z</time>
      </trkpt>
      <trkpt lat="47.66891" lon="7.08241">
        <ele>313.417542</ele>
        <time>2022-10-30T13:45:15Z</time>
      </trkpt>
      <trkpt lat="47.66895" lon="7.08231">
        <ele>313.490051</ele>
        <time>2022-10-30T13:45:17Z</time>
      </trkpt>
      <trkpt lat="47.66899" lon="7.08221">
        <ele>313.54425</ele>
        <time>2022-10-30T13:45:19Z</time>
      </trkpt>
      <trkpt lat="47.66902" lon="7.0821">
        <ele>313.568237</ele>
        <time>2022-10-30T13:45:21Z</time>
      </trkpt>
      <trkpt lat="47.66906" lon="7.08199">
        <ele>313.581024</ele>
        <time>2022-10-30T13:45:23Z</time>
      </trkpt>
      <trkpt lat="47.66909" lon="7.08188">
        <ele>313.615143</ele>
        <time>2022-10-30T13:45:25Z</time>
      </trkpt>
      <trkpt lat="47.66913" lon="7.08177">
        <ele>313.644196</ele>
        <time>2022-10-30T13:45:27Z</time>
      </trkpt>
      <trkpt lat="47.66916" lon="7.08165">
        <ele>313.665833</ele>
        <time>2022-10-30T13:45:29Z</time>
      </trkpt>
      <trkpt lat="47.66919" lon="7.08154">
        <ele>313.740448</ele>
        <time>2022-10-30T13:45:31Z</time>
      </trkpt>
      <trkpt lat="47.66921" lon="7.08144">
        <ele>313.787354</ele>
        <time>2022-10-30T13:45:33Z</time>
      </trkpt>
      <trkpt lat="47.66923" lon="7.08132">
        <ele>313.866211</ele>
        <time>2022-10-30T13:45:35Z</time>
      </trkpt>
      <trkpt lat="47.66923" lon="7.0812">
        <ele>313.972809</ele>
        <time>2022-10-30T13:45:37Z</time>
      </trkpt>
      <trkpt lat="47.66923" lon="7.08109">
        <ele>314.025452</ele>
        <time>2022-10-30T13:45:39Z</time>
      </trkpt>
      <trkpt lat="47.66923" lon="7.08098">
        <ele>314.109436</ele>
        <time>2022-10-30T13:45:41Z</time>
      </trkpt>
      <trkpt lat="47.66922" lon="7.08088">
        <ele>314.224548</ele>
        <time>2022-10-30T13:45:43Z</time>
      </trkpt>
      <trkpt lat="47.66921" lon="7.08077">
        <ele>314.258636</ele>
        <time>2022-10-30T13:45:45Z</time>
      </trkpt>
      <trkpt lat="47.66921" lon="7.08067">
        <ele>314.346039</ele>
        <time>2022-10-30T13:45:47Z</time>
      </trkpt>
      <trkpt lat="47.6692" lon="7.08056">
        <ele>314.482483</ele>
        <time>2022-10-30T13:45:49Z</time>
      </trkpt>
      <trkpt lat="47.66918" lon="7.08046">
        <ele>314.586609</ele>
        <time>2022-10-30T13:45:51Z</time>
      </trkpt>
      <trkpt lat="47.66916" lon="7.08035">
        <ele>314.695343</ele>
        <time>2022-10-30T13:45:53Z</time>
      </trkpt>
      <trkpt lat="47.66914" lon="7.08024">
        <ele>314.83844</ele>
        <time>2022-10-30T13:45:55Z</time>
      </trkpt>
      <trkpt lat="47.66911" lon="7.08014">
        <ele>314.977325</ele>
        <time>2022-10-30T13:45:57Z</time>
      </trkpt>
      <trkpt lat="47.66908" lon="7.08003">
        <ele>315.160706</ele>
        <time>2022-10-30T13:45:59Z</time>
      </trkpt>
      <trkpt lat="47.66905" lon="7.07993">
        <ele>315.34314</ele>
        <time>2022-10-30T13:46:01Z</time>
      </trkpt>
      <trkpt lat="47.66902" lon="7.07983">
        <ele>315.579803</ele>
        <time>2022-10-30T13:46:03Z</time>
      </trkpt>
      <trkpt lat="47.66899" lon="7.07972">
        <ele>315.795135</ele>
        <time>2022-10-30T13:46:05Z</time>
      </trkpt>
      <trkpt lat="47.66896" lon="7.07962">
        <ele>316.050385</ele>
        <time>2022-10-30T13:46:07Z</time>
      </trkpt>
      <trkpt lat="47.66894" lon="7.07951">
        <ele>316.246216</ele>
        <time>2022-10-30T13:46:09Z</time>
      </trkpt>
      <trkpt lat="47.66893" lon="7.07941">
        <ele>316.45517</ele>
        <time>2022-10-30T13:46:11Z</time>
      </trkpt>
      <trkpt lat="47.66892" lon="7.0793">
        <ele>316.570343</ele>
        <time>2022-10-30T13:46:13Z</time>
      </trkpt>
      <trkpt lat="47.66892" lon="7.0792">
        <ele>316.816406</ele>
        <time>2022-10-30T13:46:15Z</time>
      </trkpt>
      <trkpt lat="47.66892" lon="7.0791">
        <ele>317.053131</ele>
        <time>2022-10-30T13:46:17Z</time>
      </trkpt>
      <trkpt lat="47.66893" lon="7.07901">
        <ele>317.271179</ele>
        <time>2022-10-30T13:46:19Z</time>
      </trkpt>
      <trkpt lat="47.66895" lon="7.07892">
        <ele>317.573975</ele>
        <time>2022-10-30T13:46:21Z</time>
      </trkpt>
      <trkpt lat="47.66897" lon="7.07884">
        <ele>317.903687</ele>
        <time>2022-10-30T13:46:23Z</time>
      </trkpt>
      <trkpt lat="47.669" lon="7.07876">
        <ele>318.217194</ele>
        <time>2022-10-30T13:46:25Z</time>
      </trkpt>
      <trkpt lat="47.66902" lon="7.07869">
        <ele>318.539246</ele>
        <time>2022-10-30T13:46:27Z</time>
      </trkpt>
      <trkpt lat="47.66905" lon="7.07862">
        <ele>318.813171</ele>
        <time>2022-10-30T13:46:29Z</time>
      </trkpt>
      <trkpt lat="47.66909" lon="7.07856">
        <ele>319.171814</ele>
        <time>2022-10-30T13:46:31Z</time>
      </trkpt>
      <trkpt lat="47.66912" lon="7.07849">
        <ele>319.51947</ele>
        <time>2022-10-30T13:46:33Z</time>
      </trkpt>
      <trkpt lat="47.66916" lon="7.07843">
        <ele>319.680359</ele>
        <time>2022-10-30T13:46:35Z</time>
      </trkpt>
      <trkpt lat="47.66919" lon="7.07836">
        <ele>320.011292</ele>
        <time>2022-10-30T13:46:37Z</time>
      </trkpt>
      <trkpt lat="47.66924" lon="7.0783">
        <ele>320.369354</ele>
        <time>2022-10-30T13:46:39Z</time>
      </trkpt>
      <trkpt lat="47.66927" lon="7.07823">
        <ele>320.692688</ele>
        <time>2022-10-30T13:46:41Z</time>
      </trkpt>
      <trkpt lat="47.66932" lon="7.07816">
        <ele>321.033997</ele>
        <time>2022-10-30T13:46:43Z</time>
      </trkpt>
      <trkpt lat="47.66938" lon="7.07809">
        <ele>321.341187</ele>
        <time>2022-10-30T13:46:45Z</time>
      </trkpt>
      <trkpt lat="47.66943" lon="7.07802">
        <ele>321.688904</ele>
        <time>2022-10-30T13:46:47Z</time>
      </trkpt>
      <trkpt lat="47.66948" lon="7.07794">
        <ele>322.011047</ele>
        <time>2022-10-30T13:46:49Z</time>
      </trkpt>
      <trkpt lat="47.66953" lon="7.07787">
        <ele>322.401428</ele>
        <time>2022-10-30T13:46:51Z</time>
      </trkpt>
      <trkpt lat="47.66958" lon="7.07779">
        <ele>322.751282</ele>
        <time>2022-10-30T13:46:53Z</time>
      </trkpt>
      <trkpt lat="47.66964" lon="7.0777">
        <ele>323.091797</ele>
        <time>2022-10-30T13:46:55Z</time>
      </trkpt>
      <trkpt lat="47.66969" lon="7.07762">
        <ele>323.399048</ele>
        <time>2022-10-30T13:46:57Z</time>
      </trkpt>
      <trkpt lat="47.66975" lon="7.07754">
        <ele>323.714294</ele>
        <time>2022-10-30T13:46:59Z</time>
      </trkpt>
      <trkpt lat="47.6698" lon="7.07745">
        <ele>323.882843</ele>
        <time>2022-10-30T13:47:01Z</time>
      </trkpt>
      <trkpt lat="47.66986" lon="7.07736">
        <ele>324.185822</ele>
        <time>2022-10-30T13:47:03Z</time>
      </trkpt>
      <trkpt lat="47.66991" lon="7.07728">
        <ele>324.452545</ele>
        <time>2022-10-30T13:47:05Z</time>
      </trkpt>
      <trkpt lat="47.66997" lon="7.0772">
        <ele>324.736328</ele>
        <time>2022-10-30T13:47:07Z</time>
      </trkpt>
      <trkpt lat="47.67002" lon="7.07712">
        <ele>325.000946</ele>
        <time>2022-10-30T13:47:09Z</time>
      </trkpt>
      <trkpt lat="47.67007" lon="7.07704">
        <ele>325.245422</ele>
        <time>2022-10-30T13:47:11Z</time>
      </trkpt>
      <trkpt lat="47.67012" lon="7.07696">
        <ele>325.46521</ele>
        <time>2022-10-30T13:47:13Z</time>
      </trkpt>
      <trkpt lat="47.67016" lon="7.07687">
        <ele>325.708313</ele>
        <time>2022-10-30T13:47:15Z</time>
      </trkpt>
      <trkpt lat="47.6702" lon="7.07679">
        <ele>325.992767</ele>
        <time>2022-10-30T13:47:17Z</time>
      </trkpt>
      <trkpt lat="47.67023" lon="7.0767">
        <ele>326.220642</ele>
        <time>2022-10-30T13:47:19Z</time>
      </trkpt>
      <trkpt lat="47.67026" lon="7.07661">
        <ele>326.417023</ele>
        <time>2022-10-30T13:47:21Z</time>
      </trkpt>
      <trkpt lat="47.67028" lon="7.07652">
        <ele>326.667633</ele>
        <time>2022-10-30T13:47:23Z</time>
      </trkpt>
      <trkpt lat="47.6703" lon="7.07643">
        <ele>326.906677</ele>
        <time>2022-10-30T13:47:25Z</time>
      </trkpt>
      <trkpt lat="47.67033" lon="7.07635">
        <ele>327.199066</ele>
        <time>2022-10-30T13:47:27Z</time>
      </trkpt>
      <trkpt lat="47.67034" lon="7.07626">
        <ele>327.489349</ele>
        <time>2022-10-30T13:47:29Z</time>
      </trkpt>
      <trkpt lat="47.67036" lon="7.07618">
        <ele>327.632385</ele>
        <time>2022-10-30T13:47:31Z</time>
      </trkpt>
      <trkpt lat="47.67037" lon="7.07609">
        <ele>327.87384</ele>
        <time>2022-10-30T13:47:33Z</time>
      </trkpt>
      <trkpt lat="47.67039" lon="7.07601">
        <ele>328.170593</ele>
        <time>2022-10-30T13:47:35Z</time>
      </trkpt>
      <trkpt lat="47.67041" lon="7.07594">
        <ele>328.427399</ele>
        <time>2022-10-30T13:47:37Z</time>
      </trkpt>
      <trkpt lat="47.67043" lon="7.07586">
        <ele>328.749756</ele>
        <time>2022-10-30T13:47:39Z</time>
      </trkpt>
      <trkpt lat="47.67044" lon="7.07578">
        <ele>329.09137</ele>
        <time>2022-10-30T13:47:41Z</time>
      </trkpt>
      <trkpt lat="47.67045" lon="7.07571">
        <ele>329.384277</ele>
        <time>2022-10-30T13:47:43Z</time>
      </trkpt>
      <trkpt lat="47.67046" lon="7.07563">
        <ele>329.696625</ele>
        <time>2022-10-30T13:47:45Z</time>
      </trkpt>
      <trkpt lat="47.67046" lon="7.07555">
        <ele>330.042572</ele>
        <time>2022-10-30T13:47:47Z</time>
      </trkpt>
      <trkpt lat="47.67047" lon="7.07548">
        <ele>330.435455</ele>
        <time>2022-10-30T13:47:49Z</time>
      </trkpt>
      <trkpt lat="47.67047" lon="7.0754">
        <ele>330.775055</ele>
        <time>2022-10-30T13:47:51Z</time>
      </trkpt>
      <trkpt lat="47.67046" lon="7.07532">
        <ele>331.187164</ele>
        <time>2022-10-30T13:47:53Z</time>
      </trkpt>
      <trkpt lat="47.67044" lon="7.07523">
        <ele>331.350647</ele>
        <time>2022-10-30T13:47:55Z</time>
      </trkpt>
      <trkpt lat="47.67042" lon="7.07516">
        <ele>331.747986</ele>
        <time>2022-10-30T13:47:57Z</time>
      </trkpt>
      <trkpt lat="47.6704" lon="7.07508">
        <ele>332.153748</ele>
        <time>2022-10-30T13:47:59Z</time>
      </trkpt>
      <trkpt lat="47.67037" lon="7.07501">
        <ele>332.559998</ele>
        <time>2022-10-30T13:48:01Z</time>
      </trkpt>
      <trkpt lat="47.67035" lon="7.07494">
        <ele>332.97641</ele>
        <time>2022-10-30T13:48:03Z</time>
      </trkpt>
      <trkpt lat="47.67032" lon="7.07486">
        <ele>333.414246</ele>
        <time>2022-10-30T13:48:05Z</time>
      </trkpt>
      <trkpt lat="47.67029" lon="7.07478">
        <ele>333.817566</ele>
        <time>2022-10-30T13:48:07Z</time>
      </trkpt>
      <trkpt lat="47.67027" lon="7.07471">
        <ele>334.234131</ele>
        <time>2022-10-30T13:48:09Z</time>
      </trkpt>
      <trkpt lat="47.67024" lon="7.07464">
        <ele>334.631165</ele>
        <time>2022-10-30T13:48:11Z</time>
      </trkpt>
      <trkpt lat="47.67022" lon="7.07457">
        <ele>335.062408</ele>
        <time>2022-10-30T13:48:13Z</time>
      </trkpt>
      <trkpt lat="47.67019" lon="7.0745">
        <ele>335.496033</ele>
        <time>2022-10-30T13:48:15Z</time>
      </trkpt>
      <trkpt lat="47.67017" lon="7.07443">
        <ele>335.940857</ele>
        <time>2022-10-30T13:48:17Z</time>
      </trkpt>
      <trkpt lat="47.67014" lon="7.07436">
        <ele>336.374512</ele>
        <time>2022-10-30T13:48:19Z</time>
      </trkpt>
      <trkpt lat="47.67012" lon="7.07429">
        <ele>336.823181</ele>
        <time>2022-10-30T13:48:21Z</time>
      </trkpt>
      <trkpt lat="47.67009" lon="7.07421">
        <ele>337.297058</ele>
        <time>2022-10-30T13:48:23Z</time>
      </trkpt>
      <trkpt lat="47.67007" lon="7.07413">
        <ele>337.722504</ele>
        <time>2022-10-30T13:48:25Z</time>
      </trkpt>
      <trkpt lat="47.67004" lon="7.07407">
        <ele>337.951111</ele>
        <time>2022-10-30T13:48:27Z</time>
      </trkpt>
      <trkpt lat="47.67001" lon="7.074">
        <ele>338.408417</ele>
        <time>2022-10-30T13:48:29Z</time>
      </trkpt>
      <trkpt lat="47.66999" lon="7.07394">
        <ele>338.837921</ele>
        <time>2022-10-30T13:48:31Z</time>
      </trkpt>
      <trkpt lat="47.66996" lon="7.07386">
        <ele>339.314362</ele>
        <time>2022-10-30T13:48:33Z</time>
      </trkpt>
      <trkpt lat="47.66994" lon="7.07378">
        <ele>339.743286</ele>
        <time>2022-10-30T13:48:35Z</time>
      </trkpt>
      <trkpt lat="47.66991" lon="7.0737">
        <ele>340.204651</ele>
        <time>2022-10-30T13:48:37Z</time>
      </trkpt>
      <trkpt lat="47.66987" lon="7.07362">
        <ele>340.638519</ele>
        <time>2022-10-30T13:48:39Z</time>
      </trkpt>
      <trkpt lat="47.66984" lon="7.07353">
        <ele>341.085205</ele>
        <time>2022-10-30T13:48:41Z</time>
      </trkpt>
      <trkpt lat="47.6698" lon="7.07344">
        <ele>341.514801</ele>
        <time>2022-10-30T13:48:43Z</time>
      </trkpt>
      <trkpt lat="47.66977" lon="7.07336">
        <ele>341.929474</ele>
        <time>2022-10-30T13:48:45Z</time>
      </trkpt>
      <trkpt lat="47.66974" lon="7.07327">
        <ele>342.337708</ele>
        <time>2022-10-30T13:48:47Z</time>
      </trkpt>
      <trkpt lat="47.66971" lon="7.07319">
        <ele>342.575256</ele>
        <time>2022-10-30T13:48:49Z</time>
      </trkpt>
      <trkpt lat="47.66968" lon="7.07311">
        <ele>342.968567</ele>
        <time>2022-10-30T13:48:51Z</time>
      </trkpt>
      <trkpt lat="47.66966" lon="7.07303">
        <ele>343.374939</ele>
        <time>2022-10-30T13:48:53Z</time>
      </trkpt>
      <trkpt lat="47.66962" lon="7.07294">
        <ele>343.798218</ele>
        <time>2022-10-30T13:48:55Z</time>
      </trkpt>
      <trkpt lat="47.6696" lon="7.07286">
        <ele>344.200165</ele>
        <time>2022-10-30T13:48:57Z</time>
      </trkpt>
      <trkpt lat="47.66958" lon="7.07277">
        <ele>344.645935</ele>
        <time>2022-10-30T13:48:59Z</time>
      </trkpt>
      <trkpt lat="47.66955" lon="7.07269">
        <ele>345.047913</ele>
        <time>2022-10-30T13:49:01Z</time>
      </trkpt>
      <trkpt lat="47.66953" lon="7.0726">
        <ele>345.374878</ele>
        <time>2022-10-30T13:49:03Z</time>
      </trkpt>
      <trkpt lat="47.66951" lon="7.07251">
        <ele>345.704163</ele>
        <time>2022-10-30T13:49:05Z</time>
      </trkpt>
      <trkpt lat="47.6695" lon="7.07242">
        <ele>346.103058</ele>
        <time>2022-10-30T13:49:07Z</time>
      </trkpt>
      <trkpt lat="47.66946" lon="7.07229">
        <ele>346.558533</ele>
        <time>2022-10-30T13:49:10Z</time>
      </trkpt>
      <trkpt lat="47.66945" lon="7.0722">
        <ele>346.862183</ele>
        <time>2022-10-30T13:49:12Z</time>
      </trkpt>
      <trkpt lat="47.66942" lon="7.07211">
        <ele>347.157288</ele>
        <time>2022-10-30T13:49:14Z</time>
      </trkpt>
      <trkpt lat="47.6694" lon="7.07202">
        <ele>347.475311</ele>
        <time>2022-10-30T13:49:16Z</time>
      </trkpt>
      <trkpt lat="47.66938" lon="7.07193">
        <ele>347.785767</ele>
        <time>2022-10-30T13:49:18Z</time>
      </trkpt>
      <trkpt lat="47.66936" lon="7.07183">
        <ele>347.911804</ele>
        <time>2022-10-30T13:49:20Z</time>
      </trkpt>
      <trkpt lat="47.66934" lon="7.07174">
        <ele>348.213379</ele>
        <time>2022-10-30T13:49:22Z</time>
      </trkpt>
      <trkpt lat="47.66932" lon="7.07164">
        <ele>348.473724</ele>
        <time>2022-10-30T13:49:24Z</time>
      </trkpt>
      <trkpt lat="47.6693" lon="7.07154">
        <ele>348.700439</ele>
        <time>2022-10-30T13:49:26Z</time>
      </trkpt>
      <trkpt lat="47.66928" lon="7.07144">
        <ele>348.972076</ele>
        <time>2022-10-30T13:49:28Z</time>
      </trkpt>
      <trkpt lat="47.66926" lon="7.07135">
        <ele>349.221313</ele>
        <time>2022-10-30T13:49:30Z</time>
      </trkpt>
      <trkpt lat="47.66924" lon="7.07125">
        <ele>349.443756</ele>
        <time>2022-10-30T13:49:32Z</time>
      </trkpt>
      <trkpt lat="47.66922" lon="7.07116">
        <ele>349.719696</ele>
        <time>2022-10-30T13:49:34Z</time>
      </trkpt>
      <trkpt lat="47.6692" lon="7.07106">
        <ele>349.89267</ele>
        <time>2022-10-30T13:49:36Z</time>
      </trkpt>
      <trkpt lat="47.66918" lon="7.07098">
        <ele>350.061646</ele>
        <time>2022-10-30T13:49:38Z</time>
      </trkpt>
      <trkpt lat="47.66916" lon="7.0709">
        <ele>350.130096</ele>
        <time>2022-10-30T13:49:40Z</time>
      </trkpt>
      <trkpt lat="47.66915" lon="7.07084">
        <ele>350.276306</ele>
        <time>2022-10-30T13:49:42Z</time>
      </trkpt>
      <trkpt lat="47.66918" lon="7.07077">
        <ele>351.766785</ele>
        <time>2022-10-30T13:52:10Z</time>
      </trkpt>
      <trkpt lat="47.66924" lon="7.07069">
        <ele>351.788147</ele>
        <time>2022-10-30T13:52:13Z</time>
      </trkpt>
      <trkpt lat="47.66925" lon="7.07066">
        <ele>351.823334</ele>
        <time>2022-10-30T13:52:19Z</time>
      </trkpt>
      <trkpt lat="47.66926" lon="7.07063">
        <ele>351.808075</ele>
        <time>2022-10-30T13:52:21Z</time>
      </trkpt>
      <trkpt lat="47.66929" lon="7.07058">
        <ele>351.860168</ele>
        <time>2022-10-30T13:52:23Z</time>
      </trkpt>
      <trkpt lat="47.66931" lon="7.07053">
        <ele>351.909393</ele>
        <time>2022-10-30T13:52:25Z</time>
      </trkpt>
      <trkpt lat="47.66934" lon="7.07047">
        <ele>351.948425</ele>
        <time>2022-10-30T13:52:27Z</time>
      </trkpt>
      <trkpt lat="47.66937" lon="7.07042">
        <ele>352.012604</ele>
        <time>2022-10-30T13:52:29Z</time>
      </trkpt>
      <trkpt lat="47.66941" lon="7.07035">
        <ele>352.042572</ele>
        <time>2022-10-30T13:52:31Z</time>
      </trkpt>
      <trkpt lat="47.66944" lon="7.07028">
        <ele>352.115326</ele>
        <time>2022-10-30T13:52:33Z</time>
      </trkpt>
      <trkpt lat="47.66948" lon="7.07021">
        <ele>352.1474</ele>
        <time>2022-10-30T13:52:35Z</time>
      </trkpt>
      <trkpt lat="47.66952" lon="7.07014">
        <ele>352.171478</ele>
        <time>2022-10-30T13:52:37Z</time>
      </trkpt>
      <trkpt lat="47.66956" lon="7.07005">
        <ele>352.234955</ele>
        <time>2022-10-30T13:52:39Z</time>
      </trkpt>
      <trkpt lat="47.66961" lon="7.06996">
        <ele>352.252045</ele>
        <time>2022-10-30T13:52:41Z</time>
      </trkpt>
      <trkpt lat="47.66966" lon="7.06985">
        <ele>352.262756</ele>
        <time>2022-10-30T13:52:43Z</time>
      </trkpt>
      <trkpt lat="47.6697" lon="7.06973">
        <ele>352.30127</ele>
        <time>2022-10-30T13:52:45Z</time>
      </trkpt>
      <trkpt lat="47.66972" lon="7.0696">
        <ele>352.341949</ele>
        <time>2022-10-30T13:52:47Z</time>
      </trkpt>
      <trkpt lat="47.66974" lon="7.06947">
        <ele>352.359039</ele>
        <time>2022-10-30T13:52:49Z</time>
      </trkpt>
      <trkpt lat="47.66974" lon="7.06933">
        <ele>352.36972</ele>
        <time>2022-10-30T13:52:51Z</time>
      </trkpt>
      <trkpt lat="47.66975" lon="7.0692">
        <ele>352.373962</ele>
        <time>2022-10-30T13:52:53Z</time>
      </trkpt>
      <trkpt lat="47.66975" lon="7.06907">
        <ele>352.373535</ele>
        <time>2022-10-30T13:52:55Z</time>
      </trkpt>
      <trkpt lat="47.66974" lon="7.06894">
        <ele>352.38324</ele>
        <time>2022-10-30T13:52:57Z</time>
      </trkpt>
      <trkpt lat="47.66974" lon="7.06881">
        <ele>352.393951</ele>
        <time>2022-10-30T13:52:59Z</time>
      </trkpt>
      <trkpt lat="47.66974" lon="7.06868">
        <ele>352.396088</ele>
        <time>2022-10-30T13:53:01Z</time>
      </trkpt>
      <trkpt lat="47.66974" lon="7.06855">
        <ele>352.402283</ele>
        <time>2022-10-30T13:53:03Z</time>
      </trkpt>
      <trkpt lat="47.66974" lon="7.06842">
        <ele>352.370697</ele>
        <time>2022-10-30T13:53:05Z</time>
      </trkpt>
      <trkpt lat="47.66974" lon="7.0683">
        <ele>352.338593</ele>
        <time>2022-10-30T13:53:07Z</time>
      </trkpt>
      <trkpt lat="47.66974" lon="7.06818">
        <ele>352.317413</ele>
        <time>2022-10-30T13:53:09Z</time>
      </trkpt>
      <trkpt lat="47.66974" lon="7.06806">
        <ele>352.272461</ele>
        <time>2022-10-30T13:53:11Z</time>
      </trkpt>
      <trkpt lat="47.66974" lon="7.06793">
        <ele>352.23822</ele>
        <time>2022-10-30T13:53:13Z</time>
      </trkpt>
      <trkpt lat="47.66974" lon="7.0678">
        <ele>352.259644</ele>
        <time>2022-10-30T13:53:15Z</time>
      </trkpt>
      <trkpt lat="47.66974" lon="7.06769">
        <ele>352.218445</ele>
        <time>2022-10-30T13:53:17Z</time>
      </trkpt>
      <trkpt lat="47.66974" lon="7.06758">
        <ele>352.218445</ele>
        <time>2022-10-30T13:53:19Z</time>
      </trkpt>
      <trkpt lat="47.66975" lon="7.06747">
        <ele>352.199219</ele>
        <time>2022-10-30T13:53:21Z</time>
      </trkpt>
      <trkpt lat="47.66975" lon="7.06736">
        <ele>352.216003</ele>
        <time>2022-10-30T13:53:23Z</time>
      </trkpt>
      <trkpt lat="47.66975" lon="7.06724">
        <ele>352.256653</ele>
        <time>2022-10-30T13:53:25Z</time>
      </trkpt>
      <trkpt lat="47.66975" lon="7.06713">
        <ele>352.271637</ele>
        <time>2022-10-30T13:53:27Z</time>
      </trkpt>
      <trkpt lat="47.66975" lon="7.06703">
        <ele>352.295197</ele>
        <time>2022-10-30T13:53:29Z</time>
      </trkpt>
      <trkpt lat="47.66975" lon="7.06693">
        <ele>352.322998</ele>
        <time>2022-10-30T13:53:31Z</time>
      </trkpt>
      <trkpt lat="47.66975" lon="7.06681">
        <ele>352.387451</ele>
        <time>2022-10-30T13:53:33Z</time>
      </trkpt>
      <trkpt lat="47.66975" lon="7.06669">
        <ele>352.443298</ele>
        <time>2022-10-30T13:53:35Z</time>
      </trkpt>
      <trkpt lat="47.66975" lon="7.06657">
        <ele>352.472473</ele>
        <time>2022-10-30T13:53:37Z</time>
      </trkpt>
      <trkpt lat="47.66975" lon="7.06645">
        <ele>352.515808</ele>
        <time>2022-10-30T13:53:39Z</time>
      </trkpt>
      <trkpt lat="47.66976" lon="7.06633">
        <ele>352.575714</ele>
        <time>2022-10-30T13:53:41Z</time>
      </trkpt>
      <trkpt lat="47.66976" lon="7.06621">
        <ele>352.595734</ele>
        <time>2022-10-30T13:53:43Z</time>
      </trkpt>
      <trkpt lat="47.66978" lon="7.0661">
        <ele>352.636383</ele>
        <time>2022-10-30T13:53:45Z</time>
      </trkpt>
      <trkpt lat="47.66982" lon="7.06599">
        <ele>352.697357</ele>
        <time>2022-10-30T13:53:47Z</time>
      </trkpt>
      <trkpt lat="47.66988" lon="7.06592">
        <ele>352.75238</ele>
        <time>2022-10-30T13:53:49Z</time>
      </trkpt>
      <trkpt lat="47.66994" lon="7.06586">
        <ele>352.807251</ele>
        <time>2022-10-30T13:53:51Z</time>
      </trkpt>
      <trkpt lat="47.67" lon="7.06583">
        <ele>352.884247</ele>
        <time>2022-10-30T13:53:53Z</time>
      </trkpt>
      <trkpt lat="47.67005" lon="7.0658">
        <ele>352.983612</ele>
        <time>2022-10-30T13:53:55Z</time>
      </trkpt>
      <trkpt lat="47.6701" lon="7.06577">
        <ele>353.028778</ele>
        <time>2022-10-30T13:53:57Z</time>
      </trkpt>
      <trkpt lat="47.67015" lon="7.06575">
        <ele>353.135773</ele>
        <time>2022-10-30T13:53:59Z</time>
      </trkpt>
      <trkpt lat="47.67019" lon="7.0657">
        <ele>353.210663</ele>
        <time>2022-10-30T13:54:01Z</time>
      </trkpt>
      <trkpt lat="47.67021" lon="7.06564">
        <ele>353.360474</ele>
        <time>2022-10-30T13:54:03Z</time>
      </trkpt>
      <trkpt lat="47.6702" lon="7.06555">
        <ele>353.480652</ele>
        <time>2022-10-30T13:54:05Z</time>
      </trkpt>
      <trkpt lat="47.67019" lon="7.06547">
        <ele>353.599976</ele>
        <time>2022-10-30T13:54:07Z</time>
      </trkpt>
      <trkpt lat="47.67018" lon="7.0654">
        <ele>353.769073</ele>
        <time>2022-10-30T13:54:09Z</time>
      </trkpt>
      <trkpt lat="47.67017" lon="7.06532">
        <ele>353.90387</ele>
        <time>2022-10-30T13:54:11Z</time>
      </trkpt>
      <trkpt lat="47.67016" lon="7.06525">
        <ele>353.993713</ele>
        <time>2022-10-30T13:54:13Z</time>
      </trkpt>
      <trkpt lat="47.67014" lon="7.06517">
        <ele>354.155945</ele>
        <time>2022-10-30T13:54:15Z</time>
      </trkpt>
      <trkpt lat="47.67013" lon="7.06509">
        <ele>354.329041</ele>
        <time>2022-10-30T13:54:17Z</time>
      </trkpt>
      <trkpt lat="47.67012" lon="7.06501">
        <ele>354.541779</ele>
        <time>2022-10-30T13:54:19Z</time>
      </trkpt>
      <trkpt lat="47.67011" lon="7.06493">
        <ele>354.742218</ele>
        <time>2022-10-30T13:54:21Z</time>
      </trkpt>
      <trkpt lat="47.6701" lon="7.06486">
        <ele>354.979797</ele>
        <time>2022-10-30T13:54:23Z</time>
      </trkpt>
      <trkpt lat="47.67009" lon="7.06478">
        <ele>355.236115</ele>
        <time>2022-10-30T13:54:25Z</time>
      </trkpt>
      <trkpt lat="47.67007" lon="7.06471">
        <ele>355.47049</ele>
        <time>2022-10-30T13:54:27Z</time>
      </trkpt>
      <trkpt lat="47.67006" lon="7.06463">
        <ele>355.74231</ele>
        <time>2022-10-30T13:54:29Z</time>
      </trkpt>
      <trkpt lat="47.67004" lon="7.06455">
        <ele>355.905609</ele>
        <time>2022-10-30T13:54:31Z</time>
      </trkpt>
      <trkpt lat="47.67003" lon="7.06448">
        <ele>356.180756</ele>
        <time>2022-10-30T13:54:33Z</time>
      </trkpt>
      <trkpt lat="47.67001" lon="7.0644">
        <ele>356.480408</ele>
        <time>2022-10-30T13:54:35Z</time>
      </trkpt>
      <trkpt lat="47.67" lon="7.06432">
        <ele>356.800598</ele>
        <time>2022-10-30T13:54:37Z</time>
      </trkpt>
      <trkpt lat="47.66998" lon="7.06425">
        <ele>357.087219</ele>
        <time>2022-10-30T13:54:39Z</time>
      </trkpt>
      <trkpt lat="47.66996" lon="7.06417">
        <ele>357.381531</ele>
        <time>2022-10-30T13:54:41Z</time>
      </trkpt>
      <trkpt lat="47.66994" lon="7.06409">
        <ele>357.704803</ele>
        <time>2022-10-30T13:54:43Z</time>
      </trkpt>
      <trkpt lat="47.66993" lon="7.06401">
        <ele>358.032379</ele>
        <time>2022-10-30T13:54:45Z</time>
      </trkpt>
      <trkpt lat="47.66991" lon="7.06393">
        <ele>358.38562</ele>
        <time>2022-10-30T13:54:47Z</time>
      </trkpt>
      <trkpt lat="47.66989" lon="7.06385">
        <ele>358.735077</ele>
        <time>2022-10-30T13:54:49Z</time>
      </trkpt>
      <trkpt lat="47.66986" lon="7.06376">
        <ele>359.077667</ele>
        <time>2022-10-30T13:54:51Z</time>
      </trkpt>
      <trkpt lat="47.66985" lon="7.06367">
        <ele>359.420227</ele>
        <time>2022-10-30T13:54:53Z</time>
      </trkpt>
      <trkpt lat="47.66984" lon="7.06358">
        <ele>359.595825</ele>
        <time>2022-10-30T13:54:55Z</time>
      </trkpt>
      <trkpt lat="47.66983" lon="7.06349">
        <ele>359.940796</ele>
        <time>2022-10-30T13:54:57Z</time>
      </trkpt>
      <trkpt lat="47.66983" lon="7.06341">
        <ele>360.276978</ele>
        <time>2022-10-30T13:54:59Z</time>
      </trkpt>
      <trkpt lat="47.66983" lon="7.06332">
        <ele>360.613037</ele>
        <time>2022-10-30T13:55:01Z</time>
      </trkpt>
      <trkpt lat="47.66983" lon="7.06324">
        <ele>360.931488</ele>
        <time>2022-10-30T13:55:03Z</time>
      </trkpt>
      <trkpt lat="47.66983" lon="7.06315">
        <ele>361.237732</ele>
        <time>2022-10-30T13:55:05Z</time>
      </trkpt>
      <trkpt lat="47.66984" lon="7.06306">
        <ele>361.556213</ele>
        <time>2022-10-30T13:55:07Z</time>
      </trkpt>
      <trkpt lat="47.66985" lon="7.06296">
        <ele>361.889099</ele>
        <time>2022-10-30T13:55:09Z</time>
      </trkpt>
      <trkpt lat="47.66987" lon="7.06285">
        <ele>362.257477</ele>
        <time>2022-10-30T13:55:11Z</time>
      </trkpt>
      <trkpt lat="47.66988" lon="7.06274">
        <ele>362.631104</ele>
        <time>2022-10-30T13:55:13Z</time>
      </trkpt>
      <trkpt lat="47.66988" lon="7.06264">
        <ele>363.014496</ele>
        <time>2022-10-30T13:55:15Z</time>
      </trkpt>
      <trkpt lat="47.66989" lon="7.06255">
        <ele>363.352936</ele>
        <time>2022-10-30T13:55:17Z</time>
      </trkpt>
      <trkpt lat="47.6699" lon="7.06245">
        <ele>363.689209</ele>
        <time>2022-10-30T13:55:19Z</time>
      </trkpt>
      <trkpt lat="47.6699" lon="7.06236">
        <ele>364.048035</ele>
        <time>2022-10-30T13:55:21Z</time>
      </trkpt>
      <trkpt lat="47.6699" lon="7.06226">
        <ele>364.397186</ele>
        <time>2022-10-30T13:55:23Z</time>
      </trkpt>
      <trkpt lat="47.6699" lon="7.06217">
        <ele>364.542206</ele>
        <time>2022-10-30T13:55:25Z</time>
      </trkpt>
      <trkpt lat="47.66991" lon="7.06207">
        <ele>364.855011</ele>
        <time>2022-10-30T13:55:27Z</time>
      </trkpt>
      <trkpt lat="47.66991" lon="7.06198">
        <ele>365.161346</ele>
        <time>2022-10-30T13:55:29Z</time>
      </trkpt>
      <trkpt lat="47.6699" lon="7.06188">
        <ele>365.416321</ele>
        <time>2022-10-30T13:55:31Z</time>
      </trkpt>
      <trkpt lat="47.66989" lon="7.06178">
        <ele>365.735565</ele>
        <time>2022-10-30T13:55:33Z</time>
      </trkpt>
      <trkpt lat="47.66988" lon="7.06168">
        <ele>366.05481</ele>
        <time>2022-10-30T13:55:35Z</time>
      </trkpt>
      <trkpt lat="47.66988" lon="7.06158">
        <ele>366.382599</ele>
        <time>2022-10-30T13:55:37Z</time>
      </trkpt>
      <trkpt lat="47.66987" lon="7.06147">
        <ele>366.633362</ele>
        <time>2022-10-30T13:55:39Z</time>
      </trkpt>
      <trkpt lat="47.66986" lon="7.06138">
        <ele>366.953339</ele>
        <time>2022-10-30T13:55:41Z</time>
      </trkpt>
      <trkpt lat="47.66985" lon="7.06127">
        <ele>367.274902</ele>
        <time>2022-10-30T13:55:43Z</time>
      </trkpt>
      <trkpt lat="47.66985" lon="7.06117">
        <ele>367.464783</ele>
        <time>2022-10-30T13:55:45Z</time>
      </trkpt>
      <trkpt lat="47.66983" lon="7.06107">
        <ele>367.769287</ele>
        <time>2022-10-30T13:55:47Z</time>
      </trkpt>
      <trkpt lat="47.66983" lon="7.06096">
        <ele>368.087036</ele>
        <time>2022-10-30T13:55:49Z</time>
      </trkpt>
      <trkpt lat="47.66982" lon="7.06087">
        <ele>368.401672</ele>
        <time>2022-10-30T13:55:51Z</time>
      </trkpt>
      <trkpt lat="47.66981" lon="7.06077">
        <ele>368.664307</ele>
        <time>2022-10-30T13:55:53Z</time>
      </trkpt>
      <trkpt lat="47.6698" lon="7.06067">
        <ele>368.927917</ele>
        <time>2022-10-30T13:55:55Z</time>
      </trkpt>
      <trkpt lat="47.6698" lon="7.06058">
        <ele>369.165527</ele>
        <time>2022-10-30T13:55:57Z</time>
      </trkpt>
      <trkpt lat="47.66979" lon="7.06049">
        <ele>369.45697</ele>
        <time>2022-10-30T13:55:59Z</time>
      </trkpt>
      <trkpt lat="47.66978" lon="7.0604">
        <ele>369.68512</ele>
        <time>2022-10-30T13:56:01Z</time>
      </trkpt>
      <trkpt lat="47.66977" lon="7.0603">
        <ele>369.965881</ele>
        <time>2022-10-30T13:56:03Z</time>
      </trkpt>
      <trkpt lat="47.66977" lon="7.06021">
        <ele>370.218811</ele>
        <time>2022-10-30T13:56:05Z</time>
      </trkpt>
      <trkpt lat="47.66977" lon="7.06011">
        <ele>370.538849</ele>
        <time>2022-10-30T13:56:07Z</time>
      </trkpt>
      <trkpt lat="47.66978" lon="7.06002">
        <ele>370.80249</ele>
        <time>2022-10-30T13:56:09Z</time>
      </trkpt>
      <trkpt lat="47.66981" lon="7.05994">
        <ele>371.051086</ele>
        <time>2022-10-30T13:56:11Z</time>
      </trkpt>
      <trkpt lat="47.66985" lon="7.05988">
        <ele>371.304993</ele>
        <time>2022-10-30T13:56:13Z</time>
      </trkpt>
      <trkpt lat="47.66988" lon="7.05983">
        <ele>371.425018</ele>
        <time>2022-10-30T13:56:15Z</time>
      </trkpt>
      <trkpt lat="47.66991" lon="7.05981">
        <ele>371.654205</ele>
        <time>2022-10-30T13:56:17Z</time>
      </trkpt>
      <trkpt lat="47.66995" lon="7.05981">
        <ele>373.817566</ele>
        <time>2022-10-30T13:57:07Z</time>
      </trkpt>
      <trkpt lat="47.67" lon="7.05979">
        <ele>373.824036</ele>
        <time>2022-10-30T13:57:09Z</time>
      </trkpt>
      <trkpt lat="47.67005" lon="7.05979">
        <ele>373.842834</ele>
        <time>2022-10-30T13:57:11Z</time>
      </trkpt>
      <trkpt lat="47.67009" lon="7.05979">
        <ele>373.832184</ele>
        <time>2022-10-30T13:57:13Z</time>
      </trkpt>
      <trkpt lat="47.67014" lon="7.05978">
        <ele>373.815033</ele>
        <time>2022-10-30T13:57:15Z</time>
      </trkpt>
      <trkpt lat="47.67019" lon="7.05977">
        <ele>373.815033</ele>
        <time>2022-10-30T13:57:17Z</time>
      </trkpt>
      <trkpt lat="47.67025" lon="7.05977">
        <ele>373.806458</ele>
        <time>2022-10-30T13:57:19Z</time>
      </trkpt>
      <trkpt lat="47.6703" lon="7.05977">
        <ele>373.744293</ele>
        <time>2022-10-30T13:57:21Z</time>
      </trkpt>
      <trkpt lat="47.67034" lon="7.05977">
        <ele>373.730652</ele>
        <time>2022-10-30T13:57:23Z</time>
      </trkpt>
      <trkpt lat="47.67038" lon="7.05976">
        <ele>373.715637</ele>
        <time>2022-10-30T13:57:25Z</time>
      </trkpt>
      <trkpt lat="47.67042" lon="7.05976">
        <ele>373.612732</ele>
        <time>2022-10-30T13:57:27Z</time>
      </trkpt>
      <trkpt lat="47.67046" lon="7.05975">
        <ele>373.548431</ele>
        <time>2022-10-30T13:57:29Z</time>
      </trkpt>
      <trkpt lat="47.67051" lon="7.05975">
        <ele>373.494812</ele>
        <time>2022-10-30T13:57:31Z</time>
      </trkpt>
      <trkpt lat="47.67054" lon="7.05975">
        <ele>373.437683</ele>
        <time>2022-10-30T13:57:33Z</time>
      </trkpt>
      <trkpt lat="47.67058" lon="7.05975">
        <ele>373.366943</ele>
        <time>2022-10-30T13:57:35Z</time>
      </trkpt>
      <trkpt lat="47.67062" lon="7.05975">
        <ele>373.285004</ele>
        <time>2022-10-30T13:57:37Z</time>
      </trkpt>
      <trkpt lat="47.67066" lon="7.05975">
        <ele>373.205688</ele>
        <time>2022-10-30T13:57:39Z</time>
      </trkpt>
      <trkpt lat="47.6707" lon="7.05974">
        <ele>373.14566</ele>
        <time>2022-10-30T13:57:41Z</time>
      </trkpt>
      <trkpt lat="47.67075" lon="7.05974">
        <ele>373.012756</ele>
        <time>2022-10-30T13:57:43Z</time>
      </trkpt>
      <trkpt lat="47.6708" lon="7.05974">
        <ele>372.921661</ele>
        <time>2022-10-30T13:57:45Z</time>
      </trkpt>
      <trkpt lat="47.67087" lon="7.05973">
        <ele>372.838013</ele>
        <time>2022-10-30T13:57:47Z</time>
      </trkpt>
      <trkpt lat="47.67095" lon="7.05973">
        <ele>372.713684</ele>
        <time>2022-10-30T13:57:49Z</time>
      </trkpt>
      <trkpt lat="47.67103" lon="7.05973">
        <ele>372.654144</ele>
        <time>2022-10-30T13:57:51Z</time>
      </trkpt>
      <trkpt lat="47.67111" lon="7.05973">
        <ele>372.51181</ele>
        <time>2022-10-30T13:57:53Z</time>
      </trkpt>
      <trkpt lat="47.67118" lon="7.05972">
        <ele>372.440979</ele>
        <time>2022-10-30T13:57:55Z</time>
      </trkpt>
      <trkpt lat="47.67124" lon="7.05972">
        <ele>372.31665</ele>
        <time>2022-10-30T13:57:57Z</time>
      </trkpt>
      <trkpt lat="47.6713" lon="7.05972">
        <ele>372.147278</ele>
        <time>2022-10-30T13:57:59Z</time>
      </trkpt>
      <trkpt lat="47.67134" lon="7.05972">
        <ele>372.055084</ele>
        <time>2022-10-30T13:58:01Z</time>
      </trkpt>
      <trkpt lat="47.67138" lon="7.05973">
        <ele>371.920044</ele>
        <time>2022-10-30T13:58:03Z</time>
      </trkpt>
      <trkpt lat="47.67139" lon="7.05973">
        <ele>371.793549</ele>
        <time>2022-10-30T13:58:05Z</time>
      </trkpt>
      <trkpt lat="47.67146" lon="7.05965">
        <ele>370.758118</ele>
        <time>2022-10-30T14:00:54Z</time>
      </trkpt>
      <trkpt lat="47.67153" lon="7.05958">
        <ele>370.747375</ele>
        <time>2022-10-30T14:00:56Z</time>
      </trkpt>
      <trkpt lat="47.67158" lon="7.05958">
        <ele>370.783844</ele>
        <time>2022-10-30T14:00:58Z</time>
      </trkpt>
      <trkpt lat="47.67164" lon="7.05957">
        <ele>370.818146</ele>
        <time>2022-10-30T14:01:00Z</time>
      </trkpt>
      <trkpt lat="47.6717" lon="7.05956">
        <ele>370.790985</ele>
        <time>2022-10-30T14:01:02Z</time>
      </trkpt>
      <trkpt lat="47.67176" lon="7.05954">
        <ele>370.821838</ele>
        <time>2022-10-30T14:01:04Z</time>
      </trkpt>
      <trkpt lat="47.67181" lon="7.05951">
        <ele>370.798279</ele>
        <time>2022-10-30T14:01:06Z</time>
      </trkpt>
      <trkpt lat="47.67187" lon="7.05948">
        <ele>370.76825</ele>
        <time>2022-10-30T14:01:08Z</time>
      </trkpt>
      <trkpt lat="47.67194" lon="7.05945">
        <ele>370.710388</ele>
        <time>2022-10-30T14:01:10Z</time>
      </trkpt>
      <trkpt lat="47.67201" lon="7.0594">
        <ele>370.65036</ele>
        <time>2022-10-30T14:01:12Z</time>
      </trkpt>
      <trkpt lat="47.67208" lon="7.05936">
        <ele>370.611786</ele>
        <time>2022-10-30T14:01:14Z</time>
      </trkpt>
      <trkpt lat="47.67215" lon="7.05931">
        <ele>370.517517</ele>
        <time>2022-10-30T14:01:16Z</time>
      </trkpt>
      <trkpt lat="47.67222" lon="7.05926">
        <ele>370.50293</ele>
        <time>2022-10-30T14:01:18Z</time>
      </trkpt>
      <trkpt lat="47.6723" lon="7.05921">
        <ele>370.436462</ele>
        <time>2022-10-30T14:01:20Z</time>
      </trkpt>
      <trkpt lat="47.67238" lon="7.05915">
        <ele>370.391479</ele>
        <time>2022-10-30T14:01:22Z</time>
      </trkpt>
      <trkpt lat="47.67246" lon="7.0591">
        <ele>370.293152</ele>
        <time>2022-10-30T14:01:24Z</time>
      </trkpt>
      <trkpt lat="47.67254" lon="7.05903">
        <ele>370.239563</ele>
        <time>2022-10-30T14:01:26Z</time>
      </trkpt>
      <trkpt lat="47.67262" lon="7.05896">
        <ele>370.198853</ele>
        <time>2022-10-30T14:01:28Z</time>
      </trkpt>
      <trkpt lat="47.67269" lon="7.05888">
        <ele>370.160339</ele>
        <time>2022-10-30T14:01:30Z</time>
      </trkpt>
      <trkpt lat="47.67277" lon="7.0588">
        <ele>370.100311</ele>
        <time>2022-10-30T14:01:32Z</time>
      </trkpt>
      <trkpt lat="47.67284" lon="7.05873">
        <ele>370.014954</ele>
        <time>2022-10-30T14:01:34Z</time>
      </trkpt>
      <trkpt lat="47.67292" lon="7.05865">
        <ele>369.980652</ele>
        <time>2022-10-30T14:01:36Z</time>
      </trkpt>
      <trkpt lat="47.67299" lon="7.05857">
        <ele>369.952301</ele>
        <time>2022-10-30T14:01:38Z</time>
      </trkpt>
      <trkpt lat="47.67307" lon="7.05848">
        <ele>369.885834</ele>
        <time>2022-10-30T14:01:40Z</time>
      </trkpt>
      <trkpt lat="47.67314" lon="7.0584">
        <ele>369.860138</ele>
        <time>2022-10-30T14:01:42Z</time>
      </trkpt>
      <trkpt lat="47.67322" lon="7.05833">
        <ele>369.825836</ele>
        <time>2022-10-30T14:01:44Z</time>
      </trkpt>
      <trkpt lat="47.6733" lon="7.05825">
        <ele>369.775574</ele>
        <time>2022-10-30T14:01:46Z</time>
      </trkpt>
      <trkpt lat="47.67338" lon="7.05818">
        <ele>369.782013</ele>
        <time>2022-10-30T14:01:48Z</time>
      </trkpt>
      <trkpt lat="47.67347" lon="7.05811">
        <ele>369.732727</ele>
        <time>2022-10-30T14:01:50Z</time>
      </trkpt>
      <trkpt lat="47.67355" lon="7.05806">
        <ele>369.719849</ele>
        <time>2022-10-30T14:01:52Z</time>
      </trkpt>
      <trkpt lat="47.67365" lon="7.058">
        <ele>369.741302</ele>
        <time>2022-10-30T14:01:54Z</time>
      </trkpt>
      <trkpt lat="47.67375" lon="7.05794">
        <ele>369.734894</ele>
        <time>2022-10-30T14:01:56Z</time>
      </trkpt>
      <trkpt lat="47.67385" lon="7.05789">
        <ele>369.756287</ele>
        <time>2022-10-30T14:01:58Z</time>
      </trkpt>
      <trkpt lat="47.67395" lon="7.05783">
        <ele>369.747711</ele>
        <time>2022-10-30T14:02:00Z</time>
      </trkpt>
      <trkpt lat="47.67405" lon="7.05778">
        <ele>369.734863</ele>
        <time>2022-10-30T14:02:02Z</time>
      </trkpt>
      <trkpt lat="47.67414" lon="7.05771">
        <ele>369.747742</ele>
        <time>2022-10-30T14:02:04Z</time>
      </trkpt>
      <trkpt lat="47.67423" lon="7.05765">
        <ele>369.767029</ele>
        <time>2022-10-30T14:02:06Z</time>
      </trkpt>
      <trkpt lat="47.67432" lon="7.05757">
        <ele>369.779907</ele>
        <time>2022-10-30T14:02:08Z</time>
      </trkpt>
      <trkpt lat="47.6744" lon="7.05747">
        <ele>369.771301</ele>
        <time>2022-10-30T14:02:10Z</time>
      </trkpt>
      <trkpt lat="47.67447" lon="7.05736">
        <ele>369.797028</ele>
        <time>2022-10-30T14:02:12Z</time>
      </trkpt>
      <trkpt lat="47.67453" lon="7.05724">
        <ele>369.822723</ele>
        <time>2022-10-30T14:02:14Z</time>
      </trkpt>
      <trkpt lat="47.6746" lon="7.05712">
        <ele>369.858795</ele>
        <time>2022-10-30T14:02:16Z</time>
      </trkpt>
      <trkpt lat="47.67465" lon="7.057">
        <ele>369.878601</ele>
        <time>2022-10-30T14:02:18Z</time>
      </trkpt>
      <trkpt lat="47.6747" lon="7.05687">
        <ele>369.853943</ele>
        <time>2022-10-30T14:02:20Z</time>
      </trkpt>
      <trkpt lat="47.67475" lon="7.05675">
        <ele>369.86676</ele>
        <time>2022-10-30T14:02:22Z</time>
      </trkpt>
      <trkpt lat="47.6748" lon="7.05662">
        <ele>369.901459</ele>
        <time>2022-10-30T14:02:24Z</time>
      </trkpt>
      <trkpt lat="47.67485" lon="7.05648">
        <ele>369.901459</ele>
        <time>2022-10-30T14:02:26Z</time>
      </trkpt>
      <trkpt lat="47.67489" lon="7.05635">
        <ele>369.920715</ele>
        <time>2022-10-30T14:02:28Z</time>
      </trkpt>
      <trkpt lat="47.67494" lon="7.05622">
        <ele>369.935333</ele>
        <time>2022-10-30T14:02:30Z</time>
      </trkpt>
      <trkpt lat="47.67498" lon="7.05611">
        <ele>369.955109</ele>
        <time>2022-10-30T14:02:32Z</time>
      </trkpt>
      <trkpt lat="47.67502" lon="7.05601">
        <ele>369.978699</ele>
        <time>2022-10-30T14:02:34Z</time>
      </trkpt>
      <trkpt lat="47.67507" lon="7.05591">
        <ele>369.954407</ele>
        <time>2022-10-30T14:02:36Z</time>
      </trkpt>
      <trkpt lat="47.67513" lon="7.05581">
        <ele>370.018707</ele>
        <time>2022-10-30T14:02:38Z</time>
      </trkpt>
      <trkpt lat="47.67518" lon="7.05571">
        <ele>369.992981</ele>
        <time>2022-10-30T14:02:40Z</time>
      </trkpt>
      <trkpt lat="47.67522" lon="7.05562">
        <ele>369.990845</ele>
        <time>2022-10-30T14:02:42Z</time>
      </trkpt>
      <trkpt lat="47.67527" lon="7.05552">
        <ele>370.035522</ele>
        <time>2022-10-30T14:02:44Z</time>
      </trkpt>
      <trkpt lat="47.67533" lon="7.05542">
        <ele>370.047424</ele>
        <time>2022-10-30T14:02:46Z</time>
      </trkpt>
      <trkpt lat="47.67538" lon="7.05531">
        <ele>370.133179</ele>
        <time>2022-10-30T14:02:48Z</time>
      </trkpt>
      <trkpt lat="47.67542" lon="7.05521">
        <ele>370.169617</ele>
        <time>2022-10-30T14:02:50Z</time>
      </trkpt>
      <trkpt lat="47.67547" lon="7.05511">
        <ele>370.244202</ele>
        <time>2022-10-30T14:02:52Z</time>
      </trkpt>
      <trkpt lat="47.67551" lon="7.05501">
        <ele>370.299927</ele>
        <time>2022-10-30T14:02:54Z</time>
      </trkpt>
      <trkpt lat="47.67556" lon="7.0549">
        <ele>370.362091</ele>
        <time>2022-10-30T14:02:56Z</time>
      </trkpt>
      <trkpt lat="47.6756" lon="7.05479">
        <ele>370.398529</ele>
        <time>2022-10-30T14:02:58Z</time>
      </trkpt>
      <trkpt lat="47.67565" lon="7.05468">
        <ele>370.407166</ele>
        <time>2022-10-30T14:03:00Z</time>
      </trkpt>
      <trkpt lat="47.67569" lon="7.05457">
        <ele>370.438263</ele>
        <time>2022-10-30T14:03:02Z</time>
      </trkpt>
      <trkpt lat="47.67574" lon="7.05446">
        <ele>370.48053</ele>
        <time>2022-10-30T14:03:04Z</time>
      </trkpt>
      <trkpt lat="47.6758" lon="7.05435">
        <ele>370.478394</ele>
        <time>2022-10-30T14:03:06Z</time>
      </trkpt>
      <trkpt lat="47.67584" lon="7.05424">
        <ele>370.527344</ele>
        <time>2022-10-30T14:03:08Z</time>
      </trkpt>
      <trkpt lat="47.67589" lon="7.05413">
        <ele>370.555237</ele>
        <time>2022-10-30T14:03:10Z</time>
      </trkpt>
      <trkpt lat="47.67594" lon="7.05402">
        <ele>370.593903</ele>
        <time>2022-10-30T14:03:12Z</time>
      </trkpt>
      <trkpt lat="47.67599" lon="7.05391">
        <ele>370.661194</ele>
        <time>2022-10-30T14:03:14Z</time>
      </trkpt>
      <trkpt lat="47.67604" lon="7.05381">
        <ele>370.708038</ele>
        <time>2022-10-30T14:03:16Z</time>
      </trkpt>
      <trkpt lat="47.67609" lon="7.0537">
        <ele>370.770874</ele>
        <time>2022-10-30T14:03:18Z</time>
      </trkpt>
      <trkpt lat="47.67614" lon="7.05359">
        <ele>370.805176</ele>
        <time>2022-10-30T14:03:20Z</time>
      </trkpt>
      <trkpt lat="47.67618" lon="7.05348">
        <ele>370.873749</ele>
        <time>2022-10-30T14:03:22Z</time>
      </trkpt>
      <trkpt lat="47.67624" lon="7.05337">
        <ele>370.942352</ele>
        <time>2022-10-30T14:03:24Z</time>
      </trkpt>
      <trkpt lat="47.67628" lon="7.05326">
        <ele>371.055115</ele>
        <time>2022-10-30T14:03:26Z</time>
      </trkpt>
      <trkpt lat="47.67633" lon="7.05315">
        <ele>371.100098</ele>
        <time>2022-10-30T14:03:28Z</time>
      </trkpt>
      <trkpt lat="47.67637" lon="7.05304">
        <ele>371.166534</ele>
        <time>2022-10-30T14:03:30Z</time>
      </trkpt>
      <trkpt lat="47.67642" lon="7.05293">
        <ele>371.254395</ele>
        <time>2022-10-30T14:03:32Z</time>
      </trkpt>
      <trkpt lat="47.67645" lon="7.05283">
        <ele>371.383484</ele>
        <time>2022-10-30T14:03:34Z</time>
      </trkpt>
      <trkpt lat="47.6765" lon="7.05272">
        <ele>371.464935</ele>
        <time>2022-10-30T14:03:36Z</time>
      </trkpt>
      <trkpt lat="47.67654" lon="7.05262">
        <ele>371.541656</ele>
        <time>2022-10-30T14:03:38Z</time>
      </trkpt>
      <trkpt lat="47.67659" lon="7.05251">
        <ele>371.601685</ele>
        <time>2022-10-30T14:03:40Z</time>
      </trkpt>
      <trkpt lat="47.67663" lon="7.05241">
        <ele>371.717346</ele>
        <time>2022-10-30T14:03:42Z</time>
      </trkpt>
      <trkpt lat="47.67668" lon="7.0523">
        <ele>371.826691</ele>
        <time>2022-10-30T14:03:44Z</time>
      </trkpt>
      <trkpt lat="47.67673" lon="7.0522">
        <ele>371.946228</ele>
        <time>2022-10-30T14:03:46Z</time>
      </trkpt>
      <trkpt lat="47.67677" lon="7.05209">
        <ele>372.079498</ele>
        <time>2022-10-30T14:03:48Z</time>
      </trkpt>
      <trkpt lat="47.67681" lon="7.05199">
        <ele>372.233826</ele>
        <time>2022-10-30T14:03:50Z</time>
      </trkpt>
      <trkpt lat="47.67685" lon="7.05189">
        <ele>372.322571</ele>
        <time>2022-10-30T14:03:52Z</time>
      </trkpt>
      <trkpt lat="47.67689" lon="7.05178">
        <ele>372.36795</ele>
        <time>2022-10-30T14:03:54Z</time>
      </trkpt>
      <trkpt lat="47.67694" lon="7.05168">
        <ele>372.468262</ele>
        <time>2022-10-30T14:03:56Z</time>
      </trkpt>
      <trkpt lat="47.67698" lon="7.05158">
        <ele>372.558594</ele>
        <time>2022-10-30T14:03:58Z</time>
      </trkpt>
      <trkpt lat="47.67702" lon="7.05149">
        <ele>372.704407</ele>
        <time>2022-10-30T14:04:00Z</time>
      </trkpt>
      <trkpt lat="47.67707" lon="7.0514">
        <ele>372.824432</ele>
        <time>2022-10-30T14:04:02Z</time>
      </trkpt>
      <trkpt lat="47.67712" lon="7.05129">
        <ele>372.920837</ele>
        <time>2022-10-30T14:04:04Z</time>
      </trkpt>
      <trkpt lat="47.67717" lon="7.05119">
        <ele>373.025879</ele>
        <time>2022-10-30T14:04:06Z</time>
      </trkpt>
      <trkpt lat="47.67723" lon="7.05109">
        <ele>373.104919</ele>
        <time>2022-10-30T14:04:08Z</time>
      </trkpt>
      <trkpt lat="47.67728" lon="7.051">
        <ele>373.195435</ele>
        <time>2022-10-30T14:04:10Z</time>
      </trkpt>
      <trkpt lat="47.67732" lon="7.05091">
        <ele>373.27475</ele>
        <time>2022-10-30T14:04:12Z</time>
      </trkpt>
      <trkpt lat="47.67737" lon="7.05083">
        <ele>373.32196</ele>
        <time>2022-10-30T14:04:14Z</time>
      </trkpt>
      <trkpt lat="47.67741" lon="7.05073">
        <ele>373.418427</ele>
        <time>2022-10-30T14:04:16Z</time>
      </trkpt>
      <trkpt lat="47.67746" lon="7.05064">
        <ele>373.492737</ele>
        <time>2022-10-30T14:04:18Z</time>
      </trkpt>
      <trkpt lat="47.67751" lon="7.05055">
        <ele>373.546814</ele>
        <time>2022-10-30T14:04:20Z</time>
      </trkpt>
      <trkpt lat="47.67756" lon="7.05045">
        <ele>373.705475</ele>
        <time>2022-10-30T14:04:22Z</time>
      </trkpt>
      <trkpt lat="47.6776" lon="7.05034">
        <ele>373.804077</ele>
        <time>2022-10-30T14:04:24Z</time>
      </trkpt>
      <trkpt lat="47.67764" lon="7.05023">
        <ele>373.925232</ele>
        <time>2022-10-30T14:04:26Z</time>
      </trkpt>
      <trkpt lat="47.67769" lon="7.05012">
        <ele>374.022461</ele>
        <time>2022-10-30T14:04:28Z</time>
      </trkpt>
      <trkpt lat="47.67773" lon="7.05">
        <ele>374.140411</ele>
        <time>2022-10-30T14:04:30Z</time>
      </trkpt>
      <trkpt lat="47.67777" lon="7.04989">
        <ele>374.226196</ele>
        <time>2022-10-30T14:04:32Z</time>
      </trkpt>
      <trkpt lat="47.67781" lon="7.04978">
        <ele>374.367615</ele>
        <time>2022-10-30T14:04:34Z</time>
      </trkpt>
      <trkpt lat="47.67785" lon="7.04967">
        <ele>374.486816</ele>
        <time>2022-10-30T14:04:36Z</time>
      </trkpt>
      <trkpt lat="47.6779" lon="7.04956">
        <ele>374.639038</ele>
        <time>2022-10-30T14:04:38Z</time>
      </trkpt>
      <trkpt lat="47.67794" lon="7.04944">
        <ele>374.759338</ele>
        <time>2022-10-30T14:04:40Z</time>
      </trkpt>
      <trkpt lat="47.67798" lon="7.04932">
        <ele>374.847229</ele>
        <time>2022-10-30T14:04:42Z</time>
      </trkpt>
      <trkpt lat="47.67803" lon="7.04921">
        <ele>374.984558</ele>
        <time>2022-10-30T14:04:44Z</time>
      </trkpt>
      <trkpt lat="47.67807" lon="7.0491">
        <ele>375.147766</ele>
        <time>2022-10-30T14:04:46Z</time>
      </trkpt>
      <trkpt lat="47.67812" lon="7.04898">
        <ele>375.224945</ele>
        <time>2022-10-30T14:04:48Z</time>
      </trkpt>
      <trkpt lat="47.67816" lon="7.04887">
        <ele>375.317474</ele>
        <time>2022-10-30T14:04:50Z</time>
      </trkpt>
      <trkpt lat="47.6782" lon="7.04876">
        <ele>375.464966</ele>
        <time>2022-10-30T14:04:52Z</time>
      </trkpt>
      <trkpt lat="47.67824" lon="7.04866">
        <ele>375.58075</ele>
        <time>2022-10-30T14:04:54Z</time>
      </trkpt>
      <trkpt lat="47.67827" lon="7.04856">
        <ele>375.717224</ele>
        <time>2022-10-30T14:04:56Z</time>
      </trkpt>
      <trkpt lat="47.67831" lon="7.04846">
        <ele>375.824646</ele>
        <time>2022-10-30T14:04:58Z</time>
      </trkpt>
      <trkpt lat="47.67834" lon="7.04837">
        <ele>375.98407</ele>
        <time>2022-10-30T14:05:00Z</time>
      </trkpt>
      <trkpt lat="47.67838" lon="7.04828">
        <ele>376.103607</ele>
        <time>2022-10-30T14:05:02Z</time>
      </trkpt>
      <trkpt lat="47.67841" lon="7.04818">
        <ele>376.223694</ele>
        <time>2022-10-30T14:05:04Z</time>
      </trkpt>
      <trkpt lat="47.67845" lon="7.04808">
        <ele>376.366302</ele>
        <time>2022-10-30T14:05:06Z</time>
      </trkpt>
      <trkpt lat="47.67849" lon="7.04798">
        <ele>376.458496</ele>
        <time>2022-10-30T14:05:08Z</time>
      </trkpt>
      <trkpt lat="47.67852" lon="7.04789">
        <ele>376.514252</ele>
        <time>2022-10-30T14:05:10Z</time>
      </trkpt>
      <trkpt lat="47.67857" lon="7.04779">
        <ele>376.617859</ele>
        <time>2022-10-30T14:05:12Z</time>
      </trkpt>
      <trkpt lat="47.6786" lon="7.04768">
        <ele>376.737946</ele>
        <time>2022-10-30T14:05:14Z</time>
      </trkpt>
      <trkpt lat="47.67864" lon="7.04757">
        <ele>376.838989</ele>
        <time>2022-10-30T14:05:16Z</time>
      </trkpt>
      <trkpt lat="47.67868" lon="7.04746">
        <ele>376.999847</ele>
        <time>2022-10-30T14:05:18Z</time>
      </trkpt>
      <trkpt lat="47.67872" lon="7.04736">
        <ele>377.107117</ele>
        <time>2022-10-30T14:05:20Z</time>
      </trkpt>
      <trkpt lat="47.67876" lon="7.04725">
        <ele>377.209839</ele>
        <time>2022-10-30T14:05:22Z</time>
      </trkpt>
      <trkpt lat="47.6788" lon="7.04714">
        <ele>377.325653</ele>
        <time>2022-10-30T14:05:24Z</time>
      </trkpt>
      <trkpt lat="47.67884" lon="7.04704">
        <ele>377.435028</ele>
        <time>2022-10-30T14:05:26Z</time>
      </trkpt>
      <trkpt lat="47.67888" lon="7.04694">
        <ele>377.574249</ele>
        <time>2022-10-30T14:05:28Z</time>
      </trkpt>
      <trkpt lat="47.67891" lon="7.04684">
        <ele>377.690063</ele>
        <time>2022-10-30T14:05:30Z</time>
      </trkpt>
      <trkpt lat="47.67896" lon="7.04674">
        <ele>377.825195</ele>
        <time>2022-10-30T14:05:32Z</time>
      </trkpt>
      <trkpt lat="47.67899" lon="7.04665">
        <ele>377.895996</ele>
        <time>2022-10-30T14:05:34Z</time>
      </trkpt>
      <trkpt lat="47.67904" lon="7.04655">
        <ele>378.065491</ele>
        <time>2022-10-30T14:05:36Z</time>
      </trkpt>
      <trkpt lat="47.67907" lon="7.04645">
        <ele>378.205658</ele>
        <time>2022-10-30T14:05:38Z</time>
      </trkpt>
      <trkpt lat="47.67912" lon="7.04635">
        <ele>378.351349</ele>
        <time>2022-10-30T14:05:40Z</time>
      </trkpt>
      <trkpt lat="47.67915" lon="7.04626">
        <ele>378.450256</ele>
        <time>2022-10-30T14:05:42Z</time>
      </trkpt>
      <trkpt lat="47.67919" lon="7.04617">
        <ele>378.553101</ele>
        <time>2022-10-30T14:05:44Z</time>
      </trkpt>
      <trkpt lat="47.67923" lon="7.04608">
        <ele>378.666809</ele>
        <time>2022-10-30T14:05:46Z</time>
      </trkpt>
      <trkpt lat="47.67927" lon="7.04598">
        <ele>378.765472</ele>
        <time>2022-10-30T14:05:48Z</time>
      </trkpt>
      <trkpt lat="47.67931" lon="7.04589">
        <ele>378.912811</ele>
        <time>2022-10-30T14:05:50Z</time>
      </trkpt>
      <trkpt lat="47.67934" lon="7.04579">
        <ele>379.047974</ele>
        <time>2022-10-30T14:05:52Z</time>
      </trkpt>
      <trkpt lat="47.67938" lon="7.0457">
        <ele>379.12027</ele>
        <time>2022-10-30T14:05:54Z</time>
      </trkpt>
      <trkpt lat="47.67941" lon="7.04561">
        <ele>379.26828</ele>
        <time>2022-10-30T14:05:56Z</time>
      </trkpt>
      <trkpt lat="47.67945" lon="7.04552">
        <ele>379.406677</ele>
        <time>2022-10-30T14:05:58Z</time>
      </trkpt>
      <trkpt lat="47.67949" lon="7.04542">
        <ele>379.513947</ele>
        <time>2022-10-30T14:06:00Z</time>
      </trkpt>
      <trkpt lat="47.67952" lon="7.04533">
        <ele>379.659821</ele>
        <time>2022-10-30T14:06:02Z</time>
      </trkpt>
      <trkpt lat="47.67955" lon="7.04524">
        <ele>379.842163</ele>
        <time>2022-10-30T14:06:04Z</time>
      </trkpt>
      <trkpt lat="47.67959" lon="7.04515">
        <ele>379.975159</ele>
        <time>2022-10-30T14:06:06Z</time>
      </trkpt>
      <trkpt lat="47.67963" lon="7.04505">
        <ele>380.1362</ele>
        <time>2022-10-30T14:06:08Z</time>
      </trkpt>
      <trkpt lat="47.67966" lon="7.04496">
        <ele>380.230591</ele>
        <time>2022-10-30T14:06:10Z</time>
      </trkpt>
      <trkpt lat="47.67969" lon="7.04486">
        <ele>380.356781</ele>
        <time>2022-10-30T14:06:12Z</time>
      </trkpt>
      <trkpt lat="47.67972" lon="7.04476">
        <ele>380.500519</ele>
        <time>2022-10-30T14:06:14Z</time>
      </trkpt>
      <trkpt lat="47.67976" lon="7.04466">
        <ele>380.554138</ele>
        <time>2022-10-30T14:06:16Z</time>
      </trkpt>
      <trkpt lat="47.6798" lon="7.04456">
        <ele>380.682861</ele>
        <time>2022-10-30T14:06:18Z</time>
      </trkpt>
      <trkpt lat="47.67984" lon="7.04446">
        <ele>380.717194</ele>
        <time>2022-10-30T14:06:20Z</time>
      </trkpt>
      <trkpt lat="47.67989" lon="7.04436">
        <ele>380.840118</ele>
        <time>2022-10-30T14:06:22Z</time>
      </trkpt>
      <trkpt lat="47.67995" lon="7.04426">
        <ele>380.957855</ele>
        <time>2022-10-30T14:06:24Z</time>
      </trkpt>
      <trkpt lat="47.68" lon="7.04416">
        <ele>381.080994</ele>
        <time>2022-10-30T14:06:26Z</time>
      </trkpt>
      <trkpt lat="47.68007" lon="7.04407">
        <ele>381.188263</ele>
        <time>2022-10-30T14:06:28Z</time>
      </trkpt>
      <trkpt lat="47.68013" lon="7.04398">
        <ele>381.271698</ele>
        <time>2022-10-30T14:06:30Z</time>
      </trkpt>
      <trkpt lat="47.68019" lon="7.0439">
        <ele>381.379669</ele>
        <time>2022-10-30T14:06:32Z</time>
      </trkpt>
      <trkpt lat="47.68025" lon="7.04382">
        <ele>381.491119</ele>
        <time>2022-10-30T14:06:34Z</time>
      </trkpt>
      <trkpt lat="47.68032" lon="7.04373">
        <ele>381.576965</ele>
        <time>2022-10-30T14:06:36Z</time>
      </trkpt>
      <trkpt lat="47.68038" lon="7.04365">
        <ele>381.677795</ele>
        <time>2022-10-30T14:06:38Z</time>
      </trkpt>
      <trkpt lat="47.68045" lon="7.04357">
        <ele>381.78302</ele>
        <time>2022-10-30T14:06:40Z</time>
      </trkpt>
      <trkpt lat="47.68051" lon="7.04349">
        <ele>381.868835</ele>
        <time>2022-10-30T14:06:42Z</time>
      </trkpt>
      <trkpt lat="47.68058" lon="7.04341">
        <ele>381.941803</ele>
        <time>2022-10-30T14:06:44Z</time>
      </trkpt>
      <trkpt lat="47.68065" lon="7.04333">
        <ele>381.993317</ele>
        <time>2022-10-30T14:06:46Z</time>
      </trkpt>
      <trkpt lat="47.6807" lon="7.04326">
        <ele>382.034088</ele>
        <time>2022-10-30T14:06:48Z</time>
      </trkpt>
      <trkpt lat="47.68077" lon="7.04318">
        <ele>382.071838</ele>
        <time>2022-10-30T14:06:50Z</time>
      </trkpt>
      <trkpt lat="47.68083" lon="7.04311">
        <ele>382.11908</ele>
        <time>2022-10-30T14:06:52Z</time>
      </trkpt>
      <trkpt lat="47.6809" lon="7.04303">
        <ele>382.175232</ele>
        <time>2022-10-30T14:06:54Z</time>
      </trkpt>
      <trkpt lat="47.68096" lon="7.04295">
        <ele>382.226746</ele>
        <time>2022-10-30T14:06:56Z</time>
      </trkpt>
      <trkpt lat="47.68102" lon="7.04288">
        <ele>382.307922</ele>
        <time>2022-10-30T14:06:58Z</time>
      </trkpt>
      <trkpt lat="47.68108" lon="7.04281">
        <ele>382.38092</ele>
        <time>2022-10-30T14:07:00Z</time>
      </trkpt>
      <trkpt lat="47.68113" lon="7.04273">
        <ele>382.498322</ele>
        <time>2022-10-30T14:07:02Z</time>
      </trkpt>
      <trkpt lat="47.68119" lon="7.04266">
        <ele>382.56485</ele>
        <time>2022-10-30T14:07:04Z</time>
      </trkpt>
      <trkpt lat="47.68125" lon="7.04259">
        <ele>382.659088</ele>
        <time>2022-10-30T14:07:06Z</time>
      </trkpt>
      <trkpt lat="47.68131" lon="7.04252">
        <ele>382.738464</ele>
        <time>2022-10-30T14:07:08Z</time>
      </trkpt>
      <trkpt lat="47.68137" lon="7.04244">
        <ele>382.86322</ele>
        <time>2022-10-30T14:07:10Z</time>
      </trkpt>
      <trkpt lat="47.68142" lon="7.04237">
        <ele>382.974792</ele>
        <time>2022-10-30T14:07:12Z</time>
      </trkpt>
      <trkpt lat="47.68148" lon="7.04229">
        <ele>383.022034</ele>
        <time>2022-10-30T14:07:14Z</time>
      </trkpt>
      <trkpt lat="47.68153" lon="7.04221">
        <ele>383.097015</ele>
        <time>2022-10-30T14:07:16Z</time>
      </trkpt>
      <trkpt lat="47.68157" lon="7.04212">
        <ele>383.208618</ele>
        <time>2022-10-30T14:07:18Z</time>
      </trkpt>
      <trkpt lat="47.68161" lon="7.04202">
        <ele>383.281586</ele>
        <time>2022-10-30T14:07:20Z</time>
      </trkpt>
      <trkpt lat="47.68165" lon="7.04191">
        <ele>383.382385</ele>
        <time>2022-10-30T14:07:22Z</time>
      </trkpt>
      <trkpt lat="47.68169" lon="7.04181">
        <ele>383.468231</ele>
        <time>2022-10-30T14:07:24Z</time>
      </trkpt>
      <trkpt lat="47.68172" lon="7.04171">
        <ele>383.622742</ele>
        <time>2022-10-30T14:07:26Z</time>
      </trkpt>
      <trkpt lat="47.68176" lon="7.0416">
        <ele>383.721619</ele>
        <time>2022-10-30T14:07:28Z</time>
      </trkpt>
      <trkpt lat="47.6818" lon="7.04149">
        <ele>383.844666</ele>
        <time>2022-10-30T14:07:30Z</time>
      </trkpt>
      <trkpt lat="47.68184" lon="7.04138">
        <ele>383.99057</ele>
        <time>2022-10-30T14:07:32Z</time>
      </trkpt>
      <trkpt lat="47.68187" lon="7.04127">
        <ele>384.070007</ele>
        <time>2022-10-30T14:07:34Z</time>
      </trkpt>
      <trkpt lat="47.68191" lon="7.04116">
        <ele>384.160126</ele>
        <time>2022-10-30T14:07:36Z</time>
      </trkpt>
      <trkpt lat="47.68194" lon="7.04105">
        <ele>384.293182</ele>
        <time>2022-10-30T14:07:38Z</time>
      </trkpt>
      <trkpt lat="47.68198" lon="7.04094">
        <ele>384.375061</ele>
        <time>2022-10-30T14:07:40Z</time>
      </trkpt>
      <trkpt lat="47.68201" lon="7.04083">
        <ele>384.467346</ele>
        <time>2022-10-30T14:07:42Z</time>
      </trkpt>
      <trkpt lat="47.68204" lon="7.04073">
        <ele>384.587585</ele>
        <time>2022-10-30T14:07:44Z</time>
      </trkpt>
      <trkpt lat="47.68208" lon="7.04063">
        <ele>384.658417</ele>
        <time>2022-10-30T14:07:46Z</time>
      </trkpt>
      <trkpt lat="47.68211" lon="7.04053">
        <ele>384.778625</ele>
        <time>2022-10-30T14:07:48Z</time>
      </trkpt>
      <trkpt lat="47.68214" lon="7.04043">
        <ele>384.851624</ele>
        <time>2022-10-30T14:07:50Z</time>
      </trkpt>
      <trkpt lat="47.68218" lon="7.04033">
        <ele>384.939148</ele>
        <time>2022-10-30T14:07:52Z</time>
      </trkpt>
      <trkpt lat="47.68222" lon="7.04023">
        <ele>385.059357</ele>
        <time>2022-10-30T14:07:54Z</time>
      </trkpt>
      <trkpt lat="47.68224" lon="7.04013">
        <ele>385.158081</ele>
        <time>2022-10-30T14:07:56Z</time>
      </trkpt>
      <trkpt lat="47.68228" lon="7.04002">
        <ele>385.264709</ele>
        <time>2022-10-30T14:07:58Z</time>
      </trkpt>
      <trkpt lat="47.68232" lon="7.03991">
        <ele>385.363464</ele>
        <time>2022-10-30T14:08:00Z</time>
      </trkpt>
      <trkpt lat="47.68237" lon="7.0398">
        <ele>385.502991</ele>
        <time>2022-10-30T14:08:02Z</time>
      </trkpt>
      <trkpt lat="47.68241" lon="7.0397">
        <ele>385.593445</ele>
        <time>2022-10-30T14:08:04Z</time>
      </trkpt>
      <trkpt lat="47.68246" lon="7.03959">
        <ele>385.705078</ele>
        <time>2022-10-30T14:08:06Z</time>
      </trkpt>
      <trkpt lat="47.6825" lon="7.03949">
        <ele>385.810272</ele>
        <time>2022-10-30T14:08:08Z</time>
      </trkpt>
      <trkpt lat="47.68255" lon="7.03941">
        <ele>385.943237</ele>
        <time>2022-10-30T14:08:10Z</time>
      </trkpt>
      <trkpt lat="47.68259" lon="7.03933">
        <ele>386.076355</ele>
        <time>2022-10-30T14:08:12Z</time>
      </trkpt>
      <trkpt lat="47.68264" lon="7.03925">
        <ele>386.149353</ele>
        <time>2022-10-30T14:08:14Z</time>
      </trkpt>
      <trkpt lat="47.68269" lon="7.03918">
        <ele>386.333923</ele>
        <time>2022-10-30T14:08:16Z</time>
      </trkpt>
      <trkpt lat="47.68274" lon="7.03911">
        <ele>386.47348</ele>
        <time>2022-10-30T14:08:18Z</time>
      </trkpt>
      <trkpt lat="47.68279" lon="7.03905">
        <ele>386.613037</ele>
        <time>2022-10-30T14:08:20Z</time>
      </trkpt>
      <trkpt lat="47.68284" lon="7.03898">
        <ele>386.810516</ele>
        <time>2022-10-30T14:08:22Z</time>
      </trkpt>
      <trkpt lat="47.68289" lon="7.03892">
        <ele>386.91571</ele>
        <time>2022-10-30T14:08:24Z</time>
      </trkpt>
      <trkpt lat="47.68295" lon="7.03886">
        <ele>387.024689</ele>
        <time>2022-10-30T14:08:26Z</time>
      </trkpt>
      <trkpt lat="47.683" lon="7.0388">
        <ele>387.186981</ele>
        <time>2022-10-30T14:08:28Z</time>
      </trkpt>
      <trkpt lat="47.68304" lon="7.03873">
        <ele>387.28363</ele>
        <time>2022-10-30T14:08:30Z</time>
      </trkpt>
      <trkpt lat="47.68309" lon="7.03867">
        <ele>387.393585</ele>
        <time>2022-10-30T14:08:32Z</time>
      </trkpt>
      <trkpt lat="47.68315" lon="7.03861">
        <ele>387.475159</ele>
        <time>2022-10-30T14:08:34Z</time>
      </trkpt>
      <trkpt lat="47.6832" lon="7.03856">
        <ele>387.619019</ele>
        <time>2022-10-30T14:08:36Z</time>
      </trkpt>
      <trkpt lat="47.68325" lon="7.03851">
        <ele>387.72171</ele>
        <time>2022-10-30T14:08:38Z</time>
      </trkpt>
      <trkpt lat="47.68331" lon="7.03846">
        <ele>387.828583</ele>
        <time>2022-10-30T14:08:40Z</time>
      </trkpt>
      <trkpt lat="47.68337" lon="7.0384">
        <ele>387.959595</ele>
        <time>2022-10-30T14:08:42Z</time>
      </trkpt>
      <trkpt lat="47.68343" lon="7.03835">
        <ele>388.084106</ele>
        <time>2022-10-30T14:08:44Z</time>
      </trkpt>
      <trkpt lat="47.68349" lon="7.03831">
        <ele>388.141968</ele>
        <time>2022-10-30T14:08:46Z</time>
      </trkpt>
      <trkpt lat="47.68354" lon="7.03825">
        <ele>388.356659</ele>
        <time>2022-10-30T14:08:48Z</time>
      </trkpt>
      <trkpt lat="47.6836" lon="7.03821">
        <ele>388.425415</ele>
        <time>2022-10-30T14:08:50Z</time>
      </trkpt>
      <trkpt lat="47.68366" lon="7.03817">
        <ele>388.57785</ele>
        <time>2022-10-30T14:08:52Z</time>
      </trkpt>
      <trkpt lat="47.68372" lon="7.03812">
        <ele>388.723846</ele>
        <time>2022-10-30T14:08:54Z</time>
      </trkpt>
      <trkpt lat="47.68378" lon="7.03807">
        <ele>388.863403</ele>
        <time>2022-10-30T14:08:56Z</time>
      </trkpt>
      <trkpt lat="47.68383" lon="7.03803">
        <ele>389.037384</ele>
        <time>2022-10-30T14:08:58Z</time>
      </trkpt>
      <trkpt lat="47.68388" lon="7.038">
        <ele>389.217743</ele>
        <time>2022-10-30T14:09:00Z</time>
      </trkpt>
      <trkpt lat="47.68393" lon="7.03797">
        <ele>389.3573</ele>
        <time>2022-10-30T14:09:02Z</time>
      </trkpt>
      <trkpt lat="47.68396" lon="7.03795">
        <ele>389.557037</ele>
        <time>2022-10-30T14:09:04Z</time>
      </trkpt>
      <trkpt lat="47.684" lon="7.03791">
        <ele>389.756744</ele>
        <time>2022-10-30T14:09:06Z</time>
      </trkpt>
      <trkpt lat="47.68403" lon="7.03788">
        <ele>389.935516</ele>
        <time>2022-10-30T14:09:08Z</time>
      </trkpt>
      <trkpt lat="47.68407" lon="7.03783">
        <ele>390.106903</ele>
        <time>2022-10-30T14:09:10Z</time>
      </trkpt>
      <trkpt lat="47.68411" lon="7.03778">
        <ele>390.293762</ele>
        <time>2022-10-30T14:09:12Z</time>
      </trkpt>
      <trkpt lat="47.68414" lon="7.03773">
        <ele>390.521393</ele>
        <time>2022-10-30T14:09:14Z</time>
      </trkpt>
      <trkpt lat="47.68417" lon="7.03768">
        <ele>390.633118</ele>
        <time>2022-10-30T14:09:16Z</time>
      </trkpt>
      <trkpt lat="47.6842" lon="7.03763">
        <ele>390.843628</ele>
        <time>2022-10-30T14:09:18Z</time>
      </trkpt>
      <trkpt lat="47.68424" lon="7.03758">
        <ele>391.053192</ele>
        <time>2022-10-30T14:09:20Z</time>
      </trkpt>
      <trkpt lat="47.68428" lon="7.03753">
        <ele>391.279144</ele>
        <time>2022-10-30T14:09:22Z</time>
      </trkpt>
      <trkpt lat="47.68431" lon="7.03749">
        <ele>391.485321</ele>
        <time>2022-10-30T14:09:24Z</time>
      </trkpt>
      <trkpt lat="47.68434" lon="7.03744">
        <ele>391.719421</ele>
        <time>2022-10-30T14:09:26Z</time>
      </trkpt>
      <trkpt lat="47.68437" lon="7.0374">
        <ele>392.00708</ele>
        <time>2022-10-30T14:09:28Z</time>
      </trkpt>
      <trkpt lat="47.6844" lon="7.03736">
        <ele>392.219757</ele>
        <time>2022-10-30T14:09:30Z</time>
      </trkpt>
      <trkpt lat="47.68443" lon="7.03732">
        <ele>392.447449</ele>
        <time>2022-10-30T14:09:32Z</time>
      </trkpt>
      <trkpt lat="47.68446" lon="7.03728">
        <ele>392.65802</ele>
        <time>2022-10-30T14:09:34Z</time>
      </trkpt>
      <trkpt lat="47.68451" lon="7.03723">
        <ele>392.845734</ele>
        <time>2022-10-30T14:09:36Z</time>
      </trkpt>
      <trkpt lat="47.68455" lon="7.03717">
        <ele>393.078522</ele>
        <time>2022-10-30T14:09:38Z</time>
      </trkpt>
      <trkpt lat="47.68459" lon="7.03711">
        <ele>393.293365</ele>
        <time>2022-10-30T14:09:40Z</time>
      </trkpt>
      <trkpt lat="47.68462" lon="7.03706">
        <ele>393.521088</ele>
        <time>2022-10-30T14:09:42Z</time>
      </trkpt>
      <trkpt lat="47.68466" lon="7.037">
        <ele>393.770325</ele>
        <time>2022-10-30T14:09:44Z</time>
      </trkpt>
      <trkpt lat="47.6847" lon="7.03694">
        <ele>393.856903</ele>
        <time>2022-10-30T14:09:46Z</time>
      </trkpt>
      <trkpt lat="47.68474" lon="7.03688">
        <ele>394.112274</ele>
        <time>2022-10-30T14:09:48Z</time>
      </trkpt>
      <trkpt lat="47.68477" lon="7.03682">
        <ele>394.338531</ele>
        <time>2022-10-30T14:09:50Z</time>
      </trkpt>
      <trkpt lat="47.68481" lon="7.03676">
        <ele>394.634064</ele>
        <time>2022-10-30T14:09:52Z</time>
      </trkpt>
      <trkpt lat="47.68485" lon="7.0367">
        <ele>394.971375</ele>
        <time>2022-10-30T14:09:54Z</time>
      </trkpt>
      <trkpt lat="47.68489" lon="7.03663">
        <ele>395.278625</ele>
        <time>2022-10-30T14:09:56Z</time>
      </trkpt>
      <trkpt lat="47.68493" lon="7.03656">
        <ele>395.555756</ele>
        <time>2022-10-30T14:09:58Z</time>
      </trkpt>
      <trkpt lat="47.68498" lon="7.03649">
        <ele>395.86142</ele>
        <time>2022-10-30T14:10:00Z</time>
      </trkpt>
      <trkpt lat="47.68502" lon="7.03642">
        <ele>396.18161</ele>
        <time>2022-10-30T14:10:02Z</time>
      </trkpt>
      <trkpt lat="47.68506" lon="7.03634">
        <ele>396.495331</ele>
        <time>2022-10-30T14:10:04Z</time>
      </trkpt>
      <trkpt lat="47.6851" lon="7.03627">
        <ele>396.849915</ele>
        <time>2022-10-30T14:10:06Z</time>
      </trkpt>
      <trkpt lat="47.68514" lon="7.03619">
        <ele>397.129272</ele>
        <time>2022-10-30T14:10:08Z</time>
      </trkpt>
      <trkpt lat="47.68518" lon="7.03612">
        <ele>397.380676</ele>
        <time>2022-10-30T14:10:10Z</time>
      </trkpt>
      <trkpt lat="47.68523" lon="7.03605">
        <ele>397.513916</ele>
        <time>2022-10-30T14:10:12Z</time>
      </trkpt>
      <trkpt lat="47.68527" lon="7.03597">
        <ele>397.802185</ele>
        <time>2022-10-30T14:10:14Z</time>
      </trkpt>
      <trkpt lat="47.68531" lon="7.03591">
        <ele>398.092285</ele>
        <time>2022-10-30T14:10:16Z</time>
      </trkpt>
      <trkpt lat="47.68535" lon="7.03585">
        <ele>398.426727</ele>
        <time>2022-10-30T14:10:18Z</time>
      </trkpt>
      <trkpt lat="47.68538" lon="7.0358">
        <ele>398.694702</ele>
        <time>2022-10-30T14:10:20Z</time>
      </trkpt>
      <trkpt lat="47.68541" lon="7.03576">
        <ele>398.935394</ele>
        <time>2022-10-30T14:10:22Z</time>
      </trkpt>
      <trkpt lat="47.68543" lon="7.03572">
        <ele>399.214783</ele>
        <time>2022-10-30T14:10:24Z</time>
      </trkpt>
      <trkpt lat="47.68546" lon="7.03568">
        <ele>399.461945</ele>
        <time>2022-10-30T14:10:26Z</time>
      </trkpt>
      <trkpt lat="47.68548" lon="7.03565">
        <ele>399.59668</ele>
        <time>2022-10-30T14:10:28Z</time>
      </trkpt>
      <trkpt lat="47.68551" lon="7.03559">
        <ele>400.80365</ele>
        <time>2022-10-30T14:12:29Z</time>
      </trkpt>
      <trkpt lat="47.68551" lon="7.0355">
        <ele>400.81012</ele>
        <time>2022-10-30T14:12:31Z</time>
      </trkpt>
      <trkpt lat="47.68554" lon="7.03536">
        <ele>400.850952</ele>
        <time>2022-10-30T14:12:33Z</time>
      </trkpt>
      <trkpt lat="47.68555" lon="7.03527">
        <ele>400.831604</ele>
        <time>2022-10-30T14:12:35Z</time>
      </trkpt>
      <trkpt lat="47.68557" lon="7.03517">
        <ele>400.80365</ele>
        <time>2022-10-30T14:12:37Z</time>
      </trkpt>
      <trkpt lat="47.68558" lon="7.03505">
        <ele>400.756927</ele>
        <time>2022-10-30T14:12:39Z</time>
      </trkpt>
      <trkpt lat="47.68559" lon="7.03492">
        <ele>400.695587</ele>
        <time>2022-10-30T14:12:41Z</time>
      </trkpt>
      <trkpt lat="47.6856" lon="7.03478">
        <ele>400.685364</ele>
        <time>2022-10-30T14:12:43Z</time>
      </trkpt>
      <trkpt lat="47.68561" lon="7.03464">
        <ele>400.607727</ele>
        <time>2022-10-30T14:12:45Z</time>
      </trkpt>
      <trkpt lat="47.68562" lon="7.03448">
        <ele>400.479523</ele>
        <time>2022-10-30T14:12:47Z</time>
      </trkpt>
      <trkpt lat="47.68563" lon="7.03433">
        <ele>400.431335</ele>
        <time>2022-10-30T14:12:49Z</time>
      </trkpt>
      <trkpt lat="47.68564" lon="7.03418">
        <ele>400.328156</ele>
        <time>2022-10-30T14:12:51Z</time>
      </trkpt>
      <trkpt lat="47.68565" lon="7.03403">
        <ele>400.152283</ele>
        <time>2022-10-30T14:12:53Z</time>
      </trkpt>
      <trkpt lat="47.68566" lon="7.03387">
        <ele>400.002258</ele>
        <time>2022-10-30T14:12:55Z</time>
      </trkpt>
      <trkpt lat="47.6857" lon="7.03371">
        <ele>399.800232</ele>
        <time>2022-10-30T14:12:57Z</time>
      </trkpt>
      <trkpt lat="47.68576" lon="7.03357">
        <ele>399.5961</ele>
        <time>2022-10-30T14:12:59Z</time>
      </trkpt>
      <trkpt lat="47.68581" lon="7.03344">
        <ele>399.413422</ele>
        <time>2022-10-30T14:13:01Z</time>
      </trkpt>
      <trkpt lat="47.68584" lon="7.03329">
        <ele>399.227722</ele>
        <time>2022-10-30T14:13:03Z</time>
      </trkpt>
      <trkpt lat="47.68586" lon="7.03314">
        <ele>399.135559</ele>
        <time>2022-10-30T14:13:05Z</time>
      </trkpt>
      <trkpt lat="47.68589" lon="7.033">
        <ele>398.860413</ele>
        <time>2022-10-30T14:13:07Z</time>
      </trkpt>
      <trkpt lat="47.68591" lon="7.03288">
        <ele>398.608002</ele>
        <time>2022-10-30T14:13:09Z</time>
      </trkpt>
      <trkpt lat="47.68593" lon="7.0328">
        <ele>398.294922</ele>
        <time>2022-10-30T14:13:11Z</time>
      </trkpt>
      <trkpt lat="47.68593" lon="7.0327">
        <ele>398.02417</ele>
        <time>2022-10-30T14:13:13Z</time>
      </trkpt>
      <trkpt lat="47.6859" lon="7.0326">
        <ele>397.884491</ele>
        <time>2022-10-30T14:13:15Z</time>
      </trkpt>
      <trkpt lat="47.68588" lon="7.0325">
        <ele>397.585327</ele>
        <time>2022-10-30T14:13:17Z</time>
      </trkpt>
      <trkpt lat="47.68585" lon="7.03239">
        <ele>397.211395</ele>
        <time>2022-10-30T14:13:19Z</time>
      </trkpt>
      <trkpt lat="47.68582" lon="7.03228">
        <ele>396.864868</ele>
        <time>2022-10-30T14:13:21Z</time>
      </trkpt>
      <trkpt lat="47.68578" lon="7.03216">
        <ele>396.535339</ele>
        <time>2022-10-30T14:13:23Z</time>
      </trkpt>
      <trkpt lat="47.68575" lon="7.03202">
        <ele>396.130585</ele>
        <time>2022-10-30T14:13:25Z</time>
      </trkpt>
      <trkpt lat="47.6857" lon="7.03186">
        <ele>395.74176</ele>
        <time>2022-10-30T14:13:27Z</time>
      </trkpt>
      <trkpt lat="47.68568" lon="7.03168">
        <ele>395.355042</ele>
        <time>2022-10-30T14:13:29Z</time>
      </trkpt>
      <trkpt lat="47.68569" lon="7.03149">
        <ele>394.989288</ele>
        <time>2022-10-30T14:13:31Z</time>
      </trkpt>
      <trkpt lat="47.6857" lon="7.0313">
        <ele>394.618591</ele>
        <time>2022-10-30T14:13:33Z</time>
      </trkpt>
      <trkpt lat="47.68572" lon="7.03113">
        <ele>394.401611</ele>
        <time>2022-10-30T14:13:35Z</time>
      </trkpt>
      <trkpt lat="47.68573" lon="7.03096">
        <ele>394.027832</ele>
        <time>2022-10-30T14:13:37Z</time>
      </trkpt>
      <trkpt lat="47.68572" lon="7.03079">
        <ele>393.664368</ele>
        <time>2022-10-30T14:13:39Z</time>
      </trkpt>
      <trkpt lat="47.68572" lon="7.0306">
        <ele>393.285522</ele>
        <time>2022-10-30T14:13:41Z</time>
      </trkpt>
      <trkpt lat="47.68572" lon="7.0304">
        <ele>392.87738</ele>
        <time>2022-10-30T14:13:43Z</time>
      </trkpt>
      <trkpt lat="47.68572" lon="7.0302">
        <ele>392.481384</ele>
        <time>2022-10-30T14:13:45Z</time>
      </trkpt>
      <trkpt lat="47.68573" lon="7.02998">
        <ele>391.951477</ele>
        <time>2022-10-30T14:13:47Z</time>
      </trkpt>
      <trkpt lat="47.68574" lon="7.02976">
        <ele>391.542938</ele>
        <time>2022-10-30T14:13:49Z</time>
      </trkpt>
      <trkpt lat="47.68576" lon="7.02953">
        <ele>391.31958</ele>
        <time>2022-10-30T14:13:51Z</time>
      </trkpt>
      <trkpt lat="47.68578" lon="7.02932">
        <ele>390.835846</ele>
        <time>2022-10-30T14:13:53Z</time>
      </trkpt>
      <trkpt lat="47.68582" lon="7.02911">
        <ele>390.369812</ele>
        <time>2022-10-30T14:13:55Z</time>
      </trkpt>
      <trkpt lat="47.68584" lon="7.0289">
        <ele>389.900452</ele>
        <time>2022-10-30T14:13:57Z</time>
      </trkpt>
      <trkpt lat="47.68583" lon="7.02871">
        <ele>389.444031</ele>
        <time>2022-10-30T14:13:59Z</time>
      </trkpt>
      <trkpt lat="47.6858" lon="7.02853">
        <ele>389.051422</ele>
        <time>2022-10-30T14:14:01Z</time>
      </trkpt>
      <trkpt lat="47.68574" lon="7.02837">
        <ele>388.579041</ele>
        <time>2022-10-30T14:14:03Z</time>
      </trkpt>
      <trkpt lat="47.68567" lon="7.02821">
        <ele>388.088074</ele>
        <time>2022-10-30T14:14:05Z</time>
      </trkpt>
      <trkpt lat="47.68559" lon="7.02805">
        <ele>387.675873</ele>
        <time>2022-10-30T14:14:07Z</time>
      </trkpt>
      <trkpt lat="47.68551" lon="7.0279">
        <ele>387.2164</ele>
        <time>2022-10-30T14:14:09Z</time>
      </trkpt>
      <trkpt lat="47.68543" lon="7.02775">
        <ele>387.049957</ele>
        <time>2022-10-30T14:14:11Z</time>
      </trkpt>
      <trkpt lat="47.68535" lon="7.02759">
        <ele>386.612</ele>
        <time>2022-10-30T14:14:13Z</time>
      </trkpt>
      <trkpt lat="47.68528" lon="7.02744">
        <ele>386.199036</ele>
        <time>2022-10-30T14:14:15Z</time>
      </trkpt>
      <trkpt lat="47.6852" lon="7.02729">
        <ele>385.796631</ele>
        <time>2022-10-30T14:14:17Z</time>
      </trkpt>
      <trkpt lat="47.68514" lon="7.02715">
        <ele>385.399506</ele>
        <time>2022-10-30T14:14:19Z</time>
      </trkpt>
      <trkpt lat="47.68506" lon="7.02702">
        <ele>384.994202</ele>
        <time>2022-10-30T14:14:21Z</time>
      </trkpt>
      <trkpt lat="47.68501" lon="7.02689">
        <ele>384.655792</ele>
        <time>2022-10-30T14:14:23Z</time>
      </trkpt>
      <trkpt lat="47.68497" lon="7.02676">
        <ele>384.340271</ele>
        <time>2022-10-30T14:14:25Z</time>
      </trkpt>
      <trkpt lat="47.68493" lon="7.02663">
        <ele>384.023499</ele>
        <time>2022-10-30T14:14:27Z</time>
      </trkpt>
      <trkpt lat="47.68488" lon="7.02651">
        <ele>383.757385</ele>
        <time>2022-10-30T14:14:29Z</time>
      </trkpt>
      <trkpt lat="47.68484" lon="7.02637">
        <ele>383.427307</ele>
        <time>2022-10-30T14:14:31Z</time>
      </trkpt>
      <trkpt lat="47.68479" lon="7.02623">
        <ele>383.1185</ele>
        <time>2022-10-30T14:14:33Z</time>
      </trkpt>
      <trkpt lat="47.68474" lon="7.02609">
        <ele>382.891052</ele>
        <time>2022-10-30T14:14:35Z</time>
      </trkpt>
      <trkpt lat="47.68469" lon="7.02595">
        <ele>382.800903</ele>
        <time>2022-10-30T14:14:37Z</time>
      </trkpt>
      <trkpt lat="47.68464" lon="7.02581">
        <ele>382.575897</ele>
        <time>2022-10-30T14:14:39Z</time>
      </trkpt>
      <trkpt lat="47.68458" lon="7.02567">
        <ele>382.399353</ele>
        <time>2022-10-30T14:14:41Z</time>
      </trkpt>
      <trkpt lat="47.68453" lon="7.02553">
        <ele>382.198029</ele>
        <time>2022-10-30T14:14:43Z</time>
      </trkpt>
      <trkpt lat="47.68448" lon="7.0254">
        <ele>382.043762</ele>
        <time>2022-10-30T14:14:45Z</time>
      </trkpt>
      <trkpt lat="47.68443" lon="7.02527">
        <ele>381.906433</ele>
        <time>2022-10-30T14:14:47Z</time>
      </trkpt>
      <trkpt lat="47.68438" lon="7.02514">
        <ele>381.785706</ele>
        <time>2022-10-30T14:14:49Z</time>
      </trkpt>
      <trkpt lat="47.68433" lon="7.02501">
        <ele>381.708466</ele>
        <time>2022-10-30T14:14:51Z</time>
      </trkpt>
      <trkpt lat="47.68428" lon="7.02487">
        <ele>381.631683</ele>
        <time>2022-10-30T14:14:53Z</time>
      </trkpt>
      <trkpt lat="47.68423" lon="7.02474">
        <ele>381.517975</ele>
        <time>2022-10-30T14:14:55Z</time>
      </trkpt>
      <trkpt lat="47.68418" lon="7.0246">
        <ele>381.415009</ele>
        <time>2022-10-30T14:14:57Z</time>
      </trkpt>
      <trkpt lat="47.68415" lon="7.02447">
        <ele>381.33432</ele>
        <time>2022-10-30T14:14:59Z</time>
      </trkpt>
      <trkpt lat="47.68414" lon="7.02433">
        <ele>381.242065</ele>
        <time>2022-10-30T14:15:01Z</time>
      </trkpt>
      <trkpt lat="47.68416" lon="7.02418">
        <ele>381.166473</ele>
        <time>2022-10-30T14:15:03Z</time>
      </trkpt>
      <trkpt lat="47.68419" lon="7.02403">
        <ele>381.042053</ele>
        <time>2022-10-30T14:15:05Z</time>
      </trkpt>
      <trkpt lat="47.68423" lon="7.02388">
        <ele>380.958374</ele>
        <time>2022-10-30T14:15:07Z</time>
      </trkpt>
      <trkpt lat="47.68429" lon="7.02375">
        <ele>380.803741</ele>
        <time>2022-10-30T14:15:09Z</time>
      </trkpt>
      <trkpt lat="47.68436" lon="7.02362">
        <ele>380.748077</ele>
        <time>2022-10-30T14:15:11Z</time>
      </trkpt>
      <trkpt lat="47.68443" lon="7.02351">
        <ele>380.726624</ele>
        <time>2022-10-30T14:15:13Z</time>
      </trkpt>
      <trkpt lat="47.6845" lon="7.02339">
        <ele>380.698242</ele>
        <time>2022-10-30T14:15:15Z</time>
      </trkpt>
      <trkpt lat="47.68457" lon="7.02328">
        <ele>380.661804</ele>
        <time>2022-10-30T14:15:17Z</time>
      </trkpt>
      <trkpt lat="47.68466" lon="7.02317">
        <ele>380.608124</ele>
        <time>2022-10-30T14:15:19Z</time>
      </trkpt>
      <trkpt lat="47.68474" lon="7.02307">
        <ele>380.529602</ele>
        <time>2022-10-30T14:15:21Z</time>
      </trkpt>
      <trkpt lat="47.68482" lon="7.02299">
        <ele>380.420166</ele>
        <time>2022-10-30T14:15:23Z</time>
      </trkpt>
      <trkpt lat="47.6849" lon="7.02292">
        <ele>380.352936</ele>
        <time>2022-10-30T14:15:25Z</time>
      </trkpt>
      <trkpt lat="47.68498" lon="7.02285">
        <ele>380.271149</ele>
        <time>2022-10-30T14:15:27Z</time>
      </trkpt>
      <trkpt lat="47.68506" lon="7.02278">
        <ele>380.233826</ele>
        <time>2022-10-30T14:15:29Z</time>
      </trkpt>
      <trkpt lat="47.68514" lon="7.02271">
        <ele>380.201752</ele>
        <time>2022-10-30T14:15:31Z</time>
      </trkpt>
      <trkpt lat="47.68523" lon="7.02263">
        <ele>380.133118</ele>
        <time>2022-10-30T14:15:33Z</time>
      </trkpt>
      <trkpt lat="47.68532" lon="7.02256">
        <ele>380.069397</ele>
        <time>2022-10-30T14:15:35Z</time>
      </trkpt>
      <trkpt lat="47.68541" lon="7.02248">
        <ele>380.062988</ele>
        <time>2022-10-30T14:15:37Z</time>
      </trkpt>
      <trkpt lat="47.6855" lon="7.02242">
        <ele>379.991302</ele>
        <time>2022-10-30T14:15:39Z</time>
      </trkpt>
      <trkpt lat="47.68559" lon="7.02236">
        <ele>379.982727</ele>
        <time>2022-10-30T14:15:41Z</time>
      </trkpt>
      <trkpt lat="47.68569" lon="7.02231">
        <ele>380.023499</ele>
        <time>2022-10-30T14:15:43Z</time>
      </trkpt>
      <trkpt lat="47.6858" lon="7.02229">
        <ele>379.993958</ele>
        <time>2022-10-30T14:15:45Z</time>
      </trkpt>
      <trkpt lat="47.68591" lon="7.02228">
        <ele>380.019684</ele>
        <time>2022-10-30T14:15:47Z</time>
      </trkpt>
      <trkpt lat="47.68601" lon="7.02229">
        <ele>380.02597</ele>
        <time>2022-10-30T14:15:49Z</time>
      </trkpt>
      <trkpt lat="47.68612" lon="7.0223">
        <ele>380.077454</ele>
        <time>2022-10-30T14:15:51Z</time>
      </trkpt>
      <trkpt lat="47.68621" lon="7.02231">
        <ele>380.081604</ele>
        <time>2022-10-30T14:15:53Z</time>
      </trkpt>
      <trkpt lat="47.68631" lon="7.02233">
        <ele>380.073486</ele>
        <time>2022-10-30T14:15:55Z</time>
      </trkpt>
      <trkpt lat="47.68641" lon="7.02235">
        <ele>380.092773</ele>
        <time>2022-10-30T14:15:57Z</time>
      </trkpt>
      <trkpt lat="47.6865" lon="7.02236">
        <ele>380.120667</ele>
        <time>2022-10-30T14:15:59Z</time>
      </trkpt>
      <trkpt lat="47.6866" lon="7.02238">
        <ele>380.101685</ele>
        <time>2022-10-30T14:16:01Z</time>
      </trkpt>
      <trkpt lat="47.6867" lon="7.02239">
        <ele>380.146759</ele>
        <time>2022-10-30T14:16:03Z</time>
      </trkpt>
      <trkpt lat="47.68679" lon="7.02241">
        <ele>380.187531</ele>
        <time>2022-10-30T14:16:05Z</time>
      </trkpt>
      <trkpt lat="47.68689" lon="7.02244">
        <ele>380.238983</ele>
        <time>2022-10-30T14:16:07Z</time>
      </trkpt>
      <trkpt lat="47.68699" lon="7.02246">
        <ele>380.28064</ele>
        <time>2022-10-30T14:16:09Z</time>
      </trkpt>
      <trkpt lat="47.68708" lon="7.02248">
        <ele>380.285339</ele>
        <time>2022-10-30T14:16:11Z</time>
      </trkpt>
      <trkpt lat="47.68716" lon="7.02248">
        <ele>380.313934</ele>
        <time>2022-10-30T14:16:13Z</time>
      </trkpt>
      <trkpt lat="47.68724" lon="7.02249">
        <ele>380.393341</ele>
        <time>2022-10-30T14:16:15Z</time>
      </trkpt>
      <trkpt lat="47.68732" lon="7.02249">
        <ele>380.492004</ele>
        <time>2022-10-30T14:16:17Z</time>
      </trkpt>
      <trkpt lat="47.68741" lon="7.02249">
        <ele>380.528503</ele>
        <time>2022-10-30T14:16:19Z</time>
      </trkpt>
      <trkpt lat="47.68749" lon="7.02249">
        <ele>380.569275</ele>
        <time>2022-10-30T14:16:21Z</time>
      </trkpt>
      <trkpt lat="47.68757" lon="7.02249">
        <ele>380.624573</ele>
        <time>2022-10-30T14:16:23Z</time>
      </trkpt>
      <trkpt lat="47.68766" lon="7.02249">
        <ele>380.671753</ele>
        <time>2022-10-30T14:16:25Z</time>
      </trkpt>
      <trkpt lat="47.68775" lon="7.02248">
        <ele>380.764038</ele>
        <time>2022-10-30T14:16:27Z</time>
      </trkpt>
      <trkpt lat="47.68783" lon="7.02248">
        <ele>380.789764</ele>
        <time>2022-10-30T14:16:29Z</time>
      </trkpt>
      <trkpt lat="47.68792" lon="7.02248">
        <ele>380.832794</ele>
        <time>2022-10-30T14:16:31Z</time>
      </trkpt>
      <trkpt lat="47.688" lon="7.02248">
        <ele>380.901489</ele>
        <time>2022-10-30T14:16:33Z</time>
      </trkpt>
      <trkpt lat="47.68809" lon="7.02248">
        <ele>380.980896</ele>
        <time>2022-10-30T14:16:35Z</time>
      </trkpt>
      <trkpt lat="47.68817" lon="7.02247">
        <ele>381.045929</ele>
        <time>2022-10-30T14:16:37Z</time>
      </trkpt>
      <trkpt lat="47.68826" lon="7.02247">
        <ele>381.144623</ele>
        <time>2022-10-30T14:16:39Z</time>
      </trkpt>
      <trkpt lat="47.68834" lon="7.02247">
        <ele>381.236877</ele>
        <time>2022-10-30T14:16:41Z</time>
      </trkpt>
      <trkpt lat="47.68843" lon="7.02247">
        <ele>381.307373</ele>
        <time>2022-10-30T14:16:43Z</time>
      </trkpt>
      <trkpt lat="47.68851" lon="7.02246">
        <ele>381.373901</ele>
        <time>2022-10-30T14:16:45Z</time>
      </trkpt>
      <trkpt lat="47.6886" lon="7.02245">
        <ele>381.450104</ele>
        <time>2022-10-30T14:16:47Z</time>
      </trkpt>
      <trkpt lat="47.68868" lon="7.02242">
        <ele>381.531647</ele>
        <time>2022-10-30T14:16:49Z</time>
      </trkpt>
      <trkpt lat="47.68877" lon="7.0224">
        <ele>381.635132</ele>
        <time>2022-10-30T14:16:51Z</time>
      </trkpt>
      <trkpt lat="47.68885" lon="7.02236">
        <ele>381.729553</ele>
        <time>2022-10-30T14:16:53Z</time>
      </trkpt>
      <trkpt lat="47.68893" lon="7.02231">
        <ele>381.837616</ele>
        <time>2022-10-30T14:16:55Z</time>
      </trkpt>
      <trkpt lat="47.68901" lon="7.02226">
        <ele>381.897705</ele>
        <time>2022-10-30T14:16:57Z</time>
      </trkpt>
      <trkpt lat="47.6891" lon="7.0222">
        <ele>381.951355</ele>
        <time>2022-10-30T14:16:59Z</time>
      </trkpt>
      <trkpt lat="47.68918" lon="7.02213">
        <ele>382.069763</ele>
        <time>2022-10-30T14:17:01Z</time>
      </trkpt>
      <trkpt lat="47.68925" lon="7.02205">
        <ele>382.166809</ele>
        <time>2022-10-30T14:17:03Z</time>
      </trkpt>
      <trkpt lat="47.68932" lon="7.02197">
        <ele>382.254822</ele>
        <time>2022-10-30T14:17:05Z</time>
      </trkpt>
      <trkpt lat="47.6894" lon="7.02189">
        <ele>382.377136</ele>
        <time>2022-10-30T14:17:07Z</time>
      </trkpt>
      <trkpt lat="47.68947" lon="7.02181">
        <ele>382.525208</ele>
        <time>2022-10-30T14:17:09Z</time>
      </trkpt>
      <trkpt lat="47.68955" lon="7.02173">
        <ele>382.66687</ele>
        <time>2022-10-30T14:17:11Z</time>
      </trkpt>
      <trkpt lat="47.68963" lon="7.02164">
        <ele>382.752716</ele>
        <time>2022-10-30T14:17:13Z</time>
      </trkpt>
      <trkpt lat="47.68971" lon="7.02156">
        <ele>382.894348</ele>
        <time>2022-10-30T14:17:15Z</time>
      </trkpt>
      <trkpt lat="47.68978" lon="7.02148">
        <ele>382.954407</ele>
        <time>2022-10-30T14:17:17Z</time>
      </trkpt>
      <trkpt lat="47.68985" lon="7.0214">
        <ele>383.088715</ele>
        <time>2022-10-30T14:17:19Z</time>
      </trkpt>
      <trkpt lat="47.68992" lon="7.02131">
        <ele>383.230377</ele>
        <time>2022-10-30T14:17:21Z</time>
      </trkpt>
      <trkpt lat="47.69" lon="7.02123">
        <ele>383.333374</ele>
        <time>2022-10-30T14:17:23Z</time>
      </trkpt>
      <trkpt lat="47.69008" lon="7.02114">
        <ele>383.47287</ele>
        <time>2022-10-30T14:17:25Z</time>
      </trkpt>
      <trkpt lat="47.69015" lon="7.02106">
        <ele>383.596252</ele>
        <time>2022-10-30T14:17:27Z</time>
      </trkpt>
      <trkpt lat="47.69022" lon="7.02098">
        <ele>383.7164</ele>
        <time>2022-10-30T14:17:29Z</time>
      </trkpt>
      <trkpt lat="47.6903" lon="7.0209">
        <ele>383.821594</ele>
        <time>2022-10-30T14:17:31Z</time>
      </trkpt>
      <trkpt lat="47.69038" lon="7.02082">
        <ele>383.970947</ele>
        <time>2022-10-30T14:17:33Z</time>
      </trkpt>
      <trkpt lat="47.69047" lon="7.02076">
        <ele>384.108948</ele>
        <time>2022-10-30T14:17:35Z</time>
      </trkpt>
      <trkpt lat="47.69056" lon="7.02071">
        <ele>384.216278</ele>
        <time>2022-10-30T14:17:37Z</time>
      </trkpt>
      <trkpt lat="47.69066" lon="7.02067">
        <ele>384.317169</ele>
        <time>2022-10-30T14:17:39Z</time>
      </trkpt>
      <trkpt lat="47.69076" lon="7.02064">
        <ele>384.441223</ele>
        <time>2022-10-30T14:17:41Z</time>
      </trkpt>
      <trkpt lat="47.69086" lon="7.02061">
        <ele>384.550659</ele>
        <time>2022-10-30T14:17:43Z</time>
      </trkpt>
      <trkpt lat="47.69096" lon="7.02058">
        <ele>384.59787</ele>
        <time>2022-10-30T14:17:45Z</time>
      </trkpt>
      <trkpt lat="47.69107" lon="7.02055">
        <ele>384.637146</ele>
        <time>2022-10-30T14:17:47Z</time>
      </trkpt>
      <trkpt lat="47.69118" lon="7.02053">
        <ele>384.703308</ele>
        <time>2022-10-30T14:17:49Z</time>
      </trkpt>
      <trkpt lat="47.69129" lon="7.0205">
        <ele>384.735474</ele>
        <time>2022-10-30T14:17:51Z</time>
      </trkpt>
      <trkpt lat="47.69141" lon="7.02047">
        <ele>384.77359</ele>
        <time>2022-10-30T14:17:53Z</time>
      </trkpt>
      <trkpt lat="47.69153" lon="7.02042">
        <ele>384.828125</ele>
        <time>2022-10-30T14:17:55Z</time>
      </trkpt>
      <trkpt lat="47.69165" lon="7.02034">
        <ele>384.778748</ele>
        <time>2022-10-30T14:17:57Z</time>
      </trkpt>
      <trkpt lat="47.69176" lon="7.02023">
        <ele>384.73822</ele>
        <time>2022-10-30T14:17:59Z</time>
      </trkpt>
      <trkpt lat="47.69186" lon="7.0201">
        <ele>384.688568</ele>
        <time>2022-10-30T14:18:01Z</time>
      </trkpt>
      <trkpt lat="47.69196" lon="7.01996">
        <ele>384.579132</ele>
        <time>2022-10-30T14:18:03Z</time>
      </trkpt>
      <trkpt lat="47.69205" lon="7.01979">
        <ele>384.497589</ele>
        <time>2022-10-30T14:18:05Z</time>
      </trkpt>
      <trkpt lat="47.69212" lon="7.0196">
        <ele>384.287292</ele>
        <time>2022-10-30T14:18:07Z</time>
      </trkpt>
      <trkpt lat="47.69217" lon="7.01939">
        <ele>384.117737</ele>
        <time>2022-10-30T14:18:09Z</time>
      </trkpt>
      <trkpt lat="47.69221" lon="7.01918">
        <ele>383.901031</ele>
        <time>2022-10-30T14:18:11Z</time>
      </trkpt>
      <trkpt lat="47.69225" lon="7.01897">
        <ele>383.626343</ele>
        <time>2022-10-30T14:18:13Z</time>
      </trkpt>
      <trkpt lat="47.69228" lon="7.01876">
        <ele>383.319824</ele>
        <time>2022-10-30T14:18:15Z</time>
      </trkpt>
      <trkpt lat="47.69231" lon="7.01855">
        <ele>383.156738</ele>
        <time>2022-10-30T14:18:17Z</time>
      </trkpt>
      <trkpt lat="47.69234" lon="7.01833">
        <ele>382.871063</ele>
        <time>2022-10-30T14:18:19Z</time>
      </trkpt>
      <trkpt lat="47.69237" lon="7.01812">
        <ele>382.5849</ele>
        <time>2022-10-30T14:18:21Z</time>
      </trkpt>
      <trkpt lat="47.6924" lon="7.01791">
        <ele>382.230865</ele>
        <time>2022-10-30T14:18:23Z</time>
      </trkpt>
      <trkpt lat="47.69243" lon="7.01771">
        <ele>381.861786</ele>
        <time>2022-10-30T14:18:25Z</time>
      </trkpt>
      <trkpt lat="47.69246" lon="7.0175">
        <ele>381.542175</ele>
        <time>2022-10-30T14:18:27Z</time>
      </trkpt>
      <trkpt lat="47.69249" lon="7.01729">
        <ele>381.128326</ele>
        <time>2022-10-30T14:18:29Z</time>
      </trkpt>
      <trkpt lat="47.69253" lon="7.01708">
        <ele>380.697449</ele>
        <time>2022-10-30T14:18:31Z</time>
      </trkpt>
      <trkpt lat="47.69256" lon="7.01686">
        <ele>380.266724</ele>
        <time>2022-10-30T14:18:33Z</time>
      </trkpt>
      <trkpt lat="47.6926" lon="7.01663">
        <ele>379.786194</ele>
        <time>2022-10-30T14:18:35Z</time>
      </trkpt>
      <trkpt lat="47.69265" lon="7.01638">
        <ele>379.355774</ele>
        <time>2022-10-30T14:18:37Z</time>
      </trkpt>
      <trkpt lat="47.69271" lon="7.01613">
        <ele>378.793762</ele>
        <time>2022-10-30T14:18:39Z</time>
      </trkpt>
      <trkpt lat="47.6928" lon="7.01587">
        <ele>378.484924</ele>
        <time>2022-10-30T14:18:41Z</time>
      </trkpt>
      <trkpt lat="47.6929" lon="7.01561">
        <ele>377.794617</ele>
        <time>2022-10-30T14:18:43Z</time>
      </trkpt>
      <trkpt lat="47.69302" lon="7.01537">
        <ele>377.194122</ele>
        <time>2022-10-30T14:18:45Z</time>
      </trkpt>
      <trkpt lat="47.69315" lon="7.01515">
        <ele>376.492859</ele>
        <time>2022-10-30T14:18:47Z</time>
      </trkpt>
      <trkpt lat="47.69328" lon="7.01495">
        <ele>375.956146</ele>
        <time>2022-10-30T14:18:49Z</time>
      </trkpt>
      <trkpt lat="47.69339" lon="7.01476">
        <ele>375.368408</ele>
        <time>2022-10-30T14:18:51Z</time>
      </trkpt>
      <trkpt lat="47.69349" lon="7.01457">
        <ele>374.772278</ele>
        <time>2022-10-30T14:18:53Z</time>
      </trkpt>
      <trkpt lat="47.69358" lon="7.01438">
        <ele>374.244568</ele>
        <time>2022-10-30T14:18:55Z</time>
      </trkpt>
      <trkpt lat="47.69367" lon="7.01419">
        <ele>373.691376</ele>
        <time>2022-10-30T14:18:57Z</time>
      </trkpt>
      <trkpt lat="47.69373" lon="7.014">
        <ele>373.12561</ele>
        <time>2022-10-30T14:18:59Z</time>
      </trkpt>
      <trkpt lat="47.6938" lon="7.01383">
        <ele>372.556091</ele>
        <time>2022-10-30T14:19:01Z</time>
      </trkpt>
      <trkpt lat="47.69385" lon="7.01366">
        <ele>372.052277</ele>
        <time>2022-10-30T14:19:03Z</time>
      </trkpt>
      <trkpt lat="47.6939" lon="7.01351">
        <ele>371.548431</ele>
        <time>2022-10-30T14:19:05Z</time>
      </trkpt>
      <trkpt lat="47.69395" lon="7.01337">
        <ele>371.08252</ele>
        <time>2022-10-30T14:19:07Z</time>
      </trkpt>
      <trkpt lat="47.69402" lon="7.01327">
        <ele>370.862183</ele>
        <time>2022-10-30T14:19:09Z</time>
      </trkpt>
      <trkpt lat="47.6941" lon="7.01323">
        <ele>370.458191</ele>
        <time>2022-10-30T14:19:11Z</time>
      </trkpt>
      <trkpt lat="47.69416" lon="7.01322">
        <ele>370.100159</ele>
        <time>2022-10-30T14:19:13Z</time>
      </trkpt>
      <trkpt lat="47.6942" lon="7.01324">
        <ele>369.722839</ele>
        <time>2022-10-30T14:19:15Z</time>
      </trkpt>
      <trkpt lat="47.69424" lon="7.01323">
        <ele>368.941711</ele>
        <time>2022-10-30T14:19:34Z</time>
      </trkpt>
      <trkpt lat="47.69426" lon="7.01325">
        <ele>368.959106</ele>
        <time>2022-10-30T14:19:36Z</time>
      </trkpt>
      <trkpt lat="47.6943" lon="7.01327">
        <ele>369.046967</ele>
        <time>2022-10-30T14:19:38Z</time>
      </trkpt>
      <trkpt lat="47.69434" lon="7.0133">
        <ele>369.066254</ele>
        <time>2022-10-30T14:19:40Z</time>
      </trkpt>
      <trkpt lat="47.69439" lon="7.01333">
        <ele>369.140778</ele>
        <time>2022-10-30T14:19:42Z</time>
      </trkpt>
      <trkpt lat="47.69443" lon="7.01336">
        <ele>369.212341</ele>
        <time>2022-10-30T14:19:44Z</time>
      </trkpt>
      <trkpt lat="47.69448" lon="7.01338">
        <ele>369.287323</ele>
        <time>2022-10-30T14:19:46Z</time>
      </trkpt>
      <trkpt lat="47.69453" lon="7.01341">
        <ele>369.369354</ele>
        <time>2022-10-30T14:19:48Z</time>
      </trkpt>
      <trkpt lat="47.69459" lon="7.01344">
        <ele>369.418182</ele>
        <time>2022-10-30T14:19:50Z</time>
      </trkpt>
      <trkpt lat="47.69465" lon="7.01347">
        <ele>369.540344</ele>
        <time>2022-10-30T14:19:52Z</time>
      </trkpt>
      <trkpt lat="47.6947" lon="7.0135">
        <ele>369.628235</ele>
        <time>2022-10-30T14:19:54Z</time>
      </trkpt>
      <trkpt lat="47.69475" lon="7.01352">
        <ele>369.750427</ele>
        <time>2022-10-30T14:19:56Z</time>
      </trkpt>
      <trkpt lat="47.69481" lon="7.01354">
        <ele>369.86615</ele>
        <time>2022-10-30T14:19:58Z</time>
      </trkpt>
      <trkpt lat="47.69487" lon="7.01356">
        <ele>369.975464</ele>
        <time>2022-10-30T14:20:00Z</time>
      </trkpt>
      <trkpt lat="47.69492" lon="7.01359">
        <ele>370.136932</ele>
        <time>2022-10-30T14:20:02Z</time>
      </trkpt>
      <trkpt lat="47.69498" lon="7.01361">
        <ele>370.284851</ele>
        <time>2022-10-30T14:20:04Z</time>
      </trkpt>
      <trkpt lat="47.69505" lon="7.01364">
        <ele>370.471344</ele>
        <time>2022-10-30T14:20:06Z</time>
      </trkpt>
      <trkpt lat="47.69512" lon="7.01366">
        <ele>370.621368</ele>
        <time>2022-10-30T14:20:08Z</time>
      </trkpt>
      <trkpt lat="47.69518" lon="7.01368">
        <ele>370.72113</ele>
        <time>2022-10-30T14:20:10Z</time>
      </trkpt>
      <trkpt lat="47.69525" lon="7.01371">
        <ele>370.898132</ele>
        <time>2022-10-30T14:20:12Z</time>
      </trkpt>
      <trkpt lat="47.69531" lon="7.01374">
        <ele>371.08847</ele>
        <time>2022-10-30T14:20:14Z</time>
      </trkpt>
      <trkpt lat="47.69538" lon="7.01376">
        <ele>371.313599</ele>
        <time>2022-10-30T14:20:16Z</time>
      </trkpt>
      <trkpt lat="47.69544" lon="7.01379">
        <ele>371.549408</ele>
        <time>2022-10-30T14:20:18Z</time>
      </trkpt>
      <trkpt lat="47.6955" lon="7.01382">
        <ele>371.757355</ele>
        <time>2022-10-30T14:20:20Z</time>
      </trkpt>
      <trkpt lat="47.69557" lon="7.01387">
        <ele>372.048889</ele>
        <time>2022-10-30T14:20:22Z</time>
      </trkpt>
      <trkpt lat="47.69563" lon="7.01391">
        <ele>372.340149</ele>
        <time>2022-10-30T14:20:24Z</time>
      </trkpt>
      <trkpt lat="47.69569" lon="7.01395">
        <ele>372.59668</ele>
        <time>2022-10-30T14:20:26Z</time>
      </trkpt>
      <trkpt lat="47.69576" lon="7.014">
        <ele>372.898987</ele>
        <time>2022-10-30T14:20:28Z</time>
      </trkpt>
      <trkpt lat="47.69582" lon="7.01405">
        <ele>373.188385</ele>
        <time>2022-10-30T14:20:30Z</time>
      </trkpt>
      <trkpt lat="47.69589" lon="7.0141">
        <ele>373.45636</ele>
        <time>2022-10-30T14:20:32Z</time>
      </trkpt>
      <trkpt lat="47.69595" lon="7.01416">
        <ele>373.704468</ele>
        <time>2022-10-30T14:20:34Z</time>
      </trkpt>
      <trkpt lat="47.69602" lon="7.01421">
        <ele>373.942474</ele>
        <time>2022-10-30T14:20:36Z</time>
      </trkpt>
      <trkpt lat="47.69609" lon="7.01427">
        <ele>374.214233</ele>
        <time>2022-10-30T14:20:38Z</time>
      </trkpt>
      <trkpt lat="47.69616" lon="7.01434">
        <ele>374.325714</ele>
        <time>2022-10-30T14:20:40Z</time>
      </trkpt>
      <trkpt lat="47.69623" lon="7.01441">
        <ele>374.585144</ele>
        <time>2022-10-30T14:20:42Z</time>
      </trkpt>
      <trkpt lat="47.69631" lon="7.01447">
        <ele>374.797424</ele>
        <time>2022-10-30T14:20:44Z</time>
      </trkpt>
      <trkpt lat="47.69638" lon="7.01455">
        <ele>375.003235</ele>
        <time>2022-10-30T14:20:46Z</time>
      </trkpt>
      <trkpt lat="47.69646" lon="7.01462">
        <ele>375.18335</ele>
        <time>2022-10-30T14:20:48Z</time>
      </trkpt>
      <trkpt lat="47.69653" lon="7.01469">
        <ele>375.397766</ele>
        <time>2022-10-30T14:20:50Z</time>
      </trkpt>
      <trkpt lat="47.69661" lon="7.01476">
        <ele>375.615295</ele>
        <time>2022-10-30T14:20:52Z</time>
      </trkpt>
      <trkpt lat="47.69669" lon="7.01482">
        <ele>375.834625</ele>
        <time>2022-10-30T14:20:54Z</time>
      </trkpt>
      <trkpt lat="47.69677" lon="7.01489">
        <ele>376.053284</ele>
        <time>2022-10-30T14:20:56Z</time>
      </trkpt>
      <trkpt lat="47.69685" lon="7.01495">
        <ele>376.198181</ele>
        <time>2022-10-30T14:20:58Z</time>
      </trkpt>
      <trkpt lat="47.69693" lon="7.01501">
        <ele>376.380493</ele>
        <time>2022-10-30T14:21:00Z</time>
      </trkpt>
      <trkpt lat="47.69701" lon="7.01506">
        <ele>376.543488</ele>
        <time>2022-10-30T14:21:02Z</time>
      </trkpt>
      <trkpt lat="47.69708" lon="7.01512">
        <ele>376.663574</ele>
        <time>2022-10-30T14:21:04Z</time>
      </trkpt>
      <trkpt lat="47.69716" lon="7.01517">
        <ele>376.796082</ele>
        <time>2022-10-30T14:21:06Z</time>
      </trkpt>
      <trkpt lat="47.69724" lon="7.01523">
        <ele>376.981201</ele>
        <time>2022-10-30T14:21:08Z</time>
      </trkpt>
      <trkpt lat="47.69732" lon="7.01528">
        <ele>377.015533</ele>
        <time>2022-10-30T14:21:10Z</time>
      </trkpt>
      <trkpt lat="47.6974" lon="7.01534">
        <ele>377.156555</ele>
        <time>2022-10-30T14:21:12Z</time>
      </trkpt>
      <trkpt lat="47.69748" lon="7.0154">
        <ele>377.332428</ele>
        <time>2022-10-30T14:21:14Z</time>
      </trkpt>
      <trkpt lat="47.69756" lon="7.01546">
        <ele>377.453156</ele>
        <time>2022-10-30T14:21:16Z</time>
      </trkpt>
      <trkpt lat="47.69764" lon="7.01552">
        <ele>377.573242</ele>
        <time>2022-10-30T14:21:18Z</time>
      </trkpt>
      <trkpt lat="47.69772" lon="7.01559">
        <ele>377.666016</ele>
        <time>2022-10-30T14:21:20Z</time>
      </trkpt>
      <trkpt lat="47.6978" lon="7.01566">
        <ele>377.758301</ele>
        <time>2022-10-30T14:21:22Z</time>
      </trkpt>
      <trkpt lat="47.6979" lon="7.01573">
        <ele>377.844116</ele>
        <time>2022-10-30T14:21:24Z</time>
      </trkpt>
      <trkpt lat="47.698" lon="7.0158">
        <ele>377.913635</ele>
        <time>2022-10-30T14:21:26Z</time>
      </trkpt>
      <trkpt lat="47.69812" lon="7.01587">
        <ele>377.924377</ele>
        <time>2022-10-30T14:21:28Z</time>
      </trkpt>
      <trkpt lat="47.69825" lon="7.01593">
        <ele>377.94751</ele>
        <time>2022-10-30T14:21:30Z</time>
      </trkpt>
      <trkpt lat="47.69838" lon="7.01598">
        <ele>377.885315</ele>
        <time>2022-10-30T14:21:32Z</time>
      </trkpt>
      <trkpt lat="47.69851" lon="7.016">
        <ele>377.808044</ele>
        <time>2022-10-30T14:21:34Z</time>
      </trkpt>
      <trkpt lat="47.69864" lon="7.01601">
        <ele>377.771545</ele>
        <time>2022-10-30T14:21:36Z</time>
      </trkpt>
      <trkpt lat="47.69876" lon="7.01599">
        <ele>377.735046</ele>
        <time>2022-10-30T14:21:38Z</time>
      </trkpt>
      <trkpt lat="47.69888" lon="7.01596">
        <ele>377.673828</ele>
        <time>2022-10-30T14:21:40Z</time>
      </trkpt>
      <trkpt lat="47.699" lon="7.01592">
        <ele>377.585876</ele>
        <time>2022-10-30T14:21:42Z</time>
      </trkpt>
      <trkpt lat="47.69912" lon="7.01587">
        <ele>377.549408</ele>
        <time>2022-10-30T14:21:44Z</time>
      </trkpt>
      <trkpt lat="47.69923" lon="7.01581">
        <ele>377.5065</ele>
        <time>2022-10-30T14:21:46Z</time>
      </trkpt>
      <trkpt lat="47.69933" lon="7.01575">
        <ele>377.452972</ele>
        <time>2022-10-30T14:21:48Z</time>
      </trkpt>
      <trkpt lat="47.69943" lon="7.0157">
        <ele>377.358154</ele>
        <time>2022-10-30T14:21:50Z</time>
      </trkpt>
      <trkpt lat="47.69953" lon="7.01564">
        <ele>377.2836</ele>
        <time>2022-10-30T14:21:52Z</time>
      </trkpt>
      <trkpt lat="47.69964" lon="7.01558">
        <ele>377.210632</ele>
        <time>2022-10-30T14:21:54Z</time>
      </trkpt>
      <trkpt lat="47.69973" lon="7.01552">
        <ele>377.094818</ele>
        <time>2022-10-30T14:21:56Z</time>
      </trkpt>
      <trkpt lat="47.69983" lon="7.01545">
        <ele>377.02652</ele>
        <time>2022-10-30T14:21:58Z</time>
      </trkpt>
      <trkpt lat="47.69993" lon="7.01539">
        <ele>376.93219</ele>
        <time>2022-10-30T14:22:00Z</time>
      </trkpt>
      <trkpt lat="47.70003" lon="7.01532">
        <ele>376.861389</ele>
        <time>2022-10-30T14:22:02Z</time>
      </trkpt>
      <trkpt lat="47.70013" lon="7.01525">
        <ele>376.816345</ele>
        <time>2022-10-30T14:22:04Z</time>
      </trkpt>
      <trkpt lat="47.70023" lon="7.01519">
        <ele>376.719818</ele>
        <time>2022-10-30T14:22:06Z</time>
      </trkpt>
      <trkpt lat="47.70034" lon="7.01514">
        <ele>376.658875</ele>
        <time>2022-10-30T14:22:08Z</time>
      </trkpt>
      <trkpt lat="47.70044" lon="7.01508">
        <ele>376.682495</ele>
        <time>2022-10-30T14:22:10Z</time>
      </trkpt>
      <trkpt lat="47.70054" lon="7.01503">
        <ele>376.659363</ele>
        <time>2022-10-30T14:22:12Z</time>
      </trkpt>
      <trkpt lat="47.70064" lon="7.01499">
        <ele>376.75592</ele>
        <time>2022-10-30T14:22:14Z</time>
      </trkpt>
      <trkpt lat="47.70074" lon="7.01494">
        <ele>376.781647</ele>
        <time>2022-10-30T14:22:16Z</time>
      </trkpt>
      <trkpt lat="47.70083" lon="7.0149">
        <ele>376.814606</ele>
        <time>2022-10-30T14:22:18Z</time>
      </trkpt>
      <trkpt lat="47.70091" lon="7.01486">
        <ele>376.88324</ele>
        <time>2022-10-30T14:22:20Z</time>
      </trkpt>
      <trkpt lat="47.70099" lon="7.01482">
        <ele>377.018372</ele>
        <time>2022-10-30T14:22:22Z</time>
      </trkpt>
      <trkpt lat="47.70107" lon="7.01479">
        <ele>377.110596</ele>
        <time>2022-10-30T14:22:24Z</time>
      </trkpt>
      <trkpt lat="47.70116" lon="7.01475">
        <ele>377.203613</ele>
        <time>2022-10-30T14:22:26Z</time>
      </trkpt>
      <trkpt lat="47.70124" lon="7.01472">
        <ele>377.309082</ele>
        <time>2022-10-30T14:22:28Z</time>
      </trkpt>
      <trkpt lat="47.70132" lon="7.01469">
        <ele>377.410736</ele>
        <time>2022-10-30T14:22:30Z</time>
      </trkpt>
      <trkpt lat="47.70139" lon="7.01465">
        <ele>377.52182</ele>
        <time>2022-10-30T14:22:32Z</time>
      </trkpt>
      <trkpt lat="47.70148" lon="7.01463">
        <ele>377.663422</ele>
        <time>2022-10-30T14:22:34Z</time>
      </trkpt>
      <trkpt lat="47.70156" lon="7.0146">
        <ele>377.811432</ele>
        <time>2022-10-30T14:22:36Z</time>
      </trkpt>
      <trkpt lat="47.70165" lon="7.01457">
        <ele>377.984039</ele>
        <time>2022-10-30T14:22:38Z</time>
      </trkpt>
      <trkpt lat="47.70173" lon="7.01455">
        <ele>378.149231</ele>
        <time>2022-10-30T14:22:40Z</time>
      </trkpt>
      <trkpt lat="47.70182" lon="7.01453">
        <ele>378.333984</ele>
        <time>2022-10-30T14:22:42Z</time>
      </trkpt>
      <trkpt lat="47.70192" lon="7.01452">
        <ele>378.509125</ele>
        <time>2022-10-30T14:22:44Z</time>
      </trkpt>
      <trkpt lat="47.70201" lon="7.01451">
        <ele>378.732239</ele>
        <time>2022-10-30T14:22:46Z</time>
      </trkpt>
      <trkpt lat="47.70211" lon="7.01451">
        <ele>378.811615</ele>
        <time>2022-10-30T14:22:48Z</time>
      </trkpt>
      <trkpt lat="47.70221" lon="7.01451">
        <ele>379.004639</ele>
        <time>2022-10-30T14:22:50Z</time>
      </trkpt>
      <trkpt lat="47.70231" lon="7.01452">
        <ele>379.178284</ele>
        <time>2022-10-30T14:22:52Z</time>
      </trkpt>
      <trkpt lat="47.70242" lon="7.01452">
        <ele>379.364899</ele>
        <time>2022-10-30T14:22:54Z</time>
      </trkpt>
      <trkpt lat="47.70252" lon="7.01453">
        <ele>379.521515</ele>
        <time>2022-10-30T14:22:56Z</time>
      </trkpt>
      <trkpt lat="47.70263" lon="7.01453">
        <ele>379.716583</ele>
        <time>2022-10-30T14:22:58Z</time>
      </trkpt>
      <trkpt lat="47.70274" lon="7.01453">
        <ele>379.921814</ele>
        <time>2022-10-30T14:23:00Z</time>
      </trkpt>
      <trkpt lat="47.70285" lon="7.01452">
        <ele>380.044098</ele>
        <time>2022-10-30T14:23:02Z</time>
      </trkpt>
      <trkpt lat="47.70295" lon="7.0145">
        <ele>380.182434</ele>
        <time>2022-10-30T14:23:04Z</time>
      </trkpt>
      <trkpt lat="47.70306" lon="7.01447">
        <ele>380.270386</ele>
        <time>2022-10-30T14:23:06Z</time>
      </trkpt>
      <trkpt lat="47.70317" lon="7.01443">
        <ele>380.385468</ele>
        <time>2022-10-30T14:23:08Z</time>
      </trkpt>
      <trkpt lat="47.70328" lon="7.01438">
        <ele>380.458435</ele>
        <time>2022-10-30T14:23:10Z</time>
      </trkpt>
      <trkpt lat="47.70339" lon="7.01433">
        <ele>380.549347</ele>
        <time>2022-10-30T14:23:12Z</time>
      </trkpt>
      <trkpt lat="47.7035" lon="7.01427">
        <ele>380.591248</ele>
        <time>2022-10-30T14:23:14Z</time>
      </trkpt>
      <trkpt lat="47.70361" lon="7.01421">
        <ele>380.600616</ele>
        <time>2022-10-30T14:23:16Z</time>
      </trkpt>
      <trkpt lat="47.70372" lon="7.01416">
        <ele>380.559875</ele>
        <time>2022-10-30T14:23:18Z</time>
      </trkpt>
      <trkpt lat="47.70383" lon="7.0141">
        <ele>380.580017</ele>
        <time>2022-10-30T14:23:20Z</time>
      </trkpt>
      <trkpt lat="47.70394" lon="7.01404">
        <ele>380.539246</ele>
        <time>2022-10-30T14:23:22Z</time>
      </trkpt>
      <trkpt lat="47.70404" lon="7.01398">
        <ele>380.496033</ele>
        <time>2022-10-30T14:23:24Z</time>
      </trkpt>
      <trkpt lat="47.70416" lon="7.01393">
        <ele>380.460297</ele>
        <time>2022-10-30T14:23:26Z</time>
      </trkpt>
      <trkpt lat="47.70426" lon="7.01387">
        <ele>380.372345</ele>
        <time>2022-10-30T14:23:28Z</time>
      </trkpt>
      <trkpt lat="47.70437" lon="7.01381">
        <ele>380.350891</ele>
        <time>2022-10-30T14:23:30Z</time>
      </trkpt>
      <trkpt lat="47.70447" lon="7.01376">
        <ele>380.288818</ele>
        <time>2022-10-30T14:23:32Z</time>
      </trkpt>
      <trkpt lat="47.70458" lon="7.01371">
        <ele>380.250183</ele>
        <time>2022-10-30T14:23:34Z</time>
      </trkpt>
      <trkpt lat="47.70468" lon="7.01365">
        <ele>380.243744</ele>
        <time>2022-10-30T14:23:36Z</time>
      </trkpt>
      <trkpt lat="47.70478" lon="7.0136">
        <ele>380.18866</ele>
        <time>2022-10-30T14:23:38Z</time>
      </trkpt>
      <trkpt lat="47.70488" lon="7.01354">
        <ele>380.072937</ele>
        <time>2022-10-30T14:23:40Z</time>
      </trkpt>
      <trkpt lat="47.70498" lon="7.01349">
        <ele>379.989288</ele>
        <time>2022-10-30T14:23:42Z</time>
      </trkpt>
      <trkpt lat="47.70508" lon="7.01344">
        <ele>379.954895</ele>
        <time>2022-10-30T14:23:44Z</time>
      </trkpt>
      <trkpt lat="47.70517" lon="7.01339">
        <ele>379.928162</ele>
        <time>2022-10-30T14:23:46Z</time>
      </trkpt>
      <trkpt lat="47.70527" lon="7.01334">
        <ele>379.885223</ele>
        <time>2022-10-30T14:23:48Z</time>
      </trkpt>
      <trkpt lat="47.70535" lon="7.01329">
        <ele>379.885223</ele>
        <time>2022-10-30T14:23:50Z</time>
      </trkpt>
      <trkpt lat="47.70544" lon="7.01324">
        <ele>379.926239</ele>
        <time>2022-10-30T14:23:52Z</time>
      </trkpt>
      <trkpt lat="47.70552" lon="7.01319">
        <ele>379.986298</ele>
        <time>2022-10-30T14:23:54Z</time>
      </trkpt>
      <trkpt lat="47.7056" lon="7.01314">
        <ele>380.012024</ele>
        <time>2022-10-30T14:23:56Z</time>
      </trkpt>
      <trkpt lat="47.70569" lon="7.01308">
        <ele>380.070587</ele>
        <time>2022-10-30T14:23:58Z</time>
      </trkpt>
      <trkpt lat="47.70577" lon="7.01302">
        <ele>380.153931</ele>
        <time>2022-10-30T14:24:00Z</time>
      </trkpt>
      <trkpt lat="47.70585" lon="7.01297">
        <ele>380.199005</ele>
        <time>2022-10-30T14:24:02Z</time>
      </trkpt>
      <trkpt lat="47.70593" lon="7.01291">
        <ele>380.284851</ele>
        <time>2022-10-30T14:24:04Z</time>
      </trkpt>
      <trkpt lat="47.70601" lon="7.01285">
        <ele>380.370422</ele>
        <time>2022-10-30T14:24:06Z</time>
      </trkpt>
      <trkpt lat="47.70609" lon="7.0128">
        <ele>380.501801</ele>
        <time>2022-10-30T14:24:08Z</time>
      </trkpt>
      <trkpt lat="47.70617" lon="7.01276">
        <ele>380.690613</ele>
        <time>2022-10-30T14:24:10Z</time>
      </trkpt>
      <trkpt lat="47.70626" lon="7.01273">
        <ele>380.853668</ele>
        <time>2022-10-30T14:24:12Z</time>
      </trkpt>
      <trkpt lat="47.70634" lon="7.01269">
        <ele>381.014984</ele>
        <time>2022-10-30T14:24:14Z</time>
      </trkpt>
      <trkpt lat="47.70643" lon="7.01267">
        <ele>381.163055</ele>
        <time>2022-10-30T14:24:16Z</time>
      </trkpt>
      <trkpt lat="47.70651" lon="7.01264">
        <ele>381.334045</ele>
        <time>2022-10-30T14:24:18Z</time>
      </trkpt>
      <trkpt lat="47.7066" lon="7.01262">
        <ele>381.522888</ele>
        <time>2022-10-30T14:24:20Z</time>
      </trkpt>
      <trkpt lat="47.70669" lon="7.01259">
        <ele>381.623718</ele>
        <time>2022-10-30T14:24:22Z</time>
      </trkpt>
      <trkpt lat="47.70678" lon="7.01257">
        <ele>381.827576</ele>
        <time>2022-10-30T14:24:24Z</time>
      </trkpt>
      <trkpt lat="47.70687" lon="7.01254">
        <ele>382.016418</ele>
        <time>2022-10-30T14:24:26Z</time>
      </trkpt>
      <trkpt lat="47.70696" lon="7.01252">
        <ele>382.179474</ele>
        <time>2022-10-30T14:24:28Z</time>
      </trkpt>
      <trkpt lat="47.70705" lon="7.01249">
        <ele>382.398346</ele>
        <time>2022-10-30T14:24:30Z</time>
      </trkpt>
      <trkpt lat="47.70714" lon="7.01246">
        <ele>382.600037</ele>
        <time>2022-10-30T14:24:32Z</time>
      </trkpt>
      <trkpt lat="47.70722" lon="7.01244">
        <ele>382.728821</ele>
        <time>2022-10-30T14:24:34Z</time>
      </trkpt>
      <trkpt lat="47.70731" lon="7.01241">
        <ele>382.88974</ele>
        <time>2022-10-30T14:24:36Z</time>
      </trkpt>
      <trkpt lat="47.70739" lon="7.01239">
        <ele>383.051453</ele>
        <time>2022-10-30T14:24:38Z</time>
      </trkpt>
      <trkpt lat="47.70748" lon="7.01236">
        <ele>383.156189</ele>
        <time>2022-10-30T14:24:40Z</time>
      </trkpt>
      <trkpt lat="47.70757" lon="7.01233">
        <ele>383.29599</ele>
        <time>2022-10-30T14:24:42Z</time>
      </trkpt>
      <trkpt lat="47.70765" lon="7.0123">
        <ele>383.420441</ele>
        <time>2022-10-30T14:24:44Z</time>
      </trkpt>
      <trkpt lat="47.70774" lon="7.01227">
        <ele>383.535736</ele>
        <time>2022-10-30T14:24:46Z</time>
      </trkpt>
      <trkpt lat="47.70783" lon="7.01224">
        <ele>383.658264</ele>
        <time>2022-10-30T14:24:48Z</time>
      </trkpt>
      <trkpt lat="47.70792" lon="7.01222">
        <ele>383.707123</ele>
        <time>2022-10-30T14:24:50Z</time>
      </trkpt>
      <trkpt lat="47.70801" lon="7.01219">
        <ele>383.713562</ele>
        <time>2022-10-30T14:24:52Z</time>
      </trkpt>
      <trkpt lat="47.7081" lon="7.01216">
        <ele>383.764282</ele>
        <time>2022-10-30T14:24:54Z</time>
      </trkpt>
      <trkpt lat="47.70819" lon="7.01213">
        <ele>383.830383</ele>
        <time>2022-10-30T14:24:56Z</time>
      </trkpt>
      <trkpt lat="47.70828" lon="7.0121">
        <ele>383.881439</ele>
        <time>2022-10-30T14:24:58Z</time>
      </trkpt>
      <trkpt lat="47.70837" lon="7.01207">
        <ele>383.920074</ele>
        <time>2022-10-30T14:25:00Z</time>
      </trkpt>
      <trkpt lat="47.70846" lon="7.01204">
        <ele>383.982086</ele>
        <time>2022-10-30T14:25:02Z</time>
      </trkpt>
      <trkpt lat="47.70855" lon="7.01201">
        <ele>384.009979</ele>
        <time>2022-10-30T14:25:04Z</time>
      </trkpt>
      <trkpt lat="47.70863" lon="7.01198">
        <ele>384.016418</ele>
        <time>2022-10-30T14:25:06Z</time>
      </trkpt>
      <trkpt lat="47.70872" lon="7.01194">
        <ele>384.067932</ele>
        <time>2022-10-30T14:25:08Z</time>
      </trkpt>
      <trkpt lat="47.70881" lon="7.01191">
        <ele>384.08078</ele>
        <time>2022-10-30T14:25:10Z</time>
      </trkpt>
      <trkpt lat="47.7089" lon="7.01188">
        <ele>384.058777</ele>
        <time>2022-10-30T14:25:12Z</time>
      </trkpt>
      <trkpt lat="47.70898" lon="7.01184">
        <ele>384.013702</ele>
        <time>2022-10-30T14:25:14Z</time>
      </trkpt>
      <trkpt lat="47.70907" lon="7.0118">
        <ele>383.985779</ele>
        <time>2022-10-30T14:25:16Z</time>
      </trkpt>
      <trkpt lat="47.70915" lon="7.01176">
        <ele>383.949615</ele>
        <time>2022-10-30T14:25:18Z</time>
      </trkpt>
      <trkpt lat="47.70923" lon="7.01172">
        <ele>383.88739</ele>
        <time>2022-10-30T14:25:20Z</time>
      </trkpt>
      <trkpt lat="47.70931" lon="7.01169">
        <ele>383.855591</ele>
        <time>2022-10-30T14:25:22Z</time>
      </trkpt>
      <trkpt lat="47.70937" lon="7.01164">
        <ele>383.86203</ele>
        <time>2022-10-30T14:25:24Z</time>
      </trkpt>
      <trkpt lat="47.70945" lon="7.01159">
        <ele>383.866333</ele>
        <time>2022-10-30T14:25:26Z</time>
      </trkpt>
      <trkpt lat="47.7095" lon="7.01152">
        <ele>383.804291</ele>
        <time>2022-10-30T14:25:28Z</time>
      </trkpt>
      <trkpt lat="47.70956" lon="7.01149">
        <ele>383.76123</ele>
        <time>2022-10-30T14:25:30Z</time>
      </trkpt>
      <trkpt lat="47.70958" lon="7.01148">
        <ele>383.726898</ele>
        <time>2022-10-30T14:25:32Z</time>
      </trkpt>
      <trkpt lat="47.70961" lon="7.01147">
        <ele>383.256958</ele>
        <time>2022-10-30T14:25:46Z</time>
      </trkpt>
      <trkpt lat="47.70965" lon="7.01152">
        <ele>383.196594</ele>
        <time>2022-10-30T14:25:48Z</time>
      </trkpt>
      <trkpt lat="47.7097" lon="7.0116">
        <ele>383.090485</ele>
        <time>2022-10-30T14:25:50Z</time>
      </trkpt>
      <trkpt lat="47.70976" lon="7.0117">
        <ele>383.02948</ele>
        <time>2022-10-30T14:25:52Z</time>
      </trkpt>
      <trkpt lat="47.70982" lon="7.01181">
        <ele>382.940735</ele>
        <time>2022-10-30T14:25:54Z</time>
      </trkpt>
      <trkpt lat="47.70989" lon="7.01193">
        <ele>382.87204</ele>
        <time>2022-10-30T14:25:56Z</time>
      </trkpt>
      <trkpt lat="47.70996" lon="7.01204">
        <ele>382.820221</ele>
        <time>2022-10-30T14:25:58Z</time>
      </trkpt>
      <trkpt lat="47.71003" lon="7.01214">
        <ele>382.764435</ele>
        <time>2022-10-30T14:26:00Z</time>
      </trkpt>
      <trkpt lat="47.7101" lon="7.01225">
        <ele>382.654999</ele>
        <time>2022-10-30T14:26:02Z</time>
      </trkpt>
      <trkpt lat="47.71017" lon="7.01236">
        <ele>382.560577</ele>
        <time>2022-10-30T14:26:04Z</time>
      </trkpt>
      <trkpt lat="47.71023" lon="7.01246">
        <ele>382.46402</ele>
        <time>2022-10-30T14:26:06Z</time>
      </trkpt>
      <trkpt lat="47.71029" lon="7.01257">
        <ele>382.348114</ele>
        <time>2022-10-30T14:26:08Z</time>
      </trkpt>
      <trkpt lat="47.71034" lon="7.01267">
        <ele>382.238495</ele>
        <time>2022-10-30T14:26:10Z</time>
      </trkpt>
      <trkpt lat="47.71038" lon="7.01275">
        <ele>382.144775</ele>
        <time>2022-10-30T14:26:12Z</time>
      </trkpt>
      <trkpt lat="47.71042" lon="7.01283">
        <ele>382.076111</ele>
        <time>2022-10-30T14:26:14Z</time>
      </trkpt>
      <trkpt lat="47.71046" lon="7.01291">
        <ele>382.069641</ele>
        <time>2022-10-30T14:26:16Z</time>
      </trkpt>
      <trkpt lat="47.71051" lon="7.01299">
        <ele>381.970825</ele>
        <time>2022-10-30T14:26:18Z</time>
      </trkpt>
      <trkpt lat="47.71056" lon="7.01307">
        <ele>381.921448</ele>
        <time>2022-10-30T14:26:20Z</time>
      </trkpt>
      <trkpt lat="47.71061" lon="7.01316">
        <ele>381.853943</ele>
        <time>2022-10-30T14:26:22Z</time>
      </trkpt>
      <trkpt lat="47.71064" lon="7.01323">
        <ele>381.785309</ele>
        <time>2022-10-30T14:26:24Z</time>
      </trkpt>
      <trkpt lat="47.71066" lon="7.01327">
        <ele>381.760925</ele>
        <time>2022-10-30T14:26:26Z</time>
      </trkpt>
      <trkpt lat="47.71068" lon="7.01331">
        <ele>381.705444</ele>
        <time>2022-10-30T14:26:28Z</time>
      </trkpt>
      <trkpt lat="47.71071" lon="7.01333">
        <ele>381.615692</ele>
        <time>2022-10-30T14:26:30Z</time>
      </trkpt>
      <trkpt lat="47.71076" lon="7.01334">
        <ele>381.566345</ele>
        <time>2022-10-30T14:26:32Z</time>
      </trkpt>
      <trkpt lat="47.71082" lon="7.01331">
        <ele>381.489197</ele>
        <time>2022-10-30T14:26:34Z</time>
      </trkpt>
      <trkpt lat="47.71088" lon="7.01327">
        <ele>381.46344</ele>
        <time>2022-10-30T14:26:36Z</time>
      </trkpt>
      <trkpt lat="47.71096" lon="7.01322">
        <ele>381.392273</ele>
        <time>2022-10-30T14:26:38Z</time>
      </trkpt>
      <trkpt lat="47.71105" lon="7.01316">
        <ele>381.325745</ele>
        <time>2022-10-30T14:26:40Z</time>
      </trkpt>
      <trkpt lat="47.71114" lon="7.01312">
        <ele>381.284973</ele>
        <time>2022-10-30T14:26:42Z</time>
      </trkpt>
      <trkpt lat="47.71123" lon="7.01306">
        <ele>381.237762</ele>
        <time>2022-10-30T14:26:44Z</time>
      </trkpt>
      <trkpt lat="47.71132" lon="7.013">
        <ele>381.219574</ele>
        <time>2022-10-30T14:26:46Z</time>
      </trkpt>
      <trkpt lat="47.7114" lon="7.01294">
        <ele>381.16861</ele>
        <time>2022-10-30T14:26:48Z</time>
      </trkpt>
      <trkpt lat="47.71149" lon="7.01289">
        <ele>381.134277</ele>
        <time>2022-10-30T14:26:50Z</time>
      </trkpt>
      <trkpt lat="47.71158" lon="7.01284">
        <ele>381.095673</ele>
        <time>2022-10-30T14:26:52Z</time>
      </trkpt>
      <trkpt lat="47.71167" lon="7.0128">
        <ele>381.022736</ele>
        <time>2022-10-30T14:26:54Z</time>
      </trkpt>
      <trkpt lat="47.71175" lon="7.01275">
        <ele>381.029175</ele>
        <time>2022-10-30T14:26:56Z</time>
      </trkpt>
      <trkpt lat="47.71184" lon="7.01272">
        <ele>380.992401</ele>
        <time>2022-10-30T14:26:58Z</time>
      </trkpt>
      <trkpt lat="47.71196" lon="7.01268">
        <ele>380.96463</ele>
        <time>2022-10-30T14:27:01Z</time>
      </trkpt>
      <trkpt lat="47.71209" lon="7.01263">
        <ele>380.94223</ele>
        <time>2022-10-30T14:27:04Z</time>
      </trkpt>
      <trkpt lat="47.71217" lon="7.01261">
        <ele>380.915344</ele>
        <time>2022-10-30T14:27:06Z</time>
      </trkpt>
      <trkpt lat="47.71226" lon="7.01258">
        <ele>380.898163</ele>
        <time>2022-10-30T14:27:08Z</time>
      </trkpt>
      <trkpt lat="47.71236" lon="7.01258">
        <ele>380.881042</ele>
        <time>2022-10-30T14:27:10Z</time>
      </trkpt>
      <trkpt lat="47.71244" lon="7.01261">
        <ele>380.822205</ele>
        <time>2022-10-30T14:27:12Z</time>
      </trkpt>
      <trkpt lat="47.71252" lon="7.01268">
        <ele>380.850616</ele>
        <time>2022-10-30T14:27:14Z</time>
      </trkpt>
      <trkpt lat="47.7126" lon="7.01276">
        <ele>380.87854</ele>
        <time>2022-10-30T14:27:16Z</time>
      </trkpt>
      <trkpt lat="47.71268" lon="7.01285">
        <ele>380.831329</ele>
        <time>2022-10-30T14:27:18Z</time>
      </trkpt>
      <trkpt lat="47.71275" lon="7.01292">
        <ele>380.881042</ele>
        <time>2022-10-30T14:27:20Z</time>
      </trkpt>
      <trkpt lat="47.71284" lon="7.01295">
        <ele>380.921814</ele>
        <time>2022-10-30T14:27:22Z</time>
      </trkpt>
      <trkpt lat="47.71293" lon="7.01293">
        <ele>380.921814</ele>
        <time>2022-10-30T14:27:24Z</time>
      </trkpt>
      <trkpt lat="47.71302" lon="7.01289">
        <ele>380.928253</ele>
        <time>2022-10-30T14:27:26Z</time>
      </trkpt>
      <trkpt lat="47.71312" lon="7.01284">
        <ele>380.981873</ele>
        <time>2022-10-30T14:27:28Z</time>
      </trkpt>
      <trkpt lat="47.71322" lon="7.0128">
        <ele>381.01297</ele>
        <time>2022-10-30T14:27:30Z</time>
      </trkpt>
      <trkpt lat="47.71331" lon="7.01276">
        <ele>381.091827</ele>
        <time>2022-10-30T14:27:32Z</time>
      </trkpt>
      <trkpt lat="47.71341" lon="7.01271">
        <ele>381.151917</ele>
        <time>2022-10-30T14:27:34Z</time>
      </trkpt>
      <trkpt lat="47.71349" lon="7.01267">
        <ele>381.190552</ele>
        <time>2022-10-30T14:27:36Z</time>
      </trkpt>
      <trkpt lat="47.71358" lon="7.01263">
        <ele>381.276398</ele>
        <time>2022-10-30T14:27:38Z</time>
      </trkpt>
      <trkpt lat="47.71367" lon="7.01258">
        <ele>381.319611</ele>
        <time>2022-10-30T14:27:40Z</time>
      </trkpt>
      <trkpt lat="47.71376" lon="7.01252">
        <ele>381.363403</ele>
        <time>2022-10-30T14:27:42Z</time>
      </trkpt>
      <trkpt lat="47.71385" lon="7.01245">
        <ele>381.417969</ele>
        <time>2022-10-30T14:27:44Z</time>
      </trkpt>
      <trkpt lat="47.71394" lon="7.01237">
        <ele>381.456604</ele>
        <time>2022-10-30T14:27:46Z</time>
      </trkpt>
      <trkpt lat="47.71402" lon="7.01229">
        <ele>381.514557</ele>
        <time>2022-10-30T14:27:48Z</time>
      </trkpt>
      <trkpt lat="47.7141" lon="7.0122">
        <ele>381.525299</ele>
        <time>2022-10-30T14:27:50Z</time>
      </trkpt>
      <trkpt lat="47.71417" lon="7.01211">
        <ele>381.554138</ele>
        <time>2022-10-30T14:27:52Z</time>
      </trkpt>
      <trkpt lat="47.71425" lon="7.01202">
        <ele>381.573425</ele>
        <time>2022-10-30T14:27:54Z</time>
      </trkpt>
      <trkpt lat="47.71432" lon="7.01192">
        <ele>381.577728</ele>
        <time>2022-10-30T14:27:56Z</time>
      </trkpt>
      <trkpt lat="47.71439" lon="7.01183">
        <ele>381.584167</ele>
        <time>2022-10-30T14:27:58Z</time>
      </trkpt>
      <trkpt lat="47.71446" lon="7.01175">
        <ele>381.664948</ele>
        <time>2022-10-30T14:28:00Z</time>
      </trkpt>
      <trkpt lat="47.71454" lon="7.01166">
        <ele>381.674805</ele>
        <time>2022-10-30T14:28:02Z</time>
      </trkpt>
      <trkpt lat="47.71461" lon="7.0116">
        <ele>381.684235</ele>
        <time>2022-10-30T14:28:04Z</time>
      </trkpt>
      <trkpt lat="47.7147" lon="7.01153">
        <ele>381.722839</ele>
        <time>2022-10-30T14:28:06Z</time>
      </trkpt>
      <trkpt lat="47.71478" lon="7.01148">
        <ele>381.755035</ele>
        <time>2022-10-30T14:28:08Z</time>
      </trkpt>
      <trkpt lat="47.71487" lon="7.01143">
        <ele>381.787231</ele>
        <time>2022-10-30T14:28:10Z</time>
      </trkpt>
      <trkpt lat="47.71496" lon="7.01139">
        <ele>381.804382</ele>
        <time>2022-10-30T14:28:12Z</time>
      </trkpt>
      <trkpt lat="47.71506" lon="7.01135">
        <ele>381.782898</ele>
        <time>2022-10-30T14:28:14Z</time>
      </trkpt>
      <trkpt lat="47.71515" lon="7.01131">
        <ele>381.774353</ele>
        <time>2022-10-30T14:28:16Z</time>
      </trkpt>
      <trkpt lat="47.71525" lon="7.01129">
        <ele>381.821533</ele>
        <time>2022-10-30T14:28:18Z</time>
      </trkpt>
      <trkpt lat="47.71534" lon="7.01127">
        <ele>381.860168</ele>
        <time>2022-10-30T14:28:20Z</time>
      </trkpt>
      <trkpt lat="47.71543" lon="7.01126">
        <ele>381.895874</ele>
        <time>2022-10-30T14:28:22Z</time>
      </trkpt>
      <trkpt lat="47.71552" lon="7.01125">
        <ele>381.985107</ele>
        <time>2022-10-30T14:28:24Z</time>
      </trkpt>
      <trkpt lat="47.71561" lon="7.01122">
        <ele>382.051636</ele>
        <time>2022-10-30T14:28:26Z</time>
      </trkpt>
      <trkpt lat="47.71569" lon="7.01118">
        <ele>382.105286</ele>
        <time>2022-10-30T14:28:28Z</time>
      </trkpt>
      <trkpt lat="47.71578" lon="7.01115">
        <ele>382.186829</ele>
        <time>2022-10-30T14:28:30Z</time>
      </trkpt>
      <trkpt lat="47.71587" lon="7.01111">
        <ele>382.253357</ele>
        <time>2022-10-30T14:28:32Z</time>
      </trkpt>
      <trkpt lat="47.71596" lon="7.01107">
        <ele>382.298401</ele>
        <time>2022-10-30T14:28:34Z</time>
      </trkpt>
      <trkpt lat="47.71605" lon="7.01103">
        <ele>382.384247</ele>
        <time>2022-10-30T14:28:36Z</time>
      </trkpt>
      <trkpt lat="47.71615" lon="7.01098">
        <ele>382.475952</ele>
        <time>2022-10-30T14:28:38Z</time>
      </trkpt>
      <trkpt lat="47.71625" lon="7.01094">
        <ele>382.519623</ele>
        <time>2022-10-30T14:28:40Z</time>
      </trkpt>
      <trkpt lat="47.71635" lon="7.01089">
        <ele>382.648376</ele>
        <time>2022-10-30T14:28:42Z</time>
      </trkpt>
      <trkpt lat="47.71645" lon="7.01085">
        <ele>382.738556</ele>
        <time>2022-10-30T14:28:44Z</time>
      </trkpt>
      <trkpt lat="47.71655" lon="7.01081">
        <ele>382.878021</ele>
        <time>2022-10-30T14:28:46Z</time>
      </trkpt>
      <trkpt lat="47.71666" lon="7.01076">
        <ele>383.019684</ele>
        <time>2022-10-30T14:28:48Z</time>
      </trkpt>
      <trkpt lat="47.71675" lon="7.01072">
        <ele>383.135559</ele>
        <time>2022-10-30T14:28:50Z</time>
      </trkpt>
      <trkpt lat="47.71685" lon="7.01067">
        <ele>383.270782</ele>
        <time>2022-10-30T14:28:52Z</time>
      </trkpt>
      <trkpt lat="47.71694" lon="7.01063">
        <ele>383.317993</ele>
        <time>2022-10-30T14:28:54Z</time>
      </trkpt>
      <trkpt lat="47.71703" lon="7.01059">
        <ele>383.425293</ele>
        <time>2022-10-30T14:28:56Z</time>
      </trkpt>
      <trkpt lat="47.71712" lon="7.01055">
        <ele>383.554016</ele>
        <time>2022-10-30T14:28:58Z</time>
      </trkpt>
      <trkpt lat="47.71721" lon="7.01052">
        <ele>383.646301</ele>
        <time>2022-10-30T14:29:00Z</time>
      </trkpt>
      <trkpt lat="47.71728" lon="7.01048">
        <ele>383.747192</ele>
        <time>2022-10-30T14:29:02Z</time>
      </trkpt>
      <trkpt lat="47.71736" lon="7.01045">
        <ele>383.857422</ele>
        <time>2022-10-30T14:29:04Z</time>
      </trkpt>
      <trkpt lat="47.71744" lon="7.01041">
        <ele>383.941101</ele>
        <time>2022-10-30T14:29:06Z</time>
      </trkpt>
      <trkpt lat="47.71753" lon="7.01038">
        <ele>384.009125</ele>
        <time>2022-10-30T14:29:08Z</time>
      </trkpt>
      <trkpt lat="47.71761" lon="7.01034">
        <ele>384.135773</ele>
        <time>2022-10-30T14:29:10Z</time>
      </trkpt>
      <trkpt lat="47.71769" lon="7.0103">
        <ele>384.247375</ele>
        <time>2022-10-30T14:29:12Z</time>
      </trkpt>
      <trkpt lat="47.71777" lon="7.01026">
        <ele>384.37616</ele>
        <time>2022-10-30T14:29:14Z</time>
      </trkpt>
      <trkpt lat="47.71786" lon="7.01023">
        <ele>384.530701</ele>
        <time>2022-10-30T14:29:16Z</time>
      </trkpt>
      <trkpt lat="47.71795" lon="7.01019">
        <ele>384.681519</ele>
        <time>2022-10-30T14:29:18Z</time>
      </trkpt>
      <trkpt lat="47.71804" lon="7.01015">
        <ele>384.795288</ele>
        <time>2022-10-30T14:29:20Z</time>
      </trkpt>
      <trkpt lat="47.71813" lon="7.01011">
        <ele>384.91333</ele>
        <time>2022-10-30T14:29:22Z</time>
      </trkpt>
      <trkpt lat="47.71822" lon="7.01007">
        <ele>385.014221</ele>
        <time>2022-10-30T14:29:24Z</time>
      </trkpt>
      <trkpt lat="47.7183" lon="7.01003">
        <ele>385.07428</ele>
        <time>2022-10-30T14:29:26Z</time>
      </trkpt>
      <trkpt lat="47.71838" lon="7.00999">
        <ele>385.187775</ele>
        <time>2022-10-30T14:29:28Z</time>
      </trkpt>
      <trkpt lat="47.71845" lon="7.00995">
        <ele>385.248993</ele>
        <time>2022-10-30T14:29:30Z</time>
      </trkpt>
      <trkpt lat="47.71854" lon="7.00992">
        <ele>385.347717</ele>
        <time>2022-10-30T14:29:32Z</time>
      </trkpt>
      <trkpt lat="47.71862" lon="7.00988">
        <ele>385.4422</ele>
        <time>2022-10-30T14:29:34Z</time>
      </trkpt>
      <trkpt lat="47.71871" lon="7.00985">
        <ele>385.555969</ele>
        <time>2022-10-30T14:29:36Z</time>
      </trkpt>
      <trkpt lat="47.7188" lon="7.00981">
        <ele>385.755585</ele>
        <time>2022-10-30T14:29:38Z</time>
      </trkpt>
      <trkpt lat="47.71888" lon="7.00977">
        <ele>385.944519</ele>
        <time>2022-10-30T14:29:40Z</time>
      </trkpt>
      <trkpt lat="47.71896" lon="7.00974">
        <ele>386.092651</ele>
        <time>2022-10-30T14:29:42Z</time>
      </trkpt>
      <trkpt lat="47.71905" lon="7.0097">
        <ele>386.225739</ele>
        <time>2022-10-30T14:29:44Z</time>
      </trkpt>
      <trkpt lat="47.71914" lon="7.00966">
        <ele>386.352356</ele>
        <time>2022-10-30T14:29:46Z</time>
      </trkpt>
      <trkpt lat="47.71922" lon="7.00963">
        <ele>386.515564</ele>
        <time>2022-10-30T14:29:48Z</time>
      </trkpt>
      <trkpt lat="47.7193" lon="7.00958">
        <ele>386.651459</ele>
        <time>2022-10-30T14:29:50Z</time>
      </trkpt>
      <trkpt lat="47.71939" lon="7.00954">
        <ele>386.780304</ele>
        <time>2022-10-30T14:29:52Z</time>
      </trkpt>
      <trkpt lat="47.71948" lon="7.00949">
        <ele>386.846863</ele>
        <time>2022-10-30T14:29:54Z</time>
      </trkpt>
      <trkpt lat="47.71958" lon="7.00945">
        <ele>386.997131</ele>
        <time>2022-10-30T14:29:56Z</time>
      </trkpt>
      <trkpt lat="47.71968" lon="7.0094">
        <ele>387.12381</ele>
        <time>2022-10-30T14:29:58Z</time>
      </trkpt>
      <trkpt lat="47.71978" lon="7.00935">
        <ele>387.237579</ele>
        <time>2022-10-30T14:30:00Z</time>
      </trkpt>
      <trkpt lat="47.71989" lon="7.0093">
        <ele>387.378265</ele>
        <time>2022-10-30T14:30:02Z</time>
      </trkpt>
      <trkpt lat="47.71999" lon="7.00923">
        <ele>387.50708</ele>
        <time>2022-10-30T14:30:04Z</time>
      </trkpt>
      <trkpt lat="47.72008" lon="7.00918">
        <ele>387.627289</ele>
        <time>2022-10-30T14:30:06Z</time>
      </trkpt>
      <trkpt lat="47.72017" lon="7.00912">
        <ele>387.767151</ele>
        <time>2022-10-30T14:30:08Z</time>
      </trkpt>
      <trkpt lat="47.72026" lon="7.00906">
        <ele>387.861633</ele>
        <time>2022-10-30T14:30:10Z</time>
      </trkpt>
      <trkpt lat="47.72036" lon="7.009">
        <ele>387.987152</ele>
        <time>2022-10-30T14:30:12Z</time>
      </trkpt>
      <trkpt lat="47.72046" lon="7.00893">
        <ele>388.103424</ele>
        <time>2022-10-30T14:30:14Z</time>
      </trkpt>
      <trkpt lat="47.72055" lon="7.00886">
        <ele>388.200043</ele>
        <time>2022-10-30T14:30:16Z</time>
      </trkpt>
      <trkpt lat="47.72065" lon="7.0088">
        <ele>388.254517</ele>
        <time>2022-10-30T14:30:18Z</time>
      </trkpt>
      <trkpt lat="47.72075" lon="7.00873">
        <ele>388.314606</ele>
        <time>2022-10-30T14:30:20Z</time>
      </trkpt>
      <trkpt lat="47.72085" lon="7.00866">
        <ele>388.389709</ele>
        <time>2022-10-30T14:30:22Z</time>
      </trkpt>
      <trkpt lat="47.72094" lon="7.00859">
        <ele>388.477753</ele>
        <time>2022-10-30T14:30:24Z</time>
      </trkpt>
      <trkpt lat="47.72102" lon="7.00851">
        <ele>388.510193</ele>
        <time>2022-10-30T14:30:26Z</time>
      </trkpt>
      <trkpt lat="47.72111" lon="7.00841">
        <ele>388.589661</ele>
        <time>2022-10-30T14:30:28Z</time>
      </trkpt>
      <trkpt lat="47.72118" lon="7.00831">
        <ele>388.643341</ele>
        <time>2022-10-30T14:30:30Z</time>
      </trkpt>
      <trkpt lat="47.72126" lon="7.0082">
        <ele>388.714172</ele>
        <time>2022-10-30T14:30:32Z</time>
      </trkpt>
      <trkpt lat="47.72132" lon="7.00808">
        <ele>388.795715</ele>
        <time>2022-10-30T14:30:34Z</time>
      </trkpt>
      <trkpt lat="47.72138" lon="7.00795">
        <ele>388.850891</ele>
        <time>2022-10-30T14:30:36Z</time>
      </trkpt>
      <trkpt lat="47.72144" lon="7.00783">
        <ele>388.906769</ele>
        <time>2022-10-30T14:30:38Z</time>
      </trkpt>
      <trkpt lat="47.72151" lon="7.00771">
        <ele>388.994812</ele>
        <time>2022-10-30T14:30:40Z</time>
      </trkpt>
      <trkpt lat="47.72158" lon="7.00761">
        <ele>389.073059</ele>
        <time>2022-10-30T14:30:42Z</time>
      </trkpt>
      <trkpt lat="47.72164" lon="7.00751">
        <ele>389.124634</ele>
        <time>2022-10-30T14:30:44Z</time>
      </trkpt>
      <trkpt lat="47.7217" lon="7.00741">
        <ele>389.227722</ele>
        <time>2022-10-30T14:30:46Z</time>
      </trkpt>
      <trkpt lat="47.72176" lon="7.00732">
        <ele>389.292114</ele>
        <time>2022-10-30T14:30:48Z</time>
      </trkpt>
      <trkpt lat="47.72183" lon="7.00726">
        <ele>389.394226</ele>
        <time>2022-10-30T14:30:50Z</time>
      </trkpt>
      <trkpt lat="47.72189" lon="7.00726">
        <ele>389.417786</ele>
        <time>2022-10-30T14:30:52Z</time>
      </trkpt>
      <trkpt lat="47.72192" lon="7.00726">
        <ele>389.494568</ele>
        <time>2022-10-30T14:30:54Z</time>
      </trkpt>
      <trkpt lat="47.72196" lon="7.00724">
        <ele>389.590118</ele>
        <time>2022-10-30T14:30:56Z</time>
      </trkpt>
      <trkpt lat="47.72199" lon="7.00718">
        <ele>389.695343</ele>
        <time>2022-10-30T14:30:58Z</time>
      </trkpt>
      <trkpt lat="47.722" lon="7.00708">
        <ele>389.797607</ele>
        <time>2022-10-30T14:31:00Z</time>
      </trkpt>
      <trkpt lat="47.72201" lon="7.00698">
        <ele>389.907135</ele>
        <time>2022-10-30T14:31:02Z</time>
      </trkpt>
      <trkpt lat="47.72202" lon="7.00686">
        <ele>389.982269</ele>
        <time>2022-10-30T14:31:04Z</time>
      </trkpt>
      <trkpt lat="47.72203" lon="7.00674">
        <ele>390.047394</ele>
        <time>2022-10-30T14:31:06Z</time>
      </trkpt>
      <trkpt lat="47.72203" lon="7.00661">
        <ele>390.107239</ele>
        <time>2022-10-30T14:31:08Z</time>
      </trkpt>
      <trkpt lat="47.72205" lon="7.00647">
        <ele>390.202667</ele>
        <time>2022-10-30T14:31:10Z</time>
      </trkpt>
      <trkpt lat="47.72209" lon="7.00634">
        <ele>390.252014</ele>
        <time>2022-10-30T14:31:12Z</time>
      </trkpt>
      <trkpt lat="47.72213" lon="7.00622">
        <ele>390.288574</ele>
        <time>2022-10-30T14:31:14Z</time>
      </trkpt>
      <trkpt lat="47.7222" lon="7.00612">
        <ele>390.380798</ele>
        <time>2022-10-30T14:31:16Z</time>
      </trkpt>
      <trkpt lat="47.72226" lon="7.00603">
        <ele>390.411438</ele>
        <time>2022-10-30T14:31:18Z</time>
      </trkpt>
      <trkpt lat="47.72232" lon="7.00593">
        <ele>390.50592</ele>
        <time>2022-10-30T14:31:20Z</time>
      </trkpt>
      <trkpt lat="47.72239" lon="7.00584">
        <ele>390.581482</ele>
        <time>2022-10-30T14:31:22Z</time>
      </trkpt>
      <trkpt lat="47.72245" lon="7.00575">
        <ele>390.635132</ele>
        <time>2022-10-30T14:31:24Z</time>
      </trkpt>
      <trkpt lat="47.72252" lon="7.00565">
        <ele>390.725372</ele>
        <time>2022-10-30T14:31:26Z</time>
      </trkpt>
      <trkpt lat="47.72258" lon="7.00556">
        <ele>390.802063</ele>
        <time>2022-10-30T14:31:28Z</time>
      </trkpt>
      <trkpt lat="47.72265" lon="7.00545">
        <ele>390.885864</ele>
        <time>2022-10-30T14:31:30Z</time>
      </trkpt>
      <trkpt lat="47.72271" lon="7.00535">
        <ele>390.940552</ele>
        <time>2022-10-30T14:31:32Z</time>
      </trkpt>
      <trkpt lat="47.72277" lon="7.00523">
        <ele>391.017792</ele>
        <time>2022-10-30T14:31:34Z</time>
      </trkpt>
      <trkpt lat="47.72282" lon="7.00513">
        <ele>391.039276</ele>
        <time>2022-10-30T14:31:36Z</time>
      </trkpt>
      <trkpt lat="47.72287" lon="7.00502">
        <ele>391.117157</ele>
        <time>2022-10-30T14:31:38Z</time>
      </trkpt>
      <trkpt lat="47.72292" lon="7.00491">
        <ele>391.163025</ele>
        <time>2022-10-30T14:31:40Z</time>
      </trkpt>
      <trkpt lat="47.72297" lon="7.0048">
        <ele>391.225311</ele>
        <time>2022-10-30T14:31:42Z</time>
      </trkpt>
      <trkpt lat="47.72302" lon="7.00469">
        <ele>391.306946</ele>
        <time>2022-10-30T14:31:44Z</time>
      </trkpt>
      <trkpt lat="47.72306" lon="7.00457">
        <ele>391.388611</ele>
        <time>2022-10-30T14:31:46Z</time>
      </trkpt>
      <trkpt lat="47.72312" lon="7.00445">
        <ele>391.46048</ele>
        <time>2022-10-30T14:31:48Z</time>
      </trkpt>
      <trkpt lat="47.72318" lon="7.00432">
        <ele>391.565735</ele>
        <time>2022-10-30T14:31:50Z</time>
      </trkpt>
      <trkpt lat="47.72324" lon="7.0042">
        <ele>391.669708</ele>
        <time>2022-10-30T14:31:52Z</time>
      </trkpt>
      <trkpt lat="47.7233" lon="7.00408">
        <ele>391.798615</ele>
        <time>2022-10-30T14:31:54Z</time>
      </trkpt>
      <trkpt lat="47.72336" lon="7.00396">
        <ele>391.950348</ele>
        <time>2022-10-30T14:31:56Z</time>
      </trkpt>
      <trkpt lat="47.72342" lon="7.00384">
        <ele>392.132965</ele>
        <time>2022-10-30T14:31:58Z</time>
      </trkpt>
      <trkpt lat="47.72347" lon="7.00372">
        <ele>392.276855</ele>
        <time>2022-10-30T14:32:00Z</time>
      </trkpt>
      <trkpt lat="47.72353" lon="7.00361">
        <ele>392.289734</ele>
        <time>2022-10-30T14:32:02Z</time>
      </trkpt>
      <trkpt lat="47.72358" lon="7.0035">
        <ele>392.351715</ele>
        <time>2022-10-30T14:32:04Z</time>
      </trkpt>
      <trkpt lat="47.72364" lon="7.00338">
        <ele>392.519226</ele>
        <time>2022-10-30T14:32:06Z</time>
      </trkpt>
      <trkpt lat="47.72369" lon="7.00326">
        <ele>392.654694</ele>
        <time>2022-10-30T14:32:08Z</time>
      </trkpt>
      <trkpt lat="47.72376" lon="7.00313">
        <ele>392.754089</ele>
        <time>2022-10-30T14:32:10Z</time>
      </trkpt>
      <trkpt lat="47.72382" lon="7.003">
        <ele>392.842407</ele>
        <time>2022-10-30T14:32:12Z</time>
      </trkpt>
      <trkpt lat="47.72389" lon="7.00289">
        <ele>392.967926</ele>
        <time>2022-10-30T14:32:14Z</time>
      </trkpt>
      <trkpt lat="47.72395" lon="7.00276">
        <ele>393.063049</ele>
        <time>2022-10-30T14:32:16Z</time>
      </trkpt>
      <trkpt lat="47.72401" lon="7.00264">
        <ele>393.157776</ele>
        <time>2022-10-30T14:32:18Z</time>
      </trkpt>
      <trkpt lat="47.72406" lon="7.00251">
        <ele>393.271637</ele>
        <time>2022-10-30T14:32:20Z</time>
      </trkpt>
      <trkpt lat="47.72411" lon="7.00238">
        <ele>393.414856</ele>
        <time>2022-10-30T14:32:22Z</time>
      </trkpt>
      <trkpt lat="47.72414" lon="7.00225">
        <ele>393.488556</ele>
        <time>2022-10-30T14:32:24Z</time>
      </trkpt>
      <trkpt lat="47.72418" lon="7.00211">
        <ele>393.600281</ele>
        <time>2022-10-30T14:32:26Z</time>
      </trkpt>
      <trkpt lat="47.72421" lon="7.00198">
        <ele>393.682343</ele>
        <time>2022-10-30T14:32:28Z</time>
      </trkpt>
      <trkpt lat="47.72424" lon="7.00184">
        <ele>393.798035</ele>
        <time>2022-10-30T14:32:30Z</time>
      </trkpt>
      <trkpt lat="47.72427" lon="7.00171">
        <ele>393.869324</ele>
        <time>2022-10-30T14:32:32Z</time>
      </trkpt>
      <trkpt lat="47.72429" lon="7.00158">
        <ele>393.910156</ele>
        <time>2022-10-30T14:32:34Z</time>
      </trkpt>
      <trkpt lat="47.72433" lon="7.00145">
        <ele>393.980408</ele>
        <time>2022-10-30T14:32:36Z</time>
      </trkpt>
      <trkpt lat="47.72435" lon="7.00132">
        <ele>394.026398</ele>
        <time>2022-10-30T14:32:38Z</time>
      </trkpt>
      <trkpt lat="47.72438" lon="7.00118">
        <ele>394.062927</ele>
        <time>2022-10-30T14:32:40Z</time>
      </trkpt>
      <trkpt lat="47.72442" lon="7.00104">
        <ele>394.161743</ele>
        <time>2022-10-30T14:32:42Z</time>
      </trkpt>
      <trkpt lat="47.72445" lon="7.00091">
        <ele>394.31427</ele>
        <time>2022-10-30T14:32:44Z</time>
      </trkpt>
      <trkpt lat="47.72447" lon="7.00077">
        <ele>394.400208</ele>
        <time>2022-10-30T14:32:46Z</time>
      </trkpt>
      <trkpt lat="47.7245" lon="7.00064">
        <ele>394.440247</ele>
        <time>2022-10-30T14:32:48Z</time>
      </trkpt>
      <trkpt lat="47.72452" lon="7.0005">
        <ele>394.594788</ele>
        <time>2022-10-30T14:32:50Z</time>
      </trkpt>
      <trkpt lat="47.72455" lon="7.00037">
        <ele>394.710571</ele>
        <time>2022-10-30T14:32:52Z</time>
      </trkpt>
      <trkpt lat="47.72458" lon="7.00023">
        <ele>394.842102</ele>
        <time>2022-10-30T14:32:54Z</time>
      </trkpt>
      <trkpt lat="47.72459" lon="7.00009">
        <ele>394.913757</ele>
        <time>2022-10-30T14:32:56Z</time>
      </trkpt>
      <trkpt lat="47.7246" lon="6.99995">
        <ele>395.09198</ele>
        <time>2022-10-30T14:32:58Z</time>
      </trkpt>
      <trkpt lat="47.72461" lon="6.99981">
        <ele>395.253113</ele>
        <time>2022-10-30T14:33:00Z</time>
      </trkpt>
      <trkpt lat="47.72462" lon="6.99966">
        <ele>395.3992</ele>
        <time>2022-10-30T14:33:02Z</time>
      </trkpt>
      <trkpt lat="47.72463" lon="6.99951">
        <ele>395.500061</ele>
        <time>2022-10-30T14:33:04Z</time>
      </trkpt>
      <trkpt lat="47.72464" lon="6.99936">
        <ele>395.649658</ele>
        <time>2022-10-30T14:33:06Z</time>
      </trkpt>
      <trkpt lat="47.72465" lon="6.99922">
        <ele>395.789307</ele>
        <time>2022-10-30T14:33:08Z</time>
      </trkpt>
      <trkpt lat="47.72466" lon="6.99907">
        <ele>395.92926</ele>
        <time>2022-10-30T14:33:10Z</time>
      </trkpt>
      <trkpt lat="47.72467" lon="6.99894">
        <ele>396.084259</ele>
        <time>2022-10-30T14:33:12Z</time>
      </trkpt>
      <trkpt lat="47.72467" lon="6.99881">
        <ele>396.251831</ele>
        <time>2022-10-30T14:33:14Z</time>
      </trkpt>
      <trkpt lat="47.72468" lon="6.99866">
        <ele>396.348511</ele>
        <time>2022-10-30T14:33:16Z</time>
      </trkpt>
      <trkpt lat="47.72469" lon="6.99852">
        <ele>396.507172</ele>
        <time>2022-10-30T14:33:18Z</time>
      </trkpt>
      <trkpt lat="47.7247" lon="6.99837">
        <ele>396.669983</ele>
        <time>2022-10-30T14:33:20Z</time>
      </trkpt>
      <trkpt lat="47.72471" lon="6.99822">
        <ele>396.818268</ele>
        <time>2022-10-30T14:33:22Z</time>
      </trkpt>
      <trkpt lat="47.72471" lon="6.99808">
        <ele>397.005219</ele>
        <time>2022-10-30T14:33:24Z</time>
      </trkpt>
      <trkpt lat="47.72472" lon="6.99794">
        <ele>397.174988</ele>
        <time>2022-10-30T14:33:26Z</time>
      </trkpt>
      <trkpt lat="47.72473" lon="6.9978">
        <ele>397.321106</ele>
        <time>2022-10-30T14:33:28Z</time>
      </trkpt>
      <trkpt lat="47.72474" lon="6.99766">
        <ele>397.49408</ele>
        <time>2022-10-30T14:33:30Z</time>
      </trkpt>
      <trkpt lat="47.72474" lon="6.99752">
        <ele>397.576965</ele>
        <time>2022-10-30T14:33:32Z</time>
      </trkpt>
      <trkpt lat="47.72475" lon="6.99738">
        <ele>397.718811</ele>
        <time>2022-10-30T14:33:34Z</time>
      </trkpt>
      <trkpt lat="47.72475" lon="6.99723">
        <ele>397.862793</ele>
        <time>2022-10-30T14:33:36Z</time>
      </trkpt>
      <trkpt lat="47.72476" lon="6.99709">
        <ele>398.015472</ele>
        <time>2022-10-30T14:33:38Z</time>
      </trkpt>
      <trkpt lat="47.72476" lon="6.99696">
        <ele>398.170227</ele>
        <time>2022-10-30T14:33:40Z</time>
      </trkpt>
      <trkpt lat="47.72476" lon="6.99682">
        <ele>398.344299</ele>
        <time>2022-10-30T14:33:42Z</time>
      </trkpt>
      <trkpt lat="47.72475" lon="6.99667">
        <ele>398.486145</ele>
        <time>2022-10-30T14:33:44Z</time>
      </trkpt>
      <trkpt lat="47.72474" lon="6.99653">
        <ele>398.640991</ele>
        <time>2022-10-30T14:33:46Z</time>
      </trkpt>
      <trkpt lat="47.72474" lon="6.99638">
        <ele>398.841003</ele>
        <time>2022-10-30T14:33:48Z</time>
      </trkpt>
      <trkpt lat="47.72474" lon="6.99624">
        <ele>398.952759</ele>
        <time>2022-10-30T14:33:50Z</time>
      </trkpt>
      <trkpt lat="47.72476" lon="6.9961">
        <ele>399.118958</ele>
        <time>2022-10-30T14:33:52Z</time>
      </trkpt>
      <trkpt lat="47.7248" lon="6.99598">
        <ele>399.271057</ele>
        <time>2022-10-30T14:33:54Z</time>
      </trkpt>
      <trkpt lat="47.72484" lon="6.99586">
        <ele>399.464478</ele>
        <time>2022-10-30T14:33:56Z</time>
      </trkpt>
      <trkpt lat="47.7249" lon="6.99574">
        <ele>399.618073</ele>
        <time>2022-10-30T14:33:58Z</time>
      </trkpt>
      <trkpt lat="47.72496" lon="6.99562">
        <ele>399.8013</ele>
        <time>2022-10-30T14:34:00Z</time>
      </trkpt>
      <trkpt lat="47.72502" lon="6.9955">
        <ele>399.968933</ele>
        <time>2022-10-30T14:34:02Z</time>
      </trkpt>
      <trkpt lat="47.72508" lon="6.99539">
        <ele>400.130157</ele>
        <time>2022-10-30T14:34:04Z</time>
      </trkpt>
      <trkpt lat="47.72514" lon="6.99527">
        <ele>400.216125</ele>
        <time>2022-10-30T14:34:06Z</time>
      </trkpt>
      <trkpt lat="47.7252" lon="6.99516">
        <ele>400.351563</ele>
        <time>2022-10-30T14:34:08Z</time>
      </trkpt>
      <trkpt lat="47.72527" lon="6.99505">
        <ele>400.478149</ele>
        <time>2022-10-30T14:34:10Z</time>
      </trkpt>
      <trkpt lat="47.72533" lon="6.99494">
        <ele>400.562927</ele>
        <time>2022-10-30T14:34:12Z</time>
      </trkpt>
      <trkpt lat="47.72539" lon="6.99483">
        <ele>400.711243</ele>
        <time>2022-10-30T14:34:14Z</time>
      </trkpt>
      <trkpt lat="47.72545" lon="6.99472">
        <ele>400.800598</ele>
        <time>2022-10-30T14:34:16Z</time>
      </trkpt>
      <trkpt lat="47.72551" lon="6.99461">
        <ele>400.867218</ele>
        <time>2022-10-30T14:34:18Z</time>
      </trkpt>
      <trkpt lat="47.72557" lon="6.9945">
        <ele>400.960876</ele>
        <time>2022-10-30T14:34:20Z</time>
      </trkpt>
      <trkpt lat="47.72562" lon="6.99438">
        <ele>401.087738</ele>
        <time>2022-10-30T14:34:22Z</time>
      </trkpt>
      <trkpt lat="47.72567" lon="6.99425">
        <ele>401.182312</ele>
        <time>2022-10-30T14:34:24Z</time>
      </trkpt>
      <trkpt lat="47.72572" lon="6.99413">
        <ele>401.281219</ele>
        <time>2022-10-30T14:34:26Z</time>
      </trkpt>
      <trkpt lat="47.72576" lon="6.994">
        <ele>401.408081</ele>
        <time>2022-10-30T14:34:28Z</time>
      </trkpt>
      <trkpt lat="47.7258" lon="6.99387">
        <ele>401.479034</ele>
        <time>2022-10-30T14:34:30Z</time>
      </trkpt>
      <trkpt lat="47.72585" lon="6.99373">
        <ele>401.538239</ele>
        <time>2022-10-30T14:34:32Z</time>
      </trkpt>
      <trkpt lat="47.7259" lon="6.99361">
        <ele>401.635468</ele>
        <time>2022-10-30T14:34:34Z</time>
      </trkpt>
      <trkpt lat="47.72596" lon="6.99349">
        <ele>401.730072</ele>
        <time>2022-10-30T14:34:36Z</time>
      </trkpt>
      <trkpt lat="47.72603" lon="6.99338">
        <ele>401.816101</ele>
        <time>2022-10-30T14:34:38Z</time>
      </trkpt>
      <trkpt lat="47.72611" lon="6.99329">
        <ele>401.89566</ele>
        <time>2022-10-30T14:34:40Z</time>
      </trkpt>
      <trkpt lat="47.72618" lon="6.9932">
        <ele>402.009552</ele>
        <time>2022-10-30T14:34:42Z</time>
      </trkpt>
      <trkpt lat="47.72626" lon="6.99311">
        <ele>402.082672</ele>
        <time>2022-10-30T14:34:44Z</time>
      </trkpt>
      <trkpt lat="47.72633" lon="6.99302">
        <ele>402.206482</ele>
        <time>2022-10-30T14:34:46Z</time>
      </trkpt>
      <trkpt lat="47.7264" lon="6.99293">
        <ele>402.25592</ele>
        <time>2022-10-30T14:34:48Z</time>
      </trkpt>
      <trkpt lat="47.72646" lon="6.99283">
        <ele>402.369873</ele>
        <time>2022-10-30T14:34:50Z</time>
      </trkpt>
      <trkpt lat="47.72652" lon="6.99274">
        <ele>402.533295</ele>
        <time>2022-10-30T14:34:52Z</time>
      </trkpt>
      <trkpt lat="47.72658" lon="6.99264">
        <ele>402.705719</ele>
        <time>2022-10-30T14:34:54Z</time>
      </trkpt>
      <trkpt lat="47.72664" lon="6.99254">
        <ele>402.865082</ele>
        <time>2022-10-30T14:34:56Z</time>
      </trkpt>
      <trkpt lat="47.7267" lon="6.99244">
        <ele>403.037933</ele>
        <time>2022-10-30T14:34:58Z</time>
      </trkpt>
      <trkpt lat="47.72675" lon="6.99233">
        <ele>403.212097</ele>
        <time>2022-10-30T14:35:00Z</time>
      </trkpt>
      <trkpt lat="47.72681" lon="6.99223">
        <ele>403.400085</ele>
        <time>2022-10-30T14:35:02Z</time>
      </trkpt>
      <trkpt lat="47.72687" lon="6.99213">
        <ele>403.548431</ele>
        <time>2022-10-30T14:35:04Z</time>
      </trkpt>
      <trkpt lat="47.72693" lon="6.99202">
        <ele>403.731201</ele>
        <time>2022-10-30T14:35:06Z</time>
      </trkpt>
      <trkpt lat="47.72698" lon="6.99192">
        <ele>403.837982</ele>
        <time>2022-10-30T14:35:08Z</time>
      </trkpt>
      <trkpt lat="47.72703" lon="6.99182">
        <ele>404.003357</ele>
        <time>2022-10-30T14:35:10Z</time>
      </trkpt>
      <trkpt lat="47.72709" lon="6.99172">
        <ele>404.186127</ele>
        <time>2022-10-30T14:35:12Z</time>
      </trkpt>
      <trkpt lat="47.72714" lon="6.99162">
        <ele>404.416199</ele>
        <time>2022-10-30T14:35:14Z</time>
      </trkpt>
      <trkpt lat="47.72719" lon="6.99152">
        <ele>404.642029</ele>
        <time>2022-10-30T14:35:16Z</time>
      </trkpt>
      <trkpt lat="47.72723" lon="6.99142">
        <ele>404.842682</ele>
        <time>2022-10-30T14:35:18Z</time>
      </trkpt>
      <trkpt lat="47.72728" lon="6.99132">
        <ele>405.053406</ele>
        <time>2022-10-30T14:35:20Z</time>
      </trkpt>
      <trkpt lat="47.72732" lon="6.99121">
        <ele>405.263977</ele>
        <time>2022-10-30T14:35:22Z</time>
      </trkpt>
      <trkpt lat="47.72736" lon="6.99109">
        <ele>405.45639</ele>
        <time>2022-10-30T14:35:24Z</time>
      </trkpt>
      <trkpt lat="47.72741" lon="6.99097">
        <ele>405.673645</ele>
        <time>2022-10-30T14:35:26Z</time>
      </trkpt>
      <trkpt lat="47.72745" lon="6.99085">
        <ele>405.858551</ele>
        <time>2022-10-30T14:35:28Z</time>
      </trkpt>
      <trkpt lat="47.72749" lon="6.99072">
        <ele>406.05426</ele>
        <time>2022-10-30T14:35:30Z</time>
      </trkpt>
      <trkpt lat="47.72752" lon="6.9906">
        <ele>406.230621</ele>
        <time>2022-10-30T14:35:32Z</time>
      </trkpt>
      <trkpt lat="47.72757" lon="6.99047">
        <ele>406.411713</ele>
        <time>2022-10-30T14:35:34Z</time>
      </trkpt>
      <trkpt lat="47.7276" lon="6.99034">
        <ele>406.572021</ele>
        <time>2022-10-30T14:35:36Z</time>
      </trkpt>
      <trkpt lat="47.72763" lon="6.99022">
        <ele>406.754547</ele>
        <time>2022-10-30T14:35:38Z</time>
      </trkpt>
      <trkpt lat="47.72767" lon="6.9901">
        <ele>406.840729</ele>
        <time>2022-10-30T14:35:40Z</time>
      </trkpt>
      <trkpt lat="47.72769" lon="6.98998">
        <ele>407.008484</ele>
        <time>2022-10-30T14:35:42Z</time>
      </trkpt>
      <trkpt lat="47.72772" lon="6.98985">
        <ele>407.128967</ele>
        <time>2022-10-30T14:35:44Z</time>
      </trkpt>
      <trkpt lat="47.72774" lon="6.98972">
        <ele>407.311768</ele>
        <time>2022-10-30T14:35:46Z</time>
      </trkpt>
      <trkpt lat="47.72776" lon="6.98959">
        <ele>407.431946</ele>
        <time>2022-10-30T14:35:48Z</time>
      </trkpt>
      <trkpt lat="47.72779" lon="6.98946">
        <ele>407.629303</ele>
        <time>2022-10-30T14:35:50Z</time>
      </trkpt>
      <trkpt lat="47.72782" lon="6.98933">
        <ele>407.779907</ele>
        <time>2022-10-30T14:35:52Z</time>
      </trkpt>
      <trkpt lat="47.72784" lon="6.98921">
        <ele>407.934784</ele>
        <time>2022-10-30T14:35:54Z</time>
      </trkpt>
      <trkpt lat="47.72786" lon="6.98909">
        <ele>408.076752</ele>
        <time>2022-10-30T14:35:56Z</time>
      </trkpt>
      <trkpt lat="47.72789" lon="6.98897">
        <ele>408.216614</ele>
        <time>2022-10-30T14:35:58Z</time>
      </trkpt>
      <trkpt lat="47.72791" lon="6.98885">
        <ele>408.335907</ele>
        <time>2022-10-30T14:36:00Z</time>
      </trkpt>
      <trkpt lat="47.72794" lon="6.98872">
        <ele>408.482452</ele>
        <time>2022-10-30T14:36:02Z</time>
      </trkpt>
      <trkpt lat="47.72796" lon="6.98859">
        <ele>408.593323</ele>
        <time>2022-10-30T14:36:04Z</time>
      </trkpt>
      <trkpt lat="47.72799" lon="6.98846">
        <ele>408.733154</ele>
        <time>2022-10-30T14:36:06Z</time>
      </trkpt>
      <trkpt lat="47.72802" lon="6.98834">
        <ele>408.774017</ele>
        <time>2022-10-30T14:36:08Z</time>
      </trkpt>
      <trkpt lat="47.72804" lon="6.98822">
        <ele>408.876862</ele>
        <time>2022-10-30T14:36:10Z</time>
      </trkpt>
      <trkpt lat="47.72807" lon="6.98809">
        <ele>409.009125</ele>
        <time>2022-10-30T14:36:12Z</time>
      </trkpt>
      <trkpt lat="47.72812" lon="6.98797">
        <ele>409.155426</ele>
        <time>2022-10-30T14:36:14Z</time>
      </trkpt>
      <trkpt lat="47.72816" lon="6.98785">
        <ele>409.305176</ele>
        <time>2022-10-30T14:36:16Z</time>
      </trkpt>
      <trkpt lat="47.72821" lon="6.98774">
        <ele>409.46759</ele>
        <time>2022-10-30T14:36:18Z</time>
      </trkpt>
      <trkpt lat="47.72825" lon="6.98763">
        <ele>409.624603</ele>
        <time>2022-10-30T14:36:20Z</time>
      </trkpt>
      <trkpt lat="47.72829" lon="6.98751">
        <ele>409.813965</ele>
        <time>2022-10-30T14:36:22Z</time>
      </trkpt>
      <trkpt lat="47.72831" lon="6.98738">
        <ele>409.9505</ele>
        <time>2022-10-30T14:36:24Z</time>
      </trkpt>
      <trkpt lat="47.72833" lon="6.98724">
        <ele>410.124756</ele>
        <time>2022-10-30T14:36:26Z</time>
      </trkpt>
      <trkpt lat="47.72834" lon="6.9871">
        <ele>410.258484</ele>
        <time>2022-10-30T14:36:28Z</time>
      </trkpt>
      <trkpt lat="47.72835" lon="6.98696">
        <ele>410.372498</ele>
        <time>2022-10-30T14:36:30Z</time>
      </trkpt>
      <trkpt lat="47.72835" lon="6.98682">
        <ele>410.496643</ele>
        <time>2022-10-30T14:36:32Z</time>
      </trkpt>
      <trkpt lat="47.72835" lon="6.9867">
        <ele>410.606781</ele>
        <time>2022-10-30T14:36:34Z</time>
      </trkpt>
      <trkpt lat="47.72835" lon="6.98657">
        <ele>410.731628</ele>
        <time>2022-10-30T14:36:36Z</time>
      </trkpt>
      <trkpt lat="47.72835" lon="6.98644">
        <ele>410.794769</ele>
        <time>2022-10-30T14:36:38Z</time>
      </trkpt>
      <trkpt lat="47.72835" lon="6.9863">
        <ele>410.918762</ele>
        <time>2022-10-30T14:36:40Z</time>
      </trkpt>
      <trkpt lat="47.72835" lon="6.98616">
        <ele>411.056976</ele>
        <time>2022-10-30T14:36:42Z</time>
      </trkpt>
      <trkpt lat="47.72835" lon="6.98602">
        <ele>411.130127</ele>
        <time>2022-10-30T14:36:44Z</time>
      </trkpt>
      <trkpt lat="47.72835" lon="6.98589">
        <ele>411.267487</ele>
        <time>2022-10-30T14:36:46Z</time>
      </trkpt>
      <trkpt lat="47.72836" lon="6.98575">
        <ele>411.375092</ele>
        <time>2022-10-30T14:36:48Z</time>
      </trkpt>
      <trkpt lat="47.72837" lon="6.98561">
        <ele>411.51416</ele>
        <time>2022-10-30T14:36:50Z</time>
      </trkpt>
      <trkpt lat="47.72838" lon="6.98548">
        <ele>411.626892</ele>
        <time>2022-10-30T14:36:52Z</time>
      </trkpt>
      <trkpt lat="47.72839" lon="6.98534">
        <ele>411.756104</ele>
        <time>2022-10-30T14:36:54Z</time>
      </trkpt>
      <trkpt lat="47.7284" lon="6.98522">
        <ele>411.809875</ele>
        <time>2022-10-30T14:36:56Z</time>
      </trkpt>
      <trkpt lat="47.72841" lon="6.98508">
        <ele>411.880524</ele>
        <time>2022-10-30T14:36:58Z</time>
      </trkpt>
      <trkpt lat="47.72842" lon="6.98495">
        <ele>412.016052</ele>
        <time>2022-10-30T14:37:00Z</time>
      </trkpt>
      <trkpt lat="47.72844" lon="6.98481">
        <ele>412.115051</ele>
        <time>2022-10-30T14:37:02Z</time>
      </trkpt>
      <trkpt lat="47.72845" lon="6.98468">
        <ele>412.150726</ele>
        <time>2022-10-30T14:37:04Z</time>
      </trkpt>
      <trkpt lat="47.72846" lon="6.98454">
        <ele>412.261658</ele>
        <time>2022-10-30T14:37:06Z</time>
      </trkpt>
      <trkpt lat="47.72847" lon="6.98441">
        <ele>412.334869</ele>
        <time>2022-10-30T14:37:08Z</time>
      </trkpt>
      <trkpt lat="47.72849" lon="6.98428">
        <ele>412.448914</ele>
        <time>2022-10-30T14:37:10Z</time>
      </trkpt>
      <trkpt lat="47.72849" lon="6.98417">
        <ele>412.578064</ele>
        <time>2022-10-30T14:37:12Z</time>
      </trkpt>
      <trkpt lat="47.72851" lon="6.98404">
        <ele>412.707184</ele>
        <time>2022-10-30T14:37:14Z</time>
      </trkpt>
      <trkpt lat="47.72852" lon="6.9839">
        <ele>412.838074</ele>
        <time>2022-10-30T14:37:16Z</time>
      </trkpt>
      <trkpt lat="47.72854" lon="6.98377">
        <ele>412.96933</ele>
        <time>2022-10-30T14:37:18Z</time>
      </trkpt>
      <trkpt lat="47.72855" lon="6.98363">
        <ele>413.109375</ele>
        <time>2022-10-30T14:37:20Z</time>
      </trkpt>
      <trkpt lat="47.72857" lon="6.98349">
        <ele>413.144867</ele>
        <time>2022-10-30T14:37:22Z</time>
      </trkpt>
      <trkpt lat="47.72858" lon="6.98336">
        <ele>413.261658</ele>
        <time>2022-10-30T14:37:24Z</time>
      </trkpt>
      <trkpt lat="47.7286" lon="6.98322">
        <ele>413.438171</ele>
        <time>2022-10-30T14:37:26Z</time>
      </trkpt>
      <trkpt lat="47.72862" lon="6.98309">
        <ele>413.57196</ele>
        <time>2022-10-30T14:37:28Z</time>
      </trkpt>
      <trkpt lat="47.72863" lon="6.98295">
        <ele>413.733398</ele>
        <time>2022-10-30T14:37:30Z</time>
      </trkpt>
      <trkpt lat="47.72865" lon="6.98282">
        <ele>413.866852</ele>
        <time>2022-10-30T14:37:32Z</time>
      </trkpt>
      <trkpt lat="47.72867" lon="6.98268">
        <ele>414.020752</ele>
        <time>2022-10-30T14:37:34Z</time>
      </trkpt>
      <trkpt lat="47.72869" lon="6.98255">
        <ele>414.198334</ele>
        <time>2022-10-30T14:37:36Z</time>
      </trkpt>
      <trkpt lat="47.72871" lon="6.98241">
        <ele>414.323578</ele>
        <time>2022-10-30T14:37:38Z</time>
      </trkpt>
      <trkpt lat="47.72873" lon="6.98228">
        <ele>414.480713</ele>
        <time>2022-10-30T14:37:40Z</time>
      </trkpt>
      <trkpt lat="47.72875" lon="6.98214">
        <ele>414.592682</ele>
        <time>2022-10-30T14:37:42Z</time>
      </trkpt>
      <trkpt lat="47.72877" lon="6.98201">
        <ele>414.755066</ele>
        <time>2022-10-30T14:37:44Z</time>
      </trkpt>
      <trkpt lat="47.72879" lon="6.98188">
        <ele>414.888519</ele>
        <time>2022-10-30T14:37:46Z</time>
      </trkpt>
      <trkpt lat="47.7288" lon="6.98175">
        <ele>415.050934</ele>
        <time>2022-10-30T14:37:48Z</time>
      </trkpt>
      <trkpt lat="47.72881" lon="6.98162">
        <ele>415.253265</ele>
        <time>2022-10-30T14:37:50Z</time>
      </trkpt>
      <trkpt lat="47.72883" lon="6.98148">
        <ele>415.427643</ele>
        <time>2022-10-30T14:37:52Z</time>
      </trkpt>
      <trkpt lat="47.72884" lon="6.98134">
        <ele>415.58905</ele>
        <time>2022-10-30T14:37:54Z</time>
      </trkpt>
      <trkpt lat="47.72886" lon="6.9812">
        <ele>415.74408</ele>
        <time>2022-10-30T14:37:56Z</time>
      </trkpt>
      <trkpt lat="47.72889" lon="6.98105">
        <ele>415.863281</ele>
        <time>2022-10-30T14:37:58Z</time>
      </trkpt>
      <trkpt lat="47.72891" lon="6.98091">
        <ele>415.992432</ele>
        <time>2022-10-30T14:38:00Z</time>
      </trkpt>
      <trkpt lat="47.72894" lon="6.98078">
        <ele>416.184021</ele>
        <time>2022-10-30T14:38:02Z</time>
      </trkpt>
      <trkpt lat="47.72898" lon="6.98065">
        <ele>416.371826</ele>
        <time>2022-10-30T14:38:04Z</time>
      </trkpt>
      <trkpt lat="47.72902" lon="6.98052">
        <ele>416.526794</ele>
        <time>2022-10-30T14:38:06Z</time>
      </trkpt>
      <trkpt lat="47.72907" lon="6.9804">
        <ele>416.681824</ele>
        <time>2022-10-30T14:38:08Z</time>
      </trkpt>
      <trkpt lat="47.72911" lon="6.98028">
        <ele>416.780914</ele>
        <time>2022-10-30T14:38:10Z</time>
      </trkpt>
      <trkpt lat="47.72916" lon="6.98016">
        <ele>416.944519</ele>
        <time>2022-10-30T14:38:12Z</time>
      </trkpt>
      <trkpt lat="47.7292" lon="6.98005">
        <ele>417.162018</ele>
        <time>2022-10-30T14:38:14Z</time>
      </trkpt>
      <trkpt lat="47.72924" lon="6.97993">
        <ele>417.351959</ele>
        <time>2022-10-30T14:38:16Z</time>
      </trkpt>
      <trkpt lat="47.72928" lon="6.97981">
        <ele>417.535004</ele>
        <time>2022-10-30T14:38:18Z</time>
      </trkpt>
      <trkpt lat="47.72932" lon="6.97969">
        <ele>417.7453</ele>
        <time>2022-10-30T14:38:20Z</time>
      </trkpt>
      <trkpt lat="47.72936" lon="6.97956">
        <ele>417.914459</ele>
        <time>2022-10-30T14:38:22Z</time>
      </trkpt>
      <trkpt lat="47.72939" lon="6.97943">
        <ele>418.110413</ele>
        <time>2022-10-30T14:38:24Z</time>
      </trkpt>
      <trkpt lat="47.72942" lon="6.9793">
        <ele>418.295593</ele>
        <time>2022-10-30T14:38:26Z</time>
      </trkpt>
      <trkpt lat="47.72945" lon="6.97918">
        <ele>418.393738</ele>
        <time>2022-10-30T14:38:28Z</time>
      </trkpt>
      <trkpt lat="47.72948" lon="6.97905">
        <ele>418.578033</ele>
        <time>2022-10-30T14:38:30Z</time>
      </trkpt>
      <trkpt lat="47.7295" lon="6.97892">
        <ele>418.730896</ele>
        <time>2022-10-30T14:38:32Z</time>
      </trkpt>
      <trkpt lat="47.72952" lon="6.97881">
        <ele>418.797546</ele>
        <time>2022-10-30T14:38:34Z</time>
      </trkpt>
      <trkpt lat="47.72953" lon="6.97869">
        <ele>418.969818</ele>
        <time>2022-10-30T14:38:36Z</time>
      </trkpt>
      <trkpt lat="47.72954" lon="6.97858">
        <ele>419.206696</ele>
        <time>2022-10-30T14:38:38Z</time>
      </trkpt>
      <trkpt lat="47.72956" lon="6.97847">
        <ele>419.401855</ele>
        <time>2022-10-30T14:38:40Z</time>
      </trkpt>
      <trkpt lat="47.72957" lon="6.97838">
        <ele>419.606445</ele>
        <time>2022-10-30T14:38:42Z</time>
      </trkpt>
      <trkpt lat="47.72958" lon="6.9783">
        <ele>419.720551</ele>
        <time>2022-10-30T14:38:44Z</time>
      </trkpt>
      <trkpt lat="47.72959" lon="6.97822">
        <ele>419.88916</ele>
        <time>2022-10-30T14:38:46Z</time>
      </trkpt>
      <trkpt lat="47.7296" lon="6.97814">
        <ele>420.078186</ele>
        <time>2022-10-30T14:38:48Z</time>
      </trkpt>
      <trkpt lat="47.72961" lon="6.97804">
        <ele>420.220276</ele>
        <time>2022-10-30T14:38:50Z</time>
      </trkpt>
      <trkpt lat="47.72962" lon="6.97794">
        <ele>420.403381</ele>
        <time>2022-10-30T14:38:52Z</time>
      </trkpt>
      <trkpt lat="47.72964" lon="6.97784">
        <ele>420.560608</ele>
        <time>2022-10-30T14:38:54Z</time>
      </trkpt>
      <trkpt lat="47.72965" lon="6.97774">
        <ele>420.75415</ele>
        <time>2022-10-30T14:38:56Z</time>
      </trkpt>
      <trkpt lat="47.72968" lon="6.97764">
        <ele>420.827393</ele>
        <time>2022-10-30T14:38:58Z</time>
      </trkpt>
      <trkpt lat="47.72972" lon="6.97755">
        <ele>420.965668</ele>
        <time>2022-10-30T14:39:00Z</time>
      </trkpt>
      <trkpt lat="47.72976" lon="6.97745">
        <ele>421.132233</ele>
        <time>2022-10-30T14:39:02Z</time>
      </trkpt>
      <trkpt lat="47.7298" lon="6.97736">
        <ele>421.305481</ele>
        <time>2022-10-30T14:39:04Z</time>
      </trkpt>
      <trkpt lat="47.72985" lon="6.97729">
        <ele>421.462738</ele>
        <time>2022-10-30T14:39:06Z</time>
      </trkpt>
      <trkpt lat="47.7299" lon="6.97722">
        <ele>421.620026</ele>
        <time>2022-10-30T14:39:08Z</time>
      </trkpt>
      <trkpt lat="47.72995" lon="6.97716">
        <ele>421.83847</ele>
        <time>2022-10-30T14:39:10Z</time>
      </trkpt>
      <trkpt lat="47.73" lon="6.9771">
        <ele>421.993561</ele>
        <time>2022-10-30T14:39:12Z</time>
      </trkpt>
      <trkpt lat="47.73005" lon="6.97703">
        <ele>422.198181</ele>
        <time>2022-10-30T14:39:14Z</time>
      </trkpt>
      <trkpt lat="47.7301" lon="6.97697">
        <ele>422.3685</ele>
        <time>2022-10-30T14:39:16Z</time>
      </trkpt>
      <trkpt lat="47.73015" lon="6.97691">
        <ele>422.53656</ele>
        <time>2022-10-30T14:39:18Z</time>
      </trkpt>
      <trkpt lat="47.7302" lon="6.97685">
        <ele>422.739105</ele>
        <time>2022-10-30T14:39:20Z</time>
      </trkpt>
      <trkpt lat="47.73024" lon="6.9768">
        <ele>422.967468</ele>
        <time>2022-10-30T14:39:22Z</time>
      </trkpt>
      <trkpt lat="47.73028" lon="6.97674">
        <ele>423.088135</ele>
        <time>2022-10-30T14:39:24Z</time>
      </trkpt>
      <trkpt lat="47.73032" lon="6.9767">
        <ele>423.336334</ele>
        <time>2022-10-30T14:39:26Z</time>
      </trkpt>
      <trkpt lat="47.73036" lon="6.97665">
        <ele>423.620117</ele>
        <time>2022-10-30T14:39:28Z</time>
      </trkpt>
      <trkpt lat="47.7304" lon="6.9766">
        <ele>423.935211</ele>
        <time>2022-10-30T14:39:30Z</time>
      </trkpt>
      <trkpt lat="47.73045" lon="6.97655">
        <ele>424.232574</ele>
        <time>2022-10-30T14:39:32Z</time>
      </trkpt>
      <trkpt lat="47.73049" lon="6.97649">
        <ele>424.523438</ele>
        <time>2022-10-30T14:39:34Z</time>
      </trkpt>
      <trkpt lat="47.73054" lon="6.97643">
        <ele>424.795502</ele>
        <time>2022-10-30T14:39:36Z</time>
      </trkpt>
      <trkpt lat="47.73058" lon="6.97636">
        <ele>425.057617</ele>
        <time>2022-10-30T14:39:38Z</time>
      </trkpt>
      <trkpt lat="47.73063" lon="6.97629">
        <ele>425.336517</ele>
        <time>2022-10-30T14:39:40Z</time>
      </trkpt>
      <trkpt lat="47.73068" lon="6.97621">
        <ele>425.618805</ele>
        <time>2022-10-30T14:39:42Z</time>
      </trkpt>
      <trkpt lat="47.73073" lon="6.97613">
        <ele>425.926941</ele>
        <time>2022-10-30T14:39:44Z</time>
      </trkpt>
      <trkpt lat="47.73079" lon="6.97606">
        <ele>426.287933</ele>
        <time>2022-10-30T14:39:46Z</time>
      </trkpt>
      <trkpt lat="47.73084" lon="6.97598">
        <ele>426.61554</ele>
        <time>2022-10-30T14:39:48Z</time>
      </trkpt>
      <trkpt lat="47.73089" lon="6.97591">
        <ele>426.930115</ele>
        <time>2022-10-30T14:39:50Z</time>
      </trkpt>
      <trkpt lat="47.73094" lon="6.97584">
        <ele>427.077789</ele>
        <time>2022-10-30T14:39:52Z</time>
      </trkpt>
      <trkpt lat="47.73098" lon="6.97578">
        <ele>427.432037</ele>
        <time>2022-10-30T14:39:54Z</time>
      </trkpt>
      <trkpt lat="47.73101" lon="6.97574">
        <ele>427.771881</ele>
        <time>2022-10-30T14:39:56Z</time>
      </trkpt>
      <trkpt lat="47.73104" lon="6.97569">
        <ele>428.127502</ele>
        <time>2022-10-30T14:39:58Z</time>
      </trkpt>
      <trkpt lat="47.73107" lon="6.97565">
        <ele>428.457275</ele>
        <time>2022-10-30T14:40:00Z</time>
      </trkpt>
      <trkpt lat="47.73111" lon="6.9756">
        <ele>428.776276</ele>
        <time>2022-10-30T14:40:02Z</time>
      </trkpt>
      <trkpt lat="47.73114" lon="6.97554">
        <ele>429.094086</ele>
        <time>2022-10-30T14:40:04Z</time>
      </trkpt>
      <trkpt lat="47.73117" lon="6.97549">
        <ele>429.44931</ele>
        <time>2022-10-30T14:40:06Z</time>
      </trkpt>
      <trkpt lat="47.7312" lon="6.97544">
        <ele>429.768951</ele>
        <time>2022-10-30T14:40:08Z</time>
      </trkpt>
      <trkpt lat="47.73123" lon="6.9754">
        <ele>430.035828</ele>
        <time>2022-10-30T14:40:10Z</time>
      </trkpt>
      <trkpt lat="47.73125" lon="6.97536">
        <ele>430.374359</ele>
        <time>2022-10-30T14:40:12Z</time>
      </trkpt>
      <trkpt lat="47.73128" lon="6.97532">
        <ele>430.702057</ele>
        <time>2022-10-30T14:40:14Z</time>
      </trkpt>
      <trkpt lat="47.7313" lon="6.97528">
        <ele>430.837891</ele>
        <time>2022-10-30T14:40:16Z</time>
      </trkpt>
      <trkpt lat="47.73131" lon="6.97525">
        <ele>431.158844</ele>
        <time>2022-10-30T14:40:18Z</time>
      </trkpt>
      <trkpt lat="47.73133" lon="6.9752">
        <ele>431.446381</ele>
        <time>2022-10-30T14:40:20Z</time>
      </trkpt>
      <trkpt lat="47.73136" lon="6.97514">
        <ele>431.75116</ele>
        <time>2022-10-30T14:40:22Z</time>
      </trkpt>
      <trkpt lat="47.73139" lon="6.97508">
        <ele>432.048676</ele>
        <time>2022-10-30T14:40:24Z</time>
      </trkpt>
      <trkpt lat="47.73143" lon="6.97502">
        <ele>432.282959</ele>
        <time>2022-10-30T14:40:26Z</time>
      </trkpt>
      <trkpt lat="47.73146" lon="6.97496">
        <ele>432.506104</ele>
        <time>2022-10-30T14:40:28Z</time>
      </trkpt>
      <trkpt lat="47.73149" lon="6.97489">
        <ele>432.692291</ele>
        <time>2022-10-30T14:40:30Z</time>
      </trkpt>
      <trkpt lat="47.73152" lon="6.97481">
        <ele>432.875549</ele>
        <time>2022-10-30T14:40:32Z</time>
      </trkpt>
      <trkpt lat="47.73156" lon="6.97473">
        <ele>433.021057</ele>
        <time>2022-10-30T14:40:34Z</time>
      </trkpt>
      <trkpt lat="47.7316" lon="6.97464">
        <ele>433.182678</ele>
        <time>2022-10-30T14:40:36Z</time>
      </trkpt>
      <trkpt lat="47.73165" lon="6.97455">
        <ele>433.286194</ele>
        <time>2022-10-30T14:40:38Z</time>
      </trkpt>
      <trkpt lat="47.73169" lon="6.97445">
        <ele>433.368103</ele>
        <time>2022-10-30T14:40:40Z</time>
      </trkpt>
      <trkpt lat="47.73174" lon="6.97436">
        <ele>433.50116</ele>
        <time>2022-10-30T14:40:42Z</time>
      </trkpt>
      <trkpt lat="47.73179" lon="6.97427">
        <ele>433.550781</ele>
        <time>2022-10-30T14:40:44Z</time>
      </trkpt>
      <trkpt lat="47.73183" lon="6.97417">
        <ele>433.675781</ele>
        <time>2022-10-30T14:40:46Z</time>
      </trkpt>
      <trkpt lat="47.73188" lon="6.97408">
        <ele>433.723236</ele>
        <time>2022-10-30T14:40:48Z</time>
      </trkpt>
      <trkpt lat="47.73193" lon="6.97398">
        <ele>433.782227</ele>
        <time>2022-10-30T14:40:50Z</time>
      </trkpt>
      <trkpt lat="47.73197" lon="6.97389">
        <ele>433.833984</ele>
        <time>2022-10-30T14:40:52Z</time>
      </trkpt>
      <trkpt lat="47.73201" lon="6.97379">
        <ele>433.836121</ele>
        <time>2022-10-30T14:40:54Z</time>
      </trkpt>
      <trkpt lat="47.73206" lon="6.97369">
        <ele>433.881104</ele>
        <time>2022-10-30T14:40:56Z</time>
      </trkpt>
      <trkpt lat="47.7321" lon="6.9736">
        <ele>433.911041</ele>
        <time>2022-10-30T14:40:58Z</time>
      </trkpt>
      <trkpt lat="47.73214" lon="6.97352">
        <ele>433.911041</ele>
        <time>2022-10-30T14:41:00Z</time>
      </trkpt>
      <trkpt lat="47.73217" lon="6.97344">
        <ele>433.923492</ele>
        <time>2022-10-30T14:41:02Z</time>
      </trkpt>
      <trkpt lat="47.73219" lon="6.97337">
        <ele>433.947205</ele>
        <time>2022-10-30T14:41:04Z</time>
      </trkpt>
      <trkpt lat="47.73222" lon="6.9733">
        <ele>433.98819</ele>
        <time>2022-10-30T14:41:06Z</time>
      </trkpt>
      <trkpt lat="47.73224" lon="6.97323">
        <ele>434.033142</ele>
        <time>2022-10-30T14:41:08Z</time>
      </trkpt>
      <trkpt lat="47.73227" lon="6.97316">
        <ele>434.103027</ele>
        <time>2022-10-30T14:41:10Z</time>
      </trkpt>
      <trkpt lat="47.7323" lon="6.97309">
        <ele>434.210114</ele>
        <time>2022-10-30T14:41:12Z</time>
      </trkpt>
      <trkpt lat="47.73232" lon="6.97303">
        <ele>434.348145</ele>
        <time>2022-10-30T14:41:14Z</time>
      </trkpt>
      <trkpt lat="47.73235" lon="6.97295">
        <ele>434.514252</ele>
        <time>2022-10-30T14:41:16Z</time>
      </trkpt>
      <trkpt lat="47.73237" lon="6.97288">
        <ele>434.693298</ele>
        <time>2022-10-30T14:41:18Z</time>
      </trkpt>
      <trkpt lat="47.7324" lon="6.9728">
        <ele>434.862885</ele>
        <time>2022-10-30T14:41:20Z</time>
      </trkpt>
      <trkpt lat="47.73243" lon="6.97271">
        <ele>435.015625</ele>
        <time>2022-10-30T14:41:22Z</time>
      </trkpt>
      <trkpt lat="47.73246" lon="6.97262">
        <ele>435.22052</ele>
        <time>2022-10-30T14:41:24Z</time>
      </trkpt>
      <trkpt lat="47.73249" lon="6.97253">
        <ele>435.435303</ele>
        <time>2022-10-30T14:41:26Z</time>
      </trkpt>
      <trkpt lat="47.73251" lon="6.97244">
        <ele>435.510803</ele>
        <time>2022-10-30T14:41:28Z</time>
      </trkpt>
      <trkpt lat="47.73254" lon="6.97236">
        <ele>435.739441</ele>
        <time>2022-10-30T14:41:30Z</time>
      </trkpt>
      <trkpt lat="47.73256" lon="6.97227">
        <ele>435.994873</ele>
        <time>2022-10-30T14:41:32Z</time>
      </trkpt>
      <trkpt lat="47.73258" lon="6.97218">
        <ele>436.241211</ele>
        <time>2022-10-30T14:41:34Z</time>
      </trkpt>
      <trkpt lat="47.73261" lon="6.97207">
        <ele>436.454742</ele>
        <time>2022-10-30T14:41:36Z</time>
      </trkpt>
      <trkpt lat="47.73264" lon="6.97196">
        <ele>436.623291</ele>
        <time>2022-10-30T14:41:38Z</time>
      </trkpt>
      <trkpt lat="47.73266" lon="6.97185">
        <ele>436.802307</ele>
        <time>2022-10-30T14:41:40Z</time>
      </trkpt>
      <trkpt lat="47.73269" lon="6.97171">
        <ele>436.966248</ele>
        <time>2022-10-30T14:41:42Z</time>
      </trkpt>
      <trkpt lat="47.73272" lon="6.97155">
        <ele>437.150299</ele>
        <time>2022-10-30T14:41:44Z</time>
      </trkpt>
      <trkpt lat="47.73275" lon="6.97139">
        <ele>437.264587</ele>
        <time>2022-10-30T14:41:46Z</time>
      </trkpt>
      <trkpt lat="47.73278" lon="6.97123">
        <ele>437.360596</ele>
        <time>2022-10-30T14:41:48Z</time>
      </trkpt>
      <trkpt lat="47.73282" lon="6.97107">
        <ele>437.483887</ele>
        <time>2022-10-30T14:41:50Z</time>
      </trkpt>
      <trkpt lat="47.73285" lon="6.97091">
        <ele>437.518402</ele>
        <time>2022-10-30T14:41:52Z</time>
      </trkpt>
      <trkpt lat="47.73288" lon="6.97076">
        <ele>437.577637</ele>
        <time>2022-10-30T14:41:54Z</time>
      </trkpt>
      <trkpt lat="47.73291" lon="6.97061">
        <ele>437.564697</ele>
        <time>2022-10-30T14:41:56Z</time>
      </trkpt>
      <trkpt lat="47.73294" lon="6.97045">
        <ele>437.594421</ele>
        <time>2022-10-30T14:41:58Z</time>
      </trkpt>
      <trkpt lat="47.73297" lon="6.9703">
        <ele>437.575043</ele>
        <time>2022-10-30T14:42:00Z</time>
      </trkpt>
      <trkpt lat="47.73301" lon="6.97016">
        <ele>437.569397</ele>
        <time>2022-10-30T14:42:02Z</time>
      </trkpt>
      <trkpt lat="47.73306" lon="6.97003">
        <ele>437.546082</ele>
        <time>2022-10-30T14:42:04Z</time>
      </trkpt>
      <trkpt lat="47.7331" lon="6.96992">
        <ele>437.513763</ele>
        <time>2022-10-30T14:42:06Z</time>
      </trkpt>
      <trkpt lat="47.73314" lon="6.96981">
        <ele>437.429626</ele>
        <time>2022-10-30T14:42:08Z</time>
      </trkpt>
      <trkpt lat="47.73317" lon="6.96971">
        <ele>437.414551</ele>
        <time>2022-10-30T14:42:10Z</time>
      </trkpt>
      <trkpt lat="47.73319" lon="6.96962">
        <ele>437.34259</ele>
        <time>2022-10-30T14:42:12Z</time>
      </trkpt>
      <trkpt lat="47.7332" lon="6.96956">
        <ele>437.211578</ele>
        <time>2022-10-30T14:42:14Z</time>
      </trkpt>
      <trkpt lat="47.73325" lon="6.96952">
        <ele>436.623779</ele>
        <time>2022-10-30T14:42:32Z</time>
      </trkpt>
      <trkpt lat="47.73325" lon="6.96953">
        <ele>436.549225</ele>
        <time>2022-10-30T14:42:34Z</time>
      </trkpt>
      <trkpt lat="47.73327" lon="6.9695">
        <ele>436.50943</ele>
        <time>2022-10-30T14:44:10Z</time>
      </trkpt>
      <trkpt lat="47.73329" lon="6.96948">
        <ele>436.520691</ele>
        <time>2022-10-30T14:44:12Z</time>
      </trkpt>
      <trkpt lat="47.73332" lon="6.96942">
        <ele>436.535736</ele>
        <time>2022-10-30T14:44:14Z</time>
      </trkpt>
      <trkpt lat="47.73333" lon="6.96941">
        <ele>436.585297</ele>
        <time>2022-10-30T14:44:16Z</time>
      </trkpt>
      <trkpt lat="47.73332" lon="6.96936">
        <ele>436.974548</ele>
        <time>2022-10-30T14:44:48Z</time>
      </trkpt>
      <trkpt lat="47.73333" lon="6.96932">
        <ele>437.01178</ele>
        <time>2022-10-30T14:44:50Z</time>
      </trkpt>
      <trkpt lat="47.73334" lon="6.96929">
        <ele>437.028625</ele>
        <time>2022-10-30T14:44:52Z</time>
      </trkpt>
      <trkpt lat="47.73335" lon="6.96925">
        <ele>437.113342</ele>
        <time>2022-10-30T14:45:03Z</time>
      </trkpt>
      <trkpt lat="47.73336" lon="6.96922">
        <ele>436.906311</ele>
        <time>2022-10-30T15:04:47Z</time>
      </trkpt>
      <trkpt lat="47.73337" lon="6.96917">
        <ele>436.873932</ele>
        <time>2022-10-30T15:04:49Z</time>
      </trkpt>
      <trkpt lat="47.73342" lon="6.96905">
        <ele>436.905121</ele>
        <time>2022-10-30T15:05:05Z</time>
      </trkpt>
      <trkpt lat="47.73346" lon="6.969">
        <ele>436.935303</ele>
        <time>2022-10-30T15:05:07Z</time>
      </trkpt>
      <trkpt lat="47.7335" lon="6.96896">
        <ele>436.993561</ele>
        <time>2022-10-30T15:05:09Z</time>
      </trkpt>
      <trkpt lat="47.73355" lon="6.96893">
        <ele>437.004303</ele>
        <time>2022-10-30T15:05:11Z</time>
      </trkpt>
      <trkpt lat="47.7336" lon="6.96888">
        <ele>437.062561</ele>
        <time>2022-10-30T15:05:13Z</time>
      </trkpt>
      <trkpt lat="47.73365" lon="6.96883">
        <ele>437.088806</ele>
        <time>2022-10-30T15:05:15Z</time>
      </trkpt>
      <trkpt lat="47.73369" lon="6.96878">
        <ele>437.110413</ele>
        <time>2022-10-30T15:05:17Z</time>
      </trkpt>
      <trkpt lat="47.73373" lon="6.96873">
        <ele>437.151428</ele>
        <time>2022-10-30T15:05:19Z</time>
      </trkpt>
      <trkpt lat="47.73378" lon="6.96868">
        <ele>437.177399</ele>
        <time>2022-10-30T15:05:21Z</time>
      </trkpt>
      <trkpt lat="47.73383" lon="6.96863">
        <ele>437.231262</ele>
        <time>2022-10-30T15:05:23Z</time>
      </trkpt>
      <trkpt lat="47.73389" lon="6.96858">
        <ele>437.302429</ele>
        <time>2022-10-30T15:05:25Z</time>
      </trkpt>
      <trkpt lat="47.73394" lon="6.96852">
        <ele>437.410309</ele>
        <time>2022-10-30T15:05:27Z</time>
      </trkpt>
      <trkpt lat="47.73398" lon="6.96848">
        <ele>437.482758</ele>
        <time>2022-10-30T15:05:29Z</time>
      </trkpt>
      <trkpt lat="47.73401" lon="6.96844">
        <ele>437.586365</ele>
        <time>2022-10-30T15:05:31Z</time>
      </trkpt>
      <trkpt lat="47.73404" lon="6.96841">
        <ele>437.648926</ele>
        <time>2022-10-30T15:05:33Z</time>
      </trkpt>
      <trkpt lat="47.73407" lon="6.96838">
        <ele>437.776215</ele>
        <time>2022-10-30T15:05:35Z</time>
      </trkpt>
      <trkpt lat="47.73411" lon="6.96836">
        <ele>437.881927</ele>
        <time>2022-10-30T15:05:37Z</time>
      </trkpt>
      <trkpt lat="47.73415" lon="6.96833">
        <ele>438.00708</ele>
        <time>2022-10-30T15:05:39Z</time>
      </trkpt>
      <trkpt lat="47.7342" lon="6.96829">
        <ele>438.11499</ele>
        <time>2022-10-30T15:05:41Z</time>
      </trkpt>
      <trkpt lat="47.73424" lon="6.96826">
        <ele>438.296234</ele>
        <time>2022-10-30T15:05:43Z</time>
      </trkpt>
      <trkpt lat="47.73429" lon="6.96822">
        <ele>438.350189</ele>
        <time>2022-10-30T15:05:45Z</time>
      </trkpt>
      <trkpt lat="47.73434" lon="6.96819">
        <ele>438.485779</ele>
        <time>2022-10-30T15:05:47Z</time>
      </trkpt>
      <trkpt lat="47.73439" lon="6.96815">
        <ele>438.634705</ele>
        <time>2022-10-30T15:05:49Z</time>
      </trkpt>
      <trkpt lat="47.73444" lon="6.96812">
        <ele>438.787903</ele>
        <time>2022-10-30T15:05:51Z</time>
      </trkpt>
      <trkpt lat="47.73449" lon="6.96809">
        <ele>438.986267</ele>
        <time>2022-10-30T15:05:53Z</time>
      </trkpt>
      <trkpt lat="47.73455" lon="6.96806">
        <ele>439.145752</ele>
        <time>2022-10-30T15:05:55Z</time>
      </trkpt>
      <trkpt lat="47.7346" lon="6.96803">
        <ele>439.326996</ele>
        <time>2022-10-30T15:05:57Z</time>
      </trkpt>
      <trkpt lat="47.73466" lon="6.96799">
        <ele>439.490967</ele>
        <time>2022-10-30T15:05:59Z</time>
      </trkpt>
      <trkpt lat="47.73472" lon="6.96796">
        <ele>439.682922</ele>
        <time>2022-10-30T15:06:01Z</time>
      </trkpt>
      <trkpt lat="47.73478" lon="6.96792">
        <ele>439.881439</ele>
        <time>2022-10-30T15:06:03Z</time>
      </trkpt>
      <trkpt lat="47.73483" lon="6.96788">
        <ele>440.140381</ele>
        <time>2022-10-30T15:06:05Z</time>
      </trkpt>
      <trkpt lat="47.73489" lon="6.96785">
        <ele>440.224548</ele>
        <time>2022-10-30T15:06:07Z</time>
      </trkpt>
      <trkpt lat="47.73495" lon="6.96781">
        <ele>440.428162</ele>
        <time>2022-10-30T15:06:09Z</time>
      </trkpt>
      <trkpt lat="47.735" lon="6.96777">
        <ele>440.641418</ele>
        <time>2022-10-30T15:06:11Z</time>
      </trkpt>
      <trkpt lat="47.73506" lon="6.96773">
        <ele>440.867981</ele>
        <time>2022-10-30T15:06:13Z</time>
      </trkpt>
      <trkpt lat="47.73512" lon="6.96769">
        <ele>441.101013</ele>
        <time>2022-10-30T15:06:15Z</time>
      </trkpt>
      <trkpt lat="47.73518" lon="6.96764">
        <ele>441.375153</ele>
        <time>2022-10-30T15:06:17Z</time>
      </trkpt>
      <trkpt lat="47.73523" lon="6.9676">
        <ele>441.647064</ele>
        <time>2022-10-30T15:06:19Z</time>
      </trkpt>
      <trkpt lat="47.73528" lon="6.96756">
        <ele>441.923279</ele>
        <time>2022-10-30T15:06:21Z</time>
      </trkpt>
      <trkpt lat="47.73534" lon="6.96752">
        <ele>442.2276</ele>
        <time>2022-10-30T15:06:23Z</time>
      </trkpt>
      <trkpt lat="47.7354" lon="6.96749">
        <ele>442.465149</ele>
        <time>2022-10-30T15:06:25Z</time>
      </trkpt>
      <trkpt lat="47.73546" lon="6.96747">
        <ele>442.787048</ele>
        <time>2022-10-30T15:06:27Z</time>
      </trkpt>
      <trkpt lat="47.73552" lon="6.96746">
        <ele>443.045258</ele>
        <time>2022-10-30T15:06:29Z</time>
      </trkpt>
      <trkpt lat="47.73557" lon="6.96747">
        <ele>443.174744</ele>
        <time>2022-10-30T15:06:31Z</time>
      </trkpt>
      <trkpt lat="47.7356" lon="6.9675">
        <ele>443.412659</ele>
        <time>2022-10-30T15:06:33Z</time>
      </trkpt>
      <trkpt lat="47.73564" lon="6.96755">
        <ele>443.699524</ele>
        <time>2022-10-30T15:06:35Z</time>
      </trkpt>
      <trkpt lat="47.73568" lon="6.96759">
        <ele>444.010559</ele>
        <time>2022-10-30T15:06:37Z</time>
      </trkpt>
      <trkpt lat="47.73572" lon="6.96764">
        <ele>444.287262</ele>
        <time>2022-10-30T15:06:39Z</time>
      </trkpt>
      <trkpt lat="47.73576" lon="6.96769">
        <ele>444.643463</ele>
        <time>2022-10-30T15:06:41Z</time>
      </trkpt>
      <trkpt lat="47.73579" lon="6.96774">
        <ele>444.980286</ele>
        <time>2022-10-30T15:06:43Z</time>
      </trkpt>
      <trkpt lat="47.73582" lon="6.96781">
        <ele>445.317047</ele>
        <time>2022-10-30T15:06:45Z</time>
      </trkpt>
      <trkpt lat="47.73583" lon="6.96788">
        <ele>445.636627</ele>
        <time>2022-10-30T15:06:47Z</time>
      </trkpt>
      <trkpt lat="47.73581" lon="6.96795">
        <ele>445.97699</ele>
        <time>2022-10-30T15:06:49Z</time>
      </trkpt>
      <trkpt lat="47.73579" lon="6.96802">
        <ele>446.315125</ele>
        <time>2022-10-30T15:06:51Z</time>
      </trkpt>
      <trkpt lat="47.73577" lon="6.9681">
        <ele>446.669281</ele>
        <time>2022-10-30T15:06:53Z</time>
      </trkpt>
      <trkpt lat="47.73575" lon="6.96818">
        <ele>446.876556</ele>
        <time>2022-10-30T15:06:55Z</time>
      </trkpt>
      <trkpt lat="47.73571" lon="6.96824">
        <ele>447.225433</ele>
        <time>2022-10-30T15:06:57Z</time>
      </trkpt>
      <trkpt lat="47.73567" lon="6.96831">
        <ele>447.570953</ele>
        <time>2022-10-30T15:06:59Z</time>
      </trkpt>
      <trkpt lat="47.73563" lon="6.96837">
        <ele>447.917389</ele>
        <time>2022-10-30T15:07:01Z</time>
      </trkpt>
      <trkpt lat="47.7356" lon="6.96843">
        <ele>448.295349</ele>
        <time>2022-10-30T15:07:03Z</time>
      </trkpt>
      <trkpt lat="47.73558" lon="6.96851">
        <ele>448.626801</ele>
        <time>2022-10-30T15:07:05Z</time>
      </trkpt>
      <trkpt lat="47.73559" lon="6.9686">
        <ele>448.998535</ele>
        <time>2022-10-30T15:07:07Z</time>
      </trkpt>
      <trkpt lat="47.73561" lon="6.96868">
        <ele>449.385193</ele>
        <time>2022-10-30T15:07:09Z</time>
      </trkpt>
      <trkpt lat="47.73565" lon="6.96875">
        <ele>449.753174</ele>
        <time>2022-10-30T15:07:11Z</time>
      </trkpt>
      <trkpt lat="47.73569" lon="6.96877">
        <ele>449.941589</ele>
        <time>2022-10-30T15:07:13Z</time>
      </trkpt>
      <trkpt lat="47.73573" lon="6.96878">
        <ele>450.306244</ele>
        <time>2022-10-30T15:07:15Z</time>
      </trkpt>
      <trkpt lat="47.73578" lon="6.96878">
        <ele>450.679535</ele>
        <time>2022-10-30T15:07:17Z</time>
      </trkpt>
      <trkpt lat="47.73583" lon="6.96877">
        <ele>451.016357</ele>
        <time>2022-10-30T15:07:19Z</time>
      </trkpt>
      <trkpt lat="47.73588" lon="6.96877">
        <ele>451.454498</ele>
        <time>2022-10-30T15:07:21Z</time>
      </trkpt>
      <trkpt lat="47.73594" lon="6.96879">
        <ele>451.80014</ele>
        <time>2022-10-30T15:07:23Z</time>
      </trkpt>
      <trkpt lat="47.73599" lon="6.9688">
        <ele>452.14151</ele>
        <time>2022-10-30T15:07:25Z</time>
      </trkpt>
      <trkpt lat="47.73605" lon="6.96882">
        <ele>452.449371</ele>
        <time>2022-10-30T15:07:27Z</time>
      </trkpt>
      <trkpt lat="47.73611" lon="6.96885">
        <ele>452.639496</ele>
        <time>2022-10-30T15:07:29Z</time>
      </trkpt>
      <trkpt lat="47.73616" lon="6.96888">
        <ele>452.963318</ele>
        <time>2022-10-30T15:07:31Z</time>
      </trkpt>
      <trkpt lat="47.73621" lon="6.96895">
        <ele>453.306152</ele>
        <time>2022-10-30T15:07:33Z</time>
      </trkpt>
      <trkpt lat="47.73624" lon="6.96903">
        <ele>453.667969</ele>
        <time>2022-10-30T15:07:35Z</time>
      </trkpt>
      <trkpt lat="47.73627" lon="6.96911">
        <ele>453.95401</ele>
        <time>2022-10-30T15:07:37Z</time>
      </trkpt>
      <trkpt lat="47.7363" lon="6.9692">
        <ele>454.265961</ele>
        <time>2022-10-30T15:07:39Z</time>
      </trkpt>
      <trkpt lat="47.73635" lon="6.96928">
        <ele>454.498871</ele>
        <time>2022-10-30T15:07:41Z</time>
      </trkpt>
      <trkpt lat="47.7364" lon="6.96935">
        <ele>454.763763</ele>
        <time>2022-10-30T15:07:43Z</time>
      </trkpt>
      <trkpt lat="47.73645" lon="6.96942">
        <ele>454.873962</ele>
        <time>2022-10-30T15:07:45Z</time>
      </trkpt>
      <trkpt lat="47.73652" lon="6.9695">
        <ele>455.089752</ele>
        <time>2022-10-30T15:07:47Z</time>
      </trkpt>
      <trkpt lat="47.73658" lon="6.96958">
        <ele>455.288574</ele>
        <time>2022-10-30T15:07:49Z</time>
      </trkpt>
      <trkpt lat="47.73663" lon="6.96967">
        <ele>455.48056</ele>
        <time>2022-10-30T15:07:51Z</time>
      </trkpt>
      <trkpt lat="47.73665" lon="6.96979">
        <ele>455.662109</ele>
        <time>2022-10-30T15:07:53Z</time>
      </trkpt>
      <trkpt lat="47.73663" lon="6.96989">
        <ele>455.847015</ele>
        <time>2022-10-30T15:07:55Z</time>
      </trkpt>
      <trkpt lat="47.7366" lon="6.96996">
        <ele>456.03067</ele>
        <time>2022-10-30T15:07:57Z</time>
      </trkpt>
      <trkpt lat="47.73656" lon="6.97003">
        <ele>456.166016</ele>
        <time>2022-10-30T15:07:59Z</time>
      </trkpt>
      <trkpt lat="47.73652" lon="6.9701">
        <ele>456.332611</ele>
        <time>2022-10-30T15:08:01Z</time>
      </trkpt>
      <trkpt lat="47.73647" lon="6.97015">
        <ele>456.416931</ele>
        <time>2022-10-30T15:08:03Z</time>
      </trkpt>
      <trkpt lat="47.73643" lon="6.97021">
        <ele>456.553131</ele>
        <time>2022-10-30T15:08:05Z</time>
      </trkpt>
      <trkpt lat="47.73639" lon="6.97028">
        <ele>456.663086</ele>
        <time>2022-10-30T15:08:07Z</time>
      </trkpt>
      <trkpt lat="47.73635" lon="6.97033">
        <ele>456.72821</ele>
        <time>2022-10-30T15:08:09Z</time>
      </trkpt>
      <trkpt lat="47.73631" lon="6.97039">
        <ele>456.818054</ele>
        <time>2022-10-30T15:08:11Z</time>
      </trkpt>
      <trkpt lat="47.73626" lon="6.97046">
        <ele>456.932861</ele>
        <time>2022-10-30T15:08:13Z</time>
      </trkpt>
      <trkpt lat="47.73623" lon="6.97053">
        <ele>457.061096</ele>
        <time>2022-10-30T15:08:15Z</time>
      </trkpt>
      <trkpt lat="47.7362" lon="6.97061">
        <ele>457.161713</ele>
        <time>2022-10-30T15:08:17Z</time>
      </trkpt>
      <trkpt lat="47.73617" lon="6.97069">
        <ele>457.281921</ele>
        <time>2022-10-30T15:08:19Z</time>
      </trkpt>
      <trkpt lat="47.73615" lon="6.97077">
        <ele>457.424744</ele>
        <time>2022-10-30T15:08:21Z</time>
      </trkpt>
      <trkpt lat="47.73613" lon="6.97085">
        <ele>457.611145</ele>
        <time>2022-10-30T15:08:23Z</time>
      </trkpt>
      <trkpt lat="47.73611" lon="6.97093">
        <ele>457.775391</ele>
        <time>2022-10-30T15:08:25Z</time>
      </trkpt>
      <trkpt lat="47.7361" lon="6.97101">
        <ele>457.951965</ele>
        <time>2022-10-30T15:08:27Z</time>
      </trkpt>
      <trkpt lat="47.7361" lon="6.9711">
        <ele>458.133484</ele>
        <time>2022-10-30T15:08:29Z</time>
      </trkpt>
      <trkpt lat="47.73611" lon="6.97118">
        <ele>458.315094</ele>
        <time>2022-10-30T15:08:31Z</time>
      </trkpt>
      <trkpt lat="47.73612" lon="6.97127">
        <ele>458.40802</ele>
        <time>2022-10-30T15:08:33Z</time>
      </trkpt>
      <trkpt lat="47.73612" lon="6.97136">
        <ele>458.580414</ele>
        <time>2022-10-30T15:08:35Z</time>
      </trkpt>
      <trkpt lat="47.73613" lon="6.97146">
        <ele>458.799133</ele>
        <time>2022-10-30T15:08:37Z</time>
      </trkpt>
      <trkpt lat="47.73615" lon="6.97155">
        <ele>458.976379</ele>
        <time>2022-10-30T15:08:39Z</time>
      </trkpt>
      <trkpt lat="47.73616" lon="6.97164">
        <ele>459.166809</ele>
        <time>2022-10-30T15:08:41Z</time>
      </trkpt>
      <trkpt lat="47.73618" lon="6.97173">
        <ele>459.369965</ele>
        <time>2022-10-30T15:08:43Z</time>
      </trkpt>
      <trkpt lat="47.7362" lon="6.97183">
        <ele>459.60556</ele>
        <time>2022-10-30T15:08:45Z</time>
      </trkpt>
      <trkpt lat="47.73622" lon="6.97192">
        <ele>459.802734</ele>
        <time>2022-10-30T15:08:47Z</time>
      </trkpt>
      <trkpt lat="47.73624" lon="6.97201">
        <ele>459.995453</ele>
        <time>2022-10-30T15:08:49Z</time>
      </trkpt>
      <trkpt lat="47.73626" lon="6.9721">
        <ele>460.219818</ele>
        <time>2022-10-30T15:08:51Z</time>
      </trkpt>
      <trkpt lat="47.73628" lon="6.97219">
        <ele>460.459808</ele>
        <time>2022-10-30T15:08:53Z</time>
      </trkpt>
      <trkpt lat="47.73629" lon="6.97228">
        <ele>460.639252</ele>
        <time>2022-10-30T15:08:55Z</time>
      </trkpt>
      <trkpt lat="47.73631" lon="6.97237">
        <ele>460.743073</ele>
        <time>2022-10-30T15:08:57Z</time>
      </trkpt>
      <trkpt lat="47.73634" lon="6.97245">
        <ele>460.929688</ele>
        <time>2022-10-30T15:08:59Z</time>
      </trkpt>
      <trkpt lat="47.73636" lon="6.97254">
        <ele>461.143738</ele>
        <time>2022-10-30T15:09:01Z</time>
      </trkpt>
      <trkpt lat="47.73637" lon="6.97262">
        <ele>461.366516</ele>
        <time>2022-10-30T15:09:03Z</time>
      </trkpt>
      <trkpt lat="47.73639" lon="6.97271">
        <ele>461.539459</ele>
        <time>2022-10-30T15:09:05Z</time>
      </trkpt>
      <trkpt lat="47.73641" lon="6.9728">
        <ele>461.755707</ele>
        <time>2022-10-30T15:09:07Z</time>
      </trkpt>
      <trkpt lat="47.73644" lon="6.97288">
        <ele>461.954681</ele>
        <time>2022-10-30T15:09:09Z</time>
      </trkpt>
      <trkpt lat="47.73647" lon="6.97297">
        <ele>462.135925</ele>
        <time>2022-10-30T15:09:11Z</time>
      </trkpt>
      <trkpt lat="47.7365" lon="6.97306">
        <ele>462.332703</ele>
        <time>2022-10-30T15:09:13Z</time>
      </trkpt>
      <trkpt lat="47.73653" lon="6.97315">
        <ele>462.519287</ele>
        <time>2022-10-30T15:09:15Z</time>
      </trkpt>
      <trkpt lat="47.73657" lon="6.97323">
        <ele>462.690125</ele>
        <time>2022-10-30T15:09:17Z</time>
      </trkpt>
      <trkpt lat="47.73661" lon="6.97331">
        <ele>462.759338</ele>
        <time>2022-10-30T15:09:19Z</time>
      </trkpt>
      <trkpt lat="47.73665" lon="6.97339">
        <ele>462.931244</ele>
        <time>2022-10-30T15:09:21Z</time>
      </trkpt>
      <trkpt lat="47.73668" lon="6.97346">
        <ele>463.116455</ele>
        <time>2022-10-30T15:09:23Z</time>
      </trkpt>
      <trkpt lat="47.73673" lon="6.97354">
        <ele>463.278656</ele>
        <time>2022-10-30T15:09:25Z</time>
      </trkpt>
      <trkpt lat="47.73676" lon="6.97363">
        <ele>463.413727</ele>
        <time>2022-10-30T15:09:27Z</time>
      </trkpt>
      <trkpt lat="47.73681" lon="6.97371">
        <ele>463.573303</ele>
        <time>2022-10-30T15:09:29Z</time>
      </trkpt>
      <trkpt lat="47.73684" lon="6.9738">
        <ele>463.725006</ele>
        <time>2022-10-30T15:09:31Z</time>
      </trkpt>
      <trkpt lat="47.73689" lon="6.97389">
        <ele>463.885071</ele>
        <time>2022-10-30T15:09:33Z</time>
      </trkpt>
      <trkpt lat="47.73693" lon="6.97398">
        <ele>463.986664</ele>
        <time>2022-10-30T15:09:35Z</time>
      </trkpt>
      <trkpt lat="47.73698" lon="6.97408">
        <ele>464.097015</ele>
        <time>2022-10-30T15:09:37Z</time>
      </trkpt>
      <trkpt lat="47.73702" lon="6.97417">
        <ele>464.142426</ele>
        <time>2022-10-30T15:09:39Z</time>
      </trkpt>
      <trkpt lat="47.73706" lon="6.97427">
        <ele>464.247742</ele>
        <time>2022-10-30T15:09:41Z</time>
      </trkpt>
      <trkpt lat="47.73711" lon="6.97437">
        <ele>464.325592</ele>
        <time>2022-10-30T15:09:43Z</time>
      </trkpt>
      <trkpt lat="47.73714" lon="6.97448">
        <ele>464.3797</ele>
        <time>2022-10-30T15:09:45Z</time>
      </trkpt>
      <trkpt lat="47.73718" lon="6.97459">
        <ele>464.420746</ele>
        <time>2022-10-30T15:09:47Z</time>
      </trkpt>
      <trkpt lat="47.73721" lon="6.97471">
        <ele>464.429443</ele>
        <time>2022-10-30T15:09:49Z</time>
      </trkpt>
      <trkpt lat="47.73724" lon="6.97482">
        <ele>464.461853</ele>
        <time>2022-10-30T15:09:51Z</time>
      </trkpt>
      <trkpt lat="47.73728" lon="6.97492">
        <ele>464.53363</ele>
        <time>2022-10-30T15:09:53Z</time>
      </trkpt>
      <trkpt lat="47.73731" lon="6.97503">
        <ele>464.592712</ele>
        <time>2022-10-30T15:09:55Z</time>
      </trkpt>
      <trkpt lat="47.73734" lon="6.97513">
        <ele>464.674957</ele>
        <time>2022-10-30T15:09:57Z</time>
      </trkpt>
      <trkpt lat="47.73737" lon="6.97523">
        <ele>464.776611</ele>
        <time>2022-10-30T15:09:59Z</time>
      </trkpt>
      <trkpt lat="47.7374" lon="6.97533">
        <ele>464.85556</ele>
        <time>2022-10-30T15:10:01Z</time>
      </trkpt>
      <trkpt lat="47.73743" lon="6.97543">
        <ele>464.966644</ele>
        <time>2022-10-30T15:10:03Z</time>
      </trkpt>
      <trkpt lat="47.73745" lon="6.97553">
        <ele>465.009949</ele>
        <time>2022-10-30T15:10:05Z</time>
      </trkpt>
      <trkpt lat="47.73748" lon="6.97562">
        <ele>465.096191</ele>
        <time>2022-10-30T15:10:07Z</time>
      </trkpt>
      <trkpt lat="47.73751" lon="6.97572">
        <ele>465.240173</ele>
        <time>2022-10-30T15:10:09Z</time>
      </trkpt>
      <trkpt lat="47.73754" lon="6.97581">
        <ele>465.378662</ele>
        <time>2022-10-30T15:10:11Z</time>
      </trkpt>
      <trkpt lat="47.73756" lon="6.97591">
        <ele>465.497864</ele>
        <time>2022-10-30T15:10:13Z</time>
      </trkpt>
      <trkpt lat="47.7376" lon="6.97601">
        <ele>465.595215</ele>
        <time>2022-10-30T15:10:15Z</time>
      </trkpt>
      <trkpt lat="47.73763" lon="6.97611">
        <ele>465.720642</ele>
        <time>2022-10-30T15:10:17Z</time>
      </trkpt>
      <trkpt lat="47.73767" lon="6.97622">
        <ele>465.82016</ele>
        <time>2022-10-30T15:10:19Z</time>
      </trkpt>
      <trkpt lat="47.73771" lon="6.97633">
        <ele>465.913177</ele>
        <time>2022-10-30T15:10:21Z</time>
      </trkpt>
      <trkpt lat="47.73775" lon="6.97645">
        <ele>466.019196</ele>
        <time>2022-10-30T15:10:23Z</time>
      </trkpt>
      <trkpt lat="47.7378" lon="6.97657">
        <ele>466.075439</ele>
        <time>2022-10-30T15:10:25Z</time>
      </trkpt>
      <trkpt lat="47.73785" lon="6.97669">
        <ele>466.164063</ele>
        <time>2022-10-30T15:10:27Z</time>
      </trkpt>
      <trkpt lat="47.7379" lon="6.97681">
        <ele>466.317627</ele>
        <time>2022-10-30T15:10:29Z</time>
      </trkpt>
      <trkpt lat="47.73795" lon="6.97694">
        <ele>466.449615</ele>
        <time>2022-10-30T15:10:31Z</time>
      </trkpt>
      <trkpt lat="47.738" lon="6.97706">
        <ele>466.53183</ele>
        <time>2022-10-30T15:10:33Z</time>
      </trkpt>
      <trkpt lat="47.73806" lon="6.97717">
        <ele>466.650818</ele>
        <time>2022-10-30T15:10:35Z</time>
      </trkpt>
      <trkpt lat="47.73811" lon="6.97728">
        <ele>466.741852</ele>
        <time>2022-10-30T15:10:37Z</time>
      </trkpt>
      <trkpt lat="47.73816" lon="6.97739">
        <ele>466.849854</ele>
        <time>2022-10-30T15:10:39Z</time>
      </trkpt>
      <trkpt lat="47.73821" lon="6.97748">
        <ele>466.955872</ele>
        <time>2022-10-30T15:10:41Z</time>
      </trkpt>
      <trkpt lat="47.73826" lon="6.97756">
        <ele>467.076996</ele>
        <time>2022-10-30T15:10:43Z</time>
      </trkpt>
      <trkpt lat="47.73831" lon="6.97764">
        <ele>467.15274</ele>
        <time>2022-10-30T15:10:45Z</time>
      </trkpt>
      <trkpt lat="47.73837" lon="6.97772">
        <ele>467.227386</ele>
        <time>2022-10-30T15:10:47Z</time>
      </trkpt>
      <trkpt lat="47.73844" lon="6.97778">
        <ele>467.273773</ele>
        <time>2022-10-30T15:10:49Z</time>
      </trkpt>
      <trkpt lat="47.73851" lon="6.97784">
        <ele>467.321106</ele>
        <time>2022-10-30T15:10:51Z</time>
      </trkpt>
      <trkpt lat="47.73856" lon="6.97792">
        <ele>467.357849</ele>
        <time>2022-10-30T15:10:53Z</time>
      </trkpt>
      <trkpt lat="47.73861" lon="6.97798">
        <ele>467.423035</ele>
        <time>2022-10-30T15:10:55Z</time>
      </trkpt>
      <trkpt lat="47.73867" lon="6.97805">
        <ele>467.513428</ele>
        <time>2022-10-30T15:10:57Z</time>
      </trkpt>
      <trkpt lat="47.73871" lon="6.97812">
        <ele>467.651917</ele>
        <time>2022-10-30T15:10:59Z</time>
      </trkpt>
      <trkpt lat="47.73877" lon="6.97818">
        <ele>467.816345</ele>
        <time>2022-10-30T15:11:01Z</time>
      </trkpt>
      <trkpt lat="47.73883" lon="6.97825">
        <ele>467.985107</ele>
        <time>2022-10-30T15:11:03Z</time>
      </trkpt>
      <trkpt lat="47.73889" lon="6.97833">
        <ele>468.208008</ele>
        <time>2022-10-30T15:11:05Z</time>
      </trkpt>
      <trkpt lat="47.73895" lon="6.97841">
        <ele>468.413574</ele>
        <time>2022-10-30T15:11:07Z</time>
      </trkpt>
      <trkpt lat="47.739" lon="6.97849">
        <ele>468.646637</ele>
        <time>2022-10-30T15:11:09Z</time>
      </trkpt>
      <trkpt lat="47.73904" lon="6.97858">
        <ele>468.889008</ele>
        <time>2022-10-30T15:11:11Z</time>
      </trkpt>
      <trkpt lat="47.73909" lon="6.97867">
        <ele>468.985199</ele>
        <time>2022-10-30T15:11:13Z</time>
      </trkpt>
      <trkpt lat="47.73913" lon="6.97876">
        <ele>469.258545</ele>
        <time>2022-10-30T15:11:15Z</time>
      </trkpt>
      <trkpt lat="47.73917" lon="6.97885">
        <ele>469.390381</ele>
        <time>2022-10-30T15:11:17Z</time>
      </trkpt>
      <trkpt lat="47.73922" lon="6.97893">
        <ele>469.68692</ele>
        <time>2022-10-30T15:11:19Z</time>
      </trkpt>
      <trkpt lat="47.73927" lon="6.97902">
        <ele>469.82309</ele>
        <time>2022-10-30T15:11:21Z</time>
      </trkpt>
      <trkpt lat="47.7393" lon="6.97911">
        <ele>469.957428</ele>
        <time>2022-10-30T15:11:23Z</time>
      </trkpt>
      <trkpt lat="47.73935" lon="6.9792">
        <ele>470.259277</ele>
        <time>2022-10-30T15:11:25Z</time>
      </trkpt>
      <trkpt lat="47.73938" lon="6.97929">
        <ele>470.56665</ele>
        <time>2022-10-30T15:11:27Z</time>
      </trkpt>
      <trkpt lat="47.73942" lon="6.97936">
        <ele>470.878357</ele>
        <time>2022-10-30T15:11:29Z</time>
      </trkpt>
      <trkpt lat="47.73945" lon="6.97944">
        <ele>471.239746</ele>
        <time>2022-10-30T15:11:31Z</time>
      </trkpt>
      <trkpt lat="47.73949" lon="6.97952">
        <ele>471.610687</ele>
        <time>2022-10-30T15:11:33Z</time>
      </trkpt>
      <trkpt lat="47.73952" lon="6.97961">
        <ele>471.982483</ele>
        <time>2022-10-30T15:11:35Z</time>
      </trkpt>
      <trkpt lat="47.73956" lon="6.97971">
        <ele>472.372406</ele>
        <time>2022-10-30T15:11:37Z</time>
      </trkpt>
      <trkpt lat="47.73959" lon="6.9798">
        <ele>472.766113</ele>
        <time>2022-10-30T15:11:39Z</time>
      </trkpt>
      <trkpt lat="47.73963" lon="6.9799">
        <ele>473.118164</ele>
        <time>2022-10-30T15:11:41Z</time>
      </trkpt>
      <trkpt lat="47.73966" lon="6.97999">
        <ele>473.282715</ele>
        <time>2022-10-30T15:11:43Z</time>
      </trkpt>
      <trkpt lat="47.73969" lon="6.98008">
        <ele>473.604065</ele>
        <time>2022-10-30T15:11:45Z</time>
      </trkpt>
      <trkpt lat="47.73973" lon="6.98017">
        <ele>473.947083</ele>
        <time>2022-10-30T15:11:47Z</time>
      </trkpt>
      <trkpt lat="47.73977" lon="6.98025">
        <ele>474.293457</ele>
        <time>2022-10-30T15:11:49Z</time>
      </trkpt>
      <trkpt lat="47.7398" lon="6.98034">
        <ele>474.616058</ele>
        <time>2022-10-30T15:11:51Z</time>
      </trkpt>
      <trkpt lat="47.73984" lon="6.98043">
        <ele>474.958405</ele>
        <time>2022-10-30T15:11:53Z</time>
      </trkpt>
      <trkpt lat="47.73988" lon="6.98051">
        <ele>475.274567</ele>
        <time>2022-10-30T15:11:55Z</time>
      </trkpt>
      <trkpt lat="47.73992" lon="6.9806">
        <ele>475.589203</ele>
        <time>2022-10-30T15:11:57Z</time>
      </trkpt>
      <trkpt lat="47.73995" lon="6.98069">
        <ele>475.937195</ele>
        <time>2022-10-30T15:11:59Z</time>
      </trkpt>
      <trkpt lat="47.73998" lon="6.98078">
        <ele>476.281647</ele>
        <time>2022-10-30T15:12:01Z</time>
      </trkpt>
      <trkpt lat="47.74001" lon="6.98086">
        <ele>476.628265</ele>
        <time>2022-10-30T15:12:03Z</time>
      </trkpt>
      <trkpt lat="47.74004" lon="6.98095">
        <ele>476.992371</ele>
        <time>2022-10-30T15:12:05Z</time>
      </trkpt>
      <trkpt lat="47.74008" lon="6.98105">
        <ele>477.282562</ele>
        <time>2022-10-30T15:12:07Z</time>
      </trkpt>
      <trkpt lat="47.74011" lon="6.98115">
        <ele>477.607422</ele>
        <time>2022-10-30T15:12:09Z</time>
      </trkpt>
      <trkpt lat="47.74015" lon="6.98125">
        <ele>477.778503</ele>
        <time>2022-10-30T15:12:11Z</time>
      </trkpt>
      <trkpt lat="47.74018" lon="6.98134">
        <ele>478.08609</ele>
        <time>2022-10-30T15:12:13Z</time>
      </trkpt>
      <trkpt lat="47.74022" lon="6.98144">
        <ele>478.382233</ele>
        <time>2022-10-30T15:12:15Z</time>
      </trkpt>
      <trkpt lat="47.74026" lon="6.98153">
        <ele>478.728424</ele>
        <time>2022-10-30T15:12:17Z</time>
      </trkpt>
      <trkpt lat="47.7403" lon="6.98161">
        <ele>479.046814</ele>
        <time>2022-10-30T15:12:19Z</time>
      </trkpt>
      <trkpt lat="47.74033" lon="6.98169">
        <ele>479.342377</ele>
        <time>2022-10-30T15:12:21Z</time>
      </trkpt>
      <trkpt lat="47.74035" lon="6.98176">
        <ele>479.650299</ele>
        <time>2022-10-30T15:12:23Z</time>
      </trkpt>
      <trkpt lat="47.74038" lon="6.98184">
        <ele>480.008942</ele>
        <time>2022-10-30T15:12:25Z</time>
      </trkpt>
      <trkpt lat="47.74041" lon="6.98192">
        <ele>480.380615</ele>
        <time>2022-10-30T15:12:27Z</time>
      </trkpt>
      <trkpt lat="47.74045" lon="6.98201">
        <ele>480.691101</ele>
        <time>2022-10-30T15:12:29Z</time>
      </trkpt>
      <trkpt lat="47.74049" lon="6.98208">
        <ele>480.981445</ele>
        <time>2022-10-30T15:12:31Z</time>
      </trkpt>
      <trkpt lat="47.74052" lon="6.98216">
        <ele>481.13092</ele>
        <time>2022-10-30T15:12:33Z</time>
      </trkpt>
      <trkpt lat="47.74057" lon="6.98224">
        <ele>481.430908</ele>
        <time>2022-10-30T15:12:35Z</time>
      </trkpt>
      <trkpt lat="47.74061" lon="6.98233">
        <ele>481.69989</ele>
        <time>2022-10-30T15:12:37Z</time>
      </trkpt>
      <trkpt lat="47.74066" lon="6.98242">
        <ele>482.010071</ele>
        <time>2022-10-30T15:12:39Z</time>
      </trkpt>
      <trkpt lat="47.7407" lon="6.98249">
        <ele>482.267822</ele>
        <time>2022-10-30T15:12:41Z</time>
      </trkpt>
      <trkpt lat="47.74075" lon="6.98257">
        <ele>482.529968</ele>
        <time>2022-10-30T15:12:43Z</time>
      </trkpt>
      <trkpt lat="47.7408" lon="6.98263">
        <ele>482.772644</ele>
        <time>2022-10-30T15:12:45Z</time>
      </trkpt>
      <trkpt lat="47.74085" lon="6.98269">
        <ele>482.989349</ele>
        <time>2022-10-30T15:12:47Z</time>
      </trkpt>
      <trkpt lat="47.7409" lon="6.98275">
        <ele>483.199524</ele>
        <time>2022-10-30T15:12:49Z</time>
      </trkpt>
      <trkpt lat="47.74093" lon="6.98279">
        <ele>483.368561</ele>
        <time>2022-10-30T15:12:51Z</time>
      </trkpt>
      <trkpt lat="47.74096" lon="6.98282">
        <ele>483.455231</ele>
        <time>2022-10-30T15:12:53Z</time>
      </trkpt>
      <trkpt lat="47.74097" lon="6.98284">
        <ele>483.624603</ele>
        <time>2022-10-30T15:12:55Z</time>
      </trkpt>
      <trkpt lat="47.74101" lon="6.98286">
        <ele>483.959534</ele>
        <time>2022-10-30T15:13:01Z</time>
      </trkpt>
      <trkpt lat="47.74103" lon="6.9829">
        <ele>483.993225</ele>
        <time>2022-10-30T15:13:03Z</time>
      </trkpt>
      <trkpt lat="47.74106" lon="6.98294">
        <ele>484.086853</ele>
        <time>2022-10-30T15:13:05Z</time>
      </trkpt>
      <trkpt lat="47.7411" lon="6.983">
        <ele>484.117249</ele>
        <time>2022-10-30T15:13:07Z</time>
      </trkpt>
      <trkpt lat="47.74115" lon="6.98307">
        <ele>484.128082</ele>
        <time>2022-10-30T15:13:09Z</time>
      </trkpt>
      <trkpt lat="47.7412" lon="6.98314">
        <ele>484.103455</ele>
        <time>2022-10-30T15:13:11Z</time>
      </trkpt>
      <trkpt lat="47.74127" lon="6.98322">
        <ele>484.086121</ele>
        <time>2022-10-30T15:13:13Z</time>
      </trkpt>
      <trkpt lat="47.74135" lon="6.98332">
        <ele>484.035736</ele>
        <time>2022-10-30T15:13:15Z</time>
      </trkpt>
      <trkpt lat="47.74144" lon="6.98343">
        <ele>483.923096</ele>
        <time>2022-10-30T15:13:17Z</time>
      </trkpt>
      <trkpt lat="47.74152" lon="6.98354">
        <ele>483.834045</ele>
        <time>2022-10-30T15:13:19Z</time>
      </trkpt>
      <trkpt lat="47.7416" lon="6.98365">
        <ele>483.654236</ele>
        <time>2022-10-30T15:13:21Z</time>
      </trkpt>
      <trkpt lat="47.74171" lon="6.98376">
        <ele>483.524261</ele>
        <time>2022-10-30T15:13:23Z</time>
      </trkpt>
      <trkpt lat="47.74184" lon="6.98385">
        <ele>483.347473</ele>
        <time>2022-10-30T15:13:25Z</time>
      </trkpt>
      <trkpt lat="47.74199" lon="6.98393">
        <ele>483.147644</ele>
        <time>2022-10-30T15:13:27Z</time>
      </trkpt>
      <trkpt lat="47.74214" lon="6.984">
        <ele>482.85733</ele>
        <time>2022-10-30T15:13:29Z</time>
      </trkpt>
      <trkpt lat="47.74228" lon="6.98407">
        <ele>482.590027</ele>
        <time>2022-10-30T15:13:31Z</time>
      </trkpt>
      <trkpt lat="47.74241" lon="6.98418">
        <ele>482.278015</ele>
        <time>2022-10-30T15:13:33Z</time>
      </trkpt>
      <trkpt lat="47.74255" lon="6.98435">
        <ele>481.868225</ele>
        <time>2022-10-30T15:13:35Z</time>
      </trkpt>
      <trkpt lat="47.74266" lon="6.98456">
        <ele>481.456635</ele>
        <time>2022-10-30T15:13:37Z</time>
      </trkpt>
      <trkpt lat="47.74273" lon="6.98481">
        <ele>481.006012</ele>
        <time>2022-10-30T15:13:39Z</time>
      </trkpt>
      <trkpt lat="47.7428" lon="6.98506">
        <ele>480.533783</ele>
        <time>2022-10-30T15:13:41Z</time>
      </trkpt>
      <trkpt lat="47.74288" lon="6.98532">
        <ele>479.994446</ele>
        <time>2022-10-30T15:13:43Z</time>
      </trkpt>
      <trkpt lat="47.74295" lon="6.98558">
        <ele>479.439941</ele>
        <time>2022-10-30T15:13:45Z</time>
      </trkpt>
      <trkpt lat="47.74302" lon="6.98584">
        <ele>478.918701</ele>
        <time>2022-10-30T15:13:47Z</time>
      </trkpt>
      <trkpt lat="47.74309" lon="6.98611">
        <ele>478.596039</ele>
        <time>2022-10-30T15:13:49Z</time>
      </trkpt>
      <trkpt lat="47.74317" lon="6.98636">
        <ele>478.011658</ele>
        <time>2022-10-30T15:13:51Z</time>
      </trkpt>
      <trkpt lat="47.74324" lon="6.98661">
        <ele>477.392334</ele>
        <time>2022-10-30T15:13:53Z</time>
      </trkpt>
      <trkpt lat="47.74331" lon="6.98686">
        <ele>476.716644</ele>
        <time>2022-10-30T15:13:55Z</time>
      </trkpt>
      <trkpt lat="47.74337" lon="6.9871">
        <ele>476.04541</ele>
        <time>2022-10-30T15:13:57Z</time>
      </trkpt>
      <trkpt lat="47.74344" lon="6.98734">
        <ele>475.367676</ele>
        <time>2022-10-30T15:13:59Z</time>
      </trkpt>
      <trkpt lat="47.7435" lon="6.98758">
        <ele>474.72113</ele>
        <time>2022-10-30T15:14:01Z</time>
      </trkpt>
      <trkpt lat="47.74356" lon="6.98781">
        <ele>474.151031</ele>
        <time>2022-10-30T15:14:03Z</time>
      </trkpt>
      <trkpt lat="47.74362" lon="6.98803">
        <ele>473.522278</ele>
        <time>2022-10-30T15:14:05Z</time>
      </trkpt>
      <trkpt lat="47.74366" lon="6.98826">
        <ele>472.821228</ele>
        <time>2022-10-30T15:14:07Z</time>
      </trkpt>
      <trkpt lat="47.74369" lon="6.9885">
        <ele>472.165344</ele>
        <time>2022-10-30T15:14:09Z</time>
      </trkpt>
      <trkpt lat="47.74373" lon="6.98874">
        <ele>471.479919</ele>
        <time>2022-10-30T15:14:11Z</time>
      </trkpt>
      <trkpt lat="47.74375" lon="6.989">
        <ele>470.871582</ele>
        <time>2022-10-30T15:14:13Z</time>
      </trkpt>
      <trkpt lat="47.74379" lon="6.98926">
        <ele>470.598877</ele>
        <time>2022-10-30T15:14:15Z</time>
      </trkpt>
      <trkpt lat="47.74382" lon="6.98954">
        <ele>470.009094</ele>
        <time>2022-10-30T15:14:17Z</time>
      </trkpt>
      <trkpt lat="47.74385" lon="6.98982">
        <ele>469.268982</ele>
        <time>2022-10-30T15:14:19Z</time>
      </trkpt>
      <trkpt lat="47.74389" lon="6.99011">
        <ele>468.541992</ele>
        <time>2022-10-30T15:14:21Z</time>
      </trkpt>
      <trkpt lat="47.74392" lon="6.9904">
        <ele>467.808502</ele>
        <time>2022-10-30T15:14:23Z</time>
      </trkpt>
      <trkpt lat="47.74395" lon="6.99069">
        <ele>467.109711</ele>
        <time>2022-10-30T15:14:25Z</time>
      </trkpt>
      <trkpt lat="47.74399" lon="6.99098">
        <ele>466.374207</ele>
        <time>2022-10-30T15:14:27Z</time>
      </trkpt>
      <trkpt lat="47.74405" lon="6.99127">
        <ele>465.56012</ele>
        <time>2022-10-30T15:14:29Z</time>
      </trkpt>
      <trkpt lat="47.74414" lon="6.99154">
        <ele>464.763672</ele>
        <time>2022-10-30T15:14:31Z</time>
      </trkpt>
      <trkpt lat="47.74424" lon="6.99179">
        <ele>464.069427</ele>
        <time>2022-10-30T15:14:33Z</time>
      </trkpt>
      <trkpt lat="47.74435" lon="6.99203">
        <ele>463.386566</ele>
        <time>2022-10-30T15:14:35Z</time>
      </trkpt>
      <trkpt lat="47.74447" lon="6.99227">
        <ele>462.986511</ele>
        <time>2022-10-30T15:14:37Z</time>
      </trkpt>
      <trkpt lat="47.74461" lon="6.9925">
        <ele>462.158356</ele>
        <time>2022-10-30T15:14:39Z</time>
      </trkpt>
      <trkpt lat="47.74473" lon="6.99273">
        <ele>461.306549</ele>
        <time>2022-10-30T15:14:41Z</time>
      </trkpt>
      <trkpt lat="47.74487" lon="6.99298">
        <ele>460.347809</ele>
        <time>2022-10-30T15:14:43Z</time>
      </trkpt>
      <trkpt lat="47.74501" lon="6.99323">
        <ele>459.398773</ele>
        <time>2022-10-30T15:14:45Z</time>
      </trkpt>
      <trkpt lat="47.74516" lon="6.99348">
        <ele>458.445648</ele>
        <time>2022-10-30T15:14:47Z</time>
      </trkpt>
      <trkpt lat="47.74531" lon="6.99374">
        <ele>457.541168</ele>
        <time>2022-10-30T15:14:49Z</time>
      </trkpt>
      <trkpt lat="47.74547" lon="6.994">
        <ele>456.449799</ele>
        <time>2022-10-30T15:14:51Z</time>
      </trkpt>
      <trkpt lat="47.74562" lon="6.99425">
        <ele>455.352051</ele>
        <time>2022-10-30T15:14:53Z</time>
      </trkpt>
      <trkpt lat="47.74577" lon="6.99449">
        <ele>454.221985</ele>
        <time>2022-10-30T15:14:55Z</time>
      </trkpt>
      <trkpt lat="47.74591" lon="6.99472">
        <ele>453.015076</ele>
        <time>2022-10-30T15:14:57Z</time>
      </trkpt>
      <trkpt lat="47.74604" lon="6.99494">
        <ele>452.07309</ele>
        <time>2022-10-30T15:14:59Z</time>
      </trkpt>
      <trkpt lat="47.74617" lon="6.99515">
        <ele>451.65094</ele>
        <time>2022-10-30T15:15:01Z</time>
      </trkpt>
      <trkpt lat="47.74629" lon="6.99535">
        <ele>450.758636</ele>
        <time>2022-10-30T15:15:03Z</time>
      </trkpt>
      <trkpt lat="47.74641" lon="6.99556">
        <ele>449.782318</ele>
        <time>2022-10-30T15:15:05Z</time>
      </trkpt>
      <trkpt lat="47.74652" lon="6.99577">
        <ele>448.871735</ele>
        <time>2022-10-30T15:15:07Z</time>
      </trkpt>
      <trkpt lat="47.74664" lon="6.99597">
        <ele>447.925781</ele>
        <time>2022-10-30T15:15:09Z</time>
      </trkpt>
      <trkpt lat="47.74675" lon="6.99617">
        <ele>446.997162</ele>
        <time>2022-10-30T15:15:11Z</time>
      </trkpt>
      <trkpt lat="47.74685" lon="6.99636">
        <ele>446.107483</ele>
        <time>2022-10-30T15:15:13Z</time>
      </trkpt>
      <trkpt lat="47.74694" lon="6.99654">
        <ele>445.237213</ele>
        <time>2022-10-30T15:15:15Z</time>
      </trkpt>
      <trkpt lat="47.74702" lon="6.9967">
        <ele>444.368469</ele>
        <time>2022-10-30T15:15:17Z</time>
      </trkpt>
      <trkpt lat="47.74708" lon="6.99684">
        <ele>443.649414</ele>
        <time>2022-10-30T15:15:19Z</time>
      </trkpt>
      <trkpt lat="47.74715" lon="6.99698">
        <ele>443.016846</ele>
        <time>2022-10-30T15:15:21Z</time>
      </trkpt>
      <trkpt lat="47.74722" lon="6.9971">
        <ele>442.753418</ele>
        <time>2022-10-30T15:15:23Z</time>
      </trkpt>
      <trkpt lat="47.74729" lon="6.99721">
        <ele>442.250793</ele>
        <time>2022-10-30T15:15:25Z</time>
      </trkpt>
      <trkpt lat="47.74734" lon="6.99732">
        <ele>441.76123</ele>
        <time>2022-10-30T15:15:27Z</time>
      </trkpt>
      <trkpt lat="47.74737" lon="6.99742">
        <ele>441.34433</ele>
        <time>2022-10-30T15:15:29Z</time>
      </trkpt>
      <trkpt lat="47.74741" lon="6.99753">
        <ele>440.969574</ele>
        <time>2022-10-30T15:15:31Z</time>
      </trkpt>
      <trkpt lat="47.74746" lon="6.99765">
        <ele>440.801208</ele>
        <time>2022-10-30T15:15:33Z</time>
      </trkpt>
      <trkpt lat="47.7475" lon="6.99777">
        <ele>440.693298</ele>
        <time>2022-10-30T15:15:35Z</time>
      </trkpt>
      <trkpt lat="47.74756" lon="6.99789">
        <ele>440.62851</ele>
        <time>2022-10-30T15:15:37Z</time>
      </trkpt>
      <trkpt lat="47.74759" lon="6.99802">
        <ele>440.587219</ele>
        <time>2022-10-30T15:15:39Z</time>
      </trkpt>
      <trkpt lat="47.74765" lon="6.99815">
        <ele>440.539642</ele>
        <time>2022-10-30T15:15:41Z</time>
      </trkpt>
      <trkpt lat="47.74772" lon="6.99829">
        <ele>440.380798</ele>
        <time>2022-10-30T15:15:43Z</time>
      </trkpt>
      <trkpt lat="47.74778" lon="6.99843">
        <ele>440.432617</ele>
        <time>2022-10-30T15:15:45Z</time>
      </trkpt>
      <trkpt lat="47.74786" lon="6.99859">
        <ele>440.470551</ele>
        <time>2022-10-30T15:15:47Z</time>
      </trkpt>
      <trkpt lat="47.74795" lon="6.99874">
        <ele>440.569824</ele>
        <time>2022-10-30T15:15:49Z</time>
      </trkpt>
      <trkpt lat="47.74802" lon="6.99888">
        <ele>440.709473</ele>
        <time>2022-10-30T15:15:51Z</time>
      </trkpt>
      <trkpt lat="47.7481" lon="6.99904">
        <ele>440.851898</ele>
        <time>2022-10-30T15:15:53Z</time>
      </trkpt>
      <trkpt lat="47.74817" lon="6.99921">
        <ele>441.000793</ele>
        <time>2022-10-30T15:15:55Z</time>
      </trkpt>
      <trkpt lat="47.74826" lon="6.99937">
        <ele>441.069824</ele>
        <time>2022-10-30T15:15:57Z</time>
      </trkpt>
      <trkpt lat="47.74835" lon="6.99953">
        <ele>441.100037</ele>
        <time>2022-10-30T15:15:59Z</time>
      </trkpt>
      <trkpt lat="47.74844" lon="6.99969">
        <ele>441.076324</ele>
        <time>2022-10-30T15:16:01Z</time>
      </trkpt>
      <trkpt lat="47.74852" lon="6.99985">
        <ele>441.125671</ele>
        <time>2022-10-30T15:16:03Z</time>
      </trkpt>
      <trkpt lat="47.74861" lon="6.99998">
        <ele>441.056305</ele>
        <time>2022-10-30T15:16:05Z</time>
      </trkpt>
      <trkpt lat="47.74871" lon="7.00011">
        <ele>440.875061</ele>
        <time>2022-10-30T15:16:07Z</time>
      </trkpt>
      <trkpt lat="47.7488" lon="7.00025">
        <ele>440.734802</ele>
        <time>2022-10-30T15:16:09Z</time>
      </trkpt>
      <trkpt lat="47.74889" lon="7.00039">
        <ele>440.536438</ele>
        <time>2022-10-30T15:16:11Z</time>
      </trkpt>
      <trkpt lat="47.74901" lon="7.00052">
        <ele>440.340668</ele>
        <time>2022-10-30T15:16:13Z</time>
      </trkpt>
      <trkpt lat="47.74914" lon="7.00064">
        <ele>440.122711</ele>
        <time>2022-10-30T15:16:15Z</time>
      </trkpt>
      <trkpt lat="47.74926" lon="7.00074">
        <ele>439.859619</ele>
        <time>2022-10-30T15:16:17Z</time>
      </trkpt>
      <trkpt lat="47.74938" lon="7.00084">
        <ele>439.564362</ele>
        <time>2022-10-30T15:16:19Z</time>
      </trkpt>
      <trkpt lat="47.74949" lon="7.00091">
        <ele>439.229919</ele>
        <time>2022-10-30T15:16:21Z</time>
      </trkpt>
      <trkpt lat="47.74958" lon="7.00097">
        <ele>438.953857</ele>
        <time>2022-10-30T15:16:23Z</time>
      </trkpt>
      <trkpt lat="47.74966" lon="7.00102">
        <ele>438.699219</ele>
        <time>2022-10-30T15:16:25Z</time>
      </trkpt>
      <trkpt lat="47.74972" lon="7.00107">
        <ele>438.390686</ele>
        <time>2022-10-30T15:16:27Z</time>
      </trkpt>
      <trkpt lat="47.74976" lon="7.00111">
        <ele>438.112305</ele>
        <time>2022-10-30T15:16:29Z</time>
      </trkpt>
      <trkpt lat="47.74989" lon="7.00115">
        <ele>435.824799</ele>
        <time>2022-10-30T15:17:58Z</time>
      </trkpt>
      <trkpt lat="47.7501" lon="7.00123">
        <ele>435.86792</ele>
        <time>2022-10-30T15:18:00Z</time>
      </trkpt>
      <trkpt lat="47.75016" lon="7.00126">
        <ele>435.903381</ele>
        <time>2022-10-30T15:18:02Z</time>
      </trkpt>
      <trkpt lat="47.75024" lon="7.0013">
        <ele>435.937897</ele>
        <time>2022-10-30T15:18:04Z</time>
      </trkpt>
      <trkpt lat="47.75031" lon="7.00134">
        <ele>435.981018</ele>
        <time>2022-10-30T15:18:06Z</time>
      </trkpt>
      <trkpt lat="47.75039" lon="7.00138">
        <ele>436.034088</ele>
        <time>2022-10-30T15:18:08Z</time>
      </trkpt>
      <trkpt lat="47.75048" lon="7.00142">
        <ele>436.079407</ele>
        <time>2022-10-30T15:18:10Z</time>
      </trkpt>
      <trkpt lat="47.75057" lon="7.00147">
        <ele>436.159241</ele>
        <time>2022-10-30T15:18:12Z</time>
      </trkpt>
      <trkpt lat="47.75066" lon="7.00151">
        <ele>436.189392</ele>
        <time>2022-10-30T15:18:14Z</time>
      </trkpt>
      <trkpt lat="47.75075" lon="7.00156">
        <ele>436.195892</ele>
        <time>2022-10-30T15:18:16Z</time>
      </trkpt>
      <trkpt lat="47.75085" lon="7.00161">
        <ele>436.232574</ele>
        <time>2022-10-30T15:18:18Z</time>
      </trkpt>
      <trkpt lat="47.75096" lon="7.00165">
        <ele>436.230408</ele>
        <time>2022-10-30T15:18:20Z</time>
      </trkpt>
      <trkpt lat="47.75105" lon="7.0017">
        <ele>436.235931</ele>
        <time>2022-10-30T15:18:22Z</time>
      </trkpt>
      <trkpt lat="47.75114" lon="7.00174">
        <ele>436.209076</ele>
        <time>2022-10-30T15:18:24Z</time>
      </trkpt>
      <trkpt lat="47.75123" lon="7.00179">
        <ele>436.227539</ele>
        <time>2022-10-30T15:18:26Z</time>
      </trkpt>
      <trkpt lat="47.75135" lon="7.00185">
        <ele>436.216553</ele>
        <time>2022-10-30T15:18:28Z</time>
      </trkpt>
      <trkpt lat="47.75145" lon="7.00191">
        <ele>436.11319</ele>
        <time>2022-10-30T15:18:30Z</time>
      </trkpt>
      <trkpt lat="47.75153" lon="7.00198">
        <ele>436.037689</ele>
        <time>2022-10-30T15:18:32Z</time>
      </trkpt>
      <trkpt lat="47.75164" lon="7.00205">
        <ele>435.964661</ele>
        <time>2022-10-30T15:18:34Z</time>
      </trkpt>
      <trkpt lat="47.75177" lon="7.00212">
        <ele>435.906921</ele>
        <time>2022-10-30T15:18:36Z</time>
      </trkpt>
      <trkpt lat="47.75189" lon="7.00218">
        <ele>435.829285</ele>
        <time>2022-10-30T15:18:38Z</time>
      </trkpt>
      <trkpt lat="47.75202" lon="7.00225">
        <ele>435.734436</ele>
        <time>2022-10-30T15:18:40Z</time>
      </trkpt>
      <trkpt lat="47.75214" lon="7.00232">
        <ele>435.607117</ele>
        <time>2022-10-30T15:18:42Z</time>
      </trkpt>
      <trkpt lat="47.75225" lon="7.00239">
        <ele>435.46051</ele>
        <time>2022-10-30T15:18:44Z</time>
      </trkpt>
      <trkpt lat="47.75236" lon="7.00245">
        <ele>435.341858</ele>
        <time>2022-10-30T15:18:46Z</time>
      </trkpt>
      <trkpt lat="47.75245" lon="7.00251">
        <ele>435.223236</ele>
        <time>2022-10-30T15:18:48Z</time>
      </trkpt>
      <trkpt lat="47.75257" lon="7.00258">
        <ele>435.083588</ele>
        <time>2022-10-30T15:18:50Z</time>
      </trkpt>
      <trkpt lat="47.75269" lon="7.00263">
        <ele>434.999451</ele>
        <time>2022-10-30T15:18:52Z</time>
      </trkpt>
      <trkpt lat="47.75281" lon="7.00269">
        <ele>434.822571</ele>
        <time>2022-10-30T15:18:54Z</time>
      </trkpt>
      <trkpt lat="47.75292" lon="7.00274">
        <ele>434.695313</ele>
        <time>2022-10-30T15:18:56Z</time>
      </trkpt>
      <trkpt lat="47.75302" lon="7.00279">
        <ele>434.600403</ele>
        <time>2022-10-30T15:18:58Z</time>
      </trkpt>
      <trkpt lat="47.75312" lon="7.00282">
        <ele>434.492737</ele>
        <time>2022-10-30T15:19:00Z</time>
      </trkpt>
      <trkpt lat="47.75321" lon="7.00283">
        <ele>434.378418</ele>
        <time>2022-10-30T15:19:02Z</time>
      </trkpt>
      <trkpt lat="47.75331" lon="7.00286">
        <ele>434.212341</ele>
        <time>2022-10-30T15:19:04Z</time>
      </trkpt>
      <trkpt lat="47.75342" lon="7.0029">
        <ele>434.126312</ele>
        <time>2022-10-30T15:19:06Z</time>
      </trkpt>
      <trkpt lat="47.75353" lon="7.00294">
        <ele>433.942474</ele>
        <time>2022-10-30T15:19:08Z</time>
      </trkpt>
      <trkpt lat="47.75365" lon="7.00297">
        <ele>433.838867</ele>
        <time>2022-10-30T15:19:10Z</time>
      </trkpt>
      <trkpt lat="47.75378" lon="7.00301">
        <ele>433.750427</ele>
        <time>2022-10-30T15:19:12Z</time>
      </trkpt>
      <trkpt lat="47.7539" lon="7.00305">
        <ele>433.649078</ele>
        <time>2022-10-30T15:19:14Z</time>
      </trkpt>
      <trkpt lat="47.75402" lon="7.00311">
        <ele>433.52182</ele>
        <time>2022-10-30T15:19:16Z</time>
      </trkpt>
      <trkpt lat="47.75415" lon="7.00316">
        <ele>433.347168</ele>
        <time>2022-10-30T15:19:18Z</time>
      </trkpt>
      <trkpt lat="47.75428" lon="7.00322">
        <ele>433.222076</ele>
        <time>2022-10-30T15:19:20Z</time>
      </trkpt>
      <trkpt lat="47.75442" lon="7.00326">
        <ele>433.09375</ele>
        <time>2022-10-30T15:19:22Z</time>
      </trkpt>
      <trkpt lat="47.75455" lon="7.0033">
        <ele>432.934174</ele>
        <time>2022-10-30T15:19:24Z</time>
      </trkpt>
      <trkpt lat="47.75469" lon="7.00334">
        <ele>432.748718</ele>
        <time>2022-10-30T15:19:26Z</time>
      </trkpt>
      <trkpt lat="47.75482" lon="7.00339">
        <ele>432.677582</ele>
        <time>2022-10-30T15:19:28Z</time>
      </trkpt>
      <trkpt lat="47.75496" lon="7.00344">
        <ele>432.471924</ele>
        <time>2022-10-30T15:19:30Z</time>
      </trkpt>
      <trkpt lat="47.7551" lon="7.00349">
        <ele>432.264404</ele>
        <time>2022-10-30T15:19:32Z</time>
      </trkpt>
      <trkpt lat="47.75527" lon="7.00351">
        <ele>432.044434</ele>
        <time>2022-10-30T15:19:34Z</time>
      </trkpt>
      <trkpt lat="47.75543" lon="7.00349">
        <ele>431.792175</ele>
        <time>2022-10-30T15:19:36Z</time>
      </trkpt>
      <trkpt lat="47.75559" lon="7.00341">
        <ele>431.458008</ele>
        <time>2022-10-30T15:19:38Z</time>
      </trkpt>
      <trkpt lat="47.75574" lon="7.00327">
        <ele>431.132507</ele>
        <time>2022-10-30T15:19:40Z</time>
      </trkpt>
      <trkpt lat="47.75586" lon="7.0031">
        <ele>430.774506</ele>
        <time>2022-10-30T15:19:42Z</time>
      </trkpt>
      <trkpt lat="47.75597" lon="7.00292">
        <ele>430.458832</ele>
        <time>2022-10-30T15:19:44Z</time>
      </trkpt>
      <trkpt lat="47.75608" lon="7.00273">
        <ele>430.098816</ele>
        <time>2022-10-30T15:19:46Z</time>
      </trkpt>
      <trkpt lat="47.75617" lon="7.00254">
        <ele>429.739563</ele>
        <time>2022-10-30T15:19:48Z</time>
      </trkpt>
      <trkpt lat="47.75627" lon="7.00236">
        <ele>429.347321</ele>
        <time>2022-10-30T15:19:50Z</time>
      </trkpt>
      <trkpt lat="47.75636" lon="7.00217">
        <ele>428.933502</ele>
        <time>2022-10-30T15:19:52Z</time>
      </trkpt>
      <trkpt lat="47.75645" lon="7.00198">
        <ele>428.465729</ele>
        <time>2022-10-30T15:19:54Z</time>
      </trkpt>
      <trkpt lat="47.75654" lon="7.00179">
        <ele>428.082214</ele>
        <time>2022-10-30T15:19:56Z</time>
      </trkpt>
      <trkpt lat="47.75661" lon="7.00159">
        <ele>427.858063</ele>
        <time>2022-10-30T15:19:58Z</time>
      </trkpt>
      <trkpt lat="47.75668" lon="7.00138">
        <ele>427.458588</ele>
        <time>2022-10-30T15:20:00Z</time>
      </trkpt>
      <trkpt lat="47.75675" lon="7.00117">
        <ele>427.024231</ele>
        <time>2022-10-30T15:20:02Z</time>
      </trkpt>
      <trkpt lat="47.75683" lon="7.00096">
        <ele>426.536133</ele>
        <time>2022-10-30T15:20:04Z</time>
      </trkpt>
      <trkpt lat="47.75691" lon="7.00075">
        <ele>426.072815</ele>
        <time>2022-10-30T15:20:06Z</time>
      </trkpt>
      <trkpt lat="47.75699" lon="7.00055">
        <ele>425.633636</ele>
        <time>2022-10-30T15:20:08Z</time>
      </trkpt>
      <trkpt lat="47.75709" lon="7.00038">
        <ele>425.135345</ele>
        <time>2022-10-30T15:20:10Z</time>
      </trkpt>
      <trkpt lat="47.75722" lon="7.00025">
        <ele>424.676361</ele>
        <time>2022-10-30T15:20:12Z</time>
      </trkpt>
      <trkpt lat="47.75737" lon="7.00018">
        <ele>424.265961</ele>
        <time>2022-10-30T15:20:14Z</time>
      </trkpt>
      <trkpt lat="47.75752" lon="7.00016">
        <ele>423.731689</ele>
        <time>2022-10-30T15:20:16Z</time>
      </trkpt>
      <trkpt lat="47.75765" lon="7.00017">
        <ele>423.341736</ele>
        <time>2022-10-30T15:20:18Z</time>
      </trkpt>
      <trkpt lat="47.75776" lon="7.00017">
        <ele>423.029297</ele>
        <time>2022-10-30T15:20:20Z</time>
      </trkpt>
      <trkpt lat="47.75786" lon="7.00018">
        <ele>422.749207</ele>
        <time>2022-10-30T15:20:22Z</time>
      </trkpt>
      <trkpt lat="47.75795" lon="7.00018">
        <ele>422.531647</ele>
        <time>2022-10-30T15:20:24Z</time>
      </trkpt>
      <trkpt lat="47.75804" lon="7.00018">
        <ele>422.375244</ele>
        <time>2022-10-30T15:20:26Z</time>
      </trkpt>
      <trkpt lat="47.75811" lon="7.00017">
        <ele>422.226624</ele>
        <time>2022-10-30T15:20:28Z</time>
      </trkpt>
      <trkpt lat="47.75818" lon="7.00016">
        <ele>422.051666</ele>
        <time>2022-10-30T15:20:30Z</time>
      </trkpt>
      <trkpt lat="47.75825" lon="7.00016">
        <ele>421.961182</ele>
        <time>2022-10-30T15:20:32Z</time>
      </trkpt>
      <trkpt lat="47.75831" lon="7.00016">
        <ele>421.943939</ele>
        <time>2022-10-30T15:20:34Z</time>
      </trkpt>
      <trkpt lat="47.75836" lon="7.00017">
        <ele>421.967682</ele>
        <time>2022-10-30T15:20:36Z</time>
      </trkpt>
      <trkpt lat="47.75841" lon="7.00017">
        <ele>421.982605</ele>
        <time>2022-10-30T15:20:38Z</time>
      </trkpt>
      <trkpt lat="47.75847" lon="7.00017">
        <ele>422.026459</ele>
        <time>2022-10-30T15:20:40Z</time>
      </trkpt>
      <trkpt lat="47.75851" lon="7.00016">
        <ele>422.087158</ele>
        <time>2022-10-30T15:20:42Z</time>
      </trkpt>
      <trkpt lat="47.75856" lon="7.00016">
        <ele>422.23584</ele>
        <time>2022-10-30T15:20:44Z</time>
      </trkpt>
      <trkpt lat="47.75861" lon="7.00016">
        <ele>422.448547</ele>
        <time>2022-10-30T15:20:46Z</time>
      </trkpt>
      <trkpt lat="47.75866" lon="7.00016">
        <ele>422.676514</ele>
        <time>2022-10-30T15:20:48Z</time>
      </trkpt>
      <trkpt lat="47.75872" lon="7.00016">
        <ele>422.96524</ele>
        <time>2022-10-30T15:20:50Z</time>
      </trkpt>
      <trkpt lat="47.75877" lon="7.00016">
        <ele>423.2789</ele>
        <time>2022-10-30T15:20:52Z</time>
      </trkpt>
      <trkpt lat="47.75882" lon="7.00016">
        <ele>423.594482</ele>
        <time>2022-10-30T15:20:54Z</time>
      </trkpt>
      <trkpt lat="47.75886" lon="7.00016">
        <ele>424.005951</ele>
        <time>2022-10-30T15:20:56Z</time>
      </trkpt>
      <trkpt lat="47.7589" lon="7.00016">
        <ele>424.408875</ele>
        <time>2022-10-30T15:20:58Z</time>
      </trkpt>
      <trkpt lat="47.75895" lon="7.00016">
        <ele>424.775696</ele>
        <time>2022-10-30T15:21:00Z</time>
      </trkpt>
      <trkpt lat="47.759" lon="7.00017">
        <ele>424.954498</ele>
        <time>2022-10-30T15:21:02Z</time>
      </trkpt>
      <trkpt lat="47.75905" lon="7.00017">
        <ele>425.297058</ele>
        <time>2022-10-30T15:21:04Z</time>
      </trkpt>
      <trkpt lat="47.75911" lon="7.00018">
        <ele>425.700043</ele>
        <time>2022-10-30T15:21:06Z</time>
      </trkpt>
      <trkpt lat="47.75918" lon="7.00019">
        <ele>426.036194</ele>
        <time>2022-10-30T15:21:08Z</time>
      </trkpt>
      <trkpt lat="47.75924" lon="7.0002">
        <ele>426.383545</ele>
        <time>2022-10-30T15:21:10Z</time>
      </trkpt>
      <trkpt lat="47.75931" lon="7.0002">
        <ele>426.71759</ele>
        <time>2022-10-30T15:21:12Z</time>
      </trkpt>
      <trkpt lat="47.75938" lon="7.0002">
        <ele>427.060242</ele>
        <time>2022-10-30T15:21:14Z</time>
      </trkpt>
      <trkpt lat="47.75945" lon="7.0002">
        <ele>427.422302</ele>
        <time>2022-10-30T15:21:16Z</time>
      </trkpt>
      <trkpt lat="47.75952" lon="7.0002">
        <ele>427.768005</ele>
        <time>2022-10-30T15:21:18Z</time>
      </trkpt>
      <trkpt lat="47.75959" lon="7.0002">
        <ele>428.14093</ele>
        <time>2022-10-30T15:21:20Z</time>
      </trkpt>
      <trkpt lat="47.75966" lon="7.00019">
        <ele>428.557709</ele>
        <time>2022-10-30T15:21:22Z</time>
      </trkpt>
      <trkpt lat="47.75974" lon="7.00017">
        <ele>428.971588</ele>
        <time>2022-10-30T15:21:24Z</time>
      </trkpt>
      <trkpt lat="47.75981" lon="7.00015">
        <ele>429.174225</ele>
        <time>2022-10-30T15:21:26Z</time>
      </trkpt>
      <trkpt lat="47.75988" lon="7.00012">
        <ele>429.520111</ele>
        <time>2022-10-30T15:21:28Z</time>
      </trkpt>
      <trkpt lat="47.75996" lon="7.00008">
        <ele>429.883362</ele>
        <time>2022-10-30T15:21:30Z</time>
      </trkpt>
      <trkpt lat="47.76004" lon="7.00003">
        <ele>430.236908</ele>
        <time>2022-10-30T15:21:32Z</time>
      </trkpt>
      <trkpt lat="47.76012" lon="6.99996">
        <ele>430.586182</ele>
        <time>2022-10-30T15:21:34Z</time>
      </trkpt>
      <trkpt lat="47.7602" lon="6.99989">
        <ele>430.918793</ele>
        <time>2022-10-30T15:21:36Z</time>
      </trkpt>
      <trkpt lat="47.76028" lon="6.9998">
        <ele>431.244446</ele>
        <time>2022-10-30T15:21:38Z</time>
      </trkpt>
      <trkpt lat="47.76035" lon="6.99971">
        <ele>431.560852</ele>
        <time>2022-10-30T15:21:40Z</time>
      </trkpt>
      <trkpt lat="47.76042" lon="6.9996">
        <ele>431.883728</ele>
        <time>2022-10-30T15:21:42Z</time>
      </trkpt>
      <trkpt lat="47.7605" lon="6.99948">
        <ele>432.192047</ele>
        <time>2022-10-30T15:21:44Z</time>
      </trkpt>
      <trkpt lat="47.76058" lon="6.99935">
        <ele>432.466156</ele>
        <time>2022-10-30T15:21:46Z</time>
      </trkpt>
      <trkpt lat="47.76065" lon="6.99921">
        <ele>432.705505</ele>
        <time>2022-10-30T15:21:48Z</time>
      </trkpt>
      <trkpt lat="47.76075" lon="6.99907">
        <ele>432.9664</ele>
        <time>2022-10-30T15:21:50Z</time>
      </trkpt>
      <trkpt lat="47.76083" lon="6.99893">
        <ele>433.108704</ele>
        <time>2022-10-30T15:21:52Z</time>
      </trkpt>
      <trkpt lat="47.76093" lon="6.9988">
        <ele>433.18634</ele>
        <time>2022-10-30T15:21:54Z</time>
      </trkpt>
      <trkpt lat="47.76103" lon="6.99868">
        <ele>433.382385</ele>
        <time>2022-10-30T15:21:56Z</time>
      </trkpt>
      <trkpt lat="47.76114" lon="6.99858">
        <ele>433.457825</ele>
        <time>2022-10-30T15:21:58Z</time>
      </trkpt>
      <trkpt lat="47.76127" lon="6.99851">
        <ele>433.547455</ele>
        <time>2022-10-30T15:22:00Z</time>
      </trkpt>
      <trkpt lat="47.76139" lon="6.99847">
        <ele>433.588776</ele>
        <time>2022-10-30T15:22:02Z</time>
      </trkpt>
      <trkpt lat="47.76151" lon="6.99845">
        <ele>433.564117</ele>
        <time>2022-10-30T15:22:04Z</time>
      </trkpt>
      <trkpt lat="47.76162" lon="6.99845">
        <ele>433.560608</ele>
        <time>2022-10-30T15:22:06Z</time>
      </trkpt>
      <trkpt lat="47.76173" lon="6.99845">
        <ele>433.633545</ele>
        <time>2022-10-30T15:22:08Z</time>
      </trkpt>
      <trkpt lat="47.76183" lon="6.99846">
        <ele>433.709045</ele>
        <time>2022-10-30T15:22:10Z</time>
      </trkpt>
      <trkpt lat="47.76192" lon="6.99847">
        <ele>433.779114</ele>
        <time>2022-10-30T15:22:12Z</time>
      </trkpt>
      <trkpt lat="47.76201" lon="6.99848">
        <ele>433.807129</ele>
        <time>2022-10-30T15:22:14Z</time>
      </trkpt>
      <trkpt lat="47.76209" lon="6.99849">
        <ele>433.843933</ele>
        <time>2022-10-30T15:22:16Z</time>
      </trkpt>
      <trkpt lat="47.76218" lon="6.9985">
        <ele>433.962555</ele>
        <time>2022-10-30T15:22:18Z</time>
      </trkpt>
      <trkpt lat="47.76226" lon="6.9985">
        <ele>434.042328</ele>
        <time>2022-10-30T15:22:20Z</time>
      </trkpt>
      <trkpt lat="47.76235" lon="6.99851">
        <ele>434.129089</ele>
        <time>2022-10-30T15:22:22Z</time>
      </trkpt>
      <trkpt lat="47.76243" lon="6.99851">
        <ele>434.28656</ele>
        <time>2022-10-30T15:22:24Z</time>
      </trkpt>
      <trkpt lat="47.76252" lon="6.99851">
        <ele>434.450531</ele>
        <time>2022-10-30T15:22:26Z</time>
      </trkpt>
      <trkpt lat="47.7626" lon="6.99849">
        <ele>434.648682</ele>
        <time>2022-10-30T15:22:28Z</time>
      </trkpt>
      <trkpt lat="47.76269" lon="6.99847">
        <ele>434.916168</ele>
        <time>2022-10-30T15:22:30Z</time>
      </trkpt>
      <trkpt lat="47.76278" lon="6.99843">
        <ele>435.144196</ele>
        <time>2022-10-30T15:22:32Z</time>
      </trkpt>
      <trkpt lat="47.76286" lon="6.99837">
        <ele>435.478912</ele>
        <time>2022-10-30T15:22:34Z</time>
      </trkpt>
      <trkpt lat="47.76296" lon="6.9983">
        <ele>435.798981</ele>
        <time>2022-10-30T15:22:36Z</time>
      </trkpt>
      <trkpt lat="47.76305" lon="6.99822">
        <ele>436.14566</ele>
        <time>2022-10-30T15:22:38Z</time>
      </trkpt>
      <trkpt lat="47.76314" lon="6.99813">
        <ele>436.337646</ele>
        <time>2022-10-30T15:22:40Z</time>
      </trkpt>
      <trkpt lat="47.76325" lon="6.99804">
        <ele>436.766937</ele>
        <time>2022-10-30T15:22:42Z</time>
      </trkpt>
      <trkpt lat="47.76334" lon="6.99794">
        <ele>437.135498</ele>
        <time>2022-10-30T15:22:44Z</time>
      </trkpt>
      <trkpt lat="47.76343" lon="6.99786">
        <ele>437.522552</ele>
        <time>2022-10-30T15:22:46Z</time>
      </trkpt>
      <trkpt lat="47.76352" lon="6.99777">
        <ele>437.885498</ele>
        <time>2022-10-30T15:22:48Z</time>
      </trkpt>
      <trkpt lat="47.76362" lon="6.99767">
        <ele>438.2005</ele>
        <time>2022-10-30T15:22:50Z</time>
      </trkpt>
      <trkpt lat="47.76372" lon="6.99757">
        <ele>438.468018</ele>
        <time>2022-10-30T15:22:52Z</time>
      </trkpt>
      <trkpt lat="47.76382" lon="6.99746">
        <ele>438.748474</ele>
        <time>2022-10-30T15:22:54Z</time>
      </trkpt>
      <trkpt lat="47.76393" lon="6.99736">
        <ele>438.873596</ele>
        <time>2022-10-30T15:22:56Z</time>
      </trkpt>
      <trkpt lat="47.76403" lon="6.99725">
        <ele>439.149994</ele>
        <time>2022-10-30T15:22:58Z</time>
      </trkpt>
      <trkpt lat="47.76414" lon="6.99714">
        <ele>439.37149</ele>
        <time>2022-10-30T15:23:00Z</time>
      </trkpt>
      <trkpt lat="47.76424" lon="6.99703">
        <ele>439.526062</ele>
        <time>2022-10-30T15:23:02Z</time>
      </trkpt>
      <trkpt lat="47.76434" lon="6.99692">
        <ele>439.765533</ele>
        <time>2022-10-30T15:23:04Z</time>
      </trkpt>
      <trkpt lat="47.76445" lon="6.99682">
        <ele>439.911713</ele>
        <time>2022-10-30T15:23:06Z</time>
      </trkpt>
      <trkpt lat="47.76455" lon="6.99671">
        <ele>440.051941</ele>
        <time>2022-10-30T15:23:08Z</time>
      </trkpt>
      <trkpt lat="47.76465" lon="6.99661">
        <ele>440.110199</ele>
        <time>2022-10-30T15:23:10Z</time>
      </trkpt>
      <trkpt lat="47.76475" lon="6.99651">
        <ele>440.15448</ele>
        <time>2022-10-30T15:23:12Z</time>
      </trkpt>
      <trkpt lat="47.76485" lon="6.99641">
        <ele>440.215515</ele>
        <time>2022-10-30T15:23:14Z</time>
      </trkpt>
      <trkpt lat="47.76495" lon="6.99631">
        <ele>440.230286</ele>
        <time>2022-10-30T15:23:16Z</time>
      </trkpt>
      <trkpt lat="47.76506" lon="6.99623">
        <ele>440.213043</ele>
        <time>2022-10-30T15:23:18Z</time>
      </trkpt>
      <trkpt lat="47.76517" lon="6.99615">
        <ele>440.244202</ele>
        <time>2022-10-30T15:23:20Z</time>
      </trkpt>
      <trkpt lat="47.76528" lon="6.99609">
        <ele>440.237732</ele>
        <time>2022-10-30T15:23:22Z</time>
      </trkpt>
      <trkpt lat="47.76539" lon="6.99603">
        <ele>440.209656</ele>
        <time>2022-10-30T15:23:24Z</time>
      </trkpt>
      <trkpt lat="47.7655" lon="6.99597">
        <ele>440.229095</ele>
        <time>2022-10-30T15:23:26Z</time>
      </trkpt>
      <trkpt lat="47.76562" lon="6.99592">
        <ele>440.248535</ele>
        <time>2022-10-30T15:23:28Z</time>
      </trkpt>
      <trkpt lat="47.76573" lon="6.99586">
        <ele>440.316223</ele>
        <time>2022-10-30T15:23:30Z</time>
      </trkpt>
      <trkpt lat="47.76584" lon="6.99581">
        <ele>440.378754</ele>
        <time>2022-10-30T15:23:32Z</time>
      </trkpt>
      <trkpt lat="47.76595" lon="6.99576">
        <ele>440.398193</ele>
        <time>2022-10-30T15:23:34Z</time>
      </trkpt>
      <trkpt lat="47.76606" lon="6.99571">
        <ele>440.4953</ele>
        <time>2022-10-30T15:23:36Z</time>
      </trkpt>
      <trkpt lat="47.76616" lon="6.99566">
        <ele>440.600189</ele>
        <time>2022-10-30T15:23:38Z</time>
      </trkpt>
      <trkpt lat="47.76626" lon="6.99562">
        <ele>440.716736</ele>
        <time>2022-10-30T15:23:40Z</time>
      </trkpt>
      <trkpt lat="47.76634" lon="6.99558">
        <ele>440.800873</ele>
        <time>2022-10-30T15:23:42Z</time>
      </trkpt>
      <trkpt lat="47.76642" lon="6.99555">
        <ele>440.864197</ele>
        <time>2022-10-30T15:23:44Z</time>
      </trkpt>
      <trkpt lat="47.76649" lon="6.99553">
        <ele>440.910095</ele>
        <time>2022-10-30T15:23:46Z</time>
      </trkpt>
      <trkpt lat="47.76656" lon="6.99552">
        <ele>440.981293</ele>
        <time>2022-10-30T15:23:48Z</time>
      </trkpt>
      <trkpt lat="47.76662" lon="6.99552">
        <ele>441.093567</ele>
        <time>2022-10-30T15:23:50Z</time>
      </trkpt>
      <trkpt lat="47.76667" lon="6.99553">
        <ele>441.147766</ele>
        <time>2022-10-30T15:23:52Z</time>
      </trkpt>
      <trkpt lat="47.76672" lon="6.99554">
        <ele>441.245941</ele>
        <time>2022-10-30T15:23:54Z</time>
      </trkpt>
      <trkpt lat="47.76676" lon="6.99552">
        <ele>441.340881</ele>
        <time>2022-10-30T15:23:56Z</time>
      </trkpt>
      <trkpt lat="47.76679" lon="6.99548">
        <ele>441.433655</ele>
        <time>2022-10-30T15:23:58Z</time>
      </trkpt>
      <trkpt lat="47.76682" lon="6.99546">
        <ele>441.548004</ele>
        <time>2022-10-30T15:24:00Z</time>
      </trkpt>
      <trkpt lat="47.76685" lon="6.99536">
        <ele>441.721527</ele>
        <time>2022-10-30T15:25:38Z</time>
      </trkpt>
      <trkpt lat="47.7669" lon="6.99534">
        <ele>441.706787</ele>
        <time>2022-10-30T15:25:40Z</time>
      </trkpt>
      <trkpt lat="47.76696" lon="6.99531">
        <ele>441.697021</ele>
        <time>2022-10-30T15:25:42Z</time>
      </trkpt>
      <trkpt lat="47.76703" lon="6.99528">
        <ele>441.689209</ele>
        <time>2022-10-30T15:25:44Z</time>
      </trkpt>
      <trkpt lat="47.7671" lon="6.99526">
        <ele>441.718353</ele>
        <time>2022-10-30T15:25:46Z</time>
      </trkpt>
      <trkpt lat="47.76718" lon="6.99523">
        <ele>441.746582</ele>
        <time>2022-10-30T15:25:48Z</time>
      </trkpt>
      <trkpt lat="47.76726" lon="6.9952">
        <ele>441.720398</ele>
        <time>2022-10-30T15:25:50Z</time>
      </trkpt>
      <trkpt lat="47.76735" lon="6.99518">
        <ele>441.726898</ele>
        <time>2022-10-30T15:25:52Z</time>
      </trkpt>
      <trkpt lat="47.76745" lon="6.99515">
        <ele>441.641998</ele>
        <time>2022-10-30T15:25:54Z</time>
      </trkpt>
      <trkpt lat="47.76755" lon="6.99512">
        <ele>441.547028</ele>
        <time>2022-10-30T15:25:56Z</time>
      </trkpt>
      <trkpt lat="47.76766" lon="6.99509">
        <ele>441.510803</ele>
        <time>2022-10-30T15:25:58Z</time>
      </trkpt>
      <trkpt lat="47.76778" lon="6.99506">
        <ele>441.430969</ele>
        <time>2022-10-30T15:26:00Z</time>
      </trkpt>
      <trkpt lat="47.76791" lon="6.99502">
        <ele>441.264801</ele>
        <time>2022-10-30T15:26:02Z</time>
      </trkpt>
      <trkpt lat="47.76804" lon="6.99498">
        <ele>441.109436</ele>
        <time>2022-10-30T15:26:04Z</time>
      </trkpt>
      <trkpt lat="47.76819" lon="6.99494">
        <ele>440.923431</ele>
        <time>2022-10-30T15:26:06Z</time>
      </trkpt>
      <trkpt lat="47.76834" lon="6.9949">
        <ele>440.721527</ele>
        <time>2022-10-30T15:26:08Z</time>
      </trkpt>
      <trkpt lat="47.76849" lon="6.99485">
        <ele>440.464752</ele>
        <time>2022-10-30T15:26:10Z</time>
      </trkpt>
      <trkpt lat="47.76861" lon="6.99481">
        <ele>440.230316</ele>
        <time>2022-10-30T15:26:12Z</time>
      </trkpt>
      <trkpt lat="47.7687" lon="6.99481">
        <ele>440.092224</ele>
        <time>2022-10-30T15:26:14Z</time>
      </trkpt>
      <trkpt lat="47.76878" lon="6.99488">
        <ele>439.723297</ele>
        <time>2022-10-30T15:26:16Z</time>
      </trkpt>
      <trkpt lat="47.76881" lon="6.995">
        <ele>439.3479</ele>
        <time>2022-10-30T15:26:18Z</time>
      </trkpt>
      <trkpt lat="47.76882" lon="6.99515">
        <ele>438.966064</ele>
        <time>2022-10-30T15:26:20Z</time>
      </trkpt>
      <trkpt lat="47.76883" lon="6.9953">
        <ele>438.583252</ele>
        <time>2022-10-30T15:26:22Z</time>
      </trkpt>
      <trkpt lat="47.76885" lon="6.99544">
        <ele>438.222412</ele>
        <time>2022-10-30T15:26:24Z</time>
      </trkpt>
      <trkpt lat="47.76886" lon="6.99555">
        <ele>437.834473</ele>
        <time>2022-10-30T15:26:26Z</time>
      </trkpt>
      <trkpt lat="47.76889" lon="6.99565">
        <ele>437.405365</ele>
        <time>2022-10-30T15:26:28Z</time>
      </trkpt>
      <trkpt lat="47.76891" lon="6.99574">
        <ele>436.843445</ele>
        <time>2022-10-30T15:26:30Z</time>
      </trkpt>
      <trkpt lat="47.76893" lon="6.99582">
        <ele>436.348083</ele>
        <time>2022-10-30T15:26:32Z</time>
      </trkpt>
      <trkpt lat="47.76898" lon="6.99593">
        <ele>435.861481</ele>
        <time>2022-10-30T15:26:34Z</time>
      </trkpt>
      <trkpt lat="47.76905" lon="6.99607">
        <ele>435.30069</ele>
        <time>2022-10-30T15:26:36Z</time>
      </trkpt>
      <trkpt lat="47.76915" lon="6.99622">
        <ele>435.026764</ele>
        <time>2022-10-30T15:26:38Z</time>
      </trkpt>
      <trkpt lat="47.76926" lon="6.99636">
        <ele>434.476715</ele>
        <time>2022-10-30T15:26:40Z</time>
      </trkpt>
      <trkpt lat="47.76938" lon="6.99649">
        <ele>433.871765</ele>
        <time>2022-10-30T15:26:42Z</time>
      </trkpt>
      <trkpt lat="47.76952" lon="6.99664">
        <ele>433.231354</ele>
        <time>2022-10-30T15:26:44Z</time>
      </trkpt>
      <trkpt lat="47.76964" lon="6.99678">
        <ele>432.489685</ele>
        <time>2022-10-30T15:26:46Z</time>
      </trkpt>
      <trkpt lat="47.76975" lon="6.99692">
        <ele>431.730804</ele>
        <time>2022-10-30T15:26:48Z</time>
      </trkpt>
      <trkpt lat="47.76981" lon="6.99707">
        <ele>430.893463</ele>
        <time>2022-10-30T15:26:50Z</time>
      </trkpt>
      <trkpt lat="47.76986" lon="6.99719">
        <ele>430.256592</ele>
        <time>2022-10-30T15:26:52Z</time>
      </trkpt>
      <trkpt lat="47.76993" lon="6.99725">
        <ele>429.552673</ele>
        <time>2022-10-30T15:26:54Z</time>
      </trkpt>
      <trkpt lat="47.77003" lon="6.99723">
        <ele>428.785461</ele>
        <time>2022-10-30T15:26:56Z</time>
      </trkpt>
      <trkpt lat="47.77012" lon="6.9972">
        <ele>428.013916</ele>
        <time>2022-10-30T15:26:58Z</time>
      </trkpt>
      <trkpt lat="47.77021" lon="6.99717">
        <ele>427.306</ele>
        <time>2022-10-30T15:27:00Z</time>
      </trkpt>
      <trkpt lat="47.7703" lon="6.99713">
        <ele>426.523773</ele>
        <time>2022-10-30T15:27:02Z</time>
      </trkpt>
      <trkpt lat="47.77041" lon="6.99708">
        <ele>425.67099</ele>
        <time>2022-10-30T15:27:04Z</time>
      </trkpt>
      <trkpt lat="47.77054" lon="6.99702">
        <ele>424.812653</ele>
        <time>2022-10-30T15:27:06Z</time>
      </trkpt>
      <trkpt lat="47.77066" lon="6.99698">
        <ele>424.345795</ele>
        <time>2022-10-30T15:27:08Z</time>
      </trkpt>
      <trkpt lat="47.77075" lon="6.99694">
        <ele>423.375244</ele>
        <time>2022-10-30T15:27:10Z</time>
      </trkpt>
      <trkpt lat="47.77082" lon="6.99691">
        <ele>422.59491</ele>
        <time>2022-10-30T15:27:12Z</time>
      </trkpt>
      <trkpt lat="47.77088" lon="6.99689">
        <ele>421.702332</ele>
        <time>2022-10-30T15:27:14Z</time>
      </trkpt>
      <trkpt lat="47.77093" lon="6.99682">
        <ele>420.860901</ele>
        <time>2022-10-30T15:27:16Z</time>
      </trkpt>
      <trkpt lat="47.77097" lon="6.99672">
        <ele>420.014404</ele>
        <time>2022-10-30T15:27:18Z</time>
      </trkpt>
      <trkpt lat="47.77102" lon="6.9966">
        <ele>419.195801</ele>
        <time>2022-10-30T15:27:20Z</time>
      </trkpt>
      <trkpt lat="47.77107" lon="6.99647">
        <ele>418.497864</ele>
        <time>2022-10-30T15:27:22Z</time>
      </trkpt>
      <trkpt lat="47.77111" lon="6.99635">
        <ele>417.756256</ele>
        <time>2022-10-30T15:27:24Z</time>
      </trkpt>
      <trkpt lat="47.77115" lon="6.99625">
        <ele>417.157562</ele>
        <time>2022-10-30T15:27:26Z</time>
      </trkpt>
      <trkpt lat="47.77121" lon="6.99615">
        <ele>416.679535</ele>
        <time>2022-10-30T15:27:28Z</time>
      </trkpt>
      <trkpt lat="47.77126" lon="6.99605">
        <ele>416.21875</ele>
        <time>2022-10-30T15:27:30Z</time>
      </trkpt>
      <trkpt lat="47.77132" lon="6.99596">
        <ele>416.001282</ele>
        <time>2022-10-30T15:27:32Z</time>
      </trkpt>
      <trkpt lat="47.77137" lon="6.99588">
        <ele>415.478455</ele>
        <time>2022-10-30T15:27:34Z</time>
      </trkpt>
      <trkpt lat="47.77142" lon="6.99579">
        <ele>414.986511</ele>
        <time>2022-10-30T15:27:36Z</time>
      </trkpt>
      <trkpt lat="47.77148" lon="6.9957">
        <ele>414.673828</ele>
        <time>2022-10-30T15:27:38Z</time>
      </trkpt>
      <trkpt lat="47.77153" lon="6.99561">
        <ele>414.386475</ele>
        <time>2022-10-30T15:27:40Z</time>
      </trkpt>
      <trkpt lat="47.77159" lon="6.99552">
        <ele>414.03656</ele>
        <time>2022-10-30T15:27:42Z</time>
      </trkpt>
      <trkpt lat="47.77167" lon="6.99547">
        <ele>413.754578</ele>
        <time>2022-10-30T15:27:44Z</time>
      </trkpt>
      <trkpt lat="47.77176" lon="6.99546">
        <ele>413.479065</ele>
        <time>2022-10-30T15:27:46Z</time>
      </trkpt>
      <trkpt lat="47.77185" lon="6.9955">
        <ele>413.259918</ele>
        <time>2022-10-30T15:27:48Z</time>
      </trkpt>
      <trkpt lat="47.77194" lon="6.99556">
        <ele>413.173828</ele>
        <time>2022-10-30T15:27:50Z</time>
      </trkpt>
      <trkpt lat="47.77203" lon="6.99562">
        <ele>413.088531</ele>
        <time>2022-10-30T15:27:52Z</time>
      </trkpt>
      <trkpt lat="47.77213" lon="6.99568">
        <ele>412.856537</ele>
        <time>2022-10-30T15:27:54Z</time>
      </trkpt>
      <trkpt lat="47.77223" lon="6.99575">
        <ele>412.744629</ele>
        <time>2022-10-30T15:27:56Z</time>
      </trkpt>
      <trkpt lat="47.77232" lon="6.99581">
        <ele>412.603119</ele>
        <time>2022-10-30T15:27:58Z</time>
      </trkpt>
      <trkpt lat="47.77241" lon="6.99588">
        <ele>412.497711</ele>
        <time>2022-10-30T15:28:00Z</time>
      </trkpt>
      <trkpt lat="47.7725" lon="6.99594">
        <ele>412.342377</ele>
        <time>2022-10-30T15:28:02Z</time>
      </trkpt>
      <trkpt lat="47.77259" lon="6.996">
        <ele>412.191559</ele>
        <time>2022-10-30T15:28:04Z</time>
      </trkpt>
      <trkpt lat="47.77267" lon="6.99607">
        <ele>412.079163</ele>
        <time>2022-10-30T15:28:06Z</time>
      </trkpt>
      <trkpt lat="47.77274" lon="6.99613">
        <ele>411.968262</ele>
        <time>2022-10-30T15:28:08Z</time>
      </trkpt>
      <trkpt lat="47.7728" lon="6.99619">
        <ele>411.7789</ele>
        <time>2022-10-30T15:28:10Z</time>
      </trkpt>
      <trkpt lat="47.77287" lon="6.99624">
        <ele>411.725098</ele>
        <time>2022-10-30T15:28:12Z</time>
      </trkpt>
      <trkpt lat="47.77292" lon="6.99628">
        <ele>411.598053</ele>
        <time>2022-10-30T15:28:14Z</time>
      </trkpt>
      <trkpt lat="47.77298" lon="6.99633">
        <ele>411.460052</ele>
        <time>2022-10-30T15:28:16Z</time>
      </trkpt>
      <trkpt lat="47.77303" lon="6.99638">
        <ele>411.335266</ele>
        <time>2022-10-30T15:28:18Z</time>
      </trkpt>
      <trkpt lat="47.77308" lon="6.99646">
        <ele>411.165771</ele>
        <time>2022-10-30T15:28:20Z</time>
      </trkpt>
      <trkpt lat="47.77309" lon="6.99656">
        <ele>411.01358</ele>
        <time>2022-10-30T15:28:22Z</time>
      </trkpt>
      <trkpt lat="47.77309" lon="6.99667">
        <ele>410.869446</ele>
        <time>2022-10-30T15:28:24Z</time>
      </trkpt>
      <trkpt lat="47.77309" lon="6.99677">
        <ele>410.735992</ele>
        <time>2022-10-30T15:28:26Z</time>
      </trkpt>
      <trkpt lat="47.77308" lon="6.99688">
        <ele>410.647034</ele>
        <time>2022-10-30T15:28:28Z</time>
      </trkpt>
      <trkpt lat="47.77309" lon="6.997">
        <ele>410.506897</ele>
        <time>2022-10-30T15:28:30Z</time>
      </trkpt>
      <trkpt lat="47.77312" lon="6.9971">
        <ele>410.383453</ele>
        <time>2022-10-30T15:28:32Z</time>
      </trkpt>
      <trkpt lat="47.77315" lon="6.99721">
        <ele>410.267242</ele>
        <time>2022-10-30T15:28:34Z</time>
      </trkpt>
      <trkpt lat="47.77316" lon="6.99733">
        <ele>410.21991</ele>
        <time>2022-10-30T15:28:36Z</time>
      </trkpt>
      <trkpt lat="47.77315" lon="6.99744">
        <ele>410.121735</ele>
        <time>2022-10-30T15:28:38Z</time>
      </trkpt>
      <trkpt lat="47.77313" lon="6.99752">
        <ele>410.076508</ele>
        <time>2022-10-30T15:28:40Z</time>
      </trkpt>
      <trkpt lat="47.77311" lon="6.99756">
        <ele>410.03302</ele>
        <time>2022-10-30T15:28:42Z</time>
      </trkpt>
      <trkpt lat="47.7731" lon="6.99762">
        <ele>409.983551</ele>
        <time>2022-10-30T15:28:44Z</time>
      </trkpt>
      <trkpt lat="47.77306" lon="6.99766">
        <ele>409.929932</ele>
        <time>2022-10-30T15:28:46Z</time>
      </trkpt>
      <trkpt lat="47.77302" lon="6.99771">
        <ele>409.852539</ele>
        <time>2022-10-30T15:28:48Z</time>
      </trkpt>
      <trkpt lat="47.77297" lon="6.99776">
        <ele>409.789124</ele>
        <time>2022-10-30T15:28:50Z</time>
      </trkpt>
      <trkpt lat="47.77292" lon="6.99783">
        <ele>409.722412</ele>
        <time>2022-10-30T15:28:52Z</time>
      </trkpt>
      <trkpt lat="47.77287" lon="6.99793">
        <ele>409.638519</ele>
        <time>2022-10-30T15:28:54Z</time>
      </trkpt>
      <trkpt lat="47.77282" lon="6.99804">
        <ele>409.597778</ele>
        <time>2022-10-30T15:28:56Z</time>
      </trkpt>
      <trkpt lat="47.7728" lon="6.99815">
        <ele>409.534912</ele>
        <time>2022-10-30T15:28:58Z</time>
      </trkpt>
      <trkpt lat="47.77279" lon="6.99823">
        <ele>409.390747</ele>
        <time>2022-10-30T15:29:00Z</time>
      </trkpt>
      <trkpt lat="47.77278" lon="6.99827">
        <ele>409.259521</ele>
        <time>2022-10-30T15:29:02Z</time>
      </trkpt>
      <trkpt lat="47.77278" lon="6.99834">
        <ele>408.375824</ele>
        <time>2022-10-30T15:29:18Z</time>
      </trkpt>
      <trkpt lat="47.77279" lon="6.99847">
        <ele>408.263062</ele>
        <time>2022-10-30T15:29:20Z</time>
      </trkpt>
      <trkpt lat="47.77279" lon="6.99856">
        <ele>408.204987</ele>
        <time>2022-10-30T15:29:22Z</time>
      </trkpt>
      <trkpt lat="47.77277" lon="6.99868">
        <ele>408.076355</ele>
        <time>2022-10-30T15:29:24Z</time>
      </trkpt>
      <trkpt lat="47.77276" lon="6.99881">
        <ele>407.966644</ele>
        <time>2022-10-30T15:29:26Z</time>
      </trkpt>
      <trkpt lat="47.77273" lon="6.99895">
        <ele>407.849915</ele>
        <time>2022-10-30T15:29:28Z</time>
      </trkpt>
      <trkpt lat="47.77269" lon="6.9991">
        <ele>407.746613</ele>
        <time>2022-10-30T15:29:30Z</time>
      </trkpt>
      <trkpt lat="47.77266" lon="6.99924">
        <ele>407.639862</ele>
        <time>2022-10-30T15:29:32Z</time>
      </trkpt>
      <trkpt lat="47.7726" lon="6.99936">
        <ele>407.551697</ele>
        <time>2022-10-30T15:29:34Z</time>
      </trkpt>
      <trkpt lat="47.77255" lon="6.99948">
        <ele>407.47525</ele>
        <time>2022-10-30T15:29:36Z</time>
      </trkpt>
      <trkpt lat="47.77251" lon="6.99957">
        <ele>407.378723</ele>
        <time>2022-10-30T15:29:38Z</time>
      </trkpt>
      <trkpt lat="47.77246" lon="6.99966">
        <ele>407.296051</ele>
        <time>2022-10-30T15:29:40Z</time>
      </trkpt>
      <trkpt lat="47.77242" lon="6.99973">
        <ele>407.256683</ele>
        <time>2022-10-30T15:29:42Z</time>
      </trkpt>
      <trkpt lat="47.77238" lon="6.9998">
        <ele>407.202942</ele>
        <time>2022-10-30T15:29:44Z</time>
      </trkpt>
      <trkpt lat="47.77234" lon="6.99986">
        <ele>407.129791</ele>
        <time>2022-10-30T15:29:46Z</time>
      </trkpt>
      <trkpt lat="47.7723" lon="6.99993">
        <ele>407.030945</ele>
        <time>2022-10-30T15:29:48Z</time>
      </trkpt>
      <trkpt lat="47.77225" lon="7">
        <ele>406.974915</ele>
        <time>2022-10-30T15:29:50Z</time>
      </trkpt>
      <trkpt lat="47.7722" lon="7.00007">
        <ele>406.912537</ele>
        <time>2022-10-30T15:29:52Z</time>
      </trkpt>
      <trkpt lat="47.77214" lon="7.00016">
        <ele>406.841888</ele>
        <time>2022-10-30T15:29:54Z</time>
      </trkpt>
      <trkpt lat="47.7721" lon="7.00024">
        <ele>406.751556</ele>
        <time>2022-10-30T15:29:56Z</time>
      </trkpt>
      <trkpt lat="47.77205" lon="7.00034">
        <ele>406.691345</ele>
        <time>2022-10-30T15:29:58Z</time>
      </trkpt>
      <trkpt lat="47.77201" lon="7.00044">
        <ele>406.595032</ele>
        <time>2022-10-30T15:30:00Z</time>
      </trkpt>
      <trkpt lat="47.77199" lon="7.00055">
        <ele>406.444458</ele>
        <time>2022-10-30T15:30:02Z</time>
      </trkpt>
      <trkpt lat="47.77199" lon="7.00066">
        <ele>406.367004</ele>
        <time>2022-10-30T15:30:04Z</time>
      </trkpt>
      <trkpt lat="47.77199" lon="7.00077">
        <ele>406.257324</ele>
        <time>2022-10-30T15:30:06Z</time>
      </trkpt>
      <trkpt lat="47.772" lon="7.00089">
        <ele>406.205719</ele>
        <time>2022-10-30T15:30:08Z</time>
      </trkpt>
      <trkpt lat="47.77202" lon="7.00103">
        <ele>406.100159</ele>
        <time>2022-10-30T15:30:10Z</time>
      </trkpt>
      <trkpt lat="47.77203" lon="7.00116">
        <ele>405.947449</ele>
        <time>2022-10-30T15:30:12Z</time>
      </trkpt>
      <trkpt lat="47.77204" lon="7.00129">
        <ele>405.791779</ele>
        <time>2022-10-30T15:30:14Z</time>
      </trkpt>
      <trkpt lat="47.77206" lon="7.00141">
        <ele>405.681702</ele>
        <time>2022-10-30T15:30:16Z</time>
      </trkpt>
      <trkpt lat="47.7721" lon="7.0015">
        <ele>405.530121</ele>
        <time>2022-10-30T15:30:18Z</time>
      </trkpt>
      <trkpt lat="47.77215" lon="7.00157">
        <ele>405.425842</ele>
        <time>2022-10-30T15:30:20Z</time>
      </trkpt>
      <trkpt lat="47.77222" lon="7.00162">
        <ele>405.325439</ele>
        <time>2022-10-30T15:30:22Z</time>
      </trkpt>
      <trkpt lat="47.7723" lon="7.00166">
        <ele>405.271667</ele>
        <time>2022-10-30T15:30:24Z</time>
      </trkpt>
      <trkpt lat="47.77235" lon="7.00173">
        <ele>405.177032</ele>
        <time>2022-10-30T15:30:26Z</time>
      </trkpt>
      <trkpt lat="47.77239" lon="7.00181">
        <ele>405.01358</ele>
        <time>2022-10-30T15:30:28Z</time>
      </trkpt>
      <trkpt lat="47.77242" lon="7.00187">
        <ele>404.915771</ele>
        <time>2022-10-30T15:30:30Z</time>
      </trkpt>
      <trkpt lat="47.77243" lon="7.00192">
        <ele>404.720184</ele>
        <time>2022-10-30T15:30:32Z</time>
      </trkpt>
      <trkpt lat="47.77241" lon="7.00198">
        <ele>404.550842</ele>
        <time>2022-10-30T15:30:34Z</time>
      </trkpt>
      <trkpt lat="47.77238" lon="7.00204">
        <ele>404.369873</ele>
        <time>2022-10-30T15:30:36Z</time>
      </trkpt>
      <trkpt lat="47.77234" lon="7.00212">
        <ele>404.204834</ele>
        <time>2022-10-30T15:30:38Z</time>
      </trkpt>
      <trkpt lat="47.77228" lon="7.00221">
        <ele>404.052155</ele>
        <time>2022-10-30T15:30:40Z</time>
      </trkpt>
      <trkpt lat="47.77223" lon="7.00229">
        <ele>403.901611</ele>
        <time>2022-10-30T15:30:42Z</time>
      </trkpt>
      <trkpt lat="47.77217" lon="7.00237">
        <ele>403.791931</ele>
        <time>2022-10-30T15:30:44Z</time>
      </trkpt>
      <trkpt lat="47.77212" lon="7.00244">
        <ele>403.613464</ele>
        <time>2022-10-30T15:30:46Z</time>
      </trkpt>
      <trkpt lat="47.77206" lon="7.00251">
        <ele>403.480164</ele>
        <time>2022-10-30T15:30:48Z</time>
      </trkpt>
      <trkpt lat="47.77198" lon="7.00257">
        <ele>403.328308</ele>
        <time>2022-10-30T15:30:50Z</time>
      </trkpt>
      <trkpt lat="47.77191" lon="7.00265">
        <ele>403.263824</ele>
        <time>2022-10-30T15:30:52Z</time>
      </trkpt>
      <trkpt lat="47.77182" lon="7.00272">
        <ele>403.233704</ele>
        <time>2022-10-30T15:30:54Z</time>
      </trkpt>
      <trkpt lat="47.77173" lon="7.00279">
        <ele>403.181946</ele>
        <time>2022-10-30T15:30:56Z</time>
      </trkpt>
      <trkpt lat="47.77163" lon="7.00284">
        <ele>403.082214</ele>
        <time>2022-10-30T15:30:58Z</time>
      </trkpt>
      <trkpt lat="47.77154" lon="7.0029">
        <ele>403.0177</ele>
        <time>2022-10-30T15:31:00Z</time>
      </trkpt>
      <trkpt lat="47.77145" lon="7.00295">
        <ele>402.937714</ele>
        <time>2022-10-30T15:31:02Z</time>
      </trkpt>
      <trkpt lat="47.77136" lon="7.003">
        <ele>402.873657</ele>
        <time>2022-10-30T15:31:04Z</time>
      </trkpt>
      <trkpt lat="47.77127" lon="7.00304">
        <ele>402.812347</ele>
        <time>2022-10-30T15:31:06Z</time>
      </trkpt>
      <trkpt lat="47.77116" lon="7.0031">
        <ele>402.752136</ele>
        <time>2022-10-30T15:31:08Z</time>
      </trkpt>
      <trkpt lat="47.77107" lon="7.00315">
        <ele>402.703766</ele>
        <time>2022-10-30T15:31:10Z</time>
      </trkpt>
      <trkpt lat="47.77097" lon="7.00322">
        <ele>402.671478</ele>
        <time>2022-10-30T15:31:12Z</time>
      </trkpt>
      <trkpt lat="47.77087" lon="7.00328">
        <ele>402.662354</ele>
        <time>2022-10-30T15:31:14Z</time>
      </trkpt>
      <trkpt lat="47.77077" lon="7.00336">
        <ele>402.65332</ele>
        <time>2022-10-30T15:31:16Z</time>
      </trkpt>
      <trkpt lat="47.77068" lon="7.00344">
        <ele>402.672119</ele>
        <time>2022-10-30T15:31:18Z</time>
      </trkpt>
      <trkpt lat="47.77058" lon="7.00353">
        <ele>402.669983</ele>
        <time>2022-10-30T15:31:20Z</time>
      </trkpt>
      <trkpt lat="47.77049" lon="7.00363">
        <ele>402.626953</ele>
        <time>2022-10-30T15:31:22Z</time>
      </trkpt>
      <trkpt lat="47.77039" lon="7.00372">
        <ele>402.573181</ele>
        <time>2022-10-30T15:31:24Z</time>
      </trkpt>
      <trkpt lat="47.7703" lon="7.0038">
        <ele>402.545258</ele>
        <time>2022-10-30T15:31:26Z</time>
      </trkpt>
      <trkpt lat="47.77021" lon="7.00389">
        <ele>402.527283</ele>
        <time>2022-10-30T15:31:28Z</time>
      </trkpt>
      <trkpt lat="47.77011" lon="7.00398">
        <ele>402.432678</ele>
        <time>2022-10-30T15:31:30Z</time>
      </trkpt>
      <trkpt lat="47.77001" lon="7.00407">
        <ele>402.348816</ele>
        <time>2022-10-30T15:31:32Z</time>
      </trkpt>
      <trkpt lat="47.76991" lon="7.00416">
        <ele>402.23877</ele>
        <time>2022-10-30T15:31:34Z</time>
      </trkpt>
      <trkpt lat="47.76981" lon="7.00425">
        <ele>402.148682</ele>
        <time>2022-10-30T15:31:36Z</time>
      </trkpt>
      <trkpt lat="47.76971" lon="7.00433">
        <ele>402.006775</ele>
        <time>2022-10-30T15:31:38Z</time>
      </trkpt>
      <trkpt lat="47.76962" lon="7.00442">
        <ele>401.967133</ele>
        <time>2022-10-30T15:31:40Z</time>
      </trkpt>
      <trkpt lat="47.76952" lon="7.00451">
        <ele>401.875488</ele>
        <time>2022-10-30T15:31:42Z</time>
      </trkpt>
      <trkpt lat="47.76942" lon="7.0046">
        <ele>401.735504</ele>
        <time>2022-10-30T15:31:44Z</time>
      </trkpt>
      <trkpt lat="47.76931" lon="7.00469">
        <ele>401.603882</ele>
        <time>2022-10-30T15:31:46Z</time>
      </trkpt>
      <trkpt lat="47.76921" lon="7.00479">
        <ele>401.456604</ele>
        <time>2022-10-30T15:31:48Z</time>
      </trkpt>
      <trkpt lat="47.76912" lon="7.00489">
        <ele>401.381348</ele>
        <time>2022-10-30T15:31:50Z</time>
      </trkpt>
      <trkpt lat="47.76903" lon="7.00501">
        <ele>401.250214</ele>
        <time>2022-10-30T15:31:52Z</time>
      </trkpt>
      <trkpt lat="47.76895" lon="7.00513">
        <ele>401.138428</ele>
        <time>2022-10-30T15:31:54Z</time>
      </trkpt>
      <trkpt lat="47.76886" lon="7.00526">
        <ele>400.987976</ele>
        <time>2022-10-30T15:31:56Z</time>
      </trkpt>
      <trkpt lat="47.76878" lon="7.00539">
        <ele>400.900269</ele>
        <time>2022-10-30T15:31:58Z</time>
      </trkpt>
      <trkpt lat="47.76871" lon="7.00553">
        <ele>400.775208</ele>
        <time>2022-10-30T15:32:00Z</time>
      </trkpt>
      <trkpt lat="47.76862" lon="7.00567">
        <ele>400.60199</ele>
        <time>2022-10-30T15:32:02Z</time>
      </trkpt>
      <trkpt lat="47.76854" lon="7.00581">
        <ele>400.445068</ele>
        <time>2022-10-30T15:32:04Z</time>
      </trkpt>
      <trkpt lat="47.76846" lon="7.00596">
        <ele>400.333252</ele>
        <time>2022-10-30T15:32:06Z</time>
      </trkpt>
      <trkpt lat="47.76838" lon="7.0061">
        <ele>400.215027</ele>
        <time>2022-10-30T15:32:08Z</time>
      </trkpt>
      <trkpt lat="47.7683" lon="7.00624">
        <ele>400.065369</ele>
        <time>2022-10-30T15:32:10Z</time>
      </trkpt>
      <trkpt lat="47.76822" lon="7.00638">
        <ele>399.990631</ele>
        <time>2022-10-30T15:32:12Z</time>
      </trkpt>
      <trkpt lat="47.76814" lon="7.00652">
        <ele>399.863831</ele>
        <time>2022-10-30T15:32:14Z</time>
      </trkpt>
      <trkpt lat="47.76806" lon="7.00666">
        <ele>399.756744</ele>
        <time>2022-10-30T15:32:16Z</time>
      </trkpt>
      <trkpt lat="47.76796" lon="7.00678">
        <ele>399.593353</ele>
        <time>2022-10-30T15:32:18Z</time>
      </trkpt>
      <trkpt lat="47.76785" lon="7.00689">
        <ele>399.468689</ele>
        <time>2022-10-30T15:32:20Z</time>
      </trkpt>
      <trkpt lat="47.76774" lon="7.007">
        <ele>399.276611</ele>
        <time>2022-10-30T15:32:22Z</time>
      </trkpt>
      <trkpt lat="47.76762" lon="7.0071">
        <ele>399.147644</ele>
        <time>2022-10-30T15:32:24Z</time>
      </trkpt>
      <trkpt lat="47.7675" lon="7.00718">
        <ele>399.05661</ele>
        <time>2022-10-30T15:32:26Z</time>
      </trkpt>
      <trkpt lat="47.76737" lon="7.00725">
        <ele>398.873352</ele>
        <time>2022-10-30T15:32:28Z</time>
      </trkpt>
      <trkpt lat="47.76723" lon="7.0073">
        <ele>398.705688</ele>
        <time>2022-10-30T15:32:30Z</time>
      </trkpt>
      <trkpt lat="47.76709" lon="7.00733">
        <ele>398.484344</ele>
        <time>2022-10-30T15:32:32Z</time>
      </trkpt>
      <trkpt lat="47.76698" lon="7.00735">
        <ele>398.351105</ele>
        <time>2022-10-30T15:32:34Z</time>
      </trkpt>
      <trkpt lat="47.76684" lon="7.00738">
        <ele>398.155487</ele>
        <time>2022-10-30T15:32:36Z</time>
      </trkpt>
      <trkpt lat="47.76671" lon="7.0074">
        <ele>397.940613</ele>
        <time>2022-10-30T15:32:38Z</time>
      </trkpt>
      <trkpt lat="47.76656" lon="7.00744">
        <ele>397.687378</ele>
        <time>2022-10-30T15:32:40Z</time>
      </trkpt>
      <trkpt lat="47.76642" lon="7.00747">
        <ele>397.450989</ele>
        <time>2022-10-30T15:32:42Z</time>
      </trkpt>
      <trkpt lat="47.76629" lon="7.0075">
        <ele>397.254578</ele>
        <time>2022-10-30T15:32:44Z</time>
      </trkpt>
      <trkpt lat="47.76615" lon="7.00753">
        <ele>397.054657</ele>
        <time>2022-10-30T15:32:46Z</time>
      </trkpt>
      <trkpt lat="47.76602" lon="7.00757">
        <ele>396.805389</ele>
        <time>2022-10-30T15:32:48Z</time>
      </trkpt>
      <trkpt lat="47.7659" lon="7.00762">
        <ele>396.617218</ele>
        <time>2022-10-30T15:32:50Z</time>
      </trkpt>
      <trkpt lat="47.76577" lon="7.00769">
        <ele>396.355103</ele>
        <time>2022-10-30T15:32:52Z</time>
      </trkpt>
      <trkpt lat="47.76565" lon="7.00776">
        <ele>396.107544</ele>
        <time>2022-10-30T15:32:54Z</time>
      </trkpt>
      <trkpt lat="47.76553" lon="7.00783">
        <ele>396.008728</ele>
        <time>2022-10-30T15:32:56Z</time>
      </trkpt>
      <trkpt lat="47.76541" lon="7.0079">
        <ele>395.750885</ele>
        <time>2022-10-30T15:32:58Z</time>
      </trkpt>
      <trkpt lat="47.76529" lon="7.00797">
        <ele>395.57901</ele>
        <time>2022-10-30T15:33:00Z</time>
      </trkpt>
      <trkpt lat="47.76517" lon="7.00804">
        <ele>395.402832</ele>
        <time>2022-10-30T15:33:02Z</time>
      </trkpt>
      <trkpt lat="47.76507" lon="7.00811">
        <ele>395.209473</ele>
        <time>2022-10-30T15:33:04Z</time>
      </trkpt>
      <trkpt lat="47.76495" lon="7.00819">
        <ele>394.971008</ele>
        <time>2022-10-30T15:33:06Z</time>
      </trkpt>
      <trkpt lat="47.76484" lon="7.00825">
        <ele>394.765961</ele>
        <time>2022-10-30T15:33:08Z</time>
      </trkpt>
      <trkpt lat="47.76474" lon="7.00831">
        <ele>394.662842</ele>
        <time>2022-10-30T15:33:10Z</time>
      </trkpt>
      <trkpt lat="47.76462" lon="7.00839">
        <ele>394.475891</ele>
        <time>2022-10-30T15:33:12Z</time>
      </trkpt>
      <trkpt lat="47.76451" lon="7.00846">
        <ele>394.289001</ele>
        <time>2022-10-30T15:33:14Z</time>
      </trkpt>
      <trkpt lat="47.76441" lon="7.00853">
        <ele>394.155792</ele>
        <time>2022-10-30T15:33:16Z</time>
      </trkpt>
      <trkpt lat="47.76432" lon="7.00861">
        <ele>394.078918</ele>
        <time>2022-10-30T15:33:18Z</time>
      </trkpt>
      <trkpt lat="47.76421" lon="7.00869">
        <ele>394.023041</ele>
        <time>2022-10-30T15:33:20Z</time>
      </trkpt>
      <trkpt lat="47.76411" lon="7.00878">
        <ele>393.969055</ele>
        <time>2022-10-30T15:33:22Z</time>
      </trkpt>
      <trkpt lat="47.76399" lon="7.00886">
        <ele>393.94397</ele>
        <time>2022-10-30T15:33:24Z</time>
      </trkpt>
      <trkpt lat="47.76388" lon="7.00895">
        <ele>393.909607</ele>
        <time>2022-10-30T15:33:26Z</time>
      </trkpt>
      <trkpt lat="47.76378" lon="7.00904">
        <ele>393.806458</ele>
        <time>2022-10-30T15:33:28Z</time>
      </trkpt>
      <trkpt lat="47.76368" lon="7.00914">
        <ele>393.795837</ele>
        <time>2022-10-30T15:33:30Z</time>
      </trkpt>
      <trkpt lat="47.76358" lon="7.00923">
        <ele>393.708984</ele>
        <time>2022-10-30T15:33:32Z</time>
      </trkpt>
      <trkpt lat="47.76349" lon="7.00931">
        <ele>393.702545</ele>
        <time>2022-10-30T15:33:34Z</time>
      </trkpt>
      <trkpt lat="47.76338" lon="7.0094">
        <ele>393.683838</ele>
        <time>2022-10-30T15:33:36Z</time>
      </trkpt>
      <trkpt lat="47.76328" lon="7.0095">
        <ele>393.632263</ele>
        <time>2022-10-30T15:33:38Z</time>
      </trkpt>
      <trkpt lat="47.76318" lon="7.00959">
        <ele>393.636108</ele>
        <time>2022-10-30T15:33:40Z</time>
      </trkpt>
      <trkpt lat="47.76307" lon="7.00968">
        <ele>393.601563</ele>
        <time>2022-10-30T15:33:42Z</time>
      </trkpt>
      <trkpt lat="47.76297" lon="7.00978">
        <ele>393.547852</ele>
        <time>2022-10-30T15:33:44Z</time>
      </trkpt>
      <trkpt lat="47.76286" lon="7.00988">
        <ele>393.552155</ele>
        <time>2022-10-30T15:33:46Z</time>
      </trkpt>
      <trkpt lat="47.76275" lon="7.00998">
        <ele>393.533112</ele>
        <time>2022-10-30T15:33:48Z</time>
      </trkpt>
      <trkpt lat="47.76264" lon="7.01008">
        <ele>393.523163</ele>
        <time>2022-10-30T15:33:50Z</time>
      </trkpt>
      <trkpt lat="47.76252" lon="7.01017">
        <ele>393.432983</ele>
        <time>2022-10-30T15:33:52Z</time>
      </trkpt>
      <trkpt lat="47.76242" lon="7.01027">
        <ele>393.372864</ele>
        <time>2022-10-30T15:33:54Z</time>
      </trkpt>
      <trkpt lat="47.76231" lon="7.01036">
        <ele>393.289093</ele>
        <time>2022-10-30T15:33:56Z</time>
      </trkpt>
      <trkpt lat="47.76219" lon="7.01045">
        <ele>393.203156</ele>
        <time>2022-10-30T15:33:58Z</time>
      </trkpt>
      <trkpt lat="47.76206" lon="7.01053">
        <ele>393.083282</ele>
        <time>2022-10-30T15:34:00Z</time>
      </trkpt>
      <trkpt lat="47.76193" lon="7.01061">
        <ele>392.985535</ele>
        <time>2022-10-30T15:34:02Z</time>
      </trkpt>
      <trkpt lat="47.7618" lon="7.01068">
        <ele>392.878296</ele>
        <time>2022-10-30T15:34:04Z</time>
      </trkpt>
      <trkpt lat="47.76167" lon="7.01075">
        <ele>392.737427</ele>
        <time>2022-10-30T15:34:06Z</time>
      </trkpt>
      <trkpt lat="47.76154" lon="7.01082">
        <ele>392.550568</ele>
        <time>2022-10-30T15:34:08Z</time>
      </trkpt>
      <trkpt lat="47.76141" lon="7.01089">
        <ele>392.374451</ele>
        <time>2022-10-30T15:34:10Z</time>
      </trkpt>
      <trkpt lat="47.76128" lon="7.01096">
        <ele>392.281952</ele>
        <time>2022-10-30T15:34:12Z</time>
      </trkpt>
      <trkpt lat="47.76115" lon="7.01102">
        <ele>392.12442</ele>
        <time>2022-10-30T15:34:14Z</time>
      </trkpt>
      <trkpt lat="47.76101" lon="7.01107">
        <ele>391.950439</ele>
        <time>2022-10-30T15:34:16Z</time>
      </trkpt>
      <trkpt lat="47.76088" lon="7.01112">
        <ele>391.735016</ele>
        <time>2022-10-30T15:34:18Z</time>
      </trkpt>
      <trkpt lat="47.76074" lon="7.01115">
        <ele>391.550293</ele>
        <time>2022-10-30T15:34:20Z</time>
      </trkpt>
      <trkpt lat="47.76059" lon="7.01118">
        <ele>391.34671</ele>
        <time>2022-10-30T15:34:22Z</time>
      </trkpt>
      <trkpt lat="47.76046" lon="7.01121">
        <ele>391.117035</ele>
        <time>2022-10-30T15:34:24Z</time>
      </trkpt>
      <trkpt lat="47.76034" lon="7.01124">
        <ele>390.850739</ele>
        <time>2022-10-30T15:34:26Z</time>
      </trkpt>
      <trkpt lat="47.76021" lon="7.01128">
        <ele>390.644562</ele>
        <time>2022-10-30T15:34:28Z</time>
      </trkpt>
      <trkpt lat="47.76008" lon="7.01132">
        <ele>390.397278</ele>
        <time>2022-10-30T15:34:30Z</time>
      </trkpt>
      <trkpt lat="47.75995" lon="7.01139">
        <ele>390.138123</ele>
        <time>2022-10-30T15:34:32Z</time>
      </trkpt>
      <trkpt lat="47.75983" lon="7.01146">
        <ele>389.934113</ele>
        <time>2022-10-30T15:34:34Z</time>
      </trkpt>
      <trkpt lat="47.75971" lon="7.01153">
        <ele>389.730103</ele>
        <time>2022-10-30T15:34:36Z</time>
      </trkpt>
      <trkpt lat="47.75958" lon="7.01161">
        <ele>389.620575</ele>
        <time>2022-10-30T15:34:38Z</time>
      </trkpt>
      <trkpt lat="47.75946" lon="7.01168">
        <ele>389.438049</ele>
        <time>2022-10-30T15:34:40Z</time>
      </trkpt>
      <trkpt lat="47.75934" lon="7.01176">
        <ele>389.248871</ele>
        <time>2022-10-30T15:34:42Z</time>
      </trkpt>
      <trkpt lat="47.75922" lon="7.01185">
        <ele>389.026917</ele>
        <time>2022-10-30T15:34:44Z</time>
      </trkpt>
      <trkpt lat="47.7591" lon="7.01194">
        <ele>388.792023</ele>
        <time>2022-10-30T15:34:46Z</time>
      </trkpt>
      <trkpt lat="47.75898" lon="7.01204">
        <ele>388.603241</ele>
        <time>2022-10-30T15:34:48Z</time>
      </trkpt>
      <trkpt lat="47.75887" lon="7.01214">
        <ele>388.390686</ele>
        <time>2022-10-30T15:34:50Z</time>
      </trkpt>
      <trkpt lat="47.75876" lon="7.01225">
        <ele>388.180237</ele>
        <time>2022-10-30T15:34:52Z</time>
      </trkpt>
      <trkpt lat="47.75866" lon="7.01237">
        <ele>387.972748</ele>
        <time>2022-10-30T15:34:54Z</time>
      </trkpt>
      <trkpt lat="47.75856" lon="7.0125">
        <ele>387.800964</ele>
        <time>2022-10-30T15:34:56Z</time>
      </trkpt>
      <trkpt lat="47.75848" lon="7.01264">
        <ele>387.665405</ele>
        <time>2022-10-30T15:34:58Z</time>
      </trkpt>
      <trkpt lat="47.7584" lon="7.01279">
        <ele>387.504395</ele>
        <time>2022-10-30T15:35:00Z</time>
      </trkpt>
      <trkpt lat="47.75832" lon="7.01295">
        <ele>387.332184</ele>
        <time>2022-10-30T15:35:02Z</time>
      </trkpt>
      <trkpt lat="47.75825" lon="7.01311">
        <ele>387.173309</ele>
        <time>2022-10-30T15:35:04Z</time>
      </trkpt>
      <trkpt lat="47.75818" lon="7.01327">
        <ele>387.05304</ele>
        <time>2022-10-30T15:35:06Z</time>
      </trkpt>
      <trkpt lat="47.75811" lon="7.01343">
        <ele>386.975739</ele>
        <time>2022-10-30T15:35:08Z</time>
      </trkpt>
      <trkpt lat="47.75803" lon="7.0136">
        <ele>386.816589</ele>
        <time>2022-10-30T15:35:10Z</time>
      </trkpt>
      <trkpt lat="47.75796" lon="7.01376">
        <ele>386.664154</ele>
        <time>2022-10-30T15:35:12Z</time>
      </trkpt>
      <trkpt lat="47.75789" lon="7.01392">
        <ele>386.556824</ele>
        <time>2022-10-30T15:35:14Z</time>
      </trkpt>
      <trkpt lat="47.75783" lon="7.01409">
        <ele>386.440918</ele>
        <time>2022-10-30T15:35:16Z</time>
      </trkpt>
      <trkpt lat="47.75778" lon="7.01426">
        <ele>386.299225</ele>
        <time>2022-10-30T15:35:18Z</time>
      </trkpt>
      <trkpt lat="47.75773" lon="7.01445">
        <ele>386.129639</ele>
        <time>2022-10-30T15:35:20Z</time>
      </trkpt>
      <trkpt lat="47.7577" lon="7.01464">
        <ele>385.935699</ele>
        <time>2022-10-30T15:35:22Z</time>
      </trkpt>
      <trkpt lat="47.75766" lon="7.01483">
        <ele>385.781158</ele>
        <time>2022-10-30T15:35:24Z</time>
      </trkpt>
      <trkpt lat="47.75763" lon="7.01502">
        <ele>385.688873</ele>
        <time>2022-10-30T15:35:26Z</time>
      </trkpt>
      <trkpt lat="47.7576" lon="7.01521">
        <ele>385.581543</ele>
        <time>2022-10-30T15:35:28Z</time>
      </trkpt>
      <trkpt lat="47.75756" lon="7.0154">
        <ele>385.455963</ele>
        <time>2022-10-30T15:35:30Z</time>
      </trkpt>
      <trkpt lat="47.75753" lon="7.01558">
        <ele>385.360687</ele>
        <time>2022-10-30T15:35:32Z</time>
      </trkpt>
      <trkpt lat="47.75748" lon="7.01576">
        <ele>385.287689</ele>
        <time>2022-10-30T15:35:34Z</time>
      </trkpt>
      <trkpt lat="47.75744" lon="7.01595">
        <ele>385.171814</ele>
        <time>2022-10-30T15:35:36Z</time>
      </trkpt>
      <trkpt lat="47.75738" lon="7.01613">
        <ele>385.109558</ele>
        <time>2022-10-30T15:35:38Z</time>
      </trkpt>
      <trkpt lat="47.75731" lon="7.01631">
        <ele>384.97348</ele>
        <time>2022-10-30T15:35:40Z</time>
      </trkpt>
      <trkpt lat="47.75724" lon="7.01649">
        <ele>384.878998</ele>
        <time>2022-10-30T15:35:42Z</time>
      </trkpt>
      <trkpt lat="47.75718" lon="7.01668">
        <ele>384.761414</ele>
        <time>2022-10-30T15:35:44Z</time>
      </trkpt>
      <trkpt lat="47.75713" lon="7.01688">
        <ele>384.606873</ele>
        <time>2022-10-30T15:35:46Z</time>
      </trkpt>
      <trkpt lat="47.75708" lon="7.01706">
        <ele>384.536133</ele>
        <time>2022-10-30T15:35:48Z</time>
      </trkpt>
      <trkpt lat="47.75702" lon="7.01724">
        <ele>384.451477</ele>
        <time>2022-10-30T15:35:50Z</time>
      </trkpt>
      <trkpt lat="47.75695" lon="7.01742">
        <ele>384.334381</ele>
        <time>2022-10-30T15:35:52Z</time>
      </trkpt>
      <trkpt lat="47.75689" lon="7.0176">
        <ele>384.19989</ele>
        <time>2022-10-30T15:35:54Z</time>
      </trkpt>
      <trkpt lat="47.75684" lon="7.01778">
        <ele>384.011047</ele>
        <time>2022-10-30T15:35:56Z</time>
      </trkpt>
      <trkpt lat="47.75681" lon="7.01795">
        <ele>383.862976</ele>
        <time>2022-10-30T15:35:58Z</time>
      </trkpt>
      <trkpt lat="47.75679" lon="7.01812">
        <ele>383.701996</ele>
        <time>2022-10-30T15:36:00Z</time>
      </trkpt>
      <trkpt lat="47.75679" lon="7.01828">
        <ele>383.611877</ele>
        <time>2022-10-30T15:36:02Z</time>
      </trkpt>
      <trkpt lat="47.75686" lon="7.01841">
        <ele>383.491669</ele>
        <time>2022-10-30T15:36:04Z</time>
      </trkpt>
      <trkpt lat="47.75695" lon="7.01853">
        <ele>383.369354</ele>
        <time>2022-10-30T15:36:06Z</time>
      </trkpt>
      <trkpt lat="47.75703" lon="7.01869">
        <ele>383.304993</ele>
        <time>2022-10-30T15:36:08Z</time>
      </trkpt>
      <trkpt lat="47.7571" lon="7.01886">
        <ele>383.137756</ele>
        <time>2022-10-30T15:36:10Z</time>
      </trkpt>
      <trkpt lat="47.75717" lon="7.01903">
        <ele>382.916687</ele>
        <time>2022-10-30T15:36:12Z</time>
      </trkpt>
      <trkpt lat="47.75723" lon="7.0192">
        <ele>382.772156</ele>
        <time>2022-10-30T15:36:14Z</time>
      </trkpt>
      <trkpt lat="47.75728" lon="7.01936">
        <ele>382.556213</ele>
        <time>2022-10-30T15:36:16Z</time>
      </trkpt>
      <trkpt lat="47.75735" lon="7.01952">
        <ele>382.40155</ele>
        <time>2022-10-30T15:36:18Z</time>
      </trkpt>
      <trkpt lat="47.75741" lon="7.01968">
        <ele>382.281403</ele>
        <time>2022-10-30T15:36:20Z</time>
      </trkpt>
      <trkpt lat="47.75748" lon="7.01984">
        <ele>382.132385</ele>
        <time>2022-10-30T15:36:22Z</time>
      </trkpt>
      <trkpt lat="47.75754" lon="7.01999">
        <ele>381.972168</ele>
        <time>2022-10-30T15:36:24Z</time>
      </trkpt>
      <trkpt lat="47.75759" lon="7.02012">
        <ele>381.877747</ele>
        <time>2022-10-30T15:36:26Z</time>
      </trkpt>
      <trkpt lat="47.75763" lon="7.02024">
        <ele>381.742584</ele>
        <time>2022-10-30T15:36:28Z</time>
      </trkpt>
      <trkpt lat="47.75768" lon="7.02038">
        <ele>381.581635</ele>
        <time>2022-10-30T15:36:30Z</time>
      </trkpt>
      <trkpt lat="47.75772" lon="7.02052">
        <ele>381.40451</ele>
        <time>2022-10-30T15:36:32Z</time>
      </trkpt>
      <trkpt lat="47.75775" lon="7.02067">
        <ele>381.256012</ele>
        <time>2022-10-30T15:36:34Z</time>
      </trkpt>
      <trkpt lat="47.75778" lon="7.02082">
        <ele>381.168945</ele>
        <time>2022-10-30T15:36:36Z</time>
      </trkpt>
      <trkpt lat="47.7578" lon="7.02097">
        <ele>381.083099</ele>
        <time>2022-10-30T15:36:38Z</time>
      </trkpt>
      <trkpt lat="47.75781" lon="7.02112">
        <ele>381.010162</ele>
        <time>2022-10-30T15:36:40Z</time>
      </trkpt>
      <trkpt lat="47.75782" lon="7.02127">
        <ele>380.924316</ele>
        <time>2022-10-30T15:36:42Z</time>
      </trkpt>
      <trkpt lat="47.75783" lon="7.02143">
        <ele>380.825623</ele>
        <time>2022-10-30T15:36:44Z</time>
      </trkpt>
      <trkpt lat="47.75783" lon="7.02159">
        <ele>380.755524</ele>
        <time>2022-10-30T15:36:46Z</time>
      </trkpt>
      <trkpt lat="47.75783" lon="7.02174">
        <ele>380.70401</ele>
        <time>2022-10-30T15:36:48Z</time>
      </trkpt>
      <trkpt lat="47.75782" lon="7.0219">
        <ele>380.654663</ele>
        <time>2022-10-30T15:36:50Z</time>
      </trkpt>
      <trkpt lat="47.75781" lon="7.02207">
        <ele>380.58728</ele>
        <time>2022-10-30T15:36:52Z</time>
      </trkpt>
      <trkpt lat="47.75779" lon="7.02223">
        <ele>380.555115</ele>
        <time>2022-10-30T15:36:54Z</time>
      </trkpt>
      <trkpt lat="47.75776" lon="7.02239">
        <ele>380.500092</ele>
        <time>2022-10-30T15:36:56Z</time>
      </trkpt>
      <trkpt lat="47.75774" lon="7.02255">
        <ele>380.440002</ele>
        <time>2022-10-30T15:36:58Z</time>
      </trkpt>
      <trkpt lat="47.75771" lon="7.02272">
        <ele>380.416321</ele>
        <time>2022-10-30T15:37:00Z</time>
      </trkpt>
      <trkpt lat="47.75769" lon="7.02289">
        <ele>380.351959</ele>
        <time>2022-10-30T15:37:02Z</time>
      </trkpt>
      <trkpt lat="47.75766" lon="7.02305">
        <ele>380.296906</ele>
        <time>2022-10-30T15:37:04Z</time>
      </trkpt>
      <trkpt lat="47.75763" lon="7.02321">
        <ele>380.243103</ele>
        <time>2022-10-30T15:37:06Z</time>
      </trkpt>
      <trkpt lat="47.75761" lon="7.02337">
        <ele>380.206635</ele>
        <time>2022-10-30T15:37:08Z</time>
      </trkpt>
      <trkpt lat="47.7576" lon="7.02353">
        <ele>380.200867</ele>
        <time>2022-10-30T15:37:10Z</time>
      </trkpt>
      <trkpt lat="47.7576" lon="7.0237">
        <ele>380.177277</ele>
        <time>2022-10-30T15:37:12Z</time>
      </trkpt>
      <trkpt lat="47.75761" lon="7.02387">
        <ele>380.147247</ele>
        <time>2022-10-30T15:37:14Z</time>
      </trkpt>
      <trkpt lat="47.75762" lon="7.02405">
        <ele>380.103943</ele>
        <time>2022-10-30T15:37:16Z</time>
      </trkpt>
      <trkpt lat="47.75764" lon="7.02422">
        <ele>380.018616</ele>
        <time>2022-10-30T15:37:18Z</time>
      </trkpt>
      <trkpt lat="47.75766" lon="7.02439">
        <ele>379.934967</ele>
        <time>2022-10-30T15:37:20Z</time>
      </trkpt>
      <trkpt lat="47.75769" lon="7.02456">
        <ele>379.849182</ele>
        <time>2022-10-30T15:37:22Z</time>
      </trkpt>
      <trkpt lat="47.75773" lon="7.02473">
        <ele>379.776428</ele>
        <time>2022-10-30T15:37:24Z</time>
      </trkpt>
      <trkpt lat="47.75777" lon="7.0249">
        <ele>379.626282</ele>
        <time>2022-10-30T15:37:26Z</time>
      </trkpt>
      <trkpt lat="47.7578" lon="7.02507">
        <ele>379.464722</ele>
        <time>2022-10-30T15:37:28Z</time>
      </trkpt>
      <trkpt lat="47.75784" lon="7.02524">
        <ele>379.340302</ele>
        <time>2022-10-30T15:37:30Z</time>
      </trkpt>
      <trkpt lat="47.75787" lon="7.02541">
        <ele>379.232635</ele>
        <time>2022-10-30T15:37:32Z</time>
      </trkpt>
      <trkpt lat="47.75791" lon="7.02556">
        <ele>379.157532</ele>
        <time>2022-10-30T15:37:34Z</time>
      </trkpt>
      <trkpt lat="47.75795" lon="7.02571">
        <ele>379.073914</ele>
        <time>2022-10-30T15:37:36Z</time>
      </trkpt>
      <trkpt lat="47.75798" lon="7.02587">
        <ele>378.990204</ele>
        <time>2022-10-30T15:37:38Z</time>
      </trkpt>
      <trkpt lat="47.75802" lon="7.02604">
        <ele>378.889435</ele>
        <time>2022-10-30T15:37:40Z</time>
      </trkpt>
      <trkpt lat="47.75806" lon="7.0262">
        <ele>378.747192</ele>
        <time>2022-10-30T15:37:42Z</time>
      </trkpt>
      <trkpt lat="47.7581" lon="7.02636">
        <ele>378.682831</ele>
        <time>2022-10-30T15:37:44Z</time>
      </trkpt>
      <trkpt lat="47.75814" lon="7.02652">
        <ele>378.609192</ele>
        <time>2022-10-30T15:37:46Z</time>
      </trkpt>
      <trkpt lat="47.75817" lon="7.02668">
        <ele>378.533508</ele>
        <time>2022-10-30T15:37:48Z</time>
      </trkpt>
      <trkpt lat="47.75821" lon="7.02684">
        <ele>378.466187</ele>
        <time>2022-10-30T15:37:50Z</time>
      </trkpt>
      <trkpt lat="47.75825" lon="7.02701">
        <ele>378.387268</ele>
        <time>2022-10-30T15:37:52Z</time>
      </trkpt>
      <trkpt lat="47.75828" lon="7.02717">
        <ele>378.293549</ele>
        <time>2022-10-30T15:37:54Z</time>
      </trkpt>
      <trkpt lat="47.75832" lon="7.02733">
        <ele>378.220642</ele>
        <time>2022-10-30T15:37:56Z</time>
      </trkpt>
      <trkpt lat="47.75834" lon="7.02749">
        <ele>378.126312</ele>
        <time>2022-10-30T15:37:58Z</time>
      </trkpt>
      <trkpt lat="47.75835" lon="7.02766">
        <ele>378.025543</ele>
        <time>2022-10-30T15:38:00Z</time>
      </trkpt>
      <trkpt lat="47.75836" lon="7.02782">
        <ele>377.955139</ele>
        <time>2022-10-30T15:38:02Z</time>
      </trkpt>
      <trkpt lat="47.75835" lon="7.028">
        <ele>377.882233</ele>
        <time>2022-10-30T15:38:04Z</time>
      </trkpt>
      <trkpt lat="47.75834" lon="7.02817">
        <ele>377.809082</ele>
        <time>2022-10-30T15:38:06Z</time>
      </trkpt>
      <trkpt lat="47.75832" lon="7.02835">
        <ele>377.768311</ele>
        <time>2022-10-30T15:38:08Z</time>
      </trkpt>
      <trkpt lat="47.7583" lon="7.02853">
        <ele>377.761871</ele>
        <time>2022-10-30T15:38:10Z</time>
      </trkpt>
      <trkpt lat="47.75828" lon="7.02871">
        <ele>377.682526</ele>
        <time>2022-10-30T15:38:12Z</time>
      </trkpt>
      <trkpt lat="47.75825" lon="7.02888">
        <ele>377.610687</ele>
        <time>2022-10-30T15:38:14Z</time>
      </trkpt>
      <trkpt lat="47.75822" lon="7.02907">
        <ele>377.543945</ele>
        <time>2022-10-30T15:38:16Z</time>
      </trkpt>
      <trkpt lat="47.7582" lon="7.02925">
        <ele>377.425964</ele>
        <time>2022-10-30T15:38:18Z</time>
      </trkpt>
      <trkpt lat="47.75817" lon="7.02944">
        <ele>377.28656</ele>
        <time>2022-10-30T15:38:20Z</time>
      </trkpt>
      <trkpt lat="47.75814" lon="7.02962">
        <ele>377.273682</ele>
        <time>2022-10-30T15:38:22Z</time>
      </trkpt>
      <trkpt lat="47.75811" lon="7.0298">
        <ele>377.190857</ele>
        <time>2022-10-30T15:38:24Z</time>
      </trkpt>
      <trkpt lat="47.75809" lon="7.02998">
        <ele>377.034332</ele>
        <time>2022-10-30T15:38:26Z</time>
      </trkpt>
      <trkpt lat="47.75806" lon="7.03015">
        <ele>376.916351</ele>
        <time>2022-10-30T15:38:28Z</time>
      </trkpt>
      <trkpt lat="47.75803" lon="7.03032">
        <ele>376.776947</ele>
        <time>2022-10-30T15:38:30Z</time>
      </trkpt>
      <trkpt lat="47.75797" lon="7.03049">
        <ele>376.629791</ele>
        <time>2022-10-30T15:38:32Z</time>
      </trkpt>
      <trkpt lat="47.75792" lon="7.03066">
        <ele>376.485016</ele>
        <time>2022-10-30T15:38:34Z</time>
      </trkpt>
      <trkpt lat="47.75787" lon="7.03083">
        <ele>376.344879</ele>
        <time>2022-10-30T15:38:36Z</time>
      </trkpt>
      <trkpt lat="47.75781" lon="7.031">
        <ele>376.203369</ele>
        <time>2022-10-30T15:38:38Z</time>
      </trkpt>
      <trkpt lat="47.75775" lon="7.03116">
        <ele>376.096619</ele>
        <time>2022-10-30T15:38:40Z</time>
      </trkpt>
      <trkpt lat="47.75769" lon="7.03131">
        <ele>375.959381</ele>
        <time>2022-10-30T15:38:42Z</time>
      </trkpt>
      <trkpt lat="47.75763" lon="7.03148">
        <ele>375.795959</ele>
        <time>2022-10-30T15:38:44Z</time>
      </trkpt>
      <trkpt lat="47.75759" lon="7.03165">
        <ele>375.710175</ele>
        <time>2022-10-30T15:38:46Z</time>
      </trkpt>
      <trkpt lat="47.75754" lon="7.03181">
        <ele>375.565826</ele>
        <time>2022-10-30T15:38:48Z</time>
      </trkpt>
      <trkpt lat="47.75751" lon="7.03197">
        <ele>375.42215</ele>
        <time>2022-10-30T15:38:50Z</time>
      </trkpt>
      <trkpt lat="47.75748" lon="7.03214">
        <ele>375.282745</ele>
        <time>2022-10-30T15:38:52Z</time>
      </trkpt>
      <trkpt lat="47.75745" lon="7.0323">
        <ele>375.124054</ele>
        <time>2022-10-30T15:38:54Z</time>
      </trkpt>
      <trkpt lat="47.75743" lon="7.03246">
        <ele>374.984711</ele>
        <time>2022-10-30T15:38:56Z</time>
      </trkpt>
      <trkpt lat="47.7574" lon="7.03263">
        <ele>374.847748</ele>
        <time>2022-10-30T15:38:58Z</time>
      </trkpt>
      <trkpt lat="47.75738" lon="7.03279">
        <ele>374.753387</ele>
        <time>2022-10-30T15:39:00Z</time>
      </trkpt>
      <trkpt lat="47.75736" lon="7.03295">
        <ele>374.648315</ele>
        <time>2022-10-30T15:39:02Z</time>
      </trkpt>
      <trkpt lat="47.75734" lon="7.03311">
        <ele>374.446747</ele>
        <time>2022-10-30T15:39:04Z</time>
      </trkpt>
      <trkpt lat="47.75732" lon="7.03327">
        <ele>374.393555</ele>
        <time>2022-10-30T15:39:06Z</time>
      </trkpt>
      <trkpt lat="47.7573" lon="7.03344">
        <ele>374.314209</ele>
        <time>2022-10-30T15:39:08Z</time>
      </trkpt>
      <trkpt lat="47.75728" lon="7.03362">
        <ele>374.205963</ele>
        <time>2022-10-30T15:39:10Z</time>
      </trkpt>
      <trkpt lat="47.75726" lon="7.03379">
        <ele>374.070862</ele>
        <time>2022-10-30T15:39:12Z</time>
      </trkpt>
      <trkpt lat="47.75724" lon="7.03397">
        <ele>373.929382</ele>
        <time>2022-10-30T15:39:14Z</time>
      </trkpt>
      <trkpt lat="47.75722" lon="7.03414">
        <ele>373.820038</ele>
        <time>2022-10-30T15:39:16Z</time>
      </trkpt>
      <trkpt lat="47.75721" lon="7.03432">
        <ele>373.708557</ele>
        <time>2022-10-30T15:39:18Z</time>
      </trkpt>
      <trkpt lat="47.75721" lon="7.0345">
        <ele>373.57782</ele>
        <time>2022-10-30T15:39:20Z</time>
      </trkpt>
      <trkpt lat="47.75723" lon="7.03468">
        <ele>373.457245</ele>
        <time>2022-10-30T15:39:22Z</time>
      </trkpt>
      <trkpt lat="47.75724" lon="7.03486">
        <ele>373.365051</ele>
        <time>2022-10-30T15:39:24Z</time>
      </trkpt>
      <trkpt lat="47.75727" lon="7.03504">
        <ele>373.286804</ele>
        <time>2022-10-30T15:39:26Z</time>
      </trkpt>
      <trkpt lat="47.75729" lon="7.03523">
        <ele>373.213928</ele>
        <time>2022-10-30T15:39:28Z</time>
      </trkpt>
      <trkpt lat="47.75732" lon="7.03541">
        <ele>373.060272</ele>
        <time>2022-10-30T15:39:30Z</time>
      </trkpt>
      <trkpt lat="47.75735" lon="7.03559">
        <ele>372.893036</ele>
        <time>2022-10-30T15:39:32Z</time>
      </trkpt>
      <trkpt lat="47.75737" lon="7.03577">
        <ele>372.771637</ele>
        <time>2022-10-30T15:39:34Z</time>
      </trkpt>
      <trkpt lat="47.7574" lon="7.03594">
        <ele>372.632263</ele>
        <time>2022-10-30T15:39:36Z</time>
      </trkpt>
      <trkpt lat="47.75743" lon="7.03611">
        <ele>372.458588</ele>
        <time>2022-10-30T15:39:38Z</time>
      </trkpt>
      <trkpt lat="47.75745" lon="7.03628">
        <ele>372.276398</ele>
        <time>2022-10-30T15:39:40Z</time>
      </trkpt>
      <trkpt lat="47.75748" lon="7.03645">
        <ele>372.077026</ele>
        <time>2022-10-30T15:39:42Z</time>
      </trkpt>
      <trkpt lat="47.7575" lon="7.03662">
        <ele>371.922668</ele>
        <time>2022-10-30T15:39:44Z</time>
      </trkpt>
      <trkpt lat="47.75753" lon="7.03679">
        <ele>371.858307</ele>
        <time>2022-10-30T15:39:46Z</time>
      </trkpt>
      <trkpt lat="47.75755" lon="7.03696">
        <ele>371.692841</ele>
        <time>2022-10-30T15:39:48Z</time>
      </trkpt>
      <trkpt lat="47.75758" lon="7.03713">
        <ele>371.506714</ele>
        <time>2022-10-30T15:39:50Z</time>
      </trkpt>
      <trkpt lat="47.7576" lon="7.0373">
        <ele>371.327667</ele>
        <time>2022-10-30T15:39:52Z</time>
      </trkpt>
      <trkpt lat="47.75763" lon="7.03748">
        <ele>371.171204</ele>
        <time>2022-10-30T15:39:54Z</time>
      </trkpt>
      <trkpt lat="47.75766" lon="7.03765">
        <ele>371.042542</ele>
        <time>2022-10-30T15:39:56Z</time>
      </trkpt>
      <trkpt lat="47.75768" lon="7.03782">
        <ele>370.905548</ele>
        <time>2022-10-30T15:39:58Z</time>
      </trkpt>
      <trkpt lat="47.75771" lon="7.038">
        <ele>370.731903</ele>
        <time>2022-10-30T15:40:00Z</time>
      </trkpt>
      <trkpt lat="47.75772" lon="7.03817">
        <ele>370.633362</ele>
        <time>2022-10-30T15:40:02Z</time>
      </trkpt>
      <trkpt lat="47.75774" lon="7.03834">
        <ele>370.49353</ele>
        <time>2022-10-30T15:40:04Z</time>
      </trkpt>
      <trkpt lat="47.75775" lon="7.03851">
        <ele>370.364929</ele>
        <time>2022-10-30T15:40:06Z</time>
      </trkpt>
      <trkpt lat="47.75775" lon="7.03868">
        <ele>370.205261</ele>
        <time>2022-10-30T15:40:08Z</time>
      </trkpt>
      <trkpt lat="47.75774" lon="7.03885">
        <ele>370.16452</ele>
        <time>2022-10-30T15:40:10Z</time>
      </trkpt>
      <trkpt lat="47.75773" lon="7.03901">
        <ele>370.130219</ele>
        <time>2022-10-30T15:40:12Z</time>
      </trkpt>
      <trkpt lat="47.75769" lon="7.03915">
        <ele>370.091553</ele>
        <time>2022-10-30T15:40:14Z</time>
      </trkpt>
      <trkpt lat="47.75766" lon="7.03928">
        <ele>369.9729</ele>
        <time>2022-10-30T15:40:16Z</time>
      </trkpt>
      <trkpt lat="47.75763" lon="7.03939">
        <ele>369.957886</ele>
        <time>2022-10-30T15:40:18Z</time>
      </trkpt>
      <trkpt lat="47.7576" lon="7.03951">
        <ele>369.92453</ele>
        <time>2022-10-30T15:40:20Z</time>
      </trkpt>
      <trkpt lat="47.75756" lon="7.03963">
        <ele>369.911682</ele>
        <time>2022-10-30T15:40:22Z</time>
      </trkpt>
      <trkpt lat="47.75753" lon="7.03977">
        <ele>369.879486</ele>
        <time>2022-10-30T15:40:24Z</time>
      </trkpt>
      <trkpt lat="47.75748" lon="7.03991">
        <ele>369.905212</ele>
        <time>2022-10-30T15:40:26Z</time>
      </trkpt>
      <trkpt lat="47.75745" lon="7.04005">
        <ele>369.853821</ele>
        <time>2022-10-30T15:40:28Z</time>
      </trkpt>
      <trkpt lat="47.75741" lon="7.04021">
        <ele>369.840607</ele>
        <time>2022-10-30T15:40:30Z</time>
      </trkpt>
      <trkpt lat="47.75737" lon="7.04036">
        <ele>369.872528</ele>
        <time>2022-10-30T15:40:32Z</time>
      </trkpt>
      <trkpt lat="47.75734" lon="7.04051">
        <ele>369.844666</ele>
        <time>2022-10-30T15:40:34Z</time>
      </trkpt>
      <trkpt lat="47.7573" lon="7.04065">
        <ele>369.793243</ele>
        <time>2022-10-30T15:40:36Z</time>
      </trkpt>
      <trkpt lat="47.75726" lon="7.0408">
        <ele>369.778229</ele>
        <time>2022-10-30T15:40:38Z</time>
      </trkpt>
      <trkpt lat="47.75722" lon="7.04094">
        <ele>369.742889</ele>
        <time>2022-10-30T15:40:40Z</time>
      </trkpt>
      <trkpt lat="47.75718" lon="7.04109">
        <ele>369.739716</ele>
        <time>2022-10-30T15:40:42Z</time>
      </trkpt>
      <trkpt lat="47.75714" lon="7.04125">
        <ele>369.747589</ele>
        <time>2022-10-30T15:40:44Z</time>
      </trkpt>
      <trkpt lat="47.7571" lon="7.0414">
        <ele>369.737732</ele>
        <time>2022-10-30T15:40:46Z</time>
      </trkpt>
      <trkpt lat="47.75705" lon="7.04155">
        <ele>369.729156</ele>
        <time>2022-10-30T15:40:48Z</time>
      </trkpt>
      <trkpt lat="47.757" lon="7.0417">
        <ele>369.756653</ele>
        <time>2022-10-30T15:40:50Z</time>
      </trkpt>
      <trkpt lat="47.75695" lon="7.04185">
        <ele>369.756653</ele>
        <time>2022-10-30T15:40:52Z</time>
      </trkpt>
      <trkpt lat="47.75689" lon="7.042">
        <ele>369.726746</ele>
        <time>2022-10-30T15:40:54Z</time>
      </trkpt>
      <trkpt lat="47.75684" lon="7.04214">
        <ele>369.694672</ele>
        <time>2022-10-30T15:40:56Z</time>
      </trkpt>
      <trkpt lat="47.75678" lon="7.04229">
        <ele>369.647522</ele>
        <time>2022-10-30T15:40:58Z</time>
      </trkpt>
      <trkpt lat="47.75672" lon="7.04243">
        <ele>369.603943</ele>
        <time>2022-10-30T15:41:00Z</time>
      </trkpt>
      <trkpt lat="47.75667" lon="7.04256">
        <ele>369.600861</ele>
        <time>2022-10-30T15:41:02Z</time>
      </trkpt>
      <trkpt lat="47.75661" lon="7.0427">
        <ele>369.554932</ele>
        <time>2022-10-30T15:41:04Z</time>
      </trkpt>
      <trkpt lat="47.75655" lon="7.04285">
        <ele>369.528992</ele>
        <time>2022-10-30T15:41:06Z</time>
      </trkpt>
      <trkpt lat="47.7565" lon="7.04299">
        <ele>369.491852</ele>
        <time>2022-10-30T15:41:08Z</time>
      </trkpt>
      <trkpt lat="47.75645" lon="7.04312">
        <ele>369.470398</ele>
        <time>2022-10-30T15:41:10Z</time>
      </trkpt>
      <trkpt lat="47.75639" lon="7.04325">
        <ele>369.436218</ele>
        <time>2022-10-30T15:41:12Z</time>
      </trkpt>
      <trkpt lat="47.75634" lon="7.04338">
        <ele>369.414795</ele>
        <time>2022-10-30T15:41:14Z</time>
      </trkpt>
      <trkpt lat="47.7563" lon="7.0435">
        <ele>369.355011</ele>
        <time>2022-10-30T15:41:16Z</time>
      </trkpt>
      <trkpt lat="47.75625" lon="7.04362">
        <ele>369.367859</ele>
        <time>2022-10-30T15:41:18Z</time>
      </trkpt>
      <trkpt lat="47.75621" lon="7.04374">
        <ele>369.355011</ele>
        <time>2022-10-30T15:41:20Z</time>
      </trkpt>
      <trkpt lat="47.75616" lon="7.04387">
        <ele>369.332703</ele>
        <time>2022-10-30T15:41:22Z</time>
      </trkpt>
      <trkpt lat="47.75611" lon="7.04399">
        <ele>369.349579</ele>
        <time>2022-10-30T15:41:24Z</time>
      </trkpt>
      <trkpt lat="47.75606" lon="7.04412">
        <ele>369.32666</ele>
        <time>2022-10-30T15:41:26Z</time>
      </trkpt>
      <trkpt lat="47.75601" lon="7.04425">
        <ele>369.289856</ele>
        <time>2022-10-30T15:41:28Z</time>
      </trkpt>
      <trkpt lat="47.75596" lon="7.04438">
        <ele>369.268402</ele>
        <time>2022-10-30T15:41:30Z</time>
      </trkpt>
      <trkpt lat="47.7559" lon="7.04451">
        <ele>369.270874</ele>
        <time>2022-10-30T15:41:32Z</time>
      </trkpt>
      <trkpt lat="47.75585" lon="7.04465">
        <ele>369.219788</ele>
        <time>2022-10-30T15:41:34Z</time>
      </trkpt>
      <trkpt lat="47.7558" lon="7.04479">
        <ele>369.200378</ele>
        <time>2022-10-30T15:41:36Z</time>
      </trkpt>
      <trkpt lat="47.75574" lon="7.04493">
        <ele>369.206848</ele>
        <time>2022-10-30T15:41:38Z</time>
      </trkpt>
      <trkpt lat="47.75569" lon="7.04507">
        <ele>369.232056</ele>
        <time>2022-10-30T15:41:40Z</time>
      </trkpt>
      <trkpt lat="47.75563" lon="7.0452">
        <ele>369.202759</ele>
        <time>2022-10-30T15:41:42Z</time>
      </trkpt>
      <trkpt lat="47.75558" lon="7.04534">
        <ele>369.153473</ele>
        <time>2022-10-30T15:41:44Z</time>
      </trkpt>
      <trkpt lat="47.75553" lon="7.04548">
        <ele>369.160828</ele>
        <time>2022-10-30T15:41:46Z</time>
      </trkpt>
      <trkpt lat="47.75547" lon="7.04562">
        <ele>369.182526</ele>
        <time>2022-10-30T15:41:48Z</time>
      </trkpt>
      <trkpt lat="47.75542" lon="7.04576">
        <ele>369.133942</ele>
        <time>2022-10-30T15:41:50Z</time>
      </trkpt>
      <trkpt lat="47.75537" lon="7.0459">
        <ele>369.114655</ele>
        <time>2022-10-30T15:41:52Z</time>
      </trkpt>
      <trkpt lat="47.75532" lon="7.04603">
        <ele>369.127502</ele>
        <time>2022-10-30T15:41:54Z</time>
      </trkpt>
      <trkpt lat="47.75527" lon="7.04617">
        <ele>369.138123</ele>
        <time>2022-10-30T15:41:56Z</time>
      </trkpt>
      <trkpt lat="47.75522" lon="7.0463">
        <ele>369.161682</ele>
        <time>2022-10-30T15:41:58Z</time>
      </trkpt>
      <trkpt lat="47.75517" lon="7.04643">
        <ele>369.138123</ele>
        <time>2022-10-30T15:42:00Z</time>
      </trkpt>
      <trkpt lat="47.75512" lon="7.04656">
        <ele>369.140289</ele>
        <time>2022-10-30T15:42:02Z</time>
      </trkpt>
      <trkpt lat="47.75507" lon="7.0467">
        <ele>369.131287</ele>
        <time>2022-10-30T15:42:04Z</time>
      </trkpt>
      <trkpt lat="47.75502" lon="7.04683">
        <ele>369.091919</ele>
        <time>2022-10-30T15:42:06Z</time>
      </trkpt>
      <trkpt lat="47.75497" lon="7.04698">
        <ele>369.029785</ele>
        <time>2022-10-30T15:42:08Z</time>
      </trkpt>
      <trkpt lat="47.75491" lon="7.04711">
        <ele>368.993347</ele>
        <time>2022-10-30T15:42:10Z</time>
      </trkpt>
      <trkpt lat="47.75486" lon="7.04725">
        <ele>368.995514</ele>
        <time>2022-10-30T15:42:12Z</time>
      </trkpt>
      <trkpt lat="47.75481" lon="7.04738">
        <ele>368.990906</ele>
        <time>2022-10-30T15:42:14Z</time>
      </trkpt>
      <trkpt lat="47.75477" lon="7.04749">
        <ele>369.00708</ele>
        <time>2022-10-30T15:42:16Z</time>
      </trkpt>
      <trkpt lat="47.75472" lon="7.0476">
        <ele>368.977081</ele>
        <time>2022-10-30T15:42:18Z</time>
      </trkpt>
      <trkpt lat="47.75467" lon="7.04771">
        <ele>368.934235</ele>
        <time>2022-10-30T15:42:20Z</time>
      </trkpt>
      <trkpt lat="47.75462" lon="7.04784">
        <ele>368.943298</ele>
        <time>2022-10-30T15:42:22Z</time>
      </trkpt>
      <trkpt lat="47.75457" lon="7.04796">
        <ele>368.954773</ele>
        <time>2022-10-30T15:42:24Z</time>
      </trkpt>
      <trkpt lat="47.75453" lon="7.04809">
        <ele>368.959045</ele>
        <time>2022-10-30T15:42:26Z</time>
      </trkpt>
      <trkpt lat="47.75448" lon="7.04821">
        <ele>368.944031</ele>
        <time>2022-10-30T15:42:28Z</time>
      </trkpt>
      <trkpt lat="47.75443" lon="7.04834">
        <ele>368.959045</ele>
        <time>2022-10-30T15:42:30Z</time>
      </trkpt>
      <trkpt lat="47.75438" lon="7.04847">
        <ele>369.010468</ele>
        <time>2022-10-30T15:42:32Z</time>
      </trkpt>
      <trkpt lat="47.75433" lon="7.04861">
        <ele>369.011169</ele>
        <time>2022-10-30T15:42:34Z</time>
      </trkpt>
      <trkpt lat="47.75428" lon="7.04874">
        <ele>369.023499</ele>
        <time>2022-10-30T15:42:36Z</time>
      </trkpt>
      <trkpt lat="47.75423" lon="7.04888">
        <ele>368.992004</ele>
        <time>2022-10-30T15:42:38Z</time>
      </trkpt>
      <trkpt lat="47.75418" lon="7.04901">
        <ele>369.0177</ele>
        <time>2022-10-30T15:42:40Z</time>
      </trkpt>
      <trkpt lat="47.75412" lon="7.04915">
        <ele>369.053619</ele>
        <time>2022-10-30T15:42:42Z</time>
      </trkpt>
      <trkpt lat="47.75407" lon="7.04929">
        <ele>369.092194</ele>
        <time>2022-10-30T15:42:44Z</time>
      </trkpt>
      <trkpt lat="47.75402" lon="7.04943">
        <ele>369.15448</ele>
        <time>2022-10-30T15:42:46Z</time>
      </trkpt>
      <trkpt lat="47.75396" lon="7.04956">
        <ele>369.196472</ele>
        <time>2022-10-30T15:42:48Z</time>
      </trkpt>
      <trkpt lat="47.75391" lon="7.0497">
        <ele>369.272888</ele>
        <time>2022-10-30T15:42:50Z</time>
      </trkpt>
      <trkpt lat="47.75386" lon="7.04984">
        <ele>369.35437</ele>
        <time>2022-10-30T15:42:52Z</time>
      </trkpt>
      <trkpt lat="47.75381" lon="7.04998">
        <ele>369.405823</ele>
        <time>2022-10-30T15:42:54Z</time>
      </trkpt>
      <trkpt lat="47.75377" lon="7.05011">
        <ele>369.405823</ele>
        <time>2022-10-30T15:42:56Z</time>
      </trkpt>
      <trkpt lat="47.75372" lon="7.05022">
        <ele>369.457916</ele>
        <time>2022-10-30T15:42:58Z</time>
      </trkpt>
      <trkpt lat="47.75369" lon="7.0503">
        <ele>369.470764</ele>
        <time>2022-10-30T15:43:00Z</time>
      </trkpt>
      <trkpt lat="47.75369" lon="7.05036">
        <ele>369.545959</ele>
        <time>2022-10-30T15:43:02Z</time>
      </trkpt>
      <trkpt lat="47.75371" lon="7.05043">
        <ele>369.569519</ele>
        <time>2022-10-30T15:43:04Z</time>
      </trkpt>
      <trkpt lat="47.75372" lon="7.05052">
        <ele>369.613464</ele>
        <time>2022-10-30T15:43:06Z</time>
      </trkpt>
      <trkpt lat="47.7537" lon="7.05058">
        <ele>369.67865</ele>
        <time>2022-10-30T15:43:08Z</time>
      </trkpt>
      <trkpt lat="47.75367" lon="7.05063">
        <ele>369.755829</ele>
        <time>2022-10-30T15:43:10Z</time>
      </trkpt>
      <trkpt lat="47.75365" lon="7.05069">
        <ele>369.832977</ele>
        <time>2022-10-30T15:43:12Z</time>
      </trkpt>
      <trkpt lat="47.75361" lon="7.05076">
        <ele>369.88443</ele>
        <time>2022-10-30T15:43:14Z</time>
      </trkpt>
      <trkpt lat="47.75356" lon="7.05085">
        <ele>369.954437</ele>
        <time>2022-10-30T15:43:16Z</time>
      </trkpt>
      <trkpt lat="47.75352" lon="7.05096">
        <ele>370.051422</ele>
        <time>2022-10-30T15:43:18Z</time>
      </trkpt>
      <trkpt lat="47.75348" lon="7.05109">
        <ele>370.173065</ele>
        <time>2022-10-30T15:43:20Z</time>
      </trkpt>
      <trkpt lat="47.75344" lon="7.05122">
        <ele>370.198792</ele>
        <time>2022-10-30T15:43:22Z</time>
      </trkpt>
      <trkpt lat="47.75341" lon="7.05135">
        <ele>370.265869</ele>
        <time>2022-10-30T15:43:24Z</time>
      </trkpt>
      <trkpt lat="47.75338" lon="7.05148">
        <ele>370.329895</ele>
        <time>2022-10-30T15:43:26Z</time>
      </trkpt>
      <trkpt lat="47.75335" lon="7.05162">
        <ele>370.368164</ele>
        <time>2022-10-30T15:43:28Z</time>
      </trkpt>
      <trkpt lat="47.75332" lon="7.05176">
        <ele>370.390991</ele>
        <time>2022-10-30T15:43:30Z</time>
      </trkpt>
      <trkpt lat="47.75328" lon="7.0519">
        <ele>370.464417</ele>
        <time>2022-10-30T15:43:32Z</time>
      </trkpt>
      <trkpt lat="47.75325" lon="7.05206">
        <ele>370.505096</ele>
        <time>2022-10-30T15:43:34Z</time>
      </trkpt>
      <trkpt lat="47.75321" lon="7.05222">
        <ele>370.494415</ele>
        <time>2022-10-30T15:43:36Z</time>
      </trkpt>
      <trkpt lat="47.75318" lon="7.05238">
        <ele>370.520111</ele>
        <time>2022-10-30T15:43:38Z</time>
      </trkpt>
      <trkpt lat="47.75315" lon="7.05253">
        <ele>370.571533</ele>
        <time>2022-10-30T15:43:40Z</time>
      </trkpt>
      <trkpt lat="47.75312" lon="7.0527">
        <ele>370.599701</ele>
        <time>2022-10-30T15:43:42Z</time>
      </trkpt>
      <trkpt lat="47.75309" lon="7.05286">
        <ele>370.612274</ele>
        <time>2022-10-30T15:43:44Z</time>
      </trkpt>
      <trkpt lat="47.75307" lon="7.05302">
        <ele>370.633728</ele>
        <time>2022-10-30T15:43:46Z</time>
      </trkpt>
      <trkpt lat="47.75304" lon="7.05318">
        <ele>370.593323</ele>
        <time>2022-10-30T15:43:48Z</time>
      </trkpt>
      <trkpt lat="47.75301" lon="7.05333">
        <ele>370.562683</ele>
        <time>2022-10-30T15:43:50Z</time>
      </trkpt>
      <trkpt lat="47.75297" lon="7.05349">
        <ele>370.537964</ele>
        <time>2022-10-30T15:43:52Z</time>
      </trkpt>
      <trkpt lat="47.75295" lon="7.05365">
        <ele>370.41153</ele>
        <time>2022-10-30T15:43:54Z</time>
      </trkpt>
      <trkpt lat="47.75293" lon="7.05381">
        <ele>370.304382</ele>
        <time>2022-10-30T15:43:56Z</time>
      </trkpt>
      <trkpt lat="47.75294" lon="7.05394">
        <ele>370.189026</ele>
        <time>2022-10-30T15:43:58Z</time>
      </trkpt>
      <trkpt lat="47.75294" lon="7.05403">
        <ele>370.032532</ele>
        <time>2022-10-30T15:44:00Z</time>
      </trkpt>
      <trkpt lat="47.75291" lon="7.0541">
        <ele>369.831085</ele>
        <time>2022-10-30T15:44:02Z</time>
      </trkpt>
      <trkpt lat="47.75287" lon="7.05414">
        <ele>369.625244</ele>
        <time>2022-10-30T15:44:04Z</time>
      </trkpt>
      <trkpt lat="47.75284" lon="7.05423">
        <ele>369.443878</ele>
        <time>2022-10-30T15:44:06Z</time>
      </trkpt>
      <trkpt lat="47.75283" lon="7.05437">
        <ele>369.336731</ele>
        <time>2022-10-30T15:44:08Z</time>
      </trkpt>
      <trkpt lat="47.75283" lon="7.05453">
        <ele>369.164001</ele>
        <time>2022-10-30T15:44:10Z</time>
      </trkpt>
      <trkpt lat="47.75282" lon="7.05469">
        <ele>368.942871</ele>
        <time>2022-10-30T15:44:12Z</time>
      </trkpt>
      <trkpt lat="47.75281" lon="7.05485">
        <ele>368.707275</ele>
        <time>2022-10-30T15:44:14Z</time>
      </trkpt>
      <trkpt lat="47.7528" lon="7.05501">
        <ele>368.471558</ele>
        <time>2022-10-30T15:44:16Z</time>
      </trkpt>
      <trkpt lat="47.75279" lon="7.05516">
        <ele>368.312958</ele>
        <time>2022-10-30T15:44:18Z</time>
      </trkpt>
      <trkpt lat="47.75279" lon="7.05532">
        <ele>368.057983</ele>
        <time>2022-10-30T15:44:20Z</time>
      </trkpt>
      <trkpt lat="47.75277" lon="7.05549">
        <ele>367.803009</ele>
        <time>2022-10-30T15:44:22Z</time>
      </trkpt>
      <trkpt lat="47.75274" lon="7.05564">
        <ele>367.541565</ele>
        <time>2022-10-30T15:44:24Z</time>
      </trkpt>
      <trkpt lat="47.75273" lon="7.05579">
        <ele>367.254517</ele>
        <time>2022-10-30T15:44:26Z</time>
      </trkpt>
      <trkpt lat="47.75272" lon="7.05593">
        <ele>367.134521</ele>
        <time>2022-10-30T15:44:28Z</time>
      </trkpt>
      <trkpt lat="47.7527" lon="7.05607">
        <ele>366.954895</ele>
        <time>2022-10-30T15:44:30Z</time>
      </trkpt>
      <trkpt lat="47.75268" lon="7.05621">
        <ele>366.751984</ele>
        <time>2022-10-30T15:44:32Z</time>
      </trkpt>
      <trkpt lat="47.75267" lon="7.05635">
        <ele>366.507935</ele>
        <time>2022-10-30T15:44:34Z</time>
      </trkpt>
      <trkpt lat="47.75266" lon="7.05648">
        <ele>366.330078</ele>
        <time>2022-10-30T15:44:36Z</time>
      </trkpt>
      <trkpt lat="47.75264" lon="7.05659">
        <ele>366.122253</ele>
        <time>2022-10-30T15:44:38Z</time>
      </trkpt>
      <trkpt lat="47.75263" lon="7.05669">
        <ele>365.931152</ele>
        <time>2022-10-30T15:44:40Z</time>
      </trkpt>
      <trkpt lat="47.75261" lon="7.0568">
        <ele>365.80127</ele>
        <time>2022-10-30T15:44:42Z</time>
      </trkpt>
      <trkpt lat="47.75259" lon="7.05692">
        <ele>365.662018</ele>
        <time>2022-10-30T15:44:44Z</time>
      </trkpt>
      <trkpt lat="47.75257" lon="7.05704">
        <ele>365.550598</ele>
        <time>2022-10-30T15:44:46Z</time>
      </trkpt>
      <trkpt lat="47.75254" lon="7.05718">
        <ele>365.391174</ele>
        <time>2022-10-30T15:44:48Z</time>
      </trkpt>
      <trkpt lat="47.75251" lon="7.05731">
        <ele>365.277008</ele>
        <time>2022-10-30T15:44:50Z</time>
      </trkpt>
      <trkpt lat="47.75249" lon="7.0574">
        <ele>365.176331</ele>
        <time>2022-10-30T15:44:52Z</time>
      </trkpt>
      <trkpt lat="47.75248" lon="7.05747">
        <ele>365.116333</ele>
        <time>2022-10-30T15:44:54Z</time>
      </trkpt>
      <trkpt lat="47.75247" lon="7.05753">
        <ele>365.021057</ele>
        <time>2022-10-30T15:44:56Z</time>
      </trkpt>
      <trkpt lat="47.75246" lon="7.0576">
        <ele>364.909668</ele>
        <time>2022-10-30T15:44:58Z</time>
      </trkpt>
      <trkpt lat="47.75245" lon="7.05768">
        <ele>364.830383</ele>
        <time>2022-10-30T15:45:00Z</time>
      </trkpt>
      <trkpt lat="47.75244" lon="7.05775">
        <ele>364.776825</ele>
        <time>2022-10-30T15:45:02Z</time>
      </trkpt>
      <trkpt lat="47.75243" lon="7.05782">
        <ele>364.714905</ele>
        <time>2022-10-30T15:45:04Z</time>
      </trkpt>
      <trkpt lat="47.75242" lon="7.05788">
        <ele>364.70047</ele>
        <time>2022-10-30T15:45:06Z</time>
      </trkpt>
      <trkpt lat="47.75242" lon="7.05794">
        <ele>364.693085</ele>
        <time>2022-10-30T15:45:08Z</time>
      </trkpt>
      <trkpt lat="47.7524" lon="7.05801">
        <ele>364.619873</ele>
        <time>2022-10-30T15:45:10Z</time>
      </trkpt>
      <trkpt lat="47.7524" lon="7.05808">
        <ele>364.538483</ele>
        <time>2022-10-30T15:45:12Z</time>
      </trkpt>
      <trkpt lat="47.75239" lon="7.05816">
        <ele>364.504211</ele>
        <time>2022-10-30T15:45:14Z</time>
      </trkpt>
      <trkpt lat="47.75238" lon="7.05824">
        <ele>364.468079</ele>
        <time>2022-10-30T15:45:16Z</time>
      </trkpt>
      <trkpt lat="47.75237" lon="7.05832">
        <ele>364.45697</ele>
        <time>2022-10-30T15:45:18Z</time>
      </trkpt>
      <trkpt lat="47.75236" lon="7.0584">
        <ele>364.444122</ele>
        <time>2022-10-30T15:45:20Z</time>
      </trkpt>
      <trkpt lat="47.75235" lon="7.0585">
        <ele>364.399139</ele>
        <time>2022-10-30T15:45:22Z</time>
      </trkpt>
      <trkpt lat="47.75234" lon="7.05861">
        <ele>364.357635</ele>
        <time>2022-10-30T15:45:24Z</time>
      </trkpt>
      <trkpt lat="47.75232" lon="7.05872">
        <ele>364.33194</ele>
        <time>2022-10-30T15:45:26Z</time>
      </trkpt>
      <trkpt lat="47.75232" lon="7.05882">
        <ele>364.291199</ele>
        <time>2022-10-30T15:45:28Z</time>
      </trkpt>
      <trkpt lat="47.75231" lon="7.05892">
        <ele>364.299774</ele>
        <time>2022-10-30T15:45:30Z</time>
      </trkpt>
      <trkpt lat="47.7523" lon="7.05903">
        <ele>364.264191</ele>
        <time>2022-10-30T15:45:32Z</time>
      </trkpt>
      <trkpt lat="47.75229" lon="7.05914">
        <ele>364.259918</ele>
        <time>2022-10-30T15:45:34Z</time>
      </trkpt>
      <trkpt lat="47.75227" lon="7.05924">
        <ele>364.259186</ele>
        <time>2022-10-30T15:45:36Z</time>
      </trkpt>
      <trkpt lat="47.75225" lon="7.05934">
        <ele>364.247345</ele>
        <time>2022-10-30T15:45:38Z</time>
      </trkpt>
      <trkpt lat="47.75224" lon="7.05943">
        <ele>364.275208</ele>
        <time>2022-10-30T15:45:40Z</time>
      </trkpt>
      <trkpt lat="47.75223" lon="7.05953">
        <ele>364.232483</ele>
        <time>2022-10-30T15:45:42Z</time>
      </trkpt>
      <trkpt lat="47.75222" lon="7.05961">
        <ele>364.202484</ele>
        <time>2022-10-30T15:45:44Z</time>
      </trkpt>
      <trkpt lat="47.7522" lon="7.05969">
        <ele>364.159424</ele>
        <time>2022-10-30T15:45:46Z</time>
      </trkpt>
      <trkpt lat="47.75219" lon="7.05978">
        <ele>364.107452</ele>
        <time>2022-10-30T15:45:48Z</time>
      </trkpt>
      <trkpt lat="47.75219" lon="7.05988">
        <ele>364.086365</ele>
        <time>2022-10-30T15:45:50Z</time>
      </trkpt>
      <trkpt lat="47.75216" lon="7.05999">
        <ele>364.090637</ele>
        <time>2022-10-30T15:45:52Z</time>
      </trkpt>
      <trkpt lat="47.75215" lon="7.06012">
        <ele>364.052063</ele>
        <time>2022-10-30T15:45:54Z</time>
      </trkpt>
      <trkpt lat="47.75213" lon="7.06025">
        <ele>364.040314</ele>
        <time>2022-10-30T15:45:56Z</time>
      </trkpt>
      <trkpt lat="47.75211" lon="7.0604">
        <ele>364.044312</ele>
        <time>2022-10-30T15:45:58Z</time>
      </trkpt>
      <trkpt lat="47.75208" lon="7.06055">
        <ele>364.043915</ele>
        <time>2022-10-30T15:46:00Z</time>
      </trkpt>
      <trkpt lat="47.75206" lon="7.0607">
        <ele>364.067474</ele>
        <time>2022-10-30T15:46:02Z</time>
      </trkpt>
      <trkpt lat="47.75205" lon="7.06085">
        <ele>364.088898</ele>
        <time>2022-10-30T15:46:04Z</time>
      </trkpt>
      <trkpt lat="47.75203" lon="7.06096">
        <ele>364.064453</ele>
        <time>2022-10-30T15:46:06Z</time>
      </trkpt>
      <trkpt lat="47.75202" lon="7.06103">
        <ele>364.028046</ele>
        <time>2022-10-30T15:46:08Z</time>
      </trkpt>
      <trkpt lat="47.75201" lon="7.0611">
        <ele>363.985199</ele>
        <time>2022-10-30T15:46:10Z</time>
      </trkpt>
      <trkpt lat="47.752" lon="7.06117">
        <ele>363.9552</ele>
        <time>2022-10-30T15:46:12Z</time>
      </trkpt>
      <trkpt lat="47.752" lon="7.06124">
        <ele>363.947937</ele>
        <time>2022-10-30T15:46:14Z</time>
      </trkpt>
      <trkpt lat="47.75199" lon="7.06129">
        <ele>363.902954</ele>
        <time>2022-10-30T15:46:16Z</time>
      </trkpt>
      <trkpt lat="47.75199" lon="7.06131">
        <ele>363.674133</ele>
        <time>2022-10-30T15:46:32Z</time>
      </trkpt>
      <trkpt lat="47.75199" lon="7.06136">
        <ele>363.668274</ele>
        <time>2022-10-30T15:46:34Z</time>
      </trkpt>
      <trkpt lat="47.75198" lon="7.06144">
        <ele>363.667786</ele>
        <time>2022-10-30T15:46:36Z</time>
      </trkpt>
      <trkpt lat="47.75198" lon="7.06155">
        <ele>363.646149</ele>
        <time>2022-10-30T15:46:38Z</time>
      </trkpt>
      <trkpt lat="47.75197" lon="7.06168">
        <ele>363.593384</ele>
        <time>2022-10-30T15:46:40Z</time>
      </trkpt>
      <trkpt lat="47.75197" lon="7.06183">
        <ele>363.516266</ele>
        <time>2022-10-30T15:46:42Z</time>
      </trkpt>
      <trkpt lat="47.75197" lon="7.06199">
        <ele>363.417725</ele>
        <time>2022-10-30T15:46:44Z</time>
      </trkpt>
      <trkpt lat="47.75197" lon="7.06217">
        <ele>363.371613</ele>
        <time>2022-10-30T15:46:46Z</time>
      </trkpt>
      <trkpt lat="47.75196" lon="7.06236">
        <ele>363.3125</ele>
        <time>2022-10-30T15:46:48Z</time>
      </trkpt>
      <trkpt lat="47.75195" lon="7.06256">
        <ele>363.301819</ele>
        <time>2022-10-30T15:46:50Z</time>
      </trkpt>
      <trkpt lat="47.75195" lon="7.06276">
        <ele>363.282745</ele>
        <time>2022-10-30T15:46:52Z</time>
      </trkpt>
      <trkpt lat="47.75195" lon="7.06297">
        <ele>363.211731</ele>
        <time>2022-10-30T15:46:54Z</time>
      </trkpt>
      <trkpt lat="47.75195" lon="7.06317">
        <ele>363.115387</ele>
        <time>2022-10-30T15:46:56Z</time>
      </trkpt>
      <trkpt lat="47.75194" lon="7.06338">
        <ele>363.027557</ele>
        <time>2022-10-30T15:46:58Z</time>
      </trkpt>
      <trkpt lat="47.75194" lon="7.06359">
        <ele>362.929016</ele>
        <time>2022-10-30T15:47:00Z</time>
      </trkpt>
      <trkpt lat="47.75194" lon="7.0638">
        <ele>362.834778</ele>
        <time>2022-10-30T15:47:02Z</time>
      </trkpt>
      <trkpt lat="47.75194" lon="7.06402">
        <ele>362.710571</ele>
        <time>2022-10-30T15:47:04Z</time>
      </trkpt>
      <trkpt lat="47.75193" lon="7.06423">
        <ele>362.586731</ele>
        <time>2022-10-30T15:47:06Z</time>
      </trkpt>
      <trkpt lat="47.75193" lon="7.06445">
        <ele>362.478027</ele>
        <time>2022-10-30T15:47:08Z</time>
      </trkpt>
      <trkpt lat="47.75192" lon="7.06466">
        <ele>362.422333</ele>
        <time>2022-10-30T15:47:10Z</time>
      </trkpt>
      <trkpt lat="47.75192" lon="7.06488">
        <ele>362.218903</ele>
        <time>2022-10-30T15:47:12Z</time>
      </trkpt>
      <trkpt lat="47.75192" lon="7.06509">
        <ele>362.108948</ele>
        <time>2022-10-30T15:47:14Z</time>
      </trkpt>
      <trkpt lat="47.75191" lon="7.0653">
        <ele>361.892029</ele>
        <time>2022-10-30T15:47:16Z</time>
      </trkpt>
      <trkpt lat="47.75191" lon="7.06552">
        <ele>361.813934</ele>
        <time>2022-10-30T15:47:18Z</time>
      </trkpt>
      <trkpt lat="47.75191" lon="7.06574">
        <ele>361.637024</ele>
        <time>2022-10-30T15:47:20Z</time>
      </trkpt>
      <trkpt lat="47.7519" lon="7.06595">
        <ele>361.547455</ele>
        <time>2022-10-30T15:47:22Z</time>
      </trkpt>
      <trkpt lat="47.7519" lon="7.06617">
        <ele>361.372833</ele>
        <time>2022-10-30T15:47:24Z</time>
      </trkpt>
      <trkpt lat="47.7519" lon="7.06639">
        <ele>361.103027</ele>
        <time>2022-10-30T15:47:26Z</time>
      </trkpt>
      <trkpt lat="47.7519" lon="7.06661">
        <ele>360.826782</ele>
        <time>2022-10-30T15:47:28Z</time>
      </trkpt>
      <trkpt lat="47.75189" lon="7.06682">
        <ele>360.545258</ele>
        <time>2022-10-30T15:47:30Z</time>
      </trkpt>
      <trkpt lat="47.75189" lon="7.06704">
        <ele>360.406067</ele>
        <time>2022-10-30T15:47:32Z</time>
      </trkpt>
      <trkpt lat="47.75188" lon="7.06726">
        <ele>360.156433</ele>
        <time>2022-10-30T15:47:34Z</time>
      </trkpt>
      <trkpt lat="47.75187" lon="7.06747">
        <ele>359.896118</ele>
        <time>2022-10-30T15:47:36Z</time>
      </trkpt>
      <trkpt lat="47.75186" lon="7.06769">
        <ele>359.643799</ele>
        <time>2022-10-30T15:47:38Z</time>
      </trkpt>
      <trkpt lat="47.75185" lon="7.06791">
        <ele>359.378326</ele>
        <time>2022-10-30T15:47:40Z</time>
      </trkpt>
      <trkpt lat="47.75185" lon="7.06812">
        <ele>359.138031</ele>
        <time>2022-10-30T15:47:42Z</time>
      </trkpt>
      <trkpt lat="47.75185" lon="7.06832">
        <ele>358.874695</ele>
        <time>2022-10-30T15:47:44Z</time>
      </trkpt>
      <trkpt lat="47.75185" lon="7.06852">
        <ele>358.647766</ele>
        <time>2022-10-30T15:47:46Z</time>
      </trkpt>
      <trkpt lat="47.75185" lon="7.06872">
        <ele>358.363068</ele>
        <time>2022-10-30T15:47:48Z</time>
      </trkpt>
      <trkpt lat="47.75184" lon="7.06891">
        <ele>358.093323</ele>
        <time>2022-10-30T15:47:50Z</time>
      </trkpt>
      <trkpt lat="47.75184" lon="7.0691">
        <ele>357.850891</ele>
        <time>2022-10-30T15:47:52Z</time>
      </trkpt>
      <trkpt lat="47.75184" lon="7.06929">
        <ele>357.683929</ele>
        <time>2022-10-30T15:47:54Z</time>
      </trkpt>
      <trkpt lat="47.75184" lon="7.06948">
        <ele>357.463379</ele>
        <time>2022-10-30T15:47:56Z</time>
      </trkpt>
      <trkpt lat="47.75183" lon="7.06967">
        <ele>357.362762</ele>
        <time>2022-10-30T15:47:58Z</time>
      </trkpt>
      <trkpt lat="47.75182" lon="7.06986">
        <ele>357.201385</ele>
        <time>2022-10-30T15:48:00Z</time>
      </trkpt>
      <trkpt lat="47.75182" lon="7.07004">
        <ele>357.023102</ele>
        <time>2022-10-30T15:48:02Z</time>
      </trkpt>
      <trkpt lat="47.75181" lon="7.07023">
        <ele>356.847595</ele>
        <time>2022-10-30T15:48:04Z</time>
      </trkpt>
      <trkpt lat="47.7518" lon="7.07041">
        <ele>356.662537</ele>
        <time>2022-10-30T15:48:06Z</time>
      </trkpt>
      <trkpt lat="47.7518" lon="7.07059">
        <ele>356.613281</ele>
        <time>2022-10-30T15:48:08Z</time>
      </trkpt>
      <trkpt lat="47.7518" lon="7.07078">
        <ele>356.506287</ele>
        <time>2022-10-30T15:48:10Z</time>
      </trkpt>
      <trkpt lat="47.7518" lon="7.07096">
        <ele>356.412109</ele>
        <time>2022-10-30T15:48:12Z</time>
      </trkpt>
      <trkpt lat="47.7518" lon="7.07115">
        <ele>356.323486</ele>
        <time>2022-10-30T15:48:14Z</time>
      </trkpt>
      <trkpt lat="47.75179" lon="7.07134">
        <ele>356.255005</ele>
        <time>2022-10-30T15:48:16Z</time>
      </trkpt>
      <trkpt lat="47.75179" lon="7.07152">
        <ele>356.189636</ele>
        <time>2022-10-30T15:48:18Z</time>
      </trkpt>
      <trkpt lat="47.75179" lon="7.07171">
        <ele>356.093292</ele>
        <time>2022-10-30T15:48:20Z</time>
      </trkpt>
      <trkpt lat="47.75179" lon="7.07189">
        <ele>356.044556</ele>
        <time>2022-10-30T15:48:22Z</time>
      </trkpt>
      <trkpt lat="47.75179" lon="7.07206">
        <ele>356.033752</ele>
        <time>2022-10-30T15:48:24Z</time>
      </trkpt>
      <trkpt lat="47.75179" lon="7.07222">
        <ele>355.966797</ele>
        <time>2022-10-30T15:48:26Z</time>
      </trkpt>
      <trkpt lat="47.75179" lon="7.07237">
        <ele>355.859772</ele>
        <time>2022-10-30T15:48:28Z</time>
      </trkpt>
      <trkpt lat="47.75179" lon="7.07251">
        <ele>355.814789</ele>
        <time>2022-10-30T15:48:30Z</time>
      </trkpt>
      <trkpt lat="47.75178" lon="7.07266">
        <ele>355.783752</ele>
        <time>2022-10-30T15:48:32Z</time>
      </trkpt>
      <trkpt lat="47.75178" lon="7.0728">
        <ele>355.713074</ele>
        <time>2022-10-30T15:48:34Z</time>
      </trkpt>
      <trkpt lat="47.75178" lon="7.07294">
        <ele>355.648865</ele>
        <time>2022-10-30T15:48:36Z</time>
      </trkpt>
      <trkpt lat="47.75178" lon="7.07308">
        <ele>355.588074</ele>
        <time>2022-10-30T15:48:38Z</time>
      </trkpt>
      <trkpt lat="47.75178" lon="7.07322">
        <ele>355.492523</ele>
        <time>2022-10-30T15:48:40Z</time>
      </trkpt>
      <trkpt lat="47.75178" lon="7.07335">
        <ele>355.33844</ele>
        <time>2022-10-30T15:48:42Z</time>
      </trkpt>
      <trkpt lat="47.75178" lon="7.07349">
        <ele>355.171509</ele>
        <time>2022-10-30T15:48:44Z</time>
      </trkpt>
      <trkpt lat="47.75178" lon="7.07363">
        <ele>355.051666</ele>
        <time>2022-10-30T15:48:46Z</time>
      </trkpt>
      <trkpt lat="47.75177" lon="7.07379">
        <ele>354.940369</ele>
        <time>2022-10-30T15:48:48Z</time>
      </trkpt>
      <trkpt lat="47.75177" lon="7.07394">
        <ele>354.839783</ele>
        <time>2022-10-30T15:48:50Z</time>
      </trkpt>
      <trkpt lat="47.75176" lon="7.0741">
        <ele>354.761017</ele>
        <time>2022-10-30T15:48:52Z</time>
      </trkpt>
      <trkpt lat="47.75176" lon="7.07427">
        <ele>354.615479</ele>
        <time>2022-10-30T15:48:54Z</time>
      </trkpt>
      <trkpt lat="47.75175" lon="7.07445">
        <ele>354.44928</ele>
        <time>2022-10-30T15:48:56Z</time>
      </trkpt>
      <trkpt lat="47.75174" lon="7.07462">
        <ele>354.31781</ele>
        <time>2022-10-30T15:48:58Z</time>
      </trkpt>
      <trkpt lat="47.75173" lon="7.07479">
        <ele>354.118805</ele>
        <time>2022-10-30T15:49:00Z</time>
      </trkpt>
      <trkpt lat="47.75172" lon="7.07496">
        <ele>353.974304</ele>
        <time>2022-10-30T15:49:02Z</time>
      </trkpt>
      <trkpt lat="47.75171" lon="7.07514">
        <ele>353.741028</ele>
        <time>2022-10-30T15:49:04Z</time>
      </trkpt>
      <trkpt lat="47.7517" lon="7.07532">
        <ele>353.650055</ele>
        <time>2022-10-30T15:49:06Z</time>
      </trkpt>
      <trkpt lat="47.75168" lon="7.0755">
        <ele>353.421692</ele>
        <time>2022-10-30T15:49:08Z</time>
      </trkpt>
      <trkpt lat="47.75167" lon="7.07568">
        <ele>353.243469</ele>
        <time>2022-10-30T15:49:10Z</time>
      </trkpt>
      <trkpt lat="47.75165" lon="7.07585">
        <ele>353.044464</ele>
        <time>2022-10-30T15:49:12Z</time>
      </trkpt>
      <trkpt lat="47.75164" lon="7.07602">
        <ele>352.843933</ele>
        <time>2022-10-30T15:49:14Z</time>
      </trkpt>
      <trkpt lat="47.75163" lon="7.07621">
        <ele>352.675598</ele>
        <time>2022-10-30T15:49:16Z</time>
      </trkpt>
      <trkpt lat="47.75161" lon="7.0764">
        <ele>352.41449</ele>
        <time>2022-10-30T15:49:18Z</time>
      </trkpt>
      <trkpt lat="47.75159" lon="7.07659">
        <ele>352.18985</ele>
        <time>2022-10-30T15:49:20Z</time>
      </trkpt>
      <trkpt lat="47.75157" lon="7.07679">
        <ele>351.975891</ele>
        <time>2022-10-30T15:49:22Z</time>
      </trkpt>
      <trkpt lat="47.75155" lon="7.07698">
        <ele>351.794037</ele>
        <time>2022-10-30T15:49:24Z</time>
      </trkpt>
      <trkpt lat="47.75153" lon="7.07718">
        <ele>351.631439</ele>
        <time>2022-10-30T15:49:26Z</time>
      </trkpt>
      <trkpt lat="47.75151" lon="7.07737">
        <ele>351.537292</ele>
        <time>2022-10-30T15:49:28Z</time>
      </trkpt>
      <trkpt lat="47.75148" lon="7.07757">
        <ele>351.333313</ele>
        <time>2022-10-30T15:49:30Z</time>
      </trkpt>
      <trkpt lat="47.75146" lon="7.07777">
        <ele>351.126862</ele>
        <time>2022-10-30T15:49:32Z</time>
      </trkpt>
      <trkpt lat="47.75143" lon="7.07796">
        <ele>350.848297</ele>
        <time>2022-10-30T15:49:34Z</time>
      </trkpt>
      <trkpt lat="47.75141" lon="7.07815">
        <ele>350.682617</ele>
        <time>2022-10-30T15:49:36Z</time>
      </trkpt>
      <trkpt lat="47.75138" lon="7.07833">
        <ele>350.50946</ele>
        <time>2022-10-30T15:49:38Z</time>
      </trkpt>
      <trkpt lat="47.75135" lon="7.07851">
        <ele>350.300049</ele>
        <time>2022-10-30T15:49:40Z</time>
      </trkpt>
      <trkpt lat="47.75133" lon="7.07869">
        <ele>350.077576</ele>
        <time>2022-10-30T15:49:42Z</time>
      </trkpt>
      <trkpt lat="47.7513" lon="7.07888">
        <ele>349.873352</ele>
        <time>2022-10-30T15:49:44Z</time>
      </trkpt>
      <trkpt lat="47.75127" lon="7.07907">
        <ele>349.648773</ele>
        <time>2022-10-30T15:49:46Z</time>
      </trkpt>
      <trkpt lat="47.75123" lon="7.07926">
        <ele>349.440308</ele>
        <time>2022-10-30T15:49:48Z</time>
      </trkpt>
      <trkpt lat="47.7512" lon="7.07945">
        <ele>349.278137</ele>
        <time>2022-10-30T15:49:50Z</time>
      </trkpt>
      <trkpt lat="47.75116" lon="7.07965">
        <ele>349.158966</ele>
        <time>2022-10-30T15:49:52Z</time>
      </trkpt>
      <trkpt lat="47.75113" lon="7.07984">
        <ele>348.988708</ele>
        <time>2022-10-30T15:49:54Z</time>
      </trkpt>
      <trkpt lat="47.75109" lon="7.08003">
        <ele>348.791046</ele>
        <time>2022-10-30T15:49:56Z</time>
      </trkpt>
      <trkpt lat="47.75105" lon="7.08023">
        <ele>348.529419</ele>
        <time>2022-10-30T15:49:58Z</time>
      </trkpt>
      <trkpt lat="47.75102" lon="7.08043">
        <ele>348.330505</ele>
        <time>2022-10-30T15:50:00Z</time>
      </trkpt>
      <trkpt lat="47.75098" lon="7.08062">
        <ele>348.129456</ele>
        <time>2022-10-30T15:50:02Z</time>
      </trkpt>
      <trkpt lat="47.75093" lon="7.0808">
        <ele>347.877136</ele>
        <time>2022-10-30T15:50:04Z</time>
      </trkpt>
      <trkpt lat="47.75089" lon="7.08098">
        <ele>347.675659</ele>
        <time>2022-10-30T15:50:06Z</time>
      </trkpt>
      <trkpt lat="47.75085" lon="7.08116">
        <ele>347.444763</ele>
        <time>2022-10-30T15:50:08Z</time>
      </trkpt>
      <trkpt lat="47.75082" lon="7.08132">
        <ele>347.171753</ele>
        <time>2022-10-30T15:50:10Z</time>
      </trkpt>
      <trkpt lat="47.75079" lon="7.08149">
        <ele>346.964294</ele>
        <time>2022-10-30T15:50:12Z</time>
      </trkpt>
      <trkpt lat="47.75076" lon="7.08167">
        <ele>346.76123</ele>
        <time>2022-10-30T15:50:14Z</time>
      </trkpt>
      <trkpt lat="47.75073" lon="7.08185">
        <ele>346.575195</ele>
        <time>2022-10-30T15:50:16Z</time>
      </trkpt>
      <trkpt lat="47.75069" lon="7.08202">
        <ele>346.320862</ele>
        <time>2022-10-30T15:50:18Z</time>
      </trkpt>
      <trkpt lat="47.75065" lon="7.0822">
        <ele>346.084015</ele>
        <time>2022-10-30T15:50:20Z</time>
      </trkpt>
      <trkpt lat="47.75061" lon="7.08237">
        <ele>345.860992</ele>
        <time>2022-10-30T15:50:22Z</time>
      </trkpt>
      <trkpt lat="47.75057" lon="7.08255">
        <ele>345.674408</ele>
        <time>2022-10-30T15:50:24Z</time>
      </trkpt>
      <trkpt lat="47.75053" lon="7.08273">
        <ele>345.443451</ele>
        <time>2022-10-30T15:50:26Z</time>
      </trkpt>
      <trkpt lat="47.75049" lon="7.08292">
        <ele>345.365509</ele>
        <time>2022-10-30T15:50:28Z</time>
      </trkpt>
      <trkpt lat="47.75045" lon="7.0831">
        <ele>345.158112</ele>
        <time>2022-10-30T15:50:30Z</time>
      </trkpt>
      <trkpt lat="47.75041" lon="7.08328">
        <ele>344.909729</ele>
        <time>2022-10-30T15:50:32Z</time>
      </trkpt>
      <trkpt lat="47.75037" lon="7.08346">
        <ele>344.684387</ele>
        <time>2022-10-30T15:50:34Z</time>
      </trkpt>
      <trkpt lat="47.75033" lon="7.08364">
        <ele>344.465546</ele>
        <time>2022-10-30T15:50:36Z</time>
      </trkpt>
      <trkpt lat="47.75029" lon="7.08382">
        <ele>344.241028</ele>
        <time>2022-10-30T15:50:38Z</time>
      </trkpt>
      <trkpt lat="47.75025" lon="7.08399">
        <ele>344.063599</ele>
        <time>2022-10-30T15:50:40Z</time>
      </trkpt>
      <trkpt lat="47.75022" lon="7.08417">
        <ele>343.839111</ele>
        <time>2022-10-30T15:50:42Z</time>
      </trkpt>
      <trkpt lat="47.75018" lon="7.08434">
        <ele>343.676636</ele>
        <time>2022-10-30T15:50:44Z</time>
      </trkpt>
      <trkpt lat="47.75015" lon="7.0845">
        <ele>343.54837</ele>
        <time>2022-10-30T15:50:46Z</time>
      </trkpt>
      <trkpt lat="47.75011" lon="7.08466">
        <ele>343.345856</ele>
        <time>2022-10-30T15:50:48Z</time>
      </trkpt>
      <trkpt lat="47.75008" lon="7.08482">
        <ele>343.194</ele>
        <time>2022-10-30T15:50:50Z</time>
      </trkpt>
      <trkpt lat="47.75004" lon="7.08498">
        <ele>343.048279</ele>
        <time>2022-10-30T15:50:52Z</time>
      </trkpt>
      <trkpt lat="47.75" lon="7.08514">
        <ele>342.860168</ele>
        <time>2022-10-30T15:50:54Z</time>
      </trkpt>
      <trkpt lat="47.74997" lon="7.08531">
        <ele>342.679443</ele>
        <time>2022-10-30T15:50:56Z</time>
      </trkpt>
      <trkpt lat="47.74994" lon="7.08549">
        <ele>342.508423</ele>
        <time>2022-10-30T15:50:58Z</time>
      </trkpt>
      <trkpt lat="47.74991" lon="7.08567">
        <ele>342.345276</ele>
        <time>2022-10-30T15:51:00Z</time>
      </trkpt>
      <trkpt lat="47.74986" lon="7.08585">
        <ele>342.169983</ele>
        <time>2022-10-30T15:51:02Z</time>
      </trkpt>
      <trkpt lat="47.74982" lon="7.08602">
        <ele>342.035339</ele>
        <time>2022-10-30T15:51:04Z</time>
      </trkpt>
      <trkpt lat="47.74977" lon="7.08621">
        <ele>341.921082</ele>
        <time>2022-10-30T15:51:06Z</time>
      </trkpt>
      <trkpt lat="47.74974" lon="7.08639">
        <ele>341.871948</ele>
        <time>2022-10-30T15:51:08Z</time>
      </trkpt>
      <trkpt lat="47.7497" lon="7.08658">
        <ele>341.744324</ele>
        <time>2022-10-30T15:51:10Z</time>
      </trkpt>
      <trkpt lat="47.74966" lon="7.08677">
        <ele>341.645996</ele>
        <time>2022-10-30T15:51:12Z</time>
      </trkpt>
      <trkpt lat="47.74962" lon="7.08696">
        <ele>341.536987</ele>
        <time>2022-10-30T15:51:14Z</time>
      </trkpt>
      <trkpt lat="47.74958" lon="7.08715">
        <ele>341.389465</ele>
        <time>2022-10-30T15:51:16Z</time>
      </trkpt>
      <trkpt lat="47.74954" lon="7.08733">
        <ele>341.272095</ele>
        <time>2022-10-30T15:51:18Z</time>
      </trkpt>
      <trkpt lat="47.7495" lon="7.08752">
        <ele>341.190887</ele>
        <time>2022-10-30T15:51:20Z</time>
      </trkpt>
      <trkpt lat="47.74946" lon="7.0877">
        <ele>341.043427</ele>
        <time>2022-10-30T15:51:22Z</time>
      </trkpt>
      <trkpt lat="47.74943" lon="7.08788">
        <ele>340.937775</ele>
        <time>2022-10-30T15:51:24Z</time>
      </trkpt>
      <trkpt lat="47.74939" lon="7.08806">
        <ele>340.822388</ele>
        <time>2022-10-30T15:51:26Z</time>
      </trkpt>
      <trkpt lat="47.74936" lon="7.08823">
        <ele>340.731232</ele>
        <time>2022-10-30T15:51:28Z</time>
      </trkpt>
      <trkpt lat="47.74932" lon="7.08842">
        <ele>340.66925</ele>
        <time>2022-10-30T15:51:30Z</time>
      </trkpt>
      <trkpt lat="47.74928" lon="7.08859">
        <ele>340.506805</ele>
        <time>2022-10-30T15:51:32Z</time>
      </trkpt>
      <trkpt lat="47.74925" lon="7.08877">
        <ele>340.321259</ele>
        <time>2022-10-30T15:51:34Z</time>
      </trkpt>
      <trkpt lat="47.74921" lon="7.08895">
        <ele>340.211792</ele>
        <time>2022-10-30T15:51:36Z</time>
      </trkpt>
      <trkpt lat="47.74918" lon="7.08913">
        <ele>340.066956</ele>
        <time>2022-10-30T15:51:38Z</time>
      </trkpt>
      <trkpt lat="47.74914" lon="7.08931">
        <ele>339.923798</ele>
        <time>2022-10-30T15:51:40Z</time>
      </trkpt>
      <trkpt lat="47.7491" lon="7.08948">
        <ele>339.771301</ele>
        <time>2022-10-30T15:51:42Z</time>
      </trkpt>
      <trkpt lat="47.74907" lon="7.08964">
        <ele>339.662323</ele>
        <time>2022-10-30T15:51:44Z</time>
      </trkpt>
      <trkpt lat="47.74904" lon="7.0898">
        <ele>339.499939</ele>
        <time>2022-10-30T15:51:46Z</time>
      </trkpt>
      <trkpt lat="47.749" lon="7.08997">
        <ele>339.403748</ele>
        <time>2022-10-30T15:51:48Z</time>
      </trkpt>
      <trkpt lat="47.74897" lon="7.09014">
        <ele>339.268494</ele>
        <time>2022-10-30T15:51:50Z</time>
      </trkpt>
      <trkpt lat="47.74893" lon="7.0903">
        <ele>339.108582</ele>
        <time>2022-10-30T15:51:52Z</time>
      </trkpt>
      <trkpt lat="47.74889" lon="7.09047">
        <ele>338.93335</ele>
        <time>2022-10-30T15:51:54Z</time>
      </trkpt>
      <trkpt lat="47.74886" lon="7.09064">
        <ele>338.814209</ele>
        <time>2022-10-30T15:51:56Z</time>
      </trkpt>
      <trkpt lat="47.74882" lon="7.0908">
        <ele>338.745819</ele>
        <time>2022-10-30T15:51:58Z</time>
      </trkpt>
      <trkpt lat="47.74878" lon="7.09097">
        <ele>338.615295</ele>
        <time>2022-10-30T15:52:00Z</time>
      </trkpt>
      <trkpt lat="47.74874" lon="7.09113">
        <ele>338.49649</ele>
        <time>2022-10-30T15:52:02Z</time>
      </trkpt>
      <trkpt lat="47.74868" lon="7.09128">
        <ele>338.425964</ele>
        <time>2022-10-30T15:52:04Z</time>
      </trkpt>
      <trkpt lat="47.74863" lon="7.09141">
        <ele>338.398163</ele>
        <time>2022-10-30T15:52:06Z</time>
      </trkpt>
      <trkpt lat="47.7486" lon="7.09155">
        <ele>338.270874</ele>
        <time>2022-10-30T15:52:08Z</time>
      </trkpt>
      <trkpt lat="47.74857" lon="7.09168">
        <ele>338.189667</ele>
        <time>2022-10-30T15:52:10Z</time>
      </trkpt>
      <trkpt lat="47.74854" lon="7.09181">
        <ele>338.118225</ele>
        <time>2022-10-30T15:52:12Z</time>
      </trkpt>
      <trkpt lat="47.74852" lon="7.09192">
        <ele>338.080566</ele>
        <time>2022-10-30T15:52:14Z</time>
      </trkpt>
      <trkpt lat="47.74851" lon="7.09201">
        <ele>338.037811</ele>
        <time>2022-10-30T15:52:16Z</time>
      </trkpt>
      <trkpt lat="47.7485" lon="7.09211">
        <ele>337.974182</ele>
        <time>2022-10-30T15:52:18Z</time>
      </trkpt>
      <trkpt lat="47.74849" lon="7.0922">
        <ele>337.94162</ele>
        <time>2022-10-30T15:52:20Z</time>
      </trkpt>
      <trkpt lat="47.74848" lon="7.09229">
        <ele>337.894623</ele>
        <time>2022-10-30T15:52:22Z</time>
      </trkpt>
      <trkpt lat="47.74847" lon="7.09239">
        <ele>337.869598</ele>
        <time>2022-10-30T15:52:24Z</time>
      </trkpt>
      <trkpt lat="47.74845" lon="7.0925">
        <ele>337.82901</ele>
        <time>2022-10-30T15:52:26Z</time>
      </trkpt>
      <trkpt lat="47.74843" lon="7.09262">
        <ele>337.826935</ele>
        <time>2022-10-30T15:52:28Z</time>
      </trkpt>
      <trkpt lat="47.74841" lon="7.09275">
        <ele>337.787598</ele>
        <time>2022-10-30T15:52:30Z</time>
      </trkpt>
      <trkpt lat="47.74839" lon="7.09288">
        <ele>337.72345</ele>
        <time>2022-10-30T15:52:32Z</time>
      </trkpt>
      <trkpt lat="47.74837" lon="7.09301">
        <ele>337.702087</ele>
        <time>2022-10-30T15:52:34Z</time>
      </trkpt>
      <trkpt lat="47.74834" lon="7.09314">
        <ele>337.69342</ele>
        <time>2022-10-30T15:52:36Z</time>
      </trkpt>
      <trkpt lat="47.74831" lon="7.09327">
        <ele>337.673401</ele>
        <time>2022-10-30T15:52:38Z</time>
      </trkpt>
      <trkpt lat="47.74829" lon="7.09341">
        <ele>337.596497</ele>
        <time>2022-10-30T15:52:40Z</time>
      </trkpt>
      <trkpt lat="47.74826" lon="7.09354">
        <ele>337.5495</ele>
        <time>2022-10-30T15:52:42Z</time>
      </trkpt>
      <trkpt lat="47.74823" lon="7.09369">
        <ele>337.522949</ele>
        <time>2022-10-30T15:52:44Z</time>
      </trkpt>
      <trkpt lat="47.7482" lon="7.09383">
        <ele>337.487061</ele>
        <time>2022-10-30T15:52:46Z</time>
      </trkpt>
      <trkpt lat="47.74817" lon="7.09399">
        <ele>337.393036</ele>
        <time>2022-10-30T15:52:48Z</time>
      </trkpt>
      <trkpt lat="47.74814" lon="7.09414">
        <ele>337.356354</ele>
        <time>2022-10-30T15:52:50Z</time>
      </trkpt>
      <trkpt lat="47.7481" lon="7.09429">
        <ele>337.268768</ele>
        <time>2022-10-30T15:52:52Z</time>
      </trkpt>
      <trkpt lat="47.74808" lon="7.09444">
        <ele>337.214996</ele>
        <time>2022-10-30T15:52:54Z</time>
      </trkpt>
      <trkpt lat="47.74805" lon="7.09458">
        <ele>337.128723</ele>
        <time>2022-10-30T15:52:56Z</time>
      </trkpt>
      <trkpt lat="47.74801" lon="7.09473">
        <ele>337.011261</ele>
        <time>2022-10-30T15:52:58Z</time>
      </trkpt>
      <trkpt lat="47.74797" lon="7.0949">
        <ele>336.923645</ele>
        <time>2022-10-30T15:53:00Z</time>
      </trkpt>
      <trkpt lat="47.74794" lon="7.09507">
        <ele>336.883057</ele>
        <time>2022-10-30T15:53:02Z</time>
      </trkpt>
      <trkpt lat="47.7479" lon="7.09523">
        <ele>336.789032</ele>
        <time>2022-10-30T15:53:04Z</time>
      </trkpt>
      <trkpt lat="47.74787" lon="7.09539">
        <ele>336.724945</ele>
        <time>2022-10-30T15:53:06Z</time>
      </trkpt>
      <trkpt lat="47.74783" lon="7.09555">
        <ele>336.638855</ele>
        <time>2022-10-30T15:53:08Z</time>
      </trkpt>
      <trkpt lat="47.7478" lon="7.09572">
        <ele>336.514923</ele>
        <time>2022-10-30T15:53:10Z</time>
      </trkpt>
      <trkpt lat="47.74777" lon="7.09589">
        <ele>336.398285</ele>
        <time>2022-10-30T15:53:12Z</time>
      </trkpt>
      <trkpt lat="47.74773" lon="7.09606">
        <ele>336.298157</ele>
        <time>2022-10-30T15:53:14Z</time>
      </trkpt>
      <trkpt lat="47.7477" lon="7.09623">
        <ele>336.162292</ele>
        <time>2022-10-30T15:53:16Z</time>
      </trkpt>
      <trkpt lat="47.74766" lon="7.0964">
        <ele>336.00647</ele>
        <time>2022-10-30T15:53:18Z</time>
      </trkpt>
      <trkpt lat="47.74762" lon="7.09656">
        <ele>335.839783</ele>
        <time>2022-10-30T15:53:20Z</time>
      </trkpt>
      <trkpt lat="47.7476" lon="7.0967">
        <ele>335.805603</ele>
        <time>2022-10-30T15:53:22Z</time>
      </trkpt>
      <trkpt lat="47.74758" lon="7.09684">
        <ele>335.683167</ele>
        <time>2022-10-30T15:53:24Z</time>
      </trkpt>
      <trkpt lat="47.74755" lon="7.09699">
        <ele>335.531464</ele>
        <time>2022-10-30T15:53:26Z</time>
      </trkpt>
      <trkpt lat="47.74751" lon="7.09714">
        <ele>335.378265</ele>
        <time>2022-10-30T15:53:28Z</time>
      </trkpt>
      <trkpt lat="47.74748" lon="7.09731">
        <ele>335.245819</ele>
        <time>2022-10-30T15:53:30Z</time>
      </trkpt>
      <trkpt lat="47.74744" lon="7.09747">
        <ele>335.083832</ele>
        <time>2022-10-30T15:53:32Z</time>
      </trkpt>
      <trkpt lat="47.7474" lon="7.09764">
        <ele>334.998413</ele>
        <time>2022-10-30T15:53:34Z</time>
      </trkpt>
      <trkpt lat="47.74737" lon="7.09781">
        <ele>334.832153</ele>
        <time>2022-10-30T15:53:36Z</time>
      </trkpt>
      <trkpt lat="47.74733" lon="7.09797">
        <ele>334.729614</ele>
        <time>2022-10-30T15:53:38Z</time>
      </trkpt>
      <trkpt lat="47.74729" lon="7.09815">
        <ele>334.671936</ele>
        <time>2022-10-30T15:53:40Z</time>
      </trkpt>
      <trkpt lat="47.74726" lon="7.09831">
        <ele>334.599304</ele>
        <time>2022-10-30T15:53:42Z</time>
      </trkpt>
      <trkpt lat="47.74722" lon="7.09849">
        <ele>334.422058</ele>
        <time>2022-10-30T15:53:44Z</time>
      </trkpt>
      <trkpt lat="47.74719" lon="7.09867">
        <ele>334.231964</ele>
        <time>2022-10-30T15:53:46Z</time>
      </trkpt>
      <trkpt lat="47.74715" lon="7.09884">
        <ele>334.031189</ele>
        <time>2022-10-30T15:53:48Z</time>
      </trkpt>
      <trkpt lat="47.74711" lon="7.09902">
        <ele>333.856049</ele>
        <time>2022-10-30T15:53:50Z</time>
      </trkpt>
      <trkpt lat="47.74707" lon="7.0992">
        <ele>333.708679</ele>
        <time>2022-10-30T15:53:52Z</time>
      </trkpt>
      <trkpt lat="47.74704" lon="7.09937">
        <ele>333.573944</ele>
        <time>2022-10-30T15:53:54Z</time>
      </trkpt>
      <trkpt lat="47.747" lon="7.09955">
        <ele>333.404968</ele>
        <time>2022-10-30T15:53:56Z</time>
      </trkpt>
      <trkpt lat="47.74696" lon="7.09973">
        <ele>333.263306</ele>
        <time>2022-10-30T15:53:58Z</time>
      </trkpt>
      <trkpt lat="47.74692" lon="7.09991">
        <ele>333.176666</ele>
        <time>2022-10-30T15:54:00Z</time>
      </trkpt>
      <trkpt lat="47.74688" lon="7.1001">
        <ele>333.110748</ele>
        <time>2022-10-30T15:54:02Z</time>
      </trkpt>
      <trkpt lat="47.74685" lon="7.10028">
        <ele>332.988281</ele>
        <time>2022-10-30T15:54:04Z</time>
      </trkpt>
      <trkpt lat="47.7468" lon="7.10046">
        <ele>332.833069</ele>
        <time>2022-10-30T15:54:06Z</time>
      </trkpt>
      <trkpt lat="47.74677" lon="7.10065">
        <ele>332.734222</ele>
        <time>2022-10-30T15:54:08Z</time>
      </trkpt>
      <trkpt lat="47.74673" lon="7.10084">
        <ele>332.587982</ele>
        <time>2022-10-30T15:54:10Z</time>
      </trkpt>
      <trkpt lat="47.74669" lon="7.10103">
        <ele>332.471619</ele>
        <time>2022-10-30T15:54:12Z</time>
      </trkpt>
      <trkpt lat="47.74665" lon="7.10121">
        <ele>332.348969</ele>
        <time>2022-10-30T15:54:14Z</time>
      </trkpt>
      <trkpt lat="47.74661" lon="7.1014">
        <ele>332.212311</ele>
        <time>2022-10-30T15:54:16Z</time>
      </trkpt>
      <trkpt lat="47.74657" lon="7.10158">
        <ele>332.082031</ele>
        <time>2022-10-30T15:54:18Z</time>
      </trkpt>
      <trkpt lat="47.74653" lon="7.10176">
        <ele>331.915466</ele>
        <time>2022-10-30T15:54:20Z</time>
      </trkpt>
      <trkpt lat="47.74649" lon="7.10195">
        <ele>331.772369</ele>
        <time>2022-10-30T15:54:22Z</time>
      </trkpt>
      <trkpt lat="47.74646" lon="7.10213">
        <ele>331.669861</ele>
        <time>2022-10-30T15:54:24Z</time>
      </trkpt>
      <trkpt lat="47.74642" lon="7.10231">
        <ele>331.657074</ele>
        <time>2022-10-30T15:54:26Z</time>
      </trkpt>
      <trkpt lat="47.74638" lon="7.10249">
        <ele>331.577545</ele>
        <time>2022-10-30T15:54:28Z</time>
      </trkpt>
      <trkpt lat="47.74634" lon="7.10267">
        <ele>331.526306</ele>
        <time>2022-10-30T15:54:30Z</time>
      </trkpt>
      <trkpt lat="47.7463" lon="7.10286">
        <ele>331.432373</ele>
        <time>2022-10-30T15:54:32Z</time>
      </trkpt>
      <trkpt lat="47.74626" lon="7.10304">
        <ele>331.36615</ele>
        <time>2022-10-30T15:54:34Z</time>
      </trkpt>
      <trkpt lat="47.74622" lon="7.10322">
        <ele>331.277588</ele>
        <time>2022-10-30T15:54:36Z</time>
      </trkpt>
      <trkpt lat="47.74619" lon="7.1034">
        <ele>331.222717</ele>
        <time>2022-10-30T15:54:38Z</time>
      </trkpt>
      <trkpt lat="47.74615" lon="7.10357">
        <ele>331.136505</ele>
        <time>2022-10-30T15:54:40Z</time>
      </trkpt>
      <trkpt lat="47.74611" lon="7.10375">
        <ele>330.975464</ele>
        <time>2022-10-30T15:54:42Z</time>
      </trkpt>
      <trkpt lat="47.74608" lon="7.10393">
        <ele>330.852325</ele>
        <time>2022-10-30T15:54:44Z</time>
      </trkpt>
      <trkpt lat="47.74604" lon="7.1041">
        <ele>330.824554</ele>
        <time>2022-10-30T15:54:46Z</time>
      </trkpt>
      <trkpt lat="47.746" lon="7.10428">
        <ele>330.740784</ele>
        <time>2022-10-30T15:54:48Z</time>
      </trkpt>
      <trkpt lat="47.74597" lon="7.10445">
        <ele>330.635956</ele>
        <time>2022-10-30T15:54:50Z</time>
      </trkpt>
      <trkpt lat="47.74593" lon="7.10462">
        <ele>330.55484</ele>
        <time>2022-10-30T15:54:52Z</time>
      </trkpt>
      <trkpt lat="47.7459" lon="7.1048">
        <ele>330.464661</ele>
        <time>2022-10-30T15:54:54Z</time>
      </trkpt>
      <trkpt lat="47.74586" lon="7.10497">
        <ele>330.388733</ele>
        <time>2022-10-30T15:54:56Z</time>
      </trkpt>
      <trkpt lat="47.74582" lon="7.10515">
        <ele>330.292664</ele>
        <time>2022-10-30T15:54:58Z</time>
      </trkpt>
      <trkpt lat="47.74579" lon="7.10532">
        <ele>330.218567</ele>
        <time>2022-10-30T15:55:00Z</time>
      </trkpt>
      <trkpt lat="47.74575" lon="7.1055">
        <ele>330.128845</ele>
        <time>2022-10-30T15:55:02Z</time>
      </trkpt>
      <trkpt lat="47.74572" lon="7.10567">
        <ele>330.026367</ele>
        <time>2022-10-30T15:55:04Z</time>
      </trkpt>
      <trkpt lat="47.74568" lon="7.10585">
        <ele>329.883362</ele>
        <time>2022-10-30T15:55:06Z</time>
      </trkpt>
      <trkpt lat="47.74565" lon="7.10602">
        <ele>329.766418</ele>
        <time>2022-10-30T15:55:08Z</time>
      </trkpt>
      <trkpt lat="47.74561" lon="7.10619">
        <ele>329.725891</ele>
        <time>2022-10-30T15:55:10Z</time>
      </trkpt>
      <trkpt lat="47.74558" lon="7.10636">
        <ele>329.616364</ele>
        <time>2022-10-30T15:55:12Z</time>
      </trkpt>
      <trkpt lat="47.74554" lon="7.10654">
        <ele>329.507751</ele>
        <time>2022-10-30T15:55:14Z</time>
      </trkpt>
      <trkpt lat="47.7455" lon="7.10671">
        <ele>329.31778</ele>
        <time>2022-10-30T15:55:16Z</time>
      </trkpt>
      <trkpt lat="47.74546" lon="7.10689">
        <ele>329.21637</ele>
        <time>2022-10-30T15:55:18Z</time>
      </trkpt>
      <trkpt lat="47.74543" lon="7.10707">
        <ele>329.083344</ele>
        <time>2022-10-30T15:55:20Z</time>
      </trkpt>
      <trkpt lat="47.74538" lon="7.10725">
        <ele>329.006836</ele>
        <time>2022-10-30T15:55:22Z</time>
      </trkpt>
      <trkpt lat="47.74535" lon="7.10742">
        <ele>328.951996</ele>
        <time>2022-10-30T15:55:24Z</time>
      </trkpt>
      <trkpt lat="47.74531" lon="7.1076">
        <ele>328.828186</ele>
        <time>2022-10-30T15:55:26Z</time>
      </trkpt>
      <trkpt lat="47.74527" lon="7.10778">
        <ele>328.683533</ele>
        <time>2022-10-30T15:55:28Z</time>
      </trkpt>
      <trkpt lat="47.74524" lon="7.10796">
        <ele>328.602448</ele>
        <time>2022-10-30T15:55:30Z</time>
      </trkpt>
      <trkpt lat="47.74521" lon="7.10814">
        <ele>328.497528</ele>
        <time>2022-10-30T15:55:32Z</time>
      </trkpt>
      <trkpt lat="47.74517" lon="7.10832">
        <ele>328.36731</ele>
        <time>2022-10-30T15:55:34Z</time>
      </trkpt>
      <trkpt lat="47.74513" lon="7.1085">
        <ele>328.256592</ele>
        <time>2022-10-30T15:55:36Z</time>
      </trkpt>
      <trkpt lat="47.74509" lon="7.10868">
        <ele>328.09436</ele>
        <time>2022-10-30T15:55:38Z</time>
      </trkpt>
      <trkpt lat="47.74506" lon="7.10886">
        <ele>327.951355</ele>
        <time>2022-10-30T15:55:40Z</time>
      </trkpt>
      <trkpt lat="47.74502" lon="7.10904">
        <ele>327.829071</ele>
        <time>2022-10-30T15:55:42Z</time>
      </trkpt>
      <trkpt lat="47.74499" lon="7.10923">
        <ele>327.669006</ele>
        <time>2022-10-30T15:55:44Z</time>
      </trkpt>
      <trkpt lat="47.74496" lon="7.10941">
        <ele>327.557434</ele>
        <time>2022-10-30T15:55:46Z</time>
      </trkpt>
      <trkpt lat="47.74492" lon="7.10959">
        <ele>327.448578</ele>
        <time>2022-10-30T15:55:48Z</time>
      </trkpt>
      <trkpt lat="47.74488" lon="7.10977">
        <ele>327.333313</ele>
        <time>2022-10-30T15:55:50Z</time>
      </trkpt>
      <trkpt lat="47.74485" lon="7.10995">
        <ele>327.216553</ele>
        <time>2022-10-30T15:55:52Z</time>
      </trkpt>
      <trkpt lat="47.74481" lon="7.11012">
        <ele>327.081818</ele>
        <time>2022-10-30T15:55:54Z</time>
      </trkpt>
      <trkpt lat="47.74477" lon="7.1103">
        <ele>327.047668</ele>
        <time>2022-10-30T15:55:56Z</time>
      </trkpt>
      <trkpt lat="47.74473" lon="7.11047">
        <ele>326.964417</ele>
        <time>2022-10-30T15:55:58Z</time>
      </trkpt>
      <trkpt lat="47.74469" lon="7.11064">
        <ele>326.845154</ele>
        <time>2022-10-30T15:56:00Z</time>
      </trkpt>
      <trkpt lat="47.74464" lon="7.11082">
        <ele>326.714966</ele>
        <time>2022-10-30T15:56:02Z</time>
      </trkpt>
      <trkpt lat="47.74461" lon="7.111">
        <ele>326.642731</ele>
        <time>2022-10-30T15:56:04Z</time>
      </trkpt>
      <trkpt lat="47.74457" lon="7.11118">
        <ele>326.512695</ele>
        <time>2022-10-30T15:56:06Z</time>
      </trkpt>
      <trkpt lat="47.74453" lon="7.11136">
        <ele>326.437866</ele>
        <time>2022-10-30T15:56:08Z</time>
      </trkpt>
      <trkpt lat="47.74449" lon="7.11153">
        <ele>326.331146</ele>
        <time>2022-10-30T15:56:10Z</time>
      </trkpt>
      <trkpt lat="47.74445" lon="7.1117">
        <ele>326.218658</ele>
        <time>2022-10-30T15:56:12Z</time>
      </trkpt>
      <trkpt lat="47.74442" lon="7.11188">
        <ele>326.124756</ele>
        <time>2022-10-30T15:56:14Z</time>
      </trkpt>
      <trkpt lat="47.74437" lon="7.11205">
        <ele>326.032074</ele>
        <time>2022-10-30T15:56:16Z</time>
      </trkpt>
      <trkpt lat="47.74434" lon="7.11223">
        <ele>325.911682</ele>
        <time>2022-10-30T15:56:18Z</time>
      </trkpt>
      <trkpt lat="47.7443" lon="7.11241">
        <ele>325.762268</ele>
        <time>2022-10-30T15:56:20Z</time>
      </trkpt>
      <trkpt lat="47.74427" lon="7.11259">
        <ele>325.659851</ele>
        <time>2022-10-30T15:56:22Z</time>
      </trkpt>
      <trkpt lat="47.74423" lon="7.11276">
        <ele>325.629974</ele>
        <time>2022-10-30T15:56:24Z</time>
      </trkpt>
      <trkpt lat="47.74419" lon="7.11294">
        <ele>325.574493</ele>
        <time>2022-10-30T15:56:26Z</time>
      </trkpt>
      <trkpt lat="47.74416" lon="7.11311">
        <ele>325.513153</ele>
        <time>2022-10-30T15:56:28Z</time>
      </trkpt>
      <trkpt lat="47.74412" lon="7.11328">
        <ele>325.441071</ele>
        <time>2022-10-30T15:56:30Z</time>
      </trkpt>
      <trkpt lat="47.74409" lon="7.11346">
        <ele>325.391968</ele>
        <time>2022-10-30T15:56:32Z</time>
      </trkpt>
      <trkpt lat="47.74405" lon="7.11363">
        <ele>325.276733</ele>
        <time>2022-10-30T15:56:34Z</time>
      </trkpt>
      <trkpt lat="47.74402" lon="7.11381">
        <ele>325.203064</ele>
        <time>2022-10-30T15:56:36Z</time>
      </trkpt>
      <trkpt lat="47.74398" lon="7.11399">
        <ele>325.060089</ele>
        <time>2022-10-30T15:56:38Z</time>
      </trkpt>
      <trkpt lat="47.74394" lon="7.11417">
        <ele>324.94342</ele>
        <time>2022-10-30T15:56:40Z</time>
      </trkpt>
      <trkpt lat="47.7439" lon="7.11435">
        <ele>324.798157</ele>
        <time>2022-10-30T15:56:42Z</time>
      </trkpt>
      <trkpt lat="47.74387" lon="7.11452">
        <ele>324.71759</ele>
        <time>2022-10-30T15:56:44Z</time>
      </trkpt>
      <trkpt lat="47.74383" lon="7.11471">
        <ele>324.630127</ele>
        <time>2022-10-30T15:56:46Z</time>
      </trkpt>
      <trkpt lat="47.74379" lon="7.11489">
        <ele>324.487122</ele>
        <time>2022-10-30T15:56:48Z</time>
      </trkpt>
      <trkpt lat="47.74375" lon="7.11507">
        <ele>324.369904</ele>
        <time>2022-10-30T15:56:50Z</time>
      </trkpt>
      <trkpt lat="47.74372" lon="7.11524">
        <ele>324.23172</ele>
        <time>2022-10-30T15:56:52Z</time>
      </trkpt>
      <trkpt lat="47.74369" lon="7.11542">
        <ele>324.116486</ele>
        <time>2022-10-30T15:56:54Z</time>
      </trkpt>
      <trkpt lat="47.74366" lon="7.1156">
        <ele>324.0354</ele>
        <time>2022-10-30T15:56:56Z</time>
      </trkpt>
      <trkpt lat="47.74362" lon="7.11578">
        <ele>323.909332</ele>
        <time>2022-10-30T15:56:58Z</time>
      </trkpt>
      <trkpt lat="47.74359" lon="7.11595">
        <ele>323.828369</ele>
        <time>2022-10-30T15:57:00Z</time>
      </trkpt>
      <trkpt lat="47.74355" lon="7.11613">
        <ele>323.719543</ele>
        <time>2022-10-30T15:57:02Z</time>
      </trkpt>
      <trkpt lat="47.74352" lon="7.1163">
        <ele>323.60434</ele>
        <time>2022-10-30T15:57:04Z</time>
      </trkpt>
      <trkpt lat="47.74348" lon="7.11647">
        <ele>323.369629</ele>
        <time>2022-10-30T15:57:06Z</time>
      </trkpt>
      <trkpt lat="47.74345" lon="7.11665">
        <ele>323.254395</ele>
        <time>2022-10-30T15:57:08Z</time>
      </trkpt>
      <trkpt lat="47.74341" lon="7.11682">
        <ele>323.090088</ele>
        <time>2022-10-30T15:57:10Z</time>
      </trkpt>
      <trkpt lat="47.74337" lon="7.11699">
        <ele>322.903992</ele>
        <time>2022-10-30T15:57:12Z</time>
      </trkpt>
      <trkpt lat="47.74334" lon="7.11717">
        <ele>322.76889</ele>
        <time>2022-10-30T15:57:14Z</time>
      </trkpt>
      <trkpt lat="47.7433" lon="7.11734">
        <ele>322.728363</ele>
        <time>2022-10-30T15:57:16Z</time>
      </trkpt>
      <trkpt lat="47.74327" lon="7.11751">
        <ele>322.567322</ele>
        <time>2022-10-30T15:57:18Z</time>
      </trkpt>
      <trkpt lat="47.74324" lon="7.11768">
        <ele>322.424377</ele>
        <time>2022-10-30T15:57:20Z</time>
      </trkpt>
      <trkpt lat="47.7432" lon="7.11784">
        <ele>322.284973</ele>
        <time>2022-10-30T15:57:22Z</time>
      </trkpt>
      <trkpt lat="47.74316" lon="7.11801">
        <ele>322.176117</ele>
        <time>2022-10-30T15:57:24Z</time>
      </trkpt>
      <trkpt lat="47.74313" lon="7.11817">
        <ele>322.000671</ele>
        <time>2022-10-30T15:57:26Z</time>
      </trkpt>
      <trkpt lat="47.7431" lon="7.11834">
        <ele>321.858978</ele>
        <time>2022-10-30T15:57:28Z</time>
      </trkpt>
      <trkpt lat="47.74307" lon="7.11852">
        <ele>321.765137</ele>
        <time>2022-10-30T15:57:30Z</time>
      </trkpt>
      <trkpt lat="47.74303" lon="7.11869">
        <ele>321.647797</ele>
        <time>2022-10-30T15:57:32Z</time>
      </trkpt>
      <trkpt lat="47.743" lon="7.11886">
        <ele>321.600891</ele>
        <time>2022-10-30T15:57:34Z</time>
      </trkpt>
      <trkpt lat="47.74297" lon="7.11903">
        <ele>321.487823</ele>
        <time>2022-10-30T15:57:36Z</time>
      </trkpt>
      <trkpt lat="47.74293" lon="7.11921">
        <ele>321.393982</ele>
        <time>2022-10-30T15:57:38Z</time>
      </trkpt>
      <trkpt lat="47.74289" lon="7.11938">
        <ele>321.284119</ele>
        <time>2022-10-30T15:57:40Z</time>
      </trkpt>
      <trkpt lat="47.74286" lon="7.11956">
        <ele>321.185852</ele>
        <time>2022-10-30T15:57:42Z</time>
      </trkpt>
      <trkpt lat="47.74282" lon="7.11973">
        <ele>321.102692</ele>
        <time>2022-10-30T15:57:44Z</time>
      </trkpt>
      <trkpt lat="47.74277" lon="7.11991">
        <ele>321.048615</ele>
        <time>2022-10-30T15:57:46Z</time>
      </trkpt>
      <trkpt lat="47.74273" lon="7.12009">
        <ele>320.980621</ele>
        <time>2022-10-30T15:57:48Z</time>
      </trkpt>
      <trkpt lat="47.74269" lon="7.12027">
        <ele>320.835571</ele>
        <time>2022-10-30T15:57:50Z</time>
      </trkpt>
      <trkpt lat="47.74265" lon="7.12045">
        <ele>320.731049</ele>
        <time>2022-10-30T15:57:52Z</time>
      </trkpt>
      <trkpt lat="47.74261" lon="7.12063">
        <ele>320.663452</ele>
        <time>2022-10-30T15:57:54Z</time>
      </trkpt>
      <trkpt lat="47.74257" lon="7.1208">
        <ele>320.553223</ele>
        <time>2022-10-30T15:57:56Z</time>
      </trkpt>
      <trkpt lat="47.74254" lon="7.12097">
        <ele>320.480682</ele>
        <time>2022-10-30T15:57:58Z</time>
      </trkpt>
      <trkpt lat="47.7425" lon="7.12114">
        <ele>320.387939</ele>
        <time>2022-10-30T15:58:00Z</time>
      </trkpt>
      <trkpt lat="47.74246" lon="7.12131">
        <ele>320.330658</ele>
        <time>2022-10-30T15:58:02Z</time>
      </trkpt>
      <trkpt lat="47.74243" lon="7.12147">
        <ele>320.260284</ele>
        <time>2022-10-30T15:58:04Z</time>
      </trkpt>
      <trkpt lat="47.7424" lon="7.12163">
        <ele>320.170715</ele>
        <time>2022-10-30T15:58:06Z</time>
      </trkpt>
      <trkpt lat="47.74237" lon="7.1218">
        <ele>320.106689</ele>
        <time>2022-10-30T15:58:08Z</time>
      </trkpt>
      <trkpt lat="47.74233" lon="7.12198">
        <ele>320.001556</ele>
        <time>2022-10-30T15:58:10Z</time>
      </trkpt>
      <trkpt lat="47.74229" lon="7.12215">
        <ele>319.931152</ele>
        <time>2022-10-30T15:58:12Z</time>
      </trkpt>
      <trkpt lat="47.74225" lon="7.12232">
        <ele>319.869904</ele>
        <time>2022-10-30T15:58:14Z</time>
      </trkpt>
      <trkpt lat="47.74222" lon="7.12248">
        <ele>319.7547</ele>
        <time>2022-10-30T15:58:16Z</time>
      </trkpt>
      <trkpt lat="47.74218" lon="7.12264">
        <ele>319.729095</ele>
        <time>2022-10-30T15:58:18Z</time>
      </trkpt>
      <trkpt lat="47.74215" lon="7.12281">
        <ele>319.680084</ele>
        <time>2022-10-30T15:58:20Z</time>
      </trkpt>
      <trkpt lat="47.74211" lon="7.12299">
        <ele>319.593567</ele>
        <time>2022-10-30T15:58:22Z</time>
      </trkpt>
      <trkpt lat="47.74207" lon="7.12316">
        <ele>319.514648</ele>
        <time>2022-10-30T15:58:24Z</time>
      </trkpt>
      <trkpt lat="47.74204" lon="7.12333">
        <ele>319.427185</ele>
        <time>2022-10-30T15:58:26Z</time>
      </trkpt>
      <trkpt lat="47.742" lon="7.12351">
        <ele>319.302094</ele>
        <time>2022-10-30T15:58:28Z</time>
      </trkpt>
      <trkpt lat="47.74197" lon="7.12369">
        <ele>319.236389</ele>
        <time>2022-10-30T15:58:30Z</time>
      </trkpt>
      <trkpt lat="47.74194" lon="7.12386">
        <ele>319.114807</ele>
        <time>2022-10-30T15:58:32Z</time>
      </trkpt>
      <trkpt lat="47.74191" lon="7.12404">
        <ele>319.046967</ele>
        <time>2022-10-30T15:58:34Z</time>
      </trkpt>
      <trkpt lat="47.74188" lon="7.12422">
        <ele>318.958862</ele>
        <time>2022-10-30T15:58:36Z</time>
      </trkpt>
      <trkpt lat="47.74184" lon="7.12439">
        <ele>318.852234</ele>
        <time>2022-10-30T15:58:38Z</time>
      </trkpt>
      <trkpt lat="47.74181" lon="7.12457">
        <ele>318.803162</ele>
        <time>2022-10-30T15:58:40Z</time>
      </trkpt>
      <trkpt lat="47.74177" lon="7.12474">
        <ele>318.723145</ele>
        <time>2022-10-30T15:58:42Z</time>
      </trkpt>
      <trkpt lat="47.74173" lon="7.12492">
        <ele>318.622589</ele>
        <time>2022-10-30T15:58:44Z</time>
      </trkpt>
      <trkpt lat="47.7417" lon="7.1251">
        <ele>318.540802</ele>
        <time>2022-10-30T15:58:46Z</time>
      </trkpt>
      <trkpt lat="47.74167" lon="7.12526">
        <ele>318.511902</ele>
        <time>2022-10-30T15:58:48Z</time>
      </trkpt>
      <trkpt lat="47.74163" lon="7.12543">
        <ele>318.405304</ele>
        <time>2022-10-30T15:58:50Z</time>
      </trkpt>
      <trkpt lat="47.74159" lon="7.12561">
        <ele>318.332458</ele>
        <time>2022-10-30T15:58:52Z</time>
      </trkpt>
      <trkpt lat="47.74155" lon="7.12579">
        <ele>318.249756</ele>
        <time>2022-10-30T15:58:54Z</time>
      </trkpt>
      <trkpt lat="47.74152" lon="7.12596">
        <ele>318.138336</ele>
        <time>2022-10-30T15:58:56Z</time>
      </trkpt>
      <trkpt lat="47.74149" lon="7.12613">
        <ele>318.055176</ele>
        <time>2022-10-30T15:58:58Z</time>
      </trkpt>
      <trkpt lat="47.74145" lon="7.1263">
        <ele>317.978424</ele>
        <time>2022-10-30T15:59:00Z</time>
      </trkpt>
      <trkpt lat="47.74141" lon="7.12648">
        <ele>317.857971</ele>
        <time>2022-10-30T15:59:02Z</time>
      </trkpt>
      <trkpt lat="47.74138" lon="7.12666">
        <ele>317.730042</ele>
        <time>2022-10-30T15:59:04Z</time>
      </trkpt>
      <trkpt lat="47.74134" lon="7.12683">
        <ele>317.683105</ele>
        <time>2022-10-30T15:59:06Z</time>
      </trkpt>
      <trkpt lat="47.74131" lon="7.12699">
        <ele>317.642578</ele>
        <time>2022-10-30T15:59:08Z</time>
      </trkpt>
      <trkpt lat="47.74129" lon="7.12717">
        <ele>317.542786</ele>
        <time>2022-10-30T15:59:10Z</time>
      </trkpt>
      <trkpt lat="47.74126" lon="7.12734">
        <ele>317.409882</ele>
        <time>2022-10-30T15:59:12Z</time>
      </trkpt>
      <trkpt lat="47.74124" lon="7.12751">
        <ele>317.330994</ele>
        <time>2022-10-30T15:59:14Z</time>
      </trkpt>
      <trkpt lat="47.74123" lon="7.12768">
        <ele>317.21759</ele>
        <time>2022-10-30T15:59:16Z</time>
      </trkpt>
      <trkpt lat="47.74121" lon="7.12784">
        <ele>317.107666</ele>
        <time>2022-10-30T15:59:18Z</time>
      </trkpt>
      <trkpt lat="47.74119" lon="7.12801">
        <ele>317.011719</ele>
        <time>2022-10-30T15:59:20Z</time>
      </trkpt>
      <trkpt lat="47.74117" lon="7.12819">
        <ele>316.886383</ele>
        <time>2022-10-30T15:59:22Z</time>
      </trkpt>
      <trkpt lat="47.74116" lon="7.12836">
        <ele>316.766937</ele>
        <time>2022-10-30T15:59:24Z</time>
      </trkpt>
      <trkpt lat="47.74113" lon="7.12854">
        <ele>316.693359</ele>
        <time>2022-10-30T15:59:26Z</time>
      </trkpt>
      <trkpt lat="47.74111" lon="7.12869">
        <ele>316.553375</ele>
        <time>2022-10-30T15:59:28Z</time>
      </trkpt>
      <trkpt lat="47.74111" lon="7.12882">
        <ele>316.426575</ele>
        <time>2022-10-30T15:59:30Z</time>
      </trkpt>
      <trkpt lat="47.74114" lon="7.12894">
        <ele>316.312256</ele>
        <time>2022-10-30T15:59:32Z</time>
      </trkpt>
      <trkpt lat="47.74114" lon="7.1291">
        <ele>316.244019</ele>
        <time>2022-10-30T15:59:34Z</time>
      </trkpt>
      <trkpt lat="47.74114" lon="7.12928">
        <ele>316.115662</ele>
        <time>2022-10-30T15:59:36Z</time>
      </trkpt>
      <trkpt lat="47.74115" lon="7.12947">
        <ele>315.979126</ele>
        <time>2022-10-30T15:59:38Z</time>
      </trkpt>
      <trkpt lat="47.74115" lon="7.12966">
        <ele>315.889343</ele>
        <time>2022-10-30T15:59:40Z</time>
      </trkpt>
      <trkpt lat="47.74116" lon="7.12985">
        <ele>315.703827</ele>
        <time>2022-10-30T15:59:42Z</time>
      </trkpt>
      <trkpt lat="47.74115" lon="7.13004">
        <ele>315.59729</ele>
        <time>2022-10-30T15:59:44Z</time>
      </trkpt>
      <trkpt lat="47.74114" lon="7.13021">
        <ele>315.535217</ele>
        <time>2022-10-30T15:59:46Z</time>
      </trkpt>
      <trkpt lat="47.74111" lon="7.13039">
        <ele>315.400787</ele>
        <time>2022-10-30T15:59:48Z</time>
      </trkpt>
      <trkpt lat="47.74109" lon="7.13056">
        <ele>315.246857</ele>
        <time>2022-10-30T15:59:50Z</time>
      </trkpt>
      <trkpt lat="47.74109" lon="7.13073">
        <ele>315.238312</ele>
        <time>2022-10-30T15:59:52Z</time>
      </trkpt>
      <trkpt lat="47.74109" lon="7.1309">
        <ele>315.161285</ele>
        <time>2022-10-30T15:59:54Z</time>
      </trkpt>
      <trkpt lat="47.7411" lon="7.13107">
        <ele>315.067474</ele>
        <time>2022-10-30T15:59:56Z</time>
      </trkpt>
      <trkpt lat="47.74111" lon="7.13124">
        <ele>314.941711</ele>
        <time>2022-10-30T15:59:58Z</time>
      </trkpt>
      <trkpt lat="47.74112" lon="7.13142">
        <ele>314.829895</ele>
        <time>2022-10-30T16:00:00Z</time>
      </trkpt>
      <trkpt lat="47.74114" lon="7.13158">
        <ele>314.725403</ele>
        <time>2022-10-30T16:00:02Z</time>
      </trkpt>
      <trkpt lat="47.74116" lon="7.13171">
        <ele>314.590637</ele>
        <time>2022-10-30T16:00:04Z</time>
      </trkpt>
      <trkpt lat="47.74118" lon="7.13184">
        <ele>314.509613</ele>
        <time>2022-10-30T16:00:06Z</time>
      </trkpt>
      <trkpt lat="47.74121" lon="7.13196">
        <ele>314.382782</ele>
        <time>2022-10-30T16:00:08Z</time>
      </trkpt>
      <trkpt lat="47.74123" lon="7.13207">
        <ele>314.32309</ele>
        <time>2022-10-30T16:00:10Z</time>
      </trkpt>
      <trkpt lat="47.74125" lon="7.1322">
        <ele>314.289001</ele>
        <time>2022-10-30T16:00:12Z</time>
      </trkpt>
      <trkpt lat="47.74124" lon="7.13233">
        <ele>314.226257</ele>
        <time>2022-10-30T16:00:14Z</time>
      </trkpt>
      <trkpt lat="47.74125" lon="7.13246">
        <ele>314.194275</ele>
        <time>2022-10-30T16:00:16Z</time>
      </trkpt>
      <trkpt lat="47.74125" lon="7.13258">
        <ele>314.168671</ele>
        <time>2022-10-30T16:00:18Z</time>
      </trkpt>
      <trkpt lat="47.74122" lon="7.1327">
        <ele>314.155884</ele>
        <time>2022-10-30T16:00:20Z</time>
      </trkpt>
      <trkpt lat="47.7412" lon="7.13281">
        <ele>314.085754</ele>
        <time>2022-10-30T16:00:22Z</time>
      </trkpt>
      <trkpt lat="47.74118" lon="7.13289">
        <ele>314.080872</ele>
        <time>2022-10-30T16:00:24Z</time>
      </trkpt>
      <trkpt lat="47.74115" lon="7.13295">
        <ele>313.961487</ele>
        <time>2022-10-30T16:00:26Z</time>
      </trkpt>
      <trkpt lat="47.74113" lon="7.13299">
        <ele>313.870117</ele>
        <time>2022-10-30T16:00:28Z</time>
      </trkpt>
      <trkpt lat="47.7411" lon="7.13304">
        <ele>313.795593</ele>
        <time>2022-10-30T16:00:30Z</time>
      </trkpt>
      <trkpt lat="47.74105" lon="7.13308">
        <ele>313.767883</ele>
        <time>2022-10-30T16:00:32Z</time>
      </trkpt>
      <trkpt lat="47.74099" lon="7.13312">
        <ele>313.701813</ele>
        <time>2022-10-30T16:00:34Z</time>
      </trkpt>
      <trkpt lat="47.74093" lon="7.13316">
        <ele>313.636017</ele>
        <time>2022-10-30T16:00:36Z</time>
      </trkpt>
      <trkpt lat="47.74086" lon="7.13323">
        <ele>313.586975</ele>
        <time>2022-10-30T16:00:38Z</time>
      </trkpt>
      <trkpt lat="47.7408" lon="7.1333">
        <ele>313.557129</ele>
        <time>2022-10-30T16:00:40Z</time>
      </trkpt>
      <trkpt lat="47.74073" lon="7.13339">
        <ele>313.4953</ele>
        <time>2022-10-30T16:00:42Z</time>
      </trkpt>
      <trkpt lat="47.74067" lon="7.13349">
        <ele>313.458588</ele>
        <time>2022-10-30T16:00:44Z</time>
      </trkpt>
      <trkpt lat="47.74062" lon="7.13358">
        <ele>313.405304</ele>
        <time>2022-10-30T16:00:46Z</time>
      </trkpt>
      <trkpt lat="47.74056" lon="7.13368">
        <ele>313.32132</ele>
        <time>2022-10-30T16:00:48Z</time>
      </trkpt>
      <trkpt lat="47.74049" lon="7.13379">
        <ele>313.270477</ele>
        <time>2022-10-30T16:00:50Z</time>
      </trkpt>
      <trkpt lat="47.74042" lon="7.1339">
        <ele>313.176697</ele>
        <time>2022-10-30T16:00:52Z</time>
      </trkpt>
      <trkpt lat="47.74035" lon="7.134">
        <ele>313.084015</ele>
        <time>2022-10-30T16:00:54Z</time>
      </trkpt>
      <trkpt lat="47.74028" lon="7.13412">
        <ele>313.006592</ele>
        <time>2022-10-30T16:00:56Z</time>
      </trkpt>
      <trkpt lat="47.74021" lon="7.13423">
        <ele>312.899994</ele>
        <time>2022-10-30T16:00:58Z</time>
      </trkpt>
      <trkpt lat="47.74014" lon="7.13434">
        <ele>312.825378</ele>
        <time>2022-10-30T16:01:00Z</time>
      </trkpt>
      <trkpt lat="47.74007" lon="7.13446">
        <ele>312.697479</ele>
        <time>2022-10-30T16:01:02Z</time>
      </trkpt>
      <trkpt lat="47.73999" lon="7.13458">
        <ele>312.600037</ele>
        <time>2022-10-30T16:01:04Z</time>
      </trkpt>
      <trkpt lat="47.73991" lon="7.1347">
        <ele>312.580872</ele>
        <time>2022-10-30T16:01:06Z</time>
      </trkpt>
      <trkpt lat="47.73984" lon="7.13482">
        <ele>312.546814</ele>
        <time>2022-10-30T16:01:08Z</time>
      </trkpt>
      <trkpt lat="47.73976" lon="7.13494">
        <ele>312.424652</ele>
        <time>2022-10-30T16:01:10Z</time>
      </trkpt>
      <trkpt lat="47.73969" lon="7.13505">
        <ele>312.373505</ele>
        <time>2022-10-30T16:01:12Z</time>
      </trkpt>
      <trkpt lat="47.73961" lon="7.13516">
        <ele>312.251953</ele>
        <time>2022-10-30T16:01:14Z</time>
      </trkpt>
      <trkpt lat="47.73953" lon="7.13528">
        <ele>312.239166</ele>
        <time>2022-10-30T16:01:16Z</time>
      </trkpt>
      <trkpt lat="47.73945" lon="7.1354">
        <ele>312.173096</ele>
        <time>2022-10-30T16:01:18Z</time>
      </trkpt>
      <trkpt lat="47.73938" lon="7.13551">
        <ele>312.094238</ele>
        <time>2022-10-30T16:01:20Z</time>
      </trkpt>
      <trkpt lat="47.7393" lon="7.13561">
        <ele>311.979156</ele>
        <time>2022-10-30T16:01:22Z</time>
      </trkpt>
      <trkpt lat="47.73922" lon="7.13571">
        <ele>311.913055</ele>
        <time>2022-10-30T16:01:24Z</time>
      </trkpt>
      <trkpt lat="47.73914" lon="7.13581">
        <ele>311.843231</ele>
        <time>2022-10-30T16:01:26Z</time>
      </trkpt>
      <trkpt lat="47.73908" lon="7.13591">
        <ele>311.841949</ele>
        <time>2022-10-30T16:01:28Z</time>
      </trkpt>
      <trkpt lat="47.739" lon="7.13601">
        <ele>311.788666</ele>
        <time>2022-10-30T16:01:30Z</time>
      </trkpt>
      <trkpt lat="47.73893" lon="7.13612">
        <ele>311.749969</ele>
        <time>2022-10-30T16:01:32Z</time>
      </trkpt>
      <trkpt lat="47.73885" lon="7.13623">
        <ele>311.716919</ele>
        <time>2022-10-30T16:01:34Z</time>
      </trkpt>
      <trkpt lat="47.73877" lon="7.13634">
        <ele>311.657227</ele>
        <time>2022-10-30T16:01:36Z</time>
      </trkpt>
      <trkpt lat="47.73869" lon="7.13645">
        <ele>311.612091</ele>
        <time>2022-10-30T16:01:38Z</time>
      </trkpt>
      <trkpt lat="47.73861" lon="7.13657">
        <ele>311.599304</ele>
        <time>2022-10-30T16:01:40Z</time>
      </trkpt>
      <trkpt lat="47.73852" lon="7.13669">
        <ele>311.508392</ele>
        <time>2022-10-30T16:01:42Z</time>
      </trkpt>
      <trkpt lat="47.73844" lon="7.1368">
        <ele>311.455139</ele>
        <time>2022-10-30T16:01:44Z</time>
      </trkpt>
      <trkpt lat="47.73837" lon="7.13691">
        <ele>311.423218</ele>
        <time>2022-10-30T16:01:46Z</time>
      </trkpt>
      <trkpt lat="47.73829" lon="7.13701">
        <ele>311.331604</ele>
        <time>2022-10-30T16:01:48Z</time>
      </trkpt>
      <trkpt lat="47.73822" lon="7.13712">
        <ele>311.32135</ele>
        <time>2022-10-30T16:01:50Z</time>
      </trkpt>
      <trkpt lat="47.73814" lon="7.13722">
        <ele>311.255371</ele>
        <time>2022-10-30T16:01:52Z</time>
      </trkpt>
      <trkpt lat="47.73805" lon="7.13733">
        <ele>311.218658</ele>
        <time>2022-10-30T16:01:54Z</time>
      </trkpt>
      <trkpt lat="47.73797" lon="7.13743">
        <ele>311.186707</ele>
        <time>2022-10-30T16:01:56Z</time>
      </trkpt>
      <trkpt lat="47.73789" lon="7.13754">
        <ele>311.20166</ele>
        <time>2022-10-30T16:01:58Z</time>
      </trkpt>
      <trkpt lat="47.73781" lon="7.13765">
        <ele>311.182465</ele>
        <time>2022-10-30T16:02:00Z</time>
      </trkpt>
      <trkpt lat="47.73773" lon="7.13775">
        <ele>311.197418</ele>
        <time>2022-10-30T16:02:02Z</time>
      </trkpt>
      <trkpt lat="47.73765" lon="7.13785">
        <ele>311.232361</ele>
        <time>2022-10-30T16:02:04Z</time>
      </trkpt>
      <trkpt lat="47.73756" lon="7.13795">
        <ele>311.240906</ele>
        <time>2022-10-30T16:02:06Z</time>
      </trkpt>
      <trkpt lat="47.73748" lon="7.13805">
        <ele>311.228119</ele>
        <time>2022-10-30T16:02:08Z</time>
      </trkpt>
      <trkpt lat="47.7374" lon="7.13815">
        <ele>311.214752</ele>
        <time>2022-10-30T16:02:10Z</time>
      </trkpt>
      <trkpt lat="47.73734" lon="7.13823">
        <ele>311.216888</ele>
        <time>2022-10-30T16:02:12Z</time>
      </trkpt>
      <trkpt lat="47.73727" lon="7.13831">
        <ele>311.167877</ele>
        <time>2022-10-30T16:02:14Z</time>
      </trkpt>
      <trkpt lat="47.73721" lon="7.13838">
        <ele>311.121002</ele>
        <time>2022-10-30T16:02:16Z</time>
      </trkpt>
      <trkpt lat="47.73716" lon="7.13844">
        <ele>311.12558</ele>
        <time>2022-10-30T16:02:18Z</time>
      </trkpt>
      <trkpt lat="47.73711" lon="7.1385">
        <ele>311.112793</ele>
        <time>2022-10-30T16:02:20Z</time>
      </trkpt>
      <trkpt lat="47.73705" lon="7.13855">
        <ele>311.137634</ele>
        <time>2022-10-30T16:02:22Z</time>
      </trkpt>
      <trkpt lat="47.73698" lon="7.13857">
        <ele>311.199402</ele>
        <time>2022-10-30T16:02:24Z</time>
      </trkpt>
      <trkpt lat="47.7369" lon="7.13858">
        <ele>311.295319</ele>
        <time>2022-10-30T16:02:26Z</time>
      </trkpt>
      <trkpt lat="47.73684" lon="7.13859">
        <ele>311.384766</ele>
        <time>2022-10-30T16:02:28Z</time>
      </trkpt>
      <trkpt lat="47.73677" lon="7.13862">
        <ele>311.452576</ele>
        <time>2022-10-30T16:02:30Z</time>
      </trkpt>
      <trkpt lat="47.7367" lon="7.13865">
        <ele>311.546326</ele>
        <time>2022-10-30T16:02:32Z</time>
      </trkpt>
      <trkpt lat="47.73662" lon="7.13868">
        <ele>311.64328</ele>
        <time>2022-10-30T16:02:34Z</time>
      </trkpt>
      <trkpt lat="47.73653" lon="7.13871">
        <ele>311.67157</ele>
        <time>2022-10-30T16:02:36Z</time>
      </trkpt>
      <trkpt lat="47.73645" lon="7.13876">
        <ele>311.733368</ele>
        <time>2022-10-30T16:02:38Z</time>
      </trkpt>
      <trkpt lat="47.73637" lon="7.1388">
        <ele>311.771057</ele>
        <time>2022-10-30T16:02:40Z</time>
      </trkpt>
      <trkpt lat="47.73631" lon="7.13885">
        <ele>311.852051</ele>
        <time>2022-10-30T16:02:42Z</time>
      </trkpt>
      <trkpt lat="47.73625" lon="7.13889">
        <ele>311.945831</ele>
        <time>2022-10-30T16:02:44Z</time>
      </trkpt>
      <trkpt lat="47.7362" lon="7.13895">
        <ele>312.092041</ele>
        <time>2022-10-30T16:02:46Z</time>
      </trkpt>
      <trkpt lat="47.73615" lon="7.13903">
        <ele>312.179413</ele>
        <time>2022-10-30T16:02:48Z</time>
      </trkpt>
      <trkpt lat="47.7361" lon="7.13911">
        <ele>312.321686</ele>
        <time>2022-10-30T16:02:50Z</time>
      </trkpt>
      <trkpt lat="47.73604" lon="7.1392">
        <ele>312.465088</ele>
        <time>2022-10-30T16:02:52Z</time>
      </trkpt>
      <trkpt lat="47.73599" lon="7.1393">
        <ele>312.678253</ele>
        <time>2022-10-30T16:02:54Z</time>
      </trkpt>
      <trkpt lat="47.73593" lon="7.13941">
        <ele>312.925476</ele>
        <time>2022-10-30T16:02:56Z</time>
      </trkpt>
      <trkpt lat="47.73588" lon="7.13951">
        <ele>313.16391</ele>
        <time>2022-10-30T16:02:58Z</time>
      </trkpt>
      <trkpt lat="47.73583" lon="7.13962">
        <ele>313.391998</ele>
        <time>2022-10-30T16:03:00Z</time>
      </trkpt>
      <trkpt lat="47.73577" lon="7.13973">
        <ele>313.585968</ele>
        <time>2022-10-30T16:03:02Z</time>
      </trkpt>
      <trkpt lat="47.73571" lon="7.13984">
        <ele>313.782074</ele>
        <time>2022-10-30T16:03:04Z</time>
      </trkpt>
      <trkpt lat="47.73566" lon="7.13993">
        <ele>313.971863</ele>
        <time>2022-10-30T16:03:06Z</time>
      </trkpt>
      <trkpt lat="47.73561" lon="7.14002">
        <ele>314.204285</ele>
        <time>2022-10-30T16:03:08Z</time>
      </trkpt>
      <trkpt lat="47.73556" lon="7.14011">
        <ele>314.389954</ele>
        <time>2022-10-30T16:03:10Z</time>
      </trkpt>
      <trkpt lat="47.7355" lon="7.14019">
        <ele>314.509338</ele>
        <time>2022-10-30T16:03:12Z</time>
      </trkpt>
      <trkpt lat="47.73544" lon="7.14027">
        <ele>314.678009</ele>
        <time>2022-10-30T16:03:14Z</time>
      </trkpt>
      <trkpt lat="47.73537" lon="7.14035">
        <ele>314.865112</ele>
        <time>2022-10-30T16:03:16Z</time>
      </trkpt>
      <trkpt lat="47.7353" lon="7.14042">
        <ele>315.079865</ele>
        <time>2022-10-30T16:03:18Z</time>
      </trkpt>
      <trkpt lat="47.73522" lon="7.14048">
        <ele>315.306519</ele>
        <time>2022-10-30T16:03:20Z</time>
      </trkpt>
      <trkpt lat="47.73514" lon="7.14054">
        <ele>315.477417</ele>
        <time>2022-10-30T16:03:22Z</time>
      </trkpt>
      <trkpt lat="47.73506" lon="7.14059">
        <ele>315.683441</ele>
        <time>2022-10-30T16:03:24Z</time>
      </trkpt>
      <trkpt lat="47.73498" lon="7.14063">
        <ele>315.84549</ele>
        <time>2022-10-30T16:03:26Z</time>
      </trkpt>
      <trkpt lat="47.7349" lon="7.14068">
        <ele>316.005371</ele>
        <time>2022-10-30T16:03:28Z</time>
      </trkpt>
      <trkpt lat="47.73482" lon="7.14072">
        <ele>316.129028</ele>
        <time>2022-10-30T16:03:30Z</time>
      </trkpt>
      <trkpt lat="47.73473" lon="7.14077">
        <ele>316.236145</ele>
        <time>2022-10-30T16:03:32Z</time>
      </trkpt>
      <trkpt lat="47.73465" lon="7.14082">
        <ele>316.291565</ele>
        <time>2022-10-30T16:03:34Z</time>
      </trkpt>
      <trkpt lat="47.73456" lon="7.14088">
        <ele>316.322083</ele>
        <time>2022-10-30T16:03:36Z</time>
      </trkpt>
      <trkpt lat="47.73447" lon="7.14095">
        <ele>316.364716</ele>
        <time>2022-10-30T16:03:38Z</time>
      </trkpt>
      <trkpt lat="47.73439" lon="7.14103">
        <ele>316.375397</ele>
        <time>2022-10-30T16:03:40Z</time>
      </trkpt>
      <trkpt lat="47.7343" lon="7.14112">
        <ele>316.383942</ele>
        <time>2022-10-30T16:03:42Z</time>
      </trkpt>
      <trkpt lat="47.73423" lon="7.14119">
        <ele>316.422333</ele>
        <time>2022-10-30T16:03:44Z</time>
      </trkpt>
      <trkpt lat="47.73415" lon="7.14126">
        <ele>316.467468</ele>
        <time>2022-10-30T16:03:46Z</time>
      </trkpt>
      <trkpt lat="47.73407" lon="7.14134">
        <ele>316.435486</ele>
        <time>2022-10-30T16:03:48Z</time>
      </trkpt>
      <trkpt lat="47.73399" lon="7.14142">
        <ele>316.353943</ele>
        <time>2022-10-30T16:03:50Z</time>
      </trkpt>
      <trkpt lat="47.73391" lon="7.14151">
        <ele>316.323334</ele>
        <time>2022-10-30T16:03:52Z</time>
      </trkpt>
      <trkpt lat="47.73383" lon="7.14158">
        <ele>316.246338</ele>
        <time>2022-10-30T16:03:54Z</time>
      </trkpt>
      <trkpt lat="47.73375" lon="7.14166">
        <ele>316.210114</ele>
        <time>2022-10-30T16:03:56Z</time>
      </trkpt>
      <trkpt lat="47.73368" lon="7.14173">
        <ele>316.162476</ele>
        <time>2022-10-30T16:03:58Z</time>
      </trkpt>
      <trkpt lat="47.7336" lon="7.1418">
        <ele>316.113464</ele>
        <time>2022-10-30T16:04:00Z</time>
      </trkpt>
      <trkpt lat="47.73352" lon="7.14186">
        <ele>316.064789</ele>
        <time>2022-10-30T16:04:02Z</time>
      </trkpt>
      <trkpt lat="47.73345" lon="7.14192">
        <ele>315.969299</ele>
        <time>2022-10-30T16:04:04Z</time>
      </trkpt>
      <trkpt lat="47.73338" lon="7.14198">
        <ele>315.909576</ele>
        <time>2022-10-30T16:04:06Z</time>
      </trkpt>
      <trkpt lat="47.73331" lon="7.14204">
        <ele>315.817902</ele>
        <time>2022-10-30T16:04:08Z</time>
      </trkpt>
      <trkpt lat="47.73325" lon="7.14208">
        <ele>315.747528</ele>
        <time>2022-10-30T16:04:10Z</time>
      </trkpt>
      <trkpt lat="47.73319" lon="7.1421">
        <ele>315.72406</ele>
        <time>2022-10-30T16:04:12Z</time>
      </trkpt>
      <trkpt lat="47.73314" lon="7.14212">
        <ele>315.69635</ele>
        <time>2022-10-30T16:04:14Z</time>
      </trkpt>
      <trkpt lat="47.73311" lon="7.14216">
        <ele>315.68573</ele>
        <time>2022-10-30T16:04:16Z</time>
      </trkpt>
      <trkpt lat="47.73311" lon="7.14222">
        <ele>315.633911</ele>
        <time>2022-10-30T16:04:18Z</time>
      </trkpt>
      <trkpt lat="47.73314" lon="7.14228">
        <ele>315.634094</ele>
        <time>2022-10-30T16:04:20Z</time>
      </trkpt>
      <trkpt lat="47.73319" lon="7.14237">
        <ele>315.587219</ele>
        <time>2022-10-30T16:04:22Z</time>
      </trkpt>
      <trkpt lat="47.73319" lon="7.14249">
        <ele>315.548767</ele>
        <time>2022-10-30T16:04:24Z</time>
      </trkpt>
      <trkpt lat="47.73319" lon="7.14262">
        <ele>315.437897</ele>
        <time>2022-10-30T16:04:26Z</time>
      </trkpt>
      <trkpt lat="47.73319" lon="7.14273">
        <ele>315.305359</ele>
        <time>2022-10-30T16:04:28Z</time>
      </trkpt>
      <trkpt lat="47.7332" lon="7.14284">
        <ele>315.251221</ele>
        <time>2022-10-30T16:04:30Z</time>
      </trkpt>
      <trkpt lat="47.7332" lon="7.14296">
        <ele>315.153687</ele>
        <time>2022-10-30T16:04:32Z</time>
      </trkpt>
      <trkpt lat="47.7332" lon="7.14307">
        <ele>315.058289</ele>
        <time>2022-10-30T16:04:34Z</time>
      </trkpt>
      <trkpt lat="47.7332" lon="7.14318">
        <ele>314.962341</ele>
        <time>2022-10-30T16:04:36Z</time>
      </trkpt>
      <trkpt lat="47.73321" lon="7.14329">
        <ele>314.86673</ele>
        <time>2022-10-30T16:04:38Z</time>
      </trkpt>
      <trkpt lat="47.73321" lon="7.14344">
        <ele>314.754913</ele>
        <time>2022-10-30T16:04:40Z</time>
      </trkpt>
      <trkpt lat="47.73321" lon="7.1436">
        <ele>314.618469</ele>
        <time>2022-10-30T16:04:42Z</time>
      </trkpt>
      <trkpt lat="47.73322" lon="7.14379">
        <ele>314.451843</ele>
        <time>2022-10-30T16:04:44Z</time>
      </trkpt>
      <trkpt lat="47.73322" lon="7.14398">
        <ele>314.344635</ele>
        <time>2022-10-30T16:04:46Z</time>
      </trkpt>
      <trkpt lat="47.73321" lon="7.14417">
        <ele>314.252991</ele>
        <time>2022-10-30T16:04:48Z</time>
      </trkpt>
      <trkpt lat="47.7332" lon="7.14436">
        <ele>314.063263</ele>
        <time>2022-10-30T16:04:50Z</time>
      </trkpt>
      <trkpt lat="47.73319" lon="7.14455">
        <ele>313.815979</ele>
        <time>2022-10-30T16:04:52Z</time>
      </trkpt>
      <trkpt lat="47.73317" lon="7.14473">
        <ele>313.545288</ele>
        <time>2022-10-30T16:04:54Z</time>
      </trkpt>
      <trkpt lat="47.73316" lon="7.14491">
        <ele>313.309113</ele>
        <time>2022-10-30T16:04:56Z</time>
      </trkpt>
      <trkpt lat="47.73315" lon="7.14509">
        <ele>313.114929</ele>
        <time>2022-10-30T16:04:58Z</time>
      </trkpt>
      <trkpt lat="47.73314" lon="7.14525">
        <ele>312.877563</ele>
        <time>2022-10-30T16:05:00Z</time>
      </trkpt>
      <trkpt lat="47.73312" lon="7.1454">
        <ele>312.582733</ele>
        <time>2022-10-30T16:05:02Z</time>
      </trkpt>
      <trkpt lat="47.73309" lon="7.14551">
        <ele>312.309998</ele>
        <time>2022-10-30T16:05:04Z</time>
      </trkpt>
      <trkpt lat="47.73313" lon="7.14558">
        <ele>312.141602</ele>
        <time>2022-10-30T16:05:06Z</time>
      </trkpt>
      <trkpt lat="47.7332" lon="7.14555">
        <ele>311.938416</ele>
        <time>2022-10-30T16:05:08Z</time>
      </trkpt>
      <trkpt lat="47.73328" lon="7.14552">
        <ele>311.698425</ele>
        <time>2022-10-30T16:05:10Z</time>
      </trkpt>
      <trkpt lat="47.73336" lon="7.14549">
        <ele>311.440277</ele>
        <time>2022-10-30T16:05:12Z</time>
      </trkpt>
      <trkpt lat="47.73346" lon="7.14546">
        <ele>311.173889</ele>
        <time>2022-10-30T16:05:14Z</time>
      </trkpt>
      <trkpt lat="47.73356" lon="7.14543">
        <ele>310.907501</ele>
        <time>2022-10-30T16:05:16Z</time>
      </trkpt>
      <trkpt lat="47.73365" lon="7.14542">
        <ele>310.685852</ele>
        <time>2022-10-30T16:05:18Z</time>
      </trkpt>
      <trkpt lat="47.73375" lon="7.14541">
        <ele>310.414886</ele>
        <time>2022-10-30T16:05:20Z</time>
      </trkpt>
      <trkpt lat="47.73383" lon="7.1454">
        <ele>310.212433</ele>
        <time>2022-10-30T16:05:22Z</time>
      </trkpt>
      <trkpt lat="47.73393" lon="7.14539">
        <ele>309.984528</ele>
        <time>2022-10-30T16:05:24Z</time>
      </trkpt>
      <trkpt lat="47.73402" lon="7.14539">
        <ele>309.873718</ele>
        <time>2022-10-30T16:05:26Z</time>
      </trkpt>
      <trkpt lat="47.73411" lon="7.14537">
        <ele>309.730743</ele>
        <time>2022-10-30T16:05:28Z</time>
      </trkpt>
      <trkpt lat="47.7342" lon="7.14536">
        <ele>309.552338</ele>
        <time>2022-10-30T16:05:30Z</time>
      </trkpt>
      <trkpt lat="47.7343" lon="7.14535">
        <ele>309.379761</ele>
        <time>2022-10-30T16:05:32Z</time>
      </trkpt>
      <trkpt lat="47.73439" lon="7.14535">
        <ele>309.308197</ele>
        <time>2022-10-30T16:05:34Z</time>
      </trkpt>
      <trkpt lat="47.73449" lon="7.14534">
        <ele>309.154785</ele>
        <time>2022-10-30T16:05:36Z</time>
      </trkpt>
      <trkpt lat="47.7346" lon="7.14532">
        <ele>308.97113</ele>
        <time>2022-10-30T16:05:38Z</time>
      </trkpt>
      <trkpt lat="47.73471" lon="7.14532">
        <ele>308.773132</ele>
        <time>2022-10-30T16:05:40Z</time>
      </trkpt>
      <trkpt lat="47.73482" lon="7.14533">
        <ele>308.558716</ele>
        <time>2022-10-30T16:05:42Z</time>
      </trkpt>
      <trkpt lat="47.73493" lon="7.14533">
        <ele>308.424957</ele>
        <time>2022-10-30T16:05:44Z</time>
      </trkpt>
      <trkpt lat="47.73503" lon="7.14533">
        <ele>308.34613</ele>
        <time>2022-10-30T16:05:46Z</time>
      </trkpt>
      <trkpt lat="47.73513" lon="7.14533">
        <ele>308.227112</ele>
        <time>2022-10-30T16:05:48Z</time>
      </trkpt>
      <trkpt lat="47.73523" lon="7.14534">
        <ele>308.05658</ele>
        <time>2022-10-30T16:05:50Z</time>
      </trkpt>
      <trkpt lat="47.73532" lon="7.14537">
        <ele>307.917267</ele>
        <time>2022-10-30T16:05:52Z</time>
      </trkpt>
      <trkpt lat="47.73542" lon="7.14543">
        <ele>307.809662</ele>
        <time>2022-10-30T16:05:54Z</time>
      </trkpt>
      <trkpt lat="47.73551" lon="7.14551">
        <ele>307.743591</ele>
        <time>2022-10-30T16:05:56Z</time>
      </trkpt>
      <trkpt lat="47.7356" lon="7.14557">
        <ele>307.648193</ele>
        <time>2022-10-30T16:05:58Z</time>
      </trkpt>
      <trkpt lat="47.7357" lon="7.14563">
        <ele>307.496918</ele>
        <time>2022-10-30T16:06:00Z</time>
      </trkpt>
      <trkpt lat="47.73579" lon="7.14569">
        <ele>307.404785</ele>
        <time>2022-10-30T16:06:02Z</time>
      </trkpt>
      <trkpt lat="47.73587" lon="7.14574">
        <ele>307.268433</ele>
        <time>2022-10-30T16:06:04Z</time>
      </trkpt>
      <trkpt lat="47.73596" lon="7.1458">
        <ele>307.123474</ele>
        <time>2022-10-30T16:06:06Z</time>
      </trkpt>
      <trkpt lat="47.73606" lon="7.14585">
        <ele>306.993683</ele>
        <time>2022-10-30T16:06:08Z</time>
      </trkpt>
      <trkpt lat="47.73615" lon="7.14591">
        <ele>306.834747</ele>
        <time>2022-10-30T16:06:10Z</time>
      </trkpt>
      <trkpt lat="47.73624" lon="7.14596">
        <ele>306.709045</ele>
        <time>2022-10-30T16:06:12Z</time>
      </trkpt>
      <trkpt lat="47.73632" lon="7.14602">
        <ele>306.664001</ele>
        <time>2022-10-30T16:06:14Z</time>
      </trkpt>
      <trkpt lat="47.73641" lon="7.14607">
        <ele>306.515076</ele>
        <time>2022-10-30T16:06:16Z</time>
      </trkpt>
      <trkpt lat="47.7365" lon="7.14613">
        <ele>306.455383</ele>
        <time>2022-10-30T16:06:18Z</time>
      </trkpt>
      <trkpt lat="47.7366" lon="7.14619">
        <ele>306.340363</ele>
        <time>2022-10-30T16:06:20Z</time>
      </trkpt>
      <trkpt lat="47.73669" lon="7.14624">
        <ele>306.250885</ele>
        <time>2022-10-30T16:06:22Z</time>
      </trkpt>
      <trkpt lat="47.73678" lon="7.14628">
        <ele>306.227448</ele>
        <time>2022-10-30T16:06:24Z</time>
      </trkpt>
      <trkpt lat="47.73687" lon="7.14632">
        <ele>306.144348</ele>
        <time>2022-10-30T16:06:26Z</time>
      </trkpt>
      <trkpt lat="47.73695" lon="7.14636">
        <ele>306.073792</ele>
        <time>2022-10-30T16:06:28Z</time>
      </trkpt>
      <trkpt lat="47.73703" lon="7.14641">
        <ele>306.072418</ele>
        <time>2022-10-30T16:06:30Z</time>
      </trkpt>
      <trkpt lat="47.7371" lon="7.14648">
        <ele>306.083069</ele>
        <time>2022-10-30T16:06:32Z</time>
      </trkpt>
      <trkpt lat="47.73712" lon="7.14657">
        <ele>305.987244</ele>
        <time>2022-10-30T16:06:34Z</time>
      </trkpt>
      <trkpt lat="47.73711" lon="7.14668">
        <ele>305.889221</ele>
        <time>2022-10-30T16:06:36Z</time>
      </trkpt>
      <trkpt lat="47.73709" lon="7.1468">
        <ele>305.86795</ele>
        <time>2022-10-30T16:06:38Z</time>
      </trkpt>
      <trkpt lat="47.73707" lon="7.14691">
        <ele>305.843323</ele>
        <time>2022-10-30T16:06:40Z</time>
      </trkpt>
      <trkpt lat="47.73705" lon="7.14701">
        <ele>305.853973</ele>
        <time>2022-10-30T16:06:42Z</time>
      </trkpt>
      <trkpt lat="47.73703" lon="7.14711">
        <ele>305.807648</ele>
        <time>2022-10-30T16:06:44Z</time>
      </trkpt>
      <trkpt lat="47.73701" lon="7.14721">
        <ele>305.752258</ele>
        <time>2022-10-30T16:06:46Z</time>
      </trkpt>
      <trkpt lat="47.73698" lon="7.14731">
        <ele>305.737366</ele>
        <time>2022-10-30T16:06:48Z</time>
      </trkpt>
      <trkpt lat="47.73698" lon="7.1474">
        <ele>305.701782</ele>
        <time>2022-10-30T16:06:50Z</time>
      </trkpt>
      <trkpt lat="47.737" lon="7.14744">
        <ele>305.662628</ele>
        <time>2022-10-30T16:06:52Z</time>
      </trkpt>
      <trkpt lat="47.73703" lon="7.14747">
        <ele>305.546906</ele>
        <time>2022-10-30T16:06:58Z</time>
      </trkpt>
      <trkpt lat="47.73705" lon="7.14747">
        <ele>305.514618</ele>
        <time>2022-10-30T16:07:00Z</time>
      </trkpt>
      <trkpt lat="47.73708" lon="7.14746">
        <ele>305.518829</ele>
        <time>2022-10-30T16:07:02Z</time>
      </trkpt>
      <trkpt lat="47.73714" lon="7.14745">
        <ele>305.506622</ele>
        <time>2022-10-30T16:07:04Z</time>
      </trkpt>
      <trkpt lat="47.7372" lon="7.14744">
        <ele>305.478943</ele>
        <time>2022-10-30T16:07:06Z</time>
      </trkpt>
      <trkpt lat="47.73727" lon="7.14743">
        <ele>305.446991</ele>
        <time>2022-10-30T16:07:08Z</time>
      </trkpt>
      <trkpt lat="47.73733" lon="7.14742">
        <ele>305.434204</ele>
        <time>2022-10-30T16:07:10Z</time>
      </trkpt>
      <trkpt lat="47.7374" lon="7.14741">
        <ele>305.415009</ele>
        <time>2022-10-30T16:07:12Z</time>
      </trkpt>
      <trkpt lat="47.73746" lon="7.1474">
        <ele>305.367889</ele>
        <time>2022-10-30T16:07:14Z</time>
      </trkpt>
      <trkpt lat="47.73753" lon="7.14738">
        <ele>305.353546</ele>
        <time>2022-10-30T16:07:16Z</time>
      </trkpt>
      <trkpt lat="47.7376" lon="7.14737">
        <ele>305.327942</ele>
        <time>2022-10-30T16:07:18Z</time>
      </trkpt>
      <trkpt lat="47.73767" lon="7.14736">
        <ele>305.302429</ele>
        <time>2022-10-30T16:07:20Z</time>
      </trkpt>
      <trkpt lat="47.73774" lon="7.14734">
        <ele>305.292542</ele>
        <time>2022-10-30T16:07:22Z</time>
      </trkpt>
      <trkpt lat="47.73781" lon="7.14733">
        <ele>305.24353</ele>
        <time>2022-10-30T16:07:24Z</time>
      </trkpt>
      <trkpt lat="47.73788" lon="7.14731">
        <ele>305.27121</ele>
        <time>2022-10-30T16:07:26Z</time>
      </trkpt>
      <trkpt lat="47.73795" lon="7.14729">
        <ele>305.292511</ele>
        <time>2022-10-30T16:07:28Z</time>
      </trkpt>
      <trkpt lat="47.73803" lon="7.14728">
        <ele>305.252045</ele>
        <time>2022-10-30T16:07:30Z</time>
      </trkpt>
      <trkpt lat="47.7381" lon="7.14727">
        <ele>305.249268</ele>
        <time>2022-10-30T16:07:32Z</time>
      </trkpt>
      <trkpt lat="47.73817" lon="7.14725">
        <ele>305.234344</ele>
        <time>2022-10-30T16:07:34Z</time>
      </trkpt>
      <trkpt lat="47.73824" lon="7.14724">
        <ele>305.262146</ele>
        <time>2022-10-30T16:07:36Z</time>
      </trkpt>
      <trkpt lat="47.73831" lon="7.14723">
        <ele>305.251526</ele>
        <time>2022-10-30T16:07:38Z</time>
      </trkpt>
      <trkpt lat="47.73838" lon="7.14722">
        <ele>305.234467</ele>
        <time>2022-10-30T16:07:40Z</time>
      </trkpt>
      <trkpt lat="47.73845" lon="7.14721">
        <ele>305.242981</ele>
        <time>2022-10-30T16:07:42Z</time>
      </trkpt>
      <trkpt lat="47.7385" lon="7.1472">
        <ele>305.239105</ele>
        <time>2022-10-30T16:07:44Z</time>
      </trkpt>
      <trkpt lat="47.73855" lon="7.1472">
        <ele>305.206573</ele>
        <time>2022-10-30T16:07:46Z</time>
      </trkpt>
      <trkpt lat="47.7386" lon="7.14719">
        <ele>305.195892</ele>
        <time>2022-10-30T16:07:48Z</time>
      </trkpt>
      <trkpt lat="47.73866" lon="7.14717">
        <ele>305.240631</ele>
        <time>2022-10-30T16:07:50Z</time>
      </trkpt>
      <trkpt lat="47.73869" lon="7.14717">
        <ele>305.249146</ele>
        <time>2022-10-30T16:07:52Z</time>
      </trkpt>
      <trkpt lat="47.73872" lon="7.14717">
        <ele>305.238953</ele>
        <time>2022-10-30T16:07:54Z</time>
      </trkpt>
      <trkpt lat="47.73874" lon="7.14718">
        <ele>305.231384</ele>
        <time>2022-10-30T16:07:56Z</time>
      </trkpt>
      <trkpt lat="47.73875" lon="7.14724">
        <ele>305.365784</ele>
        <time>2022-10-30T16:09:40Z</time>
      </trkpt>
      <trkpt lat="47.73879" lon="7.14728">
        <ele>305.371002</ele>
        <time>2022-10-30T16:09:42Z</time>
      </trkpt>
      <trkpt lat="47.73881" lon="7.14728">
        <ele>305.381653</ele>
        <time>2022-10-30T16:09:44Z</time>
      </trkpt>
      <trkpt lat="47.73883" lon="7.1473">
        <ele>305.402466</ele>
        <time>2022-10-30T16:09:46Z</time>
      </trkpt>
      <trkpt lat="47.73884" lon="7.14732">
        <ele>305.432281</ele>
        <time>2022-10-30T16:09:48Z</time>
      </trkpt>
      <trkpt lat="47.73885" lon="7.14735">
        <ele>305.450287</ele>
        <time>2022-10-30T16:09:50Z</time>
      </trkpt>
      <trkpt lat="47.73885" lon="7.14738">
        <ele>305.460968</ele>
        <time>2022-10-30T16:09:52Z</time>
      </trkpt>
      <trkpt lat="47.73885" lon="7.14744">
        <ele>305.469849</ele>
        <time>2022-10-30T16:09:55Z</time>
      </trkpt>
      <trkpt lat="47.73886" lon="7.14747">
        <ele>305.476868</ele>
        <time>2022-10-30T16:09:57Z</time>
      </trkpt>
      <trkpt lat="47.73888" lon="7.14751">
        <ele>305.476624</ele>
        <time>2022-10-30T16:10:00Z</time>
      </trkpt>
      <trkpt lat="47.73887" lon="7.14756">
        <ele>305.554657</ele>
        <time>2022-10-30T16:10:08Z</time>
      </trkpt>
      <trkpt lat="47.73888" lon="7.14758">
        <ele>305.571167</ele>
        <time>2022-10-30T16:10:10Z</time>
      </trkpt>
    </trkseg>
  </trk>
</gpx>